<?xml version="1.0" encoding="UTF-8" standalone="no" ?>
<gpx xmlns="http://www.topografix.com/GPX/1/1" xmlns:xsi="http://www.w3.org/2001/XMLSchema-instance" xsi:schemaLocation="http://www.topografix.com/GPX/1/1 http://www.topografix.com/GPX/1/1/gpx.xsd" version="1.1" creator="VisuGPX - https://www.visugpx.com">
  <metadata>
    <name>Deval Nore 2026</name>
    <desc><![CDATA[Trace au départ du Pic de Nore et arrivée à Villegly. Cette année la trace avait été modifiée au niveau de PRADELLES]]></desc>
  </metadata>
  <trk>
    <name><![CDATA[Deval Nore 2026]]></name>
    <extensions>
      <line xmlns="http://www.topografix.com/GPX/gpx_style/0/2">
        <color>0000FF</color>
        <opacity>1</opacity>
        <width>4</width>
          <extensions>
            <sens>1</sens>
          </extensions>
      </line>
    </extensions>
    <trkseg>
      <trkpt lat="43.42419" lon="2.46236">
        <ele>1208.5</ele>
        <time>2026-06-20T08:46:15Z</time>
      </trkpt>
      <trkpt lat="43.42421" lon="2.46229">
        <ele>1208.3</ele>
        <time>2026-06-20T08:46:16Z</time>
      </trkpt>
      <trkpt lat="43.42424" lon="2.46223">
        <ele>1208</ele>
        <time>2026-06-20T08:46:17Z</time>
      </trkpt>
      <trkpt lat="43.42427" lon="2.46216">
        <ele>1207.4</ele>
        <time>2026-06-20T08:46:18Z</time>
      </trkpt>
      <trkpt lat="43.42432" lon="2.4621">
        <ele>1206.9</ele>
        <time>2026-06-20T08:46:19Z</time>
      </trkpt>
      <trkpt lat="43.42436" lon="2.46204">
        <ele>1206.5</ele>
        <time>2026-06-20T08:46:20Z</time>
      </trkpt>
      <trkpt lat="43.4244" lon="2.46198">
        <ele>1206.1</ele>
        <time>2026-06-20T08:46:21Z</time>
      </trkpt>
      <trkpt lat="43.42449" lon="2.46185">
        <ele>1204.8</ele>
        <time>2026-06-20T08:46:23Z</time>
      </trkpt>
      <trkpt lat="43.42454" lon="2.46179">
        <ele>1203.9</ele>
        <time>2026-06-20T08:46:24Z</time>
      </trkpt>
      <trkpt lat="43.4246" lon="2.46171">
        <ele>1202.9</ele>
        <time>2026-06-20T08:46:25Z</time>
      </trkpt>
      <trkpt lat="43.42465" lon="2.46163">
        <ele>1201.8</ele>
        <time>2026-06-20T08:46:26Z</time>
      </trkpt>
      <trkpt lat="43.42471" lon="2.46155">
        <ele>1200.8</ele>
        <time>2026-06-20T08:46:27Z</time>
      </trkpt>
      <trkpt lat="43.42487" lon="2.46142">
        <ele>1198.8</ele>
        <time>2026-06-20T08:46:29Z</time>
      </trkpt>
      <trkpt lat="43.42495" lon="2.46135">
        <ele>1197.7</ele>
        <time>2026-06-20T08:46:30Z</time>
      </trkpt>
      <trkpt lat="43.42502" lon="2.46127">
        <ele>1196.7</ele>
        <time>2026-06-20T08:46:31Z</time>
      </trkpt>
      <trkpt lat="43.4251" lon="2.46118">
        <ele>1195.8</ele>
        <time>2026-06-20T08:46:32Z</time>
      </trkpt>
      <trkpt lat="43.42518" lon="2.4611">
        <ele>1194.9</ele>
        <time>2026-06-20T08:46:33Z</time>
      </trkpt>
      <trkpt lat="43.42527" lon="2.46102">
        <ele>1193.7</ele>
        <time>2026-06-20T08:46:34Z</time>
      </trkpt>
      <trkpt lat="43.42537" lon="2.46096">
        <ele>1192.6</ele>
        <time>2026-06-20T08:46:35Z</time>
      </trkpt>
      <trkpt lat="43.42547" lon="2.46091">
        <ele>1191.8</ele>
        <time>2026-06-20T08:46:36Z</time>
      </trkpt>
      <trkpt lat="43.42568" lon="2.46081">
        <ele>1190.7</ele>
        <time>2026-06-20T08:46:38Z</time>
      </trkpt>
      <trkpt lat="43.42578" lon="2.46076">
        <ele>1190</ele>
        <time>2026-06-20T08:46:39Z</time>
      </trkpt>
      <trkpt lat="43.42597" lon="2.46067">
        <ele>1188.5</ele>
        <time>2026-06-20T08:46:41Z</time>
      </trkpt>
      <trkpt lat="43.42606" lon="2.46065">
        <ele>1188</ele>
        <time>2026-06-20T08:46:42Z</time>
      </trkpt>
      <trkpt lat="43.42615" lon="2.46063">
        <ele>1187.6</ele>
        <time>2026-06-20T08:46:43Z</time>
      </trkpt>
      <trkpt lat="43.42624" lon="2.46061">
        <ele>1187.1</ele>
        <time>2026-06-20T08:46:44Z</time>
      </trkpt>
      <trkpt lat="43.42633" lon="2.46059">
        <ele>1186.6</ele>
        <time>2026-06-20T08:46:45Z</time>
      </trkpt>
      <trkpt lat="43.4264" lon="2.46056">
        <ele>1186</ele>
        <time>2026-06-20T08:46:46Z</time>
      </trkpt>
      <trkpt lat="43.42646" lon="2.46051">
        <ele>1185.3</ele>
        <time>2026-06-20T08:46:47Z</time>
      </trkpt>
      <trkpt lat="43.4265" lon="2.46045">
        <ele>1184.6</ele>
        <time>2026-06-20T08:46:48Z</time>
      </trkpt>
      <trkpt lat="43.42653" lon="2.46038">
        <ele>1183.9</ele>
        <time>2026-06-20T08:46:49Z</time>
      </trkpt>
      <trkpt lat="43.42656" lon="2.4603">
        <ele>1183.2</ele>
        <time>2026-06-20T08:46:50Z</time>
      </trkpt>
      <trkpt lat="43.42666" lon="2.46018">
        <ele>1181.9</ele>
        <time>2026-06-20T08:46:52Z</time>
      </trkpt>
      <trkpt lat="43.42672" lon="2.46014">
        <ele>1181.4</ele>
        <time>2026-06-20T08:46:53Z</time>
      </trkpt>
      <trkpt lat="43.42679" lon="2.46012">
        <ele>1181.1</ele>
        <time>2026-06-20T08:46:54Z</time>
      </trkpt>
      <trkpt lat="43.42686" lon="2.46011">
        <ele>1180.9</ele>
        <time>2026-06-20T08:46:55Z</time>
      </trkpt>
      <trkpt lat="43.42694" lon="2.46009">
        <ele>1180.7</ele>
        <time>2026-06-20T08:46:56Z</time>
      </trkpt>
      <trkpt lat="43.427" lon="2.46005">
        <ele>1180.1</ele>
        <time>2026-06-20T08:46:57Z</time>
      </trkpt>
      <trkpt lat="43.42705" lon="2.45999">
        <ele>1179.5</ele>
        <time>2026-06-20T08:46:58Z</time>
      </trkpt>
      <trkpt lat="43.42709" lon="2.45991">
        <ele>1178.7</ele>
        <time>2026-06-20T08:46:59Z</time>
      </trkpt>
      <trkpt lat="43.42715" lon="2.45985">
        <ele>1178.1</ele>
        <time>2026-06-20T08:47:00Z</time>
      </trkpt>
      <trkpt lat="43.42722" lon="2.4598">
        <ele>1177.5</ele>
        <time>2026-06-20T08:47:01Z</time>
      </trkpt>
      <trkpt lat="43.42728" lon="2.45973">
        <ele>1177</ele>
        <time>2026-06-20T08:47:02Z</time>
      </trkpt>
      <trkpt lat="43.4274" lon="2.45955">
        <ele>1175.5</ele>
        <time>2026-06-20T08:47:04Z</time>
      </trkpt>
      <trkpt lat="43.42751" lon="2.45933">
        <ele>1174.2</ele>
        <time>2026-06-20T08:47:06Z</time>
      </trkpt>
      <trkpt lat="43.42757" lon="2.45922">
        <ele>1173.4</ele>
        <time>2026-06-20T08:47:07Z</time>
      </trkpt>
      <trkpt lat="43.42768" lon="2.459">
        <ele>1171.6</ele>
        <time>2026-06-20T08:47:09Z</time>
      </trkpt>
      <trkpt lat="43.42777" lon="2.45873">
        <ele>1169.3</ele>
        <time>2026-06-20T08:47:11Z</time>
      </trkpt>
      <trkpt lat="43.42781" lon="2.4586">
        <ele>1167.9</ele>
        <time>2026-06-20T08:47:12Z</time>
      </trkpt>
      <trkpt lat="43.42782" lon="2.45845">
        <ele>1166.8</ele>
        <time>2026-06-20T08:47:13Z</time>
      </trkpt>
      <trkpt lat="43.42783" lon="2.4583">
        <ele>1165.7</ele>
        <time>2026-06-20T08:47:14Z</time>
      </trkpt>
      <trkpt lat="43.42783" lon="2.45815">
        <ele>1164.1</ele>
        <time>2026-06-20T08:47:15Z</time>
      </trkpt>
      <trkpt lat="43.42784" lon="2.458">
        <ele>1162.8</ele>
        <time>2026-06-20T08:47:16Z</time>
      </trkpt>
      <trkpt lat="43.42786" lon="2.45784">
        <ele>1161.8</ele>
        <time>2026-06-20T08:47:17Z</time>
      </trkpt>
      <trkpt lat="43.42788" lon="2.45768">
        <ele>1160.8</ele>
        <time>2026-06-20T08:47:18Z</time>
      </trkpt>
      <trkpt lat="43.4279" lon="2.45753">
        <ele>1160</ele>
        <time>2026-06-20T08:47:19Z</time>
      </trkpt>
      <trkpt lat="43.42794" lon="2.45724">
        <ele>1158.3</ele>
        <time>2026-06-20T08:47:21Z</time>
      </trkpt>
      <trkpt lat="43.42796" lon="2.45712">
        <ele>1158.3</ele>
        <time>2026-06-20T08:47:22Z</time>
      </trkpt>
      <trkpt lat="43.42797" lon="2.45703">
        <ele>1158.4</ele>
        <time>2026-06-20T08:47:23Z</time>
      </trkpt>
      <trkpt lat="43.42796" lon="2.45697">
        <ele>1158.3</ele>
        <time>2026-06-20T08:47:24Z</time>
      </trkpt>
      <trkpt lat="43.42794" lon="2.45694">
        <ele>1158.1</ele>
        <time>2026-06-20T08:47:25Z</time>
      </trkpt>
      <trkpt lat="43.42788" lon="2.45694">
        <ele>1157.8</ele>
        <time>2026-06-20T08:47:26Z</time>
      </trkpt>
      <trkpt lat="43.42782" lon="2.45696">
        <ele>1157.3</ele>
        <time>2026-06-20T08:47:27Z</time>
      </trkpt>
      <trkpt lat="43.42777" lon="2.45696">
        <ele>1156.8</ele>
        <time>2026-06-20T08:47:28Z</time>
      </trkpt>
      <trkpt lat="43.42772" lon="2.45694">
        <ele>1155.6</ele>
        <time>2026-06-20T08:47:29Z</time>
      </trkpt>
      <trkpt lat="43.42767" lon="2.45689">
        <ele>1154.6</ele>
        <time>2026-06-20T08:47:30Z</time>
      </trkpt>
      <trkpt lat="43.42764" lon="2.45685">
        <ele>1154</ele>
        <time>2026-06-20T08:47:31Z</time>
      </trkpt>
      <trkpt lat="43.4276" lon="2.45683">
        <ele>1153.3</ele>
        <time>2026-06-20T08:47:32Z</time>
      </trkpt>
      <trkpt lat="43.42757" lon="2.45683">
        <ele>1152.7</ele>
        <time>2026-06-20T08:47:33Z</time>
      </trkpt>
      <trkpt lat="43.42753" lon="2.45681">
        <ele>1152</ele>
        <time>2026-06-20T08:47:34Z</time>
      </trkpt>
      <trkpt lat="43.42748" lon="2.45678">
        <ele>1151.3</ele>
        <time>2026-06-20T08:47:35Z</time>
      </trkpt>
      <trkpt lat="43.42743" lon="2.45674">
        <ele>1150.7</ele>
        <time>2026-06-20T08:47:36Z</time>
      </trkpt>
      <trkpt lat="43.4274" lon="2.45668">
        <ele>1150.5</ele>
        <time>2026-06-20T08:47:37Z</time>
      </trkpt>
      <trkpt lat="43.42733" lon="2.45656">
        <ele>1150.1</ele>
        <time>2026-06-20T08:47:39Z</time>
      </trkpt>
      <trkpt lat="43.42728" lon="2.45645">
        <ele>1150.3</ele>
        <time>2026-06-20T08:47:41Z</time>
      </trkpt>
      <trkpt lat="43.42727" lon="2.45638">
        <ele>1150.5</ele>
        <time>2026-06-20T08:47:42Z</time>
      </trkpt>
      <trkpt lat="43.42725" lon="2.45633">
        <ele>1150.1</ele>
        <time>2026-06-20T08:47:43Z</time>
      </trkpt>
      <trkpt lat="43.42723" lon="2.45628">
        <ele>1149.7</ele>
        <time>2026-06-20T08:47:44Z</time>
      </trkpt>
      <trkpt lat="43.42721" lon="2.45624">
        <ele>1149.2</ele>
        <time>2026-06-20T08:47:45Z</time>
      </trkpt>
      <trkpt lat="43.4272" lon="2.4562">
        <ele>1148.9</ele>
        <time>2026-06-20T08:47:46Z</time>
      </trkpt>
      <trkpt lat="43.42722" lon="2.45614">
        <ele>1149</ele>
        <time>2026-06-20T08:47:47Z</time>
      </trkpt>
      <trkpt lat="43.42722" lon="2.45608">
        <ele>1148.7</ele>
        <time>2026-06-20T08:47:48Z</time>
      </trkpt>
      <trkpt lat="43.42722" lon="2.456">
        <ele>1148.2</ele>
        <time>2026-06-20T08:47:49Z</time>
      </trkpt>
      <trkpt lat="43.42723" lon="2.45592">
        <ele>1147.8</ele>
        <time>2026-06-20T08:47:50Z</time>
      </trkpt>
      <trkpt lat="43.42724" lon="2.45585">
        <ele>1147.4</ele>
        <time>2026-06-20T08:47:51Z</time>
      </trkpt>
      <trkpt lat="43.42724" lon="2.45579">
        <ele>1147</ele>
        <time>2026-06-20T08:47:52Z</time>
      </trkpt>
      <trkpt lat="43.42722" lon="2.45573">
        <ele>1146.3</ele>
        <time>2026-06-20T08:47:53Z</time>
      </trkpt>
      <trkpt lat="43.4272" lon="2.45568">
        <ele>1145.4</ele>
        <time>2026-06-20T08:47:54Z</time>
      </trkpt>
      <trkpt lat="43.42719" lon="2.45562">
        <ele>1144.6</ele>
        <time>2026-06-20T08:47:55Z</time>
      </trkpt>
      <trkpt lat="43.42717" lon="2.45554">
        <ele>1143.8</ele>
        <time>2026-06-20T08:47:56Z</time>
      </trkpt>
      <trkpt lat="43.42716" lon="2.45546">
        <ele>1143.3</ele>
        <time>2026-06-20T08:47:57Z</time>
      </trkpt>
      <trkpt lat="43.42714" lon="2.45539">
        <ele>1142.4</ele>
        <time>2026-06-20T08:47:58Z</time>
      </trkpt>
      <trkpt lat="43.4271" lon="2.45532">
        <ele>1141.1</ele>
        <time>2026-06-20T08:47:59Z</time>
      </trkpt>
      <trkpt lat="43.42708" lon="2.45524">
        <ele>1140.2</ele>
        <time>2026-06-20T08:48:00Z</time>
      </trkpt>
      <trkpt lat="43.42707" lon="2.45515">
        <ele>1139.5</ele>
        <time>2026-06-20T08:48:01Z</time>
      </trkpt>
      <trkpt lat="43.42706" lon="2.45507">
        <ele>1138.8</ele>
        <time>2026-06-20T08:48:02Z</time>
      </trkpt>
      <trkpt lat="43.42706" lon="2.45501">
        <ele>1138.4</ele>
        <time>2026-06-20T08:48:03Z</time>
      </trkpt>
      <trkpt lat="43.42705" lon="2.45484">
        <ele>1137.5</ele>
        <time>2026-06-20T08:48:05Z</time>
      </trkpt>
      <trkpt lat="43.42704" lon="2.45468">
        <ele>1136.5</ele>
        <time>2026-06-20T08:48:07Z</time>
      </trkpt>
      <trkpt lat="43.42705" lon="2.4546">
        <ele>1136.2</ele>
        <time>2026-06-20T08:48:08Z</time>
      </trkpt>
      <trkpt lat="43.42704" lon="2.4545">
        <ele>1135.6</ele>
        <time>2026-06-20T08:48:09Z</time>
      </trkpt>
      <trkpt lat="43.42701" lon="2.45441">
        <ele>1134.8</ele>
        <time>2026-06-20T08:48:10Z</time>
      </trkpt>
      <trkpt lat="43.42697" lon="2.45432">
        <ele>1134.2</ele>
        <time>2026-06-20T08:48:11Z</time>
      </trkpt>
      <trkpt lat="43.42692" lon="2.45426">
        <ele>1133.5</ele>
        <time>2026-06-20T08:48:12Z</time>
      </trkpt>
      <trkpt lat="43.42688" lon="2.45419">
        <ele>1132.9</ele>
        <time>2026-06-20T08:48:13Z</time>
      </trkpt>
      <trkpt lat="43.42685" lon="2.45412">
        <ele>1132.2</ele>
        <time>2026-06-20T08:48:14Z</time>
      </trkpt>
      <trkpt lat="43.42682" lon="2.45406">
        <ele>1131.5</ele>
        <time>2026-06-20T08:48:15Z</time>
      </trkpt>
      <trkpt lat="43.42679" lon="2.454">
        <ele>1130.9</ele>
        <time>2026-06-20T08:48:16Z</time>
      </trkpt>
      <trkpt lat="43.42677" lon="2.45391">
        <ele>1130.5</ele>
        <time>2026-06-20T08:48:17Z</time>
      </trkpt>
      <trkpt lat="43.42674" lon="2.45375">
        <ele>1129.4</ele>
        <time>2026-06-20T08:48:19Z</time>
      </trkpt>
      <trkpt lat="43.42671" lon="2.45368">
        <ele>1128.8</ele>
        <time>2026-06-20T08:48:20Z</time>
      </trkpt>
      <trkpt lat="43.42669" lon="2.45361">
        <ele>1128.2</ele>
        <time>2026-06-20T08:48:21Z</time>
      </trkpt>
      <trkpt lat="43.42667" lon="2.45352">
        <ele>1127.4</ele>
        <time>2026-06-20T08:48:22Z</time>
      </trkpt>
      <trkpt lat="43.42665" lon="2.45344">
        <ele>1126.6</ele>
        <time>2026-06-20T08:48:23Z</time>
      </trkpt>
      <trkpt lat="43.42666" lon="2.45337">
        <ele>1126.2</ele>
        <time>2026-06-20T08:48:24Z</time>
      </trkpt>
      <trkpt lat="43.42668" lon="2.45331">
        <ele>1125.9</ele>
        <time>2026-06-20T08:48:25Z</time>
      </trkpt>
      <trkpt lat="43.4267" lon="2.45324">
        <ele>1125.6</ele>
        <time>2026-06-20T08:48:26Z</time>
      </trkpt>
      <trkpt lat="43.42671" lon="2.45316">
        <ele>1125.1</ele>
        <time>2026-06-20T08:48:27Z</time>
      </trkpt>
      <trkpt lat="43.42671" lon="2.45312">
        <ele>1124.8</ele>
        <time>2026-06-20T08:48:28Z</time>
      </trkpt>
      <trkpt lat="43.4267" lon="2.45308">
        <ele>1124.4</ele>
        <time>2026-06-20T08:48:29Z</time>
      </trkpt>
      <trkpt lat="43.42669" lon="2.45301">
        <ele>1124</ele>
        <time>2026-06-20T08:48:30Z</time>
      </trkpt>
      <trkpt lat="43.42669" lon="2.45296">
        <ele>1123.8</ele>
        <time>2026-06-20T08:48:31Z</time>
      </trkpt>
      <trkpt lat="43.4267" lon="2.4529">
        <ele>1123.6</ele>
        <time>2026-06-20T08:48:32Z</time>
      </trkpt>
      <trkpt lat="43.4267" lon="2.45279">
        <ele>1123.2</ele>
        <time>2026-06-20T08:48:34Z</time>
      </trkpt>
      <trkpt lat="43.4267" lon="2.45274">
        <ele>1122.9</ele>
        <time>2026-06-20T08:48:35Z</time>
      </trkpt>
      <trkpt lat="43.42671" lon="2.45269">
        <ele>1122.5</ele>
        <time>2026-06-20T08:48:36Z</time>
      </trkpt>
      <trkpt lat="43.42671" lon="2.45263">
        <ele>1122.2</ele>
        <time>2026-06-20T08:48:37Z</time>
      </trkpt>
      <trkpt lat="43.42669" lon="2.45257">
        <ele>1121.7</ele>
        <time>2026-06-20T08:48:38Z</time>
      </trkpt>
      <trkpt lat="43.42667" lon="2.45249">
        <ele>1121</ele>
        <time>2026-06-20T08:48:39Z</time>
      </trkpt>
      <trkpt lat="43.42666" lon="2.4524">
        <ele>1119.9</ele>
        <time>2026-06-20T08:48:40Z</time>
      </trkpt>
      <trkpt lat="43.42663" lon="2.45223">
        <ele>1117.9</ele>
        <time>2026-06-20T08:48:42Z</time>
      </trkpt>
      <trkpt lat="43.42659" lon="2.45219">
        <ele>1117.3</ele>
        <time>2026-06-20T08:48:43Z</time>
      </trkpt>
      <trkpt lat="43.42656" lon="2.45217">
        <ele>1116.9</ele>
        <time>2026-06-20T08:48:44Z</time>
      </trkpt>
      <trkpt lat="43.42653" lon="2.45215">
        <ele>1116.6</ele>
        <time>2026-06-20T08:48:45Z</time>
      </trkpt>
      <trkpt lat="43.4265" lon="2.45211">
        <ele>1116.1</ele>
        <time>2026-06-20T08:48:46Z</time>
      </trkpt>
      <trkpt lat="43.42646" lon="2.45208">
        <ele>1115.6</ele>
        <time>2026-06-20T08:48:47Z</time>
      </trkpt>
      <trkpt lat="43.42642" lon="2.45205">
        <ele>1115.1</ele>
        <time>2026-06-20T08:48:48Z</time>
      </trkpt>
      <trkpt lat="43.42639" lon="2.45202">
        <ele>1114.5</ele>
        <time>2026-06-20T08:48:49Z</time>
      </trkpt>
      <trkpt lat="43.42635" lon="2.45196">
        <ele>1113.8</ele>
        <time>2026-06-20T08:48:50Z</time>
      </trkpt>
      <trkpt lat="43.42632" lon="2.45188">
        <ele>1113.3</ele>
        <time>2026-06-20T08:48:51Z</time>
      </trkpt>
      <trkpt lat="43.42629" lon="2.45177">
        <ele>1112.7</ele>
        <time>2026-06-20T08:48:52Z</time>
      </trkpt>
      <trkpt lat="43.42624" lon="2.4517">
        <ele>1112</ele>
        <time>2026-06-20T08:48:53Z</time>
      </trkpt>
      <trkpt lat="43.42618" lon="2.45166">
        <ele>1111.4</ele>
        <time>2026-06-20T08:48:54Z</time>
      </trkpt>
      <trkpt lat="43.42616" lon="2.45163">
        <ele>1111.1</ele>
        <time>2026-06-20T08:48:55Z</time>
      </trkpt>
      <trkpt lat="43.42616" lon="2.45161">
        <ele>1111</ele>
        <time>2026-06-20T08:48:56Z</time>
      </trkpt>
      <trkpt lat="43.42615" lon="2.45158">
        <ele>1110.7</ele>
        <time>2026-06-20T08:48:57Z</time>
      </trkpt>
      <trkpt lat="43.42611" lon="2.45152">
        <ele>1109.9</ele>
        <time>2026-06-20T08:48:58Z</time>
      </trkpt>
      <trkpt lat="43.42609" lon="2.45148">
        <ele>1109.5</ele>
        <time>2026-06-20T08:48:59Z</time>
      </trkpt>
      <trkpt lat="43.42606" lon="2.45147">
        <ele>1109.1</ele>
        <time>2026-06-20T08:49:00Z</time>
      </trkpt>
      <trkpt lat="43.42599" lon="2.45146">
        <ele>1108.4</ele>
        <time>2026-06-20T08:49:02Z</time>
      </trkpt>
      <trkpt lat="43.42595" lon="2.45145">
        <ele>1108</ele>
        <time>2026-06-20T08:49:03Z</time>
      </trkpt>
      <trkpt lat="43.42591" lon="2.45143">
        <ele>1107.6</ele>
        <time>2026-06-20T08:49:04Z</time>
      </trkpt>
      <trkpt lat="43.42576" lon="2.45143">
        <ele>1106.2</ele>
        <time>2026-06-20T08:49:07Z</time>
      </trkpt>
      <trkpt lat="43.42573" lon="2.45143">
        <ele>1105.9</ele>
        <time>2026-06-20T08:49:08Z</time>
      </trkpt>
      <trkpt lat="43.42571" lon="2.45142">
        <ele>1105.6</ele>
        <time>2026-06-20T08:49:09Z</time>
      </trkpt>
      <trkpt lat="43.42568" lon="2.4514">
        <ele>1105.4</ele>
        <time>2026-06-20T08:49:10Z</time>
      </trkpt>
      <trkpt lat="43.42564" lon="2.45136">
        <ele>1104.9</ele>
        <time>2026-06-20T08:49:11Z</time>
      </trkpt>
      <trkpt lat="43.4256" lon="2.45132">
        <ele>1104.4</ele>
        <time>2026-06-20T08:49:12Z</time>
      </trkpt>
      <trkpt lat="43.42541" lon="2.45117">
        <ele>1102.3</ele>
        <time>2026-06-20T08:49:15Z</time>
      </trkpt>
      <trkpt lat="43.42529" lon="2.45107">
        <ele>1101.3</ele>
        <time>2026-06-20T08:49:17Z</time>
      </trkpt>
      <trkpt lat="43.42525" lon="2.45102">
        <ele>1101</ele>
        <time>2026-06-20T08:49:18Z</time>
      </trkpt>
      <trkpt lat="43.42519" lon="2.45097">
        <ele>1100.7</ele>
        <time>2026-06-20T08:49:19Z</time>
      </trkpt>
      <trkpt lat="43.42515" lon="2.45094">
        <ele>1100.6</ele>
        <time>2026-06-20T08:49:20Z</time>
      </trkpt>
      <trkpt lat="43.42514" lon="2.4509">
        <ele>1100.6</ele>
        <time>2026-06-20T08:49:21Z</time>
      </trkpt>
      <trkpt lat="43.42513" lon="2.45086">
        <ele>1100.8</ele>
        <time>2026-06-20T08:49:22Z</time>
      </trkpt>
      <trkpt lat="43.42509" lon="2.45083">
        <ele>1100.7</ele>
        <time>2026-06-20T08:49:23Z</time>
      </trkpt>
      <trkpt lat="43.42506" lon="2.45079">
        <ele>1100.5</ele>
        <time>2026-06-20T08:49:24Z</time>
      </trkpt>
      <trkpt lat="43.42503" lon="2.45076">
        <ele>1100.5</ele>
        <time>2026-06-20T08:49:25Z</time>
      </trkpt>
      <trkpt lat="43.42498" lon="2.45071">
        <ele>1100.3</ele>
        <time>2026-06-20T08:49:26Z</time>
      </trkpt>
      <trkpt lat="43.42481" lon="2.45057">
        <ele>1100.3</ele>
        <time>2026-06-20T08:49:29Z</time>
      </trkpt>
      <trkpt lat="43.4248" lon="2.45052">
        <ele>1100.4</ele>
        <time>2026-06-20T08:49:30Z</time>
      </trkpt>
      <trkpt lat="43.42478" lon="2.45045">
        <ele>1100.6</ele>
        <time>2026-06-20T08:49:31Z</time>
      </trkpt>
      <trkpt lat="43.42478" lon="2.4504">
        <ele>1100.8</ele>
        <time>2026-06-20T08:49:32Z</time>
      </trkpt>
      <trkpt lat="43.42478" lon="2.45035">
        <ele>1100.9</ele>
        <time>2026-06-20T08:49:33Z</time>
      </trkpt>
      <trkpt lat="43.42477" lon="2.45029">
        <ele>1101.1</ele>
        <time>2026-06-20T08:49:34Z</time>
      </trkpt>
      <trkpt lat="43.42474" lon="2.45021">
        <ele>1101.3</ele>
        <time>2026-06-20T08:49:35Z</time>
      </trkpt>
      <trkpt lat="43.42473" lon="2.45014">
        <ele>1101.5</ele>
        <time>2026-06-20T08:49:36Z</time>
      </trkpt>
      <trkpt lat="43.42471" lon="2.45001">
        <ele>1101.9</ele>
        <time>2026-06-20T08:49:38Z</time>
      </trkpt>
      <trkpt lat="43.42467" lon="2.44998">
        <ele>1101.9</ele>
        <time>2026-06-20T08:49:39Z</time>
      </trkpt>
      <trkpt lat="43.42456" lon="2.44992">
        <ele>1101.7</ele>
        <time>2026-06-20T08:49:41Z</time>
      </trkpt>
      <trkpt lat="43.4245" lon="2.44989">
        <ele>1101.6</ele>
        <time>2026-06-20T08:49:42Z</time>
      </trkpt>
      <trkpt lat="43.42438" lon="2.44982">
        <ele>1101.4</ele>
        <time>2026-06-20T08:49:44Z</time>
      </trkpt>
      <trkpt lat="43.42428" lon="2.44973">
        <ele>1101.4</ele>
        <time>2026-06-20T08:49:46Z</time>
      </trkpt>
      <trkpt lat="43.42425" lon="2.44966">
        <ele>1101.5</ele>
        <time>2026-06-20T08:49:47Z</time>
      </trkpt>
      <trkpt lat="43.42424" lon="2.44958">
        <ele>1101.8</ele>
        <time>2026-06-20T08:49:48Z</time>
      </trkpt>
      <trkpt lat="43.42423" lon="2.4495">
        <ele>1102</ele>
        <time>2026-06-20T08:49:49Z</time>
      </trkpt>
      <trkpt lat="43.42421" lon="2.44942">
        <ele>1102.3</ele>
        <time>2026-06-20T08:49:50Z</time>
      </trkpt>
      <trkpt lat="43.4242" lon="2.44934">
        <ele>1102.5</ele>
        <time>2026-06-20T08:49:51Z</time>
      </trkpt>
      <trkpt lat="43.42417" lon="2.44918">
        <ele>1103</ele>
        <time>2026-06-20T08:49:53Z</time>
      </trkpt>
      <trkpt lat="43.42415" lon="2.44902">
        <ele>1102.8</ele>
        <time>2026-06-20T08:49:55Z</time>
      </trkpt>
      <trkpt lat="43.42413" lon="2.44894">
        <ele>1102.7</ele>
        <time>2026-06-20T08:49:56Z</time>
      </trkpt>
      <trkpt lat="43.42409" lon="2.44871">
        <ele>1102.4</ele>
        <time>2026-06-20T08:49:59Z</time>
      </trkpt>
      <trkpt lat="43.42407" lon="2.44863">
        <ele>1102.3</ele>
        <time>2026-06-20T08:50:00Z</time>
      </trkpt>
      <trkpt lat="43.42405" lon="2.44856">
        <ele>1102.2</ele>
        <time>2026-06-20T08:50:01Z</time>
      </trkpt>
      <trkpt lat="43.42401" lon="2.44842">
        <ele>1102.3</ele>
        <time>2026-06-20T08:50:03Z</time>
      </trkpt>
      <trkpt lat="43.42398" lon="2.44835">
        <ele>1102.3</ele>
        <time>2026-06-20T08:50:04Z</time>
      </trkpt>
      <trkpt lat="43.42396" lon="2.44828">
        <ele>1102.3</ele>
        <time>2026-06-20T08:50:05Z</time>
      </trkpt>
      <trkpt lat="43.42394" lon="2.44821">
        <ele>1102.2</ele>
        <time>2026-06-20T08:50:06Z</time>
      </trkpt>
      <trkpt lat="43.42391" lon="2.44814">
        <ele>1102.1</ele>
        <time>2026-06-20T08:50:07Z</time>
      </trkpt>
      <trkpt lat="43.42389" lon="2.44807">
        <ele>1102</ele>
        <time>2026-06-20T08:50:08Z</time>
      </trkpt>
      <trkpt lat="43.42375" lon="2.44765">
        <ele>1103.7</ele>
        <time>2026-06-20T08:50:14Z</time>
      </trkpt>
      <trkpt lat="43.42371" lon="2.44751">
        <ele>1103.7</ele>
        <time>2026-06-20T08:50:16Z</time>
      </trkpt>
      <trkpt lat="43.4237" lon="2.44743">
        <ele>1103.4</ele>
        <time>2026-06-20T08:50:17Z</time>
      </trkpt>
      <trkpt lat="43.42371" lon="2.44735">
        <ele>1103.2</ele>
        <time>2026-06-20T08:50:18Z</time>
      </trkpt>
      <trkpt lat="43.42373" lon="2.44728">
        <ele>1103</ele>
        <time>2026-06-20T08:50:19Z</time>
      </trkpt>
      <trkpt lat="43.42376" lon="2.44722">
        <ele>1103</ele>
        <time>2026-06-20T08:50:20Z</time>
      </trkpt>
      <trkpt lat="43.42379" lon="2.44717">
        <ele>1103</ele>
        <time>2026-06-20T08:50:21Z</time>
      </trkpt>
      <trkpt lat="43.42383" lon="2.44709">
        <ele>1102.7</ele>
        <time>2026-06-20T08:50:22Z</time>
      </trkpt>
      <trkpt lat="43.42387" lon="2.44703">
        <ele>1102.5</ele>
        <time>2026-06-20T08:50:23Z</time>
      </trkpt>
      <trkpt lat="43.42419" lon="2.44652">
        <ele>1101.5</ele>
        <time>2026-06-20T08:50:31Z</time>
      </trkpt>
      <trkpt lat="43.42434" lon="2.44635">
        <ele>1101</ele>
        <time>2026-06-20T08:50:34Z</time>
      </trkpt>
      <trkpt lat="43.42439" lon="2.44623">
        <ele>1101</ele>
        <time>2026-06-20T08:50:36Z</time>
      </trkpt>
      <trkpt lat="43.42439" lon="2.44617">
        <ele>1101</ele>
        <time>2026-06-20T08:50:37Z</time>
      </trkpt>
      <trkpt lat="43.42437" lon="2.44614">
        <ele>1101</ele>
        <time>2026-06-20T08:50:38Z</time>
      </trkpt>
      <trkpt lat="43.42435" lon="2.44612">
        <ele>1101</ele>
        <time>2026-06-20T08:50:39Z</time>
      </trkpt>
      <trkpt lat="43.42434" lon="2.44609">
        <ele>1101</ele>
        <time>2026-06-20T08:50:40Z</time>
      </trkpt>
      <trkpt lat="43.42433" lon="2.44606">
        <ele>1100.9</ele>
        <time>2026-06-20T08:50:41Z</time>
      </trkpt>
      <trkpt lat="43.42428" lon="2.44592">
        <ele>1100.7</ele>
        <time>2026-06-20T08:50:44Z</time>
      </trkpt>
      <trkpt lat="43.42425" lon="2.44588">
        <ele>1100.7</ele>
        <time>2026-06-20T08:50:45Z</time>
      </trkpt>
      <trkpt lat="43.42423" lon="2.44585">
        <ele>1100.8</ele>
        <time>2026-06-20T08:50:46Z</time>
      </trkpt>
      <trkpt lat="43.42421" lon="2.4458">
        <ele>1100.6</ele>
        <time>2026-06-20T08:50:47Z</time>
      </trkpt>
      <trkpt lat="43.42424" lon="2.44571">
        <ele>1099.9</ele>
        <time>2026-06-20T08:50:49Z</time>
      </trkpt>
      <trkpt lat="43.42427" lon="2.44566">
        <ele>1099.6</ele>
        <time>2026-06-20T08:50:50Z</time>
      </trkpt>
      <trkpt lat="43.42431" lon="2.4456">
        <ele>1099.3</ele>
        <time>2026-06-20T08:50:52Z</time>
      </trkpt>
      <trkpt lat="43.42431" lon="2.4456">
        <ele>1099.3</ele>
        <time>2026-06-20T08:50:53Z</time>
      </trkpt>
      <trkpt lat="43.42431" lon="2.4456">
        <ele>1099.3</ele>
        <time>2026-06-20T08:50:54Z</time>
      </trkpt>
      <trkpt lat="43.42436" lon="2.44555">
        <ele>1098.9</ele>
        <time>2026-06-20T08:50:58Z</time>
      </trkpt>
      <trkpt lat="43.42442" lon="2.44553">
        <ele>1098.8</ele>
        <time>2026-06-20T08:51:00Z</time>
      </trkpt>
      <trkpt lat="43.42445" lon="2.44552">
        <ele>1098.7</ele>
        <time>2026-06-20T08:51:01Z</time>
      </trkpt>
      <trkpt lat="43.42448" lon="2.44551">
        <ele>1098.5</ele>
        <time>2026-06-20T08:51:02Z</time>
      </trkpt>
      <trkpt lat="43.4245" lon="2.4455">
        <ele>1098.4</ele>
        <time>2026-06-20T08:51:03Z</time>
      </trkpt>
      <trkpt lat="43.42452" lon="2.44549">
        <ele>1098.2</ele>
        <time>2026-06-20T08:51:04Z</time>
      </trkpt>
      <trkpt lat="43.42454" lon="2.44546">
        <ele>1097.9</ele>
        <time>2026-06-20T08:51:05Z</time>
      </trkpt>
      <trkpt lat="43.42453" lon="2.44538">
        <ele>1097.2</ele>
        <time>2026-06-20T08:51:07Z</time>
      </trkpt>
      <trkpt lat="43.42451" lon="2.44531">
        <ele>1096.8</ele>
        <time>2026-06-20T08:51:08Z</time>
      </trkpt>
      <trkpt lat="43.42446" lon="2.44518">
        <ele>1095.4</ele>
        <time>2026-06-20T08:51:10Z</time>
      </trkpt>
      <trkpt lat="43.42446" lon="2.44511">
        <ele>1094.6</ele>
        <time>2026-06-20T08:51:11Z</time>
      </trkpt>
      <trkpt lat="43.42446" lon="2.44505">
        <ele>1093.7</ele>
        <time>2026-06-20T08:51:12Z</time>
      </trkpt>
      <trkpt lat="43.42448" lon="2.44499">
        <ele>1092.7</ele>
        <time>2026-06-20T08:51:13Z</time>
      </trkpt>
      <trkpt lat="43.4245" lon="2.44491">
        <ele>1091.5</ele>
        <time>2026-06-20T08:51:14Z</time>
      </trkpt>
      <trkpt lat="43.42452" lon="2.44484">
        <ele>1090.4</ele>
        <time>2026-06-20T08:51:15Z</time>
      </trkpt>
      <trkpt lat="43.42455" lon="2.44478">
        <ele>1089.5</ele>
        <time>2026-06-20T08:51:16Z</time>
      </trkpt>
      <trkpt lat="43.42458" lon="2.44473">
        <ele>1088.6</ele>
        <time>2026-06-20T08:51:17Z</time>
      </trkpt>
      <trkpt lat="43.42463" lon="2.44469">
        <ele>1087.8</ele>
        <time>2026-06-20T08:51:18Z</time>
      </trkpt>
      <trkpt lat="43.42468" lon="2.44466">
        <ele>1087.1</ele>
        <time>2026-06-20T08:51:19Z</time>
      </trkpt>
      <trkpt lat="43.42479" lon="2.44459">
        <ele>1085.9</ele>
        <time>2026-06-20T08:51:21Z</time>
      </trkpt>
      <trkpt lat="43.42482" lon="2.44456">
        <ele>1085.3</ele>
        <time>2026-06-20T08:51:22Z</time>
      </trkpt>
      <trkpt lat="43.42486" lon="2.44451">
        <ele>1084.5</ele>
        <time>2026-06-20T08:51:23Z</time>
      </trkpt>
      <trkpt lat="43.42486" lon="2.44446">
        <ele>1083.7</ele>
        <time>2026-06-20T08:51:24Z</time>
      </trkpt>
      <trkpt lat="43.42484" lon="2.44439">
        <ele>1082.6</ele>
        <time>2026-06-20T08:51:25Z</time>
      </trkpt>
      <trkpt lat="43.42482" lon="2.44434">
        <ele>1081.7</ele>
        <time>2026-06-20T08:51:26Z</time>
      </trkpt>
      <trkpt lat="43.42479" lon="2.44429">
        <ele>1081</ele>
        <time>2026-06-20T08:51:27Z</time>
      </trkpt>
      <trkpt lat="43.42475" lon="2.44425">
        <ele>1080.4</ele>
        <time>2026-06-20T08:51:28Z</time>
      </trkpt>
      <trkpt lat="43.42469" lon="2.4442">
        <ele>1079.7</ele>
        <time>2026-06-20T08:51:29Z</time>
      </trkpt>
      <trkpt lat="43.42465" lon="2.44415">
        <ele>1078.7</ele>
        <time>2026-06-20T08:51:30Z</time>
      </trkpt>
      <trkpt lat="43.42463" lon="2.44409">
        <ele>1077.7</ele>
        <time>2026-06-20T08:51:31Z</time>
      </trkpt>
      <trkpt lat="43.42459" lon="2.44402">
        <ele>1076.6</ele>
        <time>2026-06-20T08:51:32Z</time>
      </trkpt>
      <trkpt lat="43.42455" lon="2.44397">
        <ele>1075.9</ele>
        <time>2026-06-20T08:51:33Z</time>
      </trkpt>
      <trkpt lat="43.4245" lon="2.44396">
        <ele>1075.8</ele>
        <time>2026-06-20T08:51:34Z</time>
      </trkpt>
      <trkpt lat="43.42446" lon="2.44397">
        <ele>1076.1</ele>
        <time>2026-06-20T08:51:35Z</time>
      </trkpt>
      <trkpt lat="43.42445" lon="2.44397">
        <ele>1076.1</ele>
        <time>2026-06-20T08:51:36Z</time>
      </trkpt>
      <trkpt lat="43.42445" lon="2.44397">
        <ele>1076.1</ele>
        <time>2026-06-20T08:51:37Z</time>
      </trkpt>
      <trkpt lat="43.42444" lon="2.44397">
        <ele>1076.2</ele>
        <time>2026-06-20T08:51:38Z</time>
      </trkpt>
      <trkpt lat="43.42443" lon="2.44397">
        <ele>1076.2</ele>
        <time>2026-06-20T08:51:39Z</time>
      </trkpt>
      <trkpt lat="43.42442" lon="2.44396">
        <ele>1076</ele>
        <time>2026-06-20T08:51:40Z</time>
      </trkpt>
      <trkpt lat="43.4244" lon="2.44392">
        <ele>1075.5</ele>
        <time>2026-06-20T08:51:41Z</time>
      </trkpt>
      <trkpt lat="43.42435" lon="2.44386">
        <ele>1074.5</ele>
        <time>2026-06-20T08:51:43Z</time>
      </trkpt>
      <trkpt lat="43.4243" lon="2.44385">
        <ele>1074.2</ele>
        <time>2026-06-20T08:51:44Z</time>
      </trkpt>
      <trkpt lat="43.42424" lon="2.44382">
        <ele>1073.8</ele>
        <time>2026-06-20T08:51:45Z</time>
      </trkpt>
      <trkpt lat="43.42419" lon="2.44379">
        <ele>1073.3</ele>
        <time>2026-06-20T08:51:46Z</time>
      </trkpt>
      <trkpt lat="43.42417" lon="2.44375">
        <ele>1072.5</ele>
        <time>2026-06-20T08:51:47Z</time>
      </trkpt>
      <trkpt lat="43.42416" lon="2.4437">
        <ele>1071.7</ele>
        <time>2026-06-20T08:51:48Z</time>
      </trkpt>
      <trkpt lat="43.42413" lon="2.44366">
        <ele>1070.9</ele>
        <time>2026-06-20T08:51:49Z</time>
      </trkpt>
      <trkpt lat="43.4241" lon="2.44362">
        <ele>1070.2</ele>
        <time>2026-06-20T08:51:50Z</time>
      </trkpt>
      <trkpt lat="43.42408" lon="2.44358">
        <ele>1069.5</ele>
        <time>2026-06-20T08:51:51Z</time>
      </trkpt>
      <trkpt lat="43.42405" lon="2.44348">
        <ele>1067.9</ele>
        <time>2026-06-20T08:51:53Z</time>
      </trkpt>
      <trkpt lat="43.42403" lon="2.44342">
        <ele>1067</ele>
        <time>2026-06-20T08:51:54Z</time>
      </trkpt>
      <trkpt lat="43.42403" lon="2.44337">
        <ele>1066.1</ele>
        <time>2026-06-20T08:51:55Z</time>
      </trkpt>
      <trkpt lat="43.42402" lon="2.4433">
        <ele>1064.9</ele>
        <time>2026-06-20T08:51:56Z</time>
      </trkpt>
      <trkpt lat="43.42401" lon="2.44314">
        <ele>1062.3</ele>
        <time>2026-06-20T08:51:58Z</time>
      </trkpt>
      <trkpt lat="43.42403" lon="2.44307">
        <ele>1061.2</ele>
        <time>2026-06-20T08:51:59Z</time>
      </trkpt>
      <trkpt lat="43.42406" lon="2.44303">
        <ele>1060.5</ele>
        <time>2026-06-20T08:52:00Z</time>
      </trkpt>
      <trkpt lat="43.4241" lon="2.44298">
        <ele>1059.7</ele>
        <time>2026-06-20T08:52:01Z</time>
      </trkpt>
      <trkpt lat="43.4241" lon="2.44293">
        <ele>1058.8</ele>
        <time>2026-06-20T08:52:02Z</time>
      </trkpt>
      <trkpt lat="43.42404" lon="2.44281">
        <ele>1056.6</ele>
        <time>2026-06-20T08:52:04Z</time>
      </trkpt>
      <trkpt lat="43.42399" lon="2.44275">
        <ele>1055.5</ele>
        <time>2026-06-20T08:52:05Z</time>
      </trkpt>
      <trkpt lat="43.42392" lon="2.44271">
        <ele>1054.8</ele>
        <time>2026-06-20T08:52:06Z</time>
      </trkpt>
      <trkpt lat="43.42385" lon="2.44269">
        <ele>1054.3</ele>
        <time>2026-06-20T08:52:07Z</time>
      </trkpt>
      <trkpt lat="43.42379" lon="2.44268">
        <ele>1053.9</ele>
        <time>2026-06-20T08:52:08Z</time>
      </trkpt>
      <trkpt lat="43.42373" lon="2.44264">
        <ele>1053.2</ele>
        <time>2026-06-20T08:52:09Z</time>
      </trkpt>
      <trkpt lat="43.42369" lon="2.44258">
        <ele>1052.3</ele>
        <time>2026-06-20T08:52:10Z</time>
      </trkpt>
      <trkpt lat="43.42362" lon="2.44253">
        <ele>1051.5</ele>
        <time>2026-06-20T08:52:11Z</time>
      </trkpt>
      <trkpt lat="43.42356" lon="2.44248">
        <ele>1050.3</ele>
        <time>2026-06-20T08:52:12Z</time>
      </trkpt>
      <trkpt lat="43.42342" lon="2.44236">
        <ele>1047.4</ele>
        <time>2026-06-20T08:52:14Z</time>
      </trkpt>
      <trkpt lat="43.42335" lon="2.4423">
        <ele>1046.1</ele>
        <time>2026-06-20T08:52:15Z</time>
      </trkpt>
      <trkpt lat="43.42321" lon="2.44217">
        <ele>1043.5</ele>
        <time>2026-06-20T08:52:17Z</time>
      </trkpt>
      <trkpt lat="43.42315" lon="2.44211">
        <ele>1042.4</ele>
        <time>2026-06-20T08:52:18Z</time>
      </trkpt>
      <trkpt lat="43.4231" lon="2.44205">
        <ele>1041.5</ele>
        <time>2026-06-20T08:52:19Z</time>
      </trkpt>
      <trkpt lat="43.42307" lon="2.442">
        <ele>1040.6</ele>
        <time>2026-06-20T08:52:20Z</time>
      </trkpt>
      <trkpt lat="43.42306" lon="2.44195">
        <ele>1040.1</ele>
        <time>2026-06-20T08:52:21Z</time>
      </trkpt>
      <trkpt lat="43.42308" lon="2.44188">
        <ele>1039.7</ele>
        <time>2026-06-20T08:52:22Z</time>
      </trkpt>
      <trkpt lat="43.42309" lon="2.4418">
        <ele>1039.2</ele>
        <time>2026-06-20T08:52:23Z</time>
      </trkpt>
      <trkpt lat="43.4231" lon="2.44171">
        <ele>1038.5</ele>
        <time>2026-06-20T08:52:24Z</time>
      </trkpt>
      <trkpt lat="43.42311" lon="2.44162">
        <ele>1037.6</ele>
        <time>2026-06-20T08:52:25Z</time>
      </trkpt>
      <trkpt lat="43.42313" lon="2.44152">
        <ele>1036.7</ele>
        <time>2026-06-20T08:52:26Z</time>
      </trkpt>
      <trkpt lat="43.42314" lon="2.44145">
        <ele>1035.9</ele>
        <time>2026-06-20T08:52:27Z</time>
      </trkpt>
      <trkpt lat="43.42314" lon="2.44139">
        <ele>1035.3</ele>
        <time>2026-06-20T08:52:28Z</time>
      </trkpt>
      <trkpt lat="43.42311" lon="2.44135">
        <ele>1034.8</ele>
        <time>2026-06-20T08:52:29Z</time>
      </trkpt>
      <trkpt lat="43.42307" lon="2.44132">
        <ele>1034.5</ele>
        <time>2026-06-20T08:52:30Z</time>
      </trkpt>
      <trkpt lat="43.42297" lon="2.44125">
        <ele>1033.4</ele>
        <time>2026-06-20T08:52:32Z</time>
      </trkpt>
      <trkpt lat="43.42293" lon="2.44118">
        <ele>1032.6</ele>
        <time>2026-06-20T08:52:33Z</time>
      </trkpt>
      <trkpt lat="43.42289" lon="2.44111">
        <ele>1031.8</ele>
        <time>2026-06-20T08:52:34Z</time>
      </trkpt>
      <trkpt lat="43.42287" lon="2.44102">
        <ele>1031.1</ele>
        <time>2026-06-20T08:52:35Z</time>
      </trkpt>
      <trkpt lat="43.42285" lon="2.44093">
        <ele>1030.5</ele>
        <time>2026-06-20T08:52:36Z</time>
      </trkpt>
      <trkpt lat="43.42281" lon="2.44074">
        <ele>1030</ele>
        <time>2026-06-20T08:52:38Z</time>
      </trkpt>
      <trkpt lat="43.42279" lon="2.44065">
        <ele>1030</ele>
        <time>2026-06-20T08:52:39Z</time>
      </trkpt>
      <trkpt lat="43.42276" lon="2.44056">
        <ele>1029.9</ele>
        <time>2026-06-20T08:52:40Z</time>
      </trkpt>
      <trkpt lat="43.42273" lon="2.44048">
        <ele>1029.9</ele>
        <time>2026-06-20T08:52:41Z</time>
      </trkpt>
      <trkpt lat="43.42269" lon="2.44041">
        <ele>1030</ele>
        <time>2026-06-20T08:52:42Z</time>
      </trkpt>
      <trkpt lat="43.42266" lon="2.44035">
        <ele>1030.2</ele>
        <time>2026-06-20T08:52:43Z</time>
      </trkpt>
      <trkpt lat="43.42262" lon="2.44028">
        <ele>1030.6</ele>
        <time>2026-06-20T08:52:44Z</time>
      </trkpt>
      <trkpt lat="43.42258" lon="2.44022">
        <ele>1030.9</ele>
        <time>2026-06-20T08:52:45Z</time>
      </trkpt>
      <trkpt lat="43.42254" lon="2.44016">
        <ele>1031.3</ele>
        <time>2026-06-20T08:52:46Z</time>
      </trkpt>
      <trkpt lat="43.42247" lon="2.44004">
        <ele>1031.8</ele>
        <time>2026-06-20T08:52:48Z</time>
      </trkpt>
      <trkpt lat="43.42244" lon="2.43997">
        <ele>1032.2</ele>
        <time>2026-06-20T08:52:49Z</time>
      </trkpt>
      <trkpt lat="43.42243" lon="2.4399">
        <ele>1032.7</ele>
        <time>2026-06-20T08:52:50Z</time>
      </trkpt>
      <trkpt lat="43.42243" lon="2.43983">
        <ele>1033.2</ele>
        <time>2026-06-20T08:52:51Z</time>
      </trkpt>
      <trkpt lat="43.42244" lon="2.43977">
        <ele>1033.7</ele>
        <time>2026-06-20T08:52:52Z</time>
      </trkpt>
      <trkpt lat="43.42245" lon="2.4397">
        <ele>1034.2</ele>
        <time>2026-06-20T08:52:53Z</time>
      </trkpt>
      <trkpt lat="43.42245" lon="2.43963">
        <ele>1034.7</ele>
        <time>2026-06-20T08:52:54Z</time>
      </trkpt>
      <trkpt lat="43.42246" lon="2.4395">
        <ele>1035.8</ele>
        <time>2026-06-20T08:52:56Z</time>
      </trkpt>
      <trkpt lat="43.42245" lon="2.43943">
        <ele>1036.3</ele>
        <time>2026-06-20T08:52:57Z</time>
      </trkpt>
      <trkpt lat="43.42243" lon="2.43938">
        <ele>1037</ele>
        <time>2026-06-20T08:52:58Z</time>
      </trkpt>
      <trkpt lat="43.42236" lon="2.4393">
        <ele>1038.1</ele>
        <time>2026-06-20T08:53:00Z</time>
      </trkpt>
      <trkpt lat="43.42233" lon="2.43925">
        <ele>1038.7</ele>
        <time>2026-06-20T08:53:01Z</time>
      </trkpt>
      <trkpt lat="43.4223" lon="2.4392">
        <ele>1039.3</ele>
        <time>2026-06-20T08:53:02Z</time>
      </trkpt>
      <trkpt lat="43.42227" lon="2.43915">
        <ele>1040</ele>
        <time>2026-06-20T08:53:03Z</time>
      </trkpt>
      <trkpt lat="43.42225" lon="2.4391">
        <ele>1040.6</ele>
        <time>2026-06-20T08:53:04Z</time>
      </trkpt>
      <trkpt lat="43.42222" lon="2.43906">
        <ele>1041.2</ele>
        <time>2026-06-20T08:53:05Z</time>
      </trkpt>
      <trkpt lat="43.4222" lon="2.43902">
        <ele>1041.6</ele>
        <time>2026-06-20T08:53:06Z</time>
      </trkpt>
      <trkpt lat="43.42217" lon="2.43898">
        <ele>1042</ele>
        <time>2026-06-20T08:53:07Z</time>
      </trkpt>
      <trkpt lat="43.42215" lon="2.43894">
        <ele>1042.5</ele>
        <time>2026-06-20T08:53:08Z</time>
      </trkpt>
      <trkpt lat="43.42213" lon="2.43891">
        <ele>1042.8</ele>
        <time>2026-06-20T08:53:09Z</time>
      </trkpt>
      <trkpt lat="43.42212" lon="2.43886">
        <ele>1043.4</ele>
        <time>2026-06-20T08:53:10Z</time>
      </trkpt>
      <trkpt lat="43.42211" lon="2.43882">
        <ele>1043.8</ele>
        <time>2026-06-20T08:53:11Z</time>
      </trkpt>
      <trkpt lat="43.4221" lon="2.43878">
        <ele>1044.3</ele>
        <time>2026-06-20T08:53:12Z</time>
      </trkpt>
      <trkpt lat="43.42208" lon="2.43874">
        <ele>1044.9</ele>
        <time>2026-06-20T08:53:13Z</time>
      </trkpt>
      <trkpt lat="43.42207" lon="2.4387">
        <ele>1045.4</ele>
        <time>2026-06-20T08:53:14Z</time>
      </trkpt>
      <trkpt lat="43.42204" lon="2.43866">
        <ele>1046</ele>
        <time>2026-06-20T08:53:15Z</time>
      </trkpt>
      <trkpt lat="43.42202" lon="2.43862">
        <ele>1046.5</ele>
        <time>2026-06-20T08:53:16Z</time>
      </trkpt>
      <trkpt lat="43.422" lon="2.43859">
        <ele>1047.1</ele>
        <time>2026-06-20T08:53:17Z</time>
      </trkpt>
      <trkpt lat="43.42198" lon="2.43855">
        <ele>1047.8</ele>
        <time>2026-06-20T08:53:18Z</time>
      </trkpt>
      <trkpt lat="43.42196" lon="2.43851">
        <ele>1048.4</ele>
        <time>2026-06-20T08:53:19Z</time>
      </trkpt>
      <trkpt lat="43.42194" lon="2.43846">
        <ele>1049.1</ele>
        <time>2026-06-20T08:53:20Z</time>
      </trkpt>
      <trkpt lat="43.42192" lon="2.43841">
        <ele>1049.9</ele>
        <time>2026-06-20T08:53:21Z</time>
      </trkpt>
      <trkpt lat="43.42192" lon="2.43836">
        <ele>1050.7</ele>
        <time>2026-06-20T08:53:22Z</time>
      </trkpt>
      <trkpt lat="43.42192" lon="2.43831">
        <ele>1051.4</ele>
        <time>2026-06-20T08:53:23Z</time>
      </trkpt>
      <trkpt lat="43.42191" lon="2.43827">
        <ele>1052.1</ele>
        <time>2026-06-20T08:53:24Z</time>
      </trkpt>
      <trkpt lat="43.42191" lon="2.43823">
        <ele>1052.6</ele>
        <time>2026-06-20T08:53:25Z</time>
      </trkpt>
      <trkpt lat="43.42191" lon="2.43818">
        <ele>1053.3</ele>
        <time>2026-06-20T08:53:26Z</time>
      </trkpt>
      <trkpt lat="43.42191" lon="2.43815">
        <ele>1053.8</ele>
        <time>2026-06-20T08:53:27Z</time>
      </trkpt>
      <trkpt lat="43.42191" lon="2.43812">
        <ele>1054.2</ele>
        <time>2026-06-20T08:53:28Z</time>
      </trkpt>
      <trkpt lat="43.42192" lon="2.43807">
        <ele>1054.9</ele>
        <time>2026-06-20T08:53:29Z</time>
      </trkpt>
      <trkpt lat="43.42192" lon="2.43804">
        <ele>1055.3</ele>
        <time>2026-06-20T08:53:30Z</time>
      </trkpt>
      <trkpt lat="43.42191" lon="2.43801">
        <ele>1055.6</ele>
        <time>2026-06-20T08:53:31Z</time>
      </trkpt>
      <trkpt lat="43.4219" lon="2.43798">
        <ele>1056</ele>
        <time>2026-06-20T08:53:32Z</time>
      </trkpt>
      <trkpt lat="43.42188" lon="2.43796">
        <ele>1056.3</ele>
        <time>2026-06-20T08:53:33Z</time>
      </trkpt>
      <trkpt lat="43.42186" lon="2.43794">
        <ele>1056.5</ele>
        <time>2026-06-20T08:53:34Z</time>
      </trkpt>
      <trkpt lat="43.42183" lon="2.43793">
        <ele>1056.8</ele>
        <time>2026-06-20T08:53:35Z</time>
      </trkpt>
      <trkpt lat="43.42181" lon="2.43791">
        <ele>1057.1</ele>
        <time>2026-06-20T08:53:36Z</time>
      </trkpt>
      <trkpt lat="43.4218" lon="2.43788">
        <ele>1057.4</ele>
        <time>2026-06-20T08:53:37Z</time>
      </trkpt>
      <trkpt lat="43.42179" lon="2.43784">
        <ele>1057.9</ele>
        <time>2026-06-20T08:53:38Z</time>
      </trkpt>
      <trkpt lat="43.42179" lon="2.4378">
        <ele>1058.3</ele>
        <time>2026-06-20T08:53:39Z</time>
      </trkpt>
      <trkpt lat="43.42179" lon="2.43776">
        <ele>1058.6</ele>
        <time>2026-06-20T08:53:40Z</time>
      </trkpt>
      <trkpt lat="43.42181" lon="2.43772">
        <ele>1058.8</ele>
        <time>2026-06-20T08:53:41Z</time>
      </trkpt>
      <trkpt lat="43.42182" lon="2.43768">
        <ele>1059</ele>
        <time>2026-06-20T08:53:42Z</time>
      </trkpt>
      <trkpt lat="43.42184" lon="2.43763">
        <ele>1059.2</ele>
        <time>2026-06-20T08:53:43Z</time>
      </trkpt>
      <trkpt lat="43.42185" lon="2.43758">
        <ele>1059.5</ele>
        <time>2026-06-20T08:53:44Z</time>
      </trkpt>
      <trkpt lat="43.42186" lon="2.43753">
        <ele>1059.8</ele>
        <time>2026-06-20T08:53:45Z</time>
      </trkpt>
      <trkpt lat="43.42186" lon="2.43748">
        <ele>1060.1</ele>
        <time>2026-06-20T08:53:46Z</time>
      </trkpt>
      <trkpt lat="43.42186" lon="2.43743">
        <ele>1060.3</ele>
        <time>2026-06-20T08:53:47Z</time>
      </trkpt>
      <trkpt lat="43.42184" lon="2.4374">
        <ele>1060.4</ele>
        <time>2026-06-20T08:53:48Z</time>
      </trkpt>
      <trkpt lat="43.42181" lon="2.43738">
        <ele>1060.4</ele>
        <time>2026-06-20T08:53:49Z</time>
      </trkpt>
      <trkpt lat="43.42177" lon="2.4374">
        <ele>1060.4</ele>
        <time>2026-06-20T08:53:50Z</time>
      </trkpt>
      <trkpt lat="43.42174" lon="2.43744">
        <ele>1060.2</ele>
        <time>2026-06-20T08:53:51Z</time>
      </trkpt>
      <trkpt lat="43.42171" lon="2.43749">
        <ele>1060.1</ele>
        <time>2026-06-20T08:53:52Z</time>
      </trkpt>
      <trkpt lat="43.42166" lon="2.43752">
        <ele>1059.9</ele>
        <time>2026-06-20T08:53:53Z</time>
      </trkpt>
      <trkpt lat="43.42161" lon="2.43753">
        <ele>1059.9</ele>
        <time>2026-06-20T08:53:54Z</time>
      </trkpt>
      <trkpt lat="43.42155" lon="2.43752">
        <ele>1059.9</ele>
        <time>2026-06-20T08:53:55Z</time>
      </trkpt>
      <trkpt lat="43.42149" lon="2.4375">
        <ele>1060</ele>
        <time>2026-06-20T08:53:56Z</time>
      </trkpt>
      <trkpt lat="43.42143" lon="2.43746">
        <ele>1060.1</ele>
        <time>2026-06-20T08:53:57Z</time>
      </trkpt>
      <trkpt lat="43.42138" lon="2.43742">
        <ele>1060.2</ele>
        <time>2026-06-20T08:53:58Z</time>
      </trkpt>
      <trkpt lat="43.42133" lon="2.43738">
        <ele>1060.1</ele>
        <time>2026-06-20T08:53:59Z</time>
      </trkpt>
      <trkpt lat="43.42128" lon="2.43733">
        <ele>1060.1</ele>
        <time>2026-06-20T08:54:00Z</time>
      </trkpt>
      <trkpt lat="43.42123" lon="2.43731">
        <ele>1059.9</ele>
        <time>2026-06-20T08:54:01Z</time>
      </trkpt>
      <trkpt lat="43.42116" lon="2.43729">
        <ele>1059.7</ele>
        <time>2026-06-20T08:54:02Z</time>
      </trkpt>
      <trkpt lat="43.4211" lon="2.43729">
        <ele>1059.3</ele>
        <time>2026-06-20T08:54:03Z</time>
      </trkpt>
      <trkpt lat="43.42103" lon="2.4373">
        <ele>1058.5</ele>
        <time>2026-06-20T08:54:04Z</time>
      </trkpt>
      <trkpt lat="43.42096" lon="2.43732">
        <ele>1057.5</ele>
        <time>2026-06-20T08:54:05Z</time>
      </trkpt>
      <trkpt lat="43.42089" lon="2.43734">
        <ele>1056.4</ele>
        <time>2026-06-20T08:54:06Z</time>
      </trkpt>
      <trkpt lat="43.42082" lon="2.43735">
        <ele>1055.4</ele>
        <time>2026-06-20T08:54:07Z</time>
      </trkpt>
      <trkpt lat="43.42074" lon="2.43736">
        <ele>1054.1</ele>
        <time>2026-06-20T08:54:08Z</time>
      </trkpt>
      <trkpt lat="43.42066" lon="2.43736">
        <ele>1052.7</ele>
        <time>2026-06-20T08:54:09Z</time>
      </trkpt>
      <trkpt lat="43.42058" lon="2.43736">
        <ele>1051.5</ele>
        <time>2026-06-20T08:54:10Z</time>
      </trkpt>
      <trkpt lat="43.42051" lon="2.43735">
        <ele>1050.3</ele>
        <time>2026-06-20T08:54:11Z</time>
      </trkpt>
      <trkpt lat="43.42044" lon="2.43734">
        <ele>1049.2</ele>
        <time>2026-06-20T08:54:12Z</time>
      </trkpt>
      <trkpt lat="43.42036" lon="2.43732">
        <ele>1048</ele>
        <time>2026-06-20T08:54:13Z</time>
      </trkpt>
      <trkpt lat="43.42028" lon="2.43731">
        <ele>1046.7</ele>
        <time>2026-06-20T08:54:14Z</time>
      </trkpt>
      <trkpt lat="43.42019" lon="2.43729">
        <ele>1046.3</ele>
        <time>2026-06-20T08:54:15Z</time>
      </trkpt>
      <trkpt lat="43.42011" lon="2.43726">
        <ele>1046</ele>
        <time>2026-06-20T08:54:16Z</time>
      </trkpt>
      <trkpt lat="43.42003" lon="2.43724">
        <ele>1045.9</ele>
        <time>2026-06-20T08:54:17Z</time>
      </trkpt>
      <trkpt lat="43.41996" lon="2.43721">
        <ele>1045.9</ele>
        <time>2026-06-20T08:54:18Z</time>
      </trkpt>
      <trkpt lat="43.41989" lon="2.43718">
        <ele>1045.9</ele>
        <time>2026-06-20T08:54:19Z</time>
      </trkpt>
      <trkpt lat="43.41982" lon="2.43715">
        <ele>1046</ele>
        <time>2026-06-20T08:54:20Z</time>
      </trkpt>
      <trkpt lat="43.41977" lon="2.43712">
        <ele>1046</ele>
        <time>2026-06-20T08:54:21Z</time>
      </trkpt>
      <trkpt lat="43.41972" lon="2.4371">
        <ele>1046.2</ele>
        <time>2026-06-20T08:54:22Z</time>
      </trkpt>
      <trkpt lat="43.41967" lon="2.43707">
        <ele>1046.8</ele>
        <time>2026-06-20T08:54:23Z</time>
      </trkpt>
      <trkpt lat="43.41963" lon="2.43704">
        <ele>1047.6</ele>
        <time>2026-06-20T08:54:24Z</time>
      </trkpt>
      <trkpt lat="43.4196" lon="2.43699">
        <ele>1048.5</ele>
        <time>2026-06-20T08:54:25Z</time>
      </trkpt>
      <trkpt lat="43.41957" lon="2.43695">
        <ele>1049.5</ele>
        <time>2026-06-20T08:54:26Z</time>
      </trkpt>
      <trkpt lat="43.41956" lon="2.43689">
        <ele>1050.5</ele>
        <time>2026-06-20T08:54:27Z</time>
      </trkpt>
      <trkpt lat="43.41956" lon="2.43685">
        <ele>1051.3</ele>
        <time>2026-06-20T08:54:28Z</time>
      </trkpt>
      <trkpt lat="43.41955" lon="2.43681">
        <ele>1052.1</ele>
        <time>2026-06-20T08:54:29Z</time>
      </trkpt>
      <trkpt lat="43.41954" lon="2.43677">
        <ele>1052.9</ele>
        <time>2026-06-20T08:54:30Z</time>
      </trkpt>
      <trkpt lat="43.41954" lon="2.43673">
        <ele>1053.6</ele>
        <time>2026-06-20T08:54:31Z</time>
      </trkpt>
      <trkpt lat="43.41953" lon="2.43669">
        <ele>1054.3</ele>
        <time>2026-06-20T08:54:32Z</time>
      </trkpt>
      <trkpt lat="43.41952" lon="2.43661">
        <ele>1055.5</ele>
        <time>2026-06-20T08:54:34Z</time>
      </trkpt>
      <trkpt lat="43.41951" lon="2.43657">
        <ele>1056.1</ele>
        <time>2026-06-20T08:54:35Z</time>
      </trkpt>
      <trkpt lat="43.41951" lon="2.43654">
        <ele>1056.6</ele>
        <time>2026-06-20T08:54:36Z</time>
      </trkpt>
      <trkpt lat="43.4195" lon="2.4365">
        <ele>1057.2</ele>
        <time>2026-06-20T08:54:37Z</time>
      </trkpt>
      <trkpt lat="43.41949" lon="2.43647">
        <ele>1057.7</ele>
        <time>2026-06-20T08:54:38Z</time>
      </trkpt>
      <trkpt lat="43.41947" lon="2.43644">
        <ele>1058.2</ele>
        <time>2026-06-20T08:54:39Z</time>
      </trkpt>
      <trkpt lat="43.41946" lon="2.43641">
        <ele>1058.7</ele>
        <time>2026-06-20T08:54:40Z</time>
      </trkpt>
      <trkpt lat="43.41944" lon="2.43638">
        <ele>1059.2</ele>
        <time>2026-06-20T08:54:41Z</time>
      </trkpt>
      <trkpt lat="43.4194" lon="2.43633">
        <ele>1060.1</ele>
        <time>2026-06-20T08:54:43Z</time>
      </trkpt>
      <trkpt lat="43.41939" lon="2.43631">
        <ele>1060.6</ele>
        <time>2026-06-20T08:54:44Z</time>
      </trkpt>
      <trkpt lat="43.41935" lon="2.43625">
        <ele>1061.7</ele>
        <time>2026-06-20T08:54:46Z</time>
      </trkpt>
      <trkpt lat="43.41931" lon="2.43619">
        <ele>1062.9</ele>
        <time>2026-06-20T08:54:48Z</time>
      </trkpt>
      <trkpt lat="43.41929" lon="2.43616">
        <ele>1063.5</ele>
        <time>2026-06-20T08:54:49Z</time>
      </trkpt>
      <trkpt lat="43.41927" lon="2.43613">
        <ele>1064.1</ele>
        <time>2026-06-20T08:54:50Z</time>
      </trkpt>
      <trkpt lat="43.41925" lon="2.4361">
        <ele>1064.6</ele>
        <time>2026-06-20T08:54:51Z</time>
      </trkpt>
      <trkpt lat="43.41922" lon="2.43608">
        <ele>1065</ele>
        <time>2026-06-20T08:54:52Z</time>
      </trkpt>
      <trkpt lat="43.41919" lon="2.43606">
        <ele>1065.3</ele>
        <time>2026-06-20T08:54:53Z</time>
      </trkpt>
      <trkpt lat="43.41916" lon="2.43605">
        <ele>1065.8</ele>
        <time>2026-06-20T08:54:54Z</time>
      </trkpt>
      <trkpt lat="43.41912" lon="2.43604">
        <ele>1066.2</ele>
        <time>2026-06-20T08:54:55Z</time>
      </trkpt>
      <trkpt lat="43.41908" lon="2.43604">
        <ele>1066.6</ele>
        <time>2026-06-20T08:54:56Z</time>
      </trkpt>
      <trkpt lat="43.41905" lon="2.43603">
        <ele>1067</ele>
        <time>2026-06-20T08:54:57Z</time>
      </trkpt>
      <trkpt lat="43.41901" lon="2.43603">
        <ele>1067.4</ele>
        <time>2026-06-20T08:54:58Z</time>
      </trkpt>
      <trkpt lat="43.41897" lon="2.43603">
        <ele>1067.8</ele>
        <time>2026-06-20T08:54:59Z</time>
      </trkpt>
      <trkpt lat="43.41894" lon="2.43601">
        <ele>1068.2</ele>
        <time>2026-06-20T08:55:00Z</time>
      </trkpt>
      <trkpt lat="43.41891" lon="2.43599">
        <ele>1068.7</ele>
        <time>2026-06-20T08:55:01Z</time>
      </trkpt>
      <trkpt lat="43.41888" lon="2.43597">
        <ele>1069</ele>
        <time>2026-06-20T08:55:02Z</time>
      </trkpt>
      <trkpt lat="43.41885" lon="2.43595">
        <ele>1069</ele>
        <time>2026-06-20T08:55:03Z</time>
      </trkpt>
      <trkpt lat="43.41882" lon="2.43592">
        <ele>1069.1</ele>
        <time>2026-06-20T08:55:04Z</time>
      </trkpt>
      <trkpt lat="43.41879" lon="2.43589">
        <ele>1069.2</ele>
        <time>2026-06-20T08:55:05Z</time>
      </trkpt>
      <trkpt lat="43.41874" lon="2.43588">
        <ele>1069.2</ele>
        <time>2026-06-20T08:55:06Z</time>
      </trkpt>
      <trkpt lat="43.4187" lon="2.43587">
        <ele>1069</ele>
        <time>2026-06-20T08:55:07Z</time>
      </trkpt>
      <trkpt lat="43.41864" lon="2.43588">
        <ele>1068.8</ele>
        <time>2026-06-20T08:55:08Z</time>
      </trkpt>
      <trkpt lat="43.41858" lon="2.4359">
        <ele>1068.1</ele>
        <time>2026-06-20T08:55:09Z</time>
      </trkpt>
      <trkpt lat="43.41852" lon="2.43593">
        <ele>1067.1</ele>
        <time>2026-06-20T08:55:10Z</time>
      </trkpt>
      <trkpt lat="43.41845" lon="2.43595">
        <ele>1066</ele>
        <time>2026-06-20T08:55:11Z</time>
      </trkpt>
      <trkpt lat="43.41839" lon="2.43598">
        <ele>1065.2</ele>
        <time>2026-06-20T08:55:12Z</time>
      </trkpt>
      <trkpt lat="43.4183" lon="2.43602">
        <ele>1063.8</ele>
        <time>2026-06-20T08:55:13Z</time>
      </trkpt>
      <trkpt lat="43.41822" lon="2.43605">
        <ele>1062.6</ele>
        <time>2026-06-20T08:55:14Z</time>
      </trkpt>
      <trkpt lat="43.41815" lon="2.43609">
        <ele>1061.4</ele>
        <time>2026-06-20T08:55:15Z</time>
      </trkpt>
      <trkpt lat="43.41806" lon="2.43613">
        <ele>1060.1</ele>
        <time>2026-06-20T08:55:16Z</time>
      </trkpt>
      <trkpt lat="43.41799" lon="2.43615">
        <ele>1058.6</ele>
        <time>2026-06-20T08:55:17Z</time>
      </trkpt>
      <trkpt lat="43.41791" lon="2.43618">
        <ele>1057.2</ele>
        <time>2026-06-20T08:55:18Z</time>
      </trkpt>
      <trkpt lat="43.41785" lon="2.43619">
        <ele>1055.9</ele>
        <time>2026-06-20T08:55:19Z</time>
      </trkpt>
      <trkpt lat="43.41778" lon="2.4362">
        <ele>1054.8</ele>
        <time>2026-06-20T08:55:20Z</time>
      </trkpt>
      <trkpt lat="43.41773" lon="2.4362">
        <ele>1053.6</ele>
        <time>2026-06-20T08:55:21Z</time>
      </trkpt>
      <trkpt lat="43.41767" lon="2.43621">
        <ele>1052.4</ele>
        <time>2026-06-20T08:55:22Z</time>
      </trkpt>
      <trkpt lat="43.41762" lon="2.43624">
        <ele>1051.1</ele>
        <time>2026-06-20T08:55:23Z</time>
      </trkpt>
      <trkpt lat="43.41757" lon="2.43627">
        <ele>1049.9</ele>
        <time>2026-06-20T08:55:24Z</time>
      </trkpt>
      <trkpt lat="43.41752" lon="2.4363">
        <ele>1048.8</ele>
        <time>2026-06-20T08:55:25Z</time>
      </trkpt>
      <trkpt lat="43.41748" lon="2.43634">
        <ele>1047.6</ele>
        <time>2026-06-20T08:55:26Z</time>
      </trkpt>
      <trkpt lat="43.41744" lon="2.43639">
        <ele>1046.4</ele>
        <time>2026-06-20T08:55:27Z</time>
      </trkpt>
      <trkpt lat="43.41739" lon="2.43645">
        <ele>1045</ele>
        <time>2026-06-20T08:55:28Z</time>
      </trkpt>
      <trkpt lat="43.41734" lon="2.43652">
        <ele>1043.6</ele>
        <time>2026-06-20T08:55:29Z</time>
      </trkpt>
      <trkpt lat="43.41731" lon="2.4366">
        <ele>1042.4</ele>
        <time>2026-06-20T08:55:30Z</time>
      </trkpt>
      <trkpt lat="43.41728" lon="2.43668">
        <ele>1041.3</ele>
        <time>2026-06-20T08:55:31Z</time>
      </trkpt>
      <trkpt lat="43.41725" lon="2.43676">
        <ele>1040.3</ele>
        <time>2026-06-20T08:55:32Z</time>
      </trkpt>
      <trkpt lat="43.41723" lon="2.43683">
        <ele>1039.5</ele>
        <time>2026-06-20T08:55:33Z</time>
      </trkpt>
      <trkpt lat="43.4172" lon="2.4369">
        <ele>1038.6</ele>
        <time>2026-06-20T08:55:34Z</time>
      </trkpt>
      <trkpt lat="43.41712" lon="2.43703">
        <ele>1035.7</ele>
        <time>2026-06-20T08:55:36Z</time>
      </trkpt>
      <trkpt lat="43.41707" lon="2.43708">
        <ele>1034.3</ele>
        <time>2026-06-20T08:55:37Z</time>
      </trkpt>
      <trkpt lat="43.41703" lon="2.43713">
        <ele>1033.2</ele>
        <time>2026-06-20T08:55:38Z</time>
      </trkpt>
      <trkpt lat="43.41699" lon="2.43719">
        <ele>1032</ele>
        <time>2026-06-20T08:55:39Z</time>
      </trkpt>
      <trkpt lat="43.41689" lon="2.43731">
        <ele>1029.2</ele>
        <time>2026-06-20T08:55:41Z</time>
      </trkpt>
      <trkpt lat="43.41684" lon="2.43738">
        <ele>1027.8</ele>
        <time>2026-06-20T08:55:42Z</time>
      </trkpt>
      <trkpt lat="43.4168" lon="2.43743">
        <ele>1026.9</ele>
        <time>2026-06-20T08:55:43Z</time>
      </trkpt>
      <trkpt lat="43.41669" lon="2.4376">
        <ele>1024.5</ele>
        <time>2026-06-20T08:55:45Z</time>
      </trkpt>
      <trkpt lat="43.41663" lon="2.43768">
        <ele>1023.3</ele>
        <time>2026-06-20T08:55:46Z</time>
      </trkpt>
      <trkpt lat="43.41657" lon="2.43776">
        <ele>1022.4</ele>
        <time>2026-06-20T08:55:47Z</time>
      </trkpt>
      <trkpt lat="43.41651" lon="2.43785">
        <ele>1021.5</ele>
        <time>2026-06-20T08:55:48Z</time>
      </trkpt>
      <trkpt lat="43.41646" lon="2.43794">
        <ele>1020.8</ele>
        <time>2026-06-20T08:55:49Z</time>
      </trkpt>
      <trkpt lat="43.41642" lon="2.43804">
        <ele>1020.1</ele>
        <time>2026-06-20T08:55:50Z</time>
      </trkpt>
      <trkpt lat="43.41639" lon="2.43816">
        <ele>1018.9</ele>
        <time>2026-06-20T08:55:51Z</time>
      </trkpt>
      <trkpt lat="43.41636" lon="2.43827">
        <ele>1017.6</ele>
        <time>2026-06-20T08:55:52Z</time>
      </trkpt>
      <trkpt lat="43.41634" lon="2.43836">
        <ele>1016.4</ele>
        <time>2026-06-20T08:55:53Z</time>
      </trkpt>
      <trkpt lat="43.41631" lon="2.43845">
        <ele>1015.2</ele>
        <time>2026-06-20T08:55:54Z</time>
      </trkpt>
      <trkpt lat="43.41626" lon="2.43852">
        <ele>1014.2</ele>
        <time>2026-06-20T08:55:55Z</time>
      </trkpt>
      <trkpt lat="43.4162" lon="2.43857">
        <ele>1013.4</ele>
        <time>2026-06-20T08:55:56Z</time>
      </trkpt>
      <trkpt lat="43.41615" lon="2.43861">
        <ele>1013</ele>
        <time>2026-06-20T08:55:57Z</time>
      </trkpt>
      <trkpt lat="43.41606" lon="2.43866">
        <ele>1012.1</ele>
        <time>2026-06-20T08:55:58Z</time>
      </trkpt>
      <trkpt lat="43.41598" lon="2.43871">
        <ele>1011.3</ele>
        <time>2026-06-20T08:55:59Z</time>
      </trkpt>
      <trkpt lat="43.41575" lon="2.4389">
        <ele>1008.8</ele>
        <time>2026-06-20T08:56:02Z</time>
      </trkpt>
      <trkpt lat="43.41561" lon="2.43906">
        <ele>1006.6</ele>
        <time>2026-06-20T08:56:04Z</time>
      </trkpt>
      <trkpt lat="43.41546" lon="2.43922">
        <ele>1004.3</ele>
        <time>2026-06-20T08:56:06Z</time>
      </trkpt>
      <trkpt lat="43.41539" lon="2.43928">
        <ele>1003.6</ele>
        <time>2026-06-20T08:56:07Z</time>
      </trkpt>
      <trkpt lat="43.41522" lon="2.43936">
        <ele>1003</ele>
        <time>2026-06-20T08:56:09Z</time>
      </trkpt>
      <trkpt lat="43.41513" lon="2.43941">
        <ele>1002.8</ele>
        <time>2026-06-20T08:56:10Z</time>
      </trkpt>
      <trkpt lat="43.41505" lon="2.43946">
        <ele>1002.7</ele>
        <time>2026-06-20T08:56:11Z</time>
      </trkpt>
      <trkpt lat="43.41497" lon="2.43952">
        <ele>1002.6</ele>
        <time>2026-06-20T08:56:12Z</time>
      </trkpt>
      <trkpt lat="43.41489" lon="2.43957">
        <ele>1002.3</ele>
        <time>2026-06-20T08:56:13Z</time>
      </trkpt>
      <trkpt lat="43.41481" lon="2.4396">
        <ele>1002.2</ele>
        <time>2026-06-20T08:56:14Z</time>
      </trkpt>
      <trkpt lat="43.41472" lon="2.43963">
        <ele>1002.3</ele>
        <time>2026-06-20T08:56:15Z</time>
      </trkpt>
      <trkpt lat="43.41465" lon="2.43967">
        <ele>1001.6</ele>
        <time>2026-06-20T08:56:16Z</time>
      </trkpt>
      <trkpt lat="43.41459" lon="2.43973">
        <ele>1001</ele>
        <time>2026-06-20T08:56:17Z</time>
      </trkpt>
      <trkpt lat="43.41453" lon="2.4398">
        <ele>999.6</ele>
        <time>2026-06-20T08:56:18Z</time>
      </trkpt>
      <trkpt lat="43.41449" lon="2.43987">
        <ele>998.6</ele>
        <time>2026-06-20T08:56:19Z</time>
      </trkpt>
      <trkpt lat="43.41442" lon="2.43996">
        <ele>997.1</ele>
        <time>2026-06-20T08:56:20Z</time>
      </trkpt>
      <trkpt lat="43.41436" lon="2.44003">
        <ele>996.1</ele>
        <time>2026-06-20T08:56:21Z</time>
      </trkpt>
      <trkpt lat="43.41428" lon="2.44009">
        <ele>995.2</ele>
        <time>2026-06-20T08:56:22Z</time>
      </trkpt>
      <trkpt lat="43.41419" lon="2.44014">
        <ele>994.6</ele>
        <time>2026-06-20T08:56:23Z</time>
      </trkpt>
      <trkpt lat="43.41411" lon="2.4402">
        <ele>994</ele>
        <time>2026-06-20T08:56:24Z</time>
      </trkpt>
      <trkpt lat="43.41395" lon="2.44032">
        <ele>993</ele>
        <time>2026-06-20T08:56:26Z</time>
      </trkpt>
      <trkpt lat="43.41372" lon="2.44052">
        <ele>991.4</ele>
        <time>2026-06-20T08:56:29Z</time>
      </trkpt>
      <trkpt lat="43.41364" lon="2.44059">
        <ele>990.8</ele>
        <time>2026-06-20T08:56:30Z</time>
      </trkpt>
      <trkpt lat="43.41357" lon="2.44066">
        <ele>989.9</ele>
        <time>2026-06-20T08:56:31Z</time>
      </trkpt>
      <trkpt lat="43.41342" lon="2.44082">
        <ele>988.3</ele>
        <time>2026-06-20T08:56:33Z</time>
      </trkpt>
      <trkpt lat="43.41335" lon="2.44088">
        <ele>987.5</ele>
        <time>2026-06-20T08:56:34Z</time>
      </trkpt>
      <trkpt lat="43.41318" lon="2.44099">
        <ele>985.5</ele>
        <time>2026-06-20T08:56:36Z</time>
      </trkpt>
      <trkpt lat="43.41302" lon="2.44107">
        <ele>984</ele>
        <time>2026-06-20T08:56:38Z</time>
      </trkpt>
      <trkpt lat="43.41293" lon="2.44111">
        <ele>983.1</ele>
        <time>2026-06-20T08:56:39Z</time>
      </trkpt>
      <trkpt lat="43.41276" lon="2.44122">
        <ele>981.5</ele>
        <time>2026-06-20T08:56:41Z</time>
      </trkpt>
      <trkpt lat="43.41267" lon="2.44125">
        <ele>980.5</ele>
        <time>2026-06-20T08:56:42Z</time>
      </trkpt>
      <trkpt lat="43.41258" lon="2.44129">
        <ele>979.5</ele>
        <time>2026-06-20T08:56:43Z</time>
      </trkpt>
      <trkpt lat="43.4125" lon="2.44132">
        <ele>978.5</ele>
        <time>2026-06-20T08:56:44Z</time>
      </trkpt>
      <trkpt lat="43.41242" lon="2.44136">
        <ele>977.3</ele>
        <time>2026-06-20T08:56:45Z</time>
      </trkpt>
      <trkpt lat="43.41236" lon="2.44142">
        <ele>976.2</ele>
        <time>2026-06-20T08:56:46Z</time>
      </trkpt>
      <trkpt lat="43.4123" lon="2.4415">
        <ele>974.9</ele>
        <time>2026-06-20T08:56:47Z</time>
      </trkpt>
      <trkpt lat="43.41223" lon="2.44158">
        <ele>973.8</ele>
        <time>2026-06-20T08:56:48Z</time>
      </trkpt>
      <trkpt lat="43.41218" lon="2.44165">
        <ele>972.5</ele>
        <time>2026-06-20T08:56:49Z</time>
      </trkpt>
      <trkpt lat="43.41211" lon="2.44169">
        <ele>971.2</ele>
        <time>2026-06-20T08:56:50Z</time>
      </trkpt>
      <trkpt lat="43.41204" lon="2.44171">
        <ele>970.1</ele>
        <time>2026-06-20T08:56:51Z</time>
      </trkpt>
      <trkpt lat="43.41198" lon="2.44169">
        <ele>969.3</ele>
        <time>2026-06-20T08:56:52Z</time>
      </trkpt>
      <trkpt lat="43.41191" lon="2.44165">
        <ele>968.4</ele>
        <time>2026-06-20T08:56:53Z</time>
      </trkpt>
      <trkpt lat="43.41184" lon="2.4416">
        <ele>967.4</ele>
        <time>2026-06-20T08:56:54Z</time>
      </trkpt>
      <trkpt lat="43.41177" lon="2.44153">
        <ele>966.3</ele>
        <time>2026-06-20T08:56:55Z</time>
      </trkpt>
      <trkpt lat="43.4117" lon="2.44146">
        <ele>965.3</ele>
        <time>2026-06-20T08:56:56Z</time>
      </trkpt>
      <trkpt lat="43.41164" lon="2.44139">
        <ele>964.4</ele>
        <time>2026-06-20T08:56:57Z</time>
      </trkpt>
      <trkpt lat="43.4116" lon="2.4413">
        <ele>963.8</ele>
        <time>2026-06-20T08:56:58Z</time>
      </trkpt>
      <trkpt lat="43.41156" lon="2.44121">
        <ele>963.3</ele>
        <time>2026-06-20T08:56:59Z</time>
      </trkpt>
      <trkpt lat="43.41153" lon="2.44112">
        <ele>963</ele>
        <time>2026-06-20T08:57:00Z</time>
      </trkpt>
      <trkpt lat="43.4115" lon="2.44103">
        <ele>962.3</ele>
        <time>2026-06-20T08:57:01Z</time>
      </trkpt>
      <trkpt lat="43.41147" lon="2.44093">
        <ele>961.5</ele>
        <time>2026-06-20T08:57:02Z</time>
      </trkpt>
      <trkpt lat="43.41144" lon="2.44083">
        <ele>960.8</ele>
        <time>2026-06-20T08:57:03Z</time>
      </trkpt>
      <trkpt lat="43.41141" lon="2.44072">
        <ele>960.4</ele>
        <time>2026-06-20T08:57:04Z</time>
      </trkpt>
      <trkpt lat="43.41136" lon="2.44052">
        <ele>959.3</ele>
        <time>2026-06-20T08:57:06Z</time>
      </trkpt>
      <trkpt lat="43.41133" lon="2.44043">
        <ele>958.1</ele>
        <time>2026-06-20T08:57:07Z</time>
      </trkpt>
      <trkpt lat="43.41125" lon="2.44026">
        <ele>955.8</ele>
        <time>2026-06-20T08:57:09Z</time>
      </trkpt>
      <trkpt lat="43.41121" lon="2.44019">
        <ele>954.7</ele>
        <time>2026-06-20T08:57:10Z</time>
      </trkpt>
      <trkpt lat="43.41118" lon="2.44012">
        <ele>953.7</ele>
        <time>2026-06-20T08:57:11Z</time>
      </trkpt>
      <trkpt lat="43.41115" lon="2.44005">
        <ele>952.9</ele>
        <time>2026-06-20T08:57:12Z</time>
      </trkpt>
      <trkpt lat="43.4111" lon="2.43999">
        <ele>951.7</ele>
        <time>2026-06-20T08:57:13Z</time>
      </trkpt>
      <trkpt lat="43.41106" lon="2.43993">
        <ele>950.7</ele>
        <time>2026-06-20T08:57:14Z</time>
      </trkpt>
      <trkpt lat="43.41102" lon="2.43988">
        <ele>949.6</ele>
        <time>2026-06-20T08:57:15Z</time>
      </trkpt>
      <trkpt lat="43.41098" lon="2.43983">
        <ele>948.6</ele>
        <time>2026-06-20T08:57:16Z</time>
      </trkpt>
      <trkpt lat="43.41094" lon="2.43978">
        <ele>947.8</ele>
        <time>2026-06-20T08:57:17Z</time>
      </trkpt>
      <trkpt lat="43.4109" lon="2.43973">
        <ele>947</ele>
        <time>2026-06-20T08:57:18Z</time>
      </trkpt>
      <trkpt lat="43.41087" lon="2.43969">
        <ele>946.3</ele>
        <time>2026-06-20T08:57:19Z</time>
      </trkpt>
      <trkpt lat="43.41083" lon="2.43963">
        <ele>945.2</ele>
        <time>2026-06-20T08:57:20Z</time>
      </trkpt>
      <trkpt lat="43.41078" lon="2.43957">
        <ele>944</ele>
        <time>2026-06-20T08:57:21Z</time>
      </trkpt>
      <trkpt lat="43.41074" lon="2.43952">
        <ele>942.9</ele>
        <time>2026-06-20T08:57:22Z</time>
      </trkpt>
      <trkpt lat="43.4107" lon="2.43948">
        <ele>941.8</ele>
        <time>2026-06-20T08:57:23Z</time>
      </trkpt>
      <trkpt lat="43.41066" lon="2.43943">
        <ele>940.9</ele>
        <time>2026-06-20T08:57:24Z</time>
      </trkpt>
      <trkpt lat="43.41063" lon="2.43938">
        <ele>940</ele>
        <time>2026-06-20T08:57:25Z</time>
      </trkpt>
      <trkpt lat="43.41059" lon="2.43933">
        <ele>939.1</ele>
        <time>2026-06-20T08:57:26Z</time>
      </trkpt>
      <trkpt lat="43.41051" lon="2.43921">
        <ele>937.3</ele>
        <time>2026-06-20T08:57:28Z</time>
      </trkpt>
      <trkpt lat="43.41043" lon="2.43909">
        <ele>935.2</ele>
        <time>2026-06-20T08:57:30Z</time>
      </trkpt>
      <trkpt lat="43.41038" lon="2.43903">
        <ele>934.2</ele>
        <time>2026-06-20T08:57:31Z</time>
      </trkpt>
      <trkpt lat="43.41029" lon="2.43893">
        <ele>932.3</ele>
        <time>2026-06-20T08:57:33Z</time>
      </trkpt>
      <trkpt lat="43.41024" lon="2.43886">
        <ele>931</ele>
        <time>2026-06-20T08:57:34Z</time>
      </trkpt>
      <trkpt lat="43.4102" lon="2.4388">
        <ele>929.8</ele>
        <time>2026-06-20T08:57:35Z</time>
      </trkpt>
      <trkpt lat="43.41018" lon="2.43873">
        <ele>928.9</ele>
        <time>2026-06-20T08:57:36Z</time>
      </trkpt>
      <trkpt lat="43.41018" lon="2.43866">
        <ele>928.5</ele>
        <time>2026-06-20T08:57:37Z</time>
      </trkpt>
      <trkpt lat="43.4102" lon="2.43859">
        <ele>928.4</ele>
        <time>2026-06-20T08:57:38Z</time>
      </trkpt>
      <trkpt lat="43.4102" lon="2.43853">
        <ele>928.4</ele>
        <time>2026-06-20T08:57:39Z</time>
      </trkpt>
      <trkpt lat="43.41018" lon="2.43848">
        <ele>927.8</ele>
        <time>2026-06-20T08:57:40Z</time>
      </trkpt>
      <trkpt lat="43.41014" lon="2.43844">
        <ele>926.9</ele>
        <time>2026-06-20T08:57:41Z</time>
      </trkpt>
      <trkpt lat="43.41004" lon="2.43837">
        <ele>924.8</ele>
        <time>2026-06-20T08:57:43Z</time>
      </trkpt>
      <trkpt lat="43.40998" lon="2.43831">
        <ele>923.5</ele>
        <time>2026-06-20T08:57:44Z</time>
      </trkpt>
      <trkpt lat="43.40987" lon="2.43817">
        <ele>920.5</ele>
        <time>2026-06-20T08:57:46Z</time>
      </trkpt>
      <trkpt lat="43.4097" lon="2.43795">
        <ele>916.3</ele>
        <time>2026-06-20T08:57:49Z</time>
      </trkpt>
      <trkpt lat="43.40965" lon="2.43787">
        <ele>915</ele>
        <time>2026-06-20T08:57:50Z</time>
      </trkpt>
      <trkpt lat="43.40954" lon="2.43775">
        <ele>912.6</ele>
        <time>2026-06-20T08:57:52Z</time>
      </trkpt>
      <trkpt lat="43.40948" lon="2.43769">
        <ele>910.9</ele>
        <time>2026-06-20T08:57:53Z</time>
      </trkpt>
      <trkpt lat="43.40942" lon="2.43764">
        <ele>909.5</ele>
        <time>2026-06-20T08:57:54Z</time>
      </trkpt>
      <trkpt lat="43.40936" lon="2.43761">
        <ele>908.1</ele>
        <time>2026-06-20T08:57:55Z</time>
      </trkpt>
      <trkpt lat="43.40928" lon="2.43758">
        <ele>906.5</ele>
        <time>2026-06-20T08:57:56Z</time>
      </trkpt>
      <trkpt lat="43.40922" lon="2.43754">
        <ele>905.1</ele>
        <time>2026-06-20T08:57:57Z</time>
      </trkpt>
      <trkpt lat="43.40916" lon="2.4375">
        <ele>903.8</ele>
        <time>2026-06-20T08:57:58Z</time>
      </trkpt>
      <trkpt lat="43.40911" lon="2.43743">
        <ele>902.4</ele>
        <time>2026-06-20T08:57:59Z</time>
      </trkpt>
      <trkpt lat="43.40906" lon="2.43737">
        <ele>901.1</ele>
        <time>2026-06-20T08:58:00Z</time>
      </trkpt>
      <trkpt lat="43.409" lon="2.43733">
        <ele>899.7</ele>
        <time>2026-06-20T08:58:01Z</time>
      </trkpt>
      <trkpt lat="43.40893" lon="2.4373">
        <ele>898.2</ele>
        <time>2026-06-20T08:58:02Z</time>
      </trkpt>
      <trkpt lat="43.40886" lon="2.43731">
        <ele>896.9</ele>
        <time>2026-06-20T08:58:03Z</time>
      </trkpt>
      <trkpt lat="43.40878" lon="2.43732">
        <ele>896.1</ele>
        <time>2026-06-20T08:58:04Z</time>
      </trkpt>
      <trkpt lat="43.40871" lon="2.43734">
        <ele>895.3</ele>
        <time>2026-06-20T08:58:05Z</time>
      </trkpt>
      <trkpt lat="43.40866" lon="2.43733">
        <ele>894.6</ele>
        <time>2026-06-20T08:58:06Z</time>
      </trkpt>
      <trkpt lat="43.40862" lon="2.43733">
        <ele>894.1</ele>
        <time>2026-06-20T08:58:07Z</time>
      </trkpt>
      <trkpt lat="43.40859" lon="2.43731">
        <ele>893.6</ele>
        <time>2026-06-20T08:58:08Z</time>
      </trkpt>
      <trkpt lat="43.40855" lon="2.43729">
        <ele>893</ele>
        <time>2026-06-20T08:58:09Z</time>
      </trkpt>
      <trkpt lat="43.40851" lon="2.43725">
        <ele>892.1</ele>
        <time>2026-06-20T08:58:10Z</time>
      </trkpt>
      <trkpt lat="43.40845" lon="2.43721">
        <ele>891.2</ele>
        <time>2026-06-20T08:58:11Z</time>
      </trkpt>
      <trkpt lat="43.4084" lon="2.43718">
        <ele>890.3</ele>
        <time>2026-06-20T08:58:12Z</time>
      </trkpt>
      <trkpt lat="43.40834" lon="2.43715">
        <ele>889.3</ele>
        <time>2026-06-20T08:58:13Z</time>
      </trkpt>
      <trkpt lat="43.40827" lon="2.43713">
        <ele>888.3</ele>
        <time>2026-06-20T08:58:14Z</time>
      </trkpt>
      <trkpt lat="43.40821" lon="2.43713">
        <ele>887.4</ele>
        <time>2026-06-20T08:58:15Z</time>
      </trkpt>
      <trkpt lat="43.40817" lon="2.43712">
        <ele>886.7</ele>
        <time>2026-06-20T08:58:16Z</time>
      </trkpt>
      <trkpt lat="43.40813" lon="2.43711">
        <ele>886.1</ele>
        <time>2026-06-20T08:58:17Z</time>
      </trkpt>
      <trkpt lat="43.40808" lon="2.43707">
        <ele>885.4</ele>
        <time>2026-06-20T08:58:18Z</time>
      </trkpt>
      <trkpt lat="43.40804" lon="2.43706">
        <ele>884.7</ele>
        <time>2026-06-20T08:58:19Z</time>
      </trkpt>
      <trkpt lat="43.40794" lon="2.43708">
        <ele>883.4</ele>
        <time>2026-06-20T08:58:21Z</time>
      </trkpt>
      <trkpt lat="43.40791" lon="2.43714">
        <ele>882.8</ele>
        <time>2026-06-20T08:58:22Z</time>
      </trkpt>
      <trkpt lat="43.40788" lon="2.43722">
        <ele>882.5</ele>
        <time>2026-06-20T08:58:23Z</time>
      </trkpt>
      <trkpt lat="43.40786" lon="2.4373">
        <ele>882</ele>
        <time>2026-06-20T08:58:24Z</time>
      </trkpt>
      <trkpt lat="43.40785" lon="2.43739">
        <ele>881.6</ele>
        <time>2026-06-20T08:58:25Z</time>
      </trkpt>
      <trkpt lat="43.40784" lon="2.43748">
        <ele>881.1</ele>
        <time>2026-06-20T08:58:26Z</time>
      </trkpt>
      <trkpt lat="43.40783" lon="2.43757">
        <ele>880.7</ele>
        <time>2026-06-20T08:58:27Z</time>
      </trkpt>
      <trkpt lat="43.40782" lon="2.43767">
        <ele>880.1</ele>
        <time>2026-06-20T08:58:28Z</time>
      </trkpt>
      <trkpt lat="43.4078" lon="2.43777">
        <ele>879.4</ele>
        <time>2026-06-20T08:58:29Z</time>
      </trkpt>
      <trkpt lat="43.40775" lon="2.43799">
        <ele>876.9</ele>
        <time>2026-06-20T08:58:31Z</time>
      </trkpt>
      <trkpt lat="43.40775" lon="2.43811">
        <ele>875.6</ele>
        <time>2026-06-20T08:58:32Z</time>
      </trkpt>
      <trkpt lat="43.40775" lon="2.43846">
        <ele>872</ele>
        <time>2026-06-20T08:58:35Z</time>
      </trkpt>
      <trkpt lat="43.40776" lon="2.43858">
        <ele>871</ele>
        <time>2026-06-20T08:58:36Z</time>
      </trkpt>
      <trkpt lat="43.40778" lon="2.43871">
        <ele>870.4</ele>
        <time>2026-06-20T08:58:37Z</time>
      </trkpt>
      <trkpt lat="43.40781" lon="2.43883">
        <ele>870.2</ele>
        <time>2026-06-20T08:58:38Z</time>
      </trkpt>
      <trkpt lat="43.40786" lon="2.43903">
        <ele>870</ele>
        <time>2026-06-20T08:58:40Z</time>
      </trkpt>
      <trkpt lat="43.40784" lon="2.4391">
        <ele>869.1</ele>
        <time>2026-06-20T08:58:41Z</time>
      </trkpt>
      <trkpt lat="43.40779" lon="2.43917">
        <ele>867.4</ele>
        <time>2026-06-20T08:58:42Z</time>
      </trkpt>
      <trkpt lat="43.40777" lon="2.43925">
        <ele>866.3</ele>
        <time>2026-06-20T08:58:43Z</time>
      </trkpt>
      <trkpt lat="43.40777" lon="2.43935">
        <ele>865.4</ele>
        <time>2026-06-20T08:58:44Z</time>
      </trkpt>
      <trkpt lat="43.40779" lon="2.43945">
        <ele>865.3</ele>
        <time>2026-06-20T08:58:45Z</time>
      </trkpt>
      <trkpt lat="43.40783" lon="2.43956">
        <ele>863.9</ele>
        <time>2026-06-20T08:58:46Z</time>
      </trkpt>
      <trkpt lat="43.40787" lon="2.43965">
        <ele>863.2</ele>
        <time>2026-06-20T08:58:47Z</time>
      </trkpt>
      <trkpt lat="43.40794" lon="2.43973">
        <ele>863.5</ele>
        <time>2026-06-20T08:58:48Z</time>
      </trkpt>
      <trkpt lat="43.40799" lon="2.4398">
        <ele>863.4</ele>
        <time>2026-06-20T08:58:49Z</time>
      </trkpt>
      <trkpt lat="43.40814" lon="2.43995">
        <ele>864.9</ele>
        <time>2026-06-20T08:58:51Z</time>
      </trkpt>
      <trkpt lat="43.40816" lon="2.44004">
        <ele>863.6</ele>
        <time>2026-06-20T08:58:52Z</time>
      </trkpt>
      <trkpt lat="43.40819" lon="2.44014">
        <ele>862.5</ele>
        <time>2026-06-20T08:58:53Z</time>
      </trkpt>
      <trkpt lat="43.40822" lon="2.44025">
        <ele>861</ele>
        <time>2026-06-20T08:58:54Z</time>
      </trkpt>
      <trkpt lat="43.40826" lon="2.44034">
        <ele>860.6</ele>
        <time>2026-06-20T08:58:55Z</time>
      </trkpt>
      <trkpt lat="43.40833" lon="2.44052">
        <ele>860.4</ele>
        <time>2026-06-20T08:58:57Z</time>
      </trkpt>
      <trkpt lat="43.40836" lon="2.44058">
        <ele>860.3</ele>
        <time>2026-06-20T08:58:58Z</time>
      </trkpt>
      <trkpt lat="43.40839" lon="2.44064">
        <ele>860.3</ele>
        <time>2026-06-20T08:58:59Z</time>
      </trkpt>
      <trkpt lat="43.4084" lon="2.44069">
        <ele>860</ele>
        <time>2026-06-20T08:59:00Z</time>
      </trkpt>
      <trkpt lat="43.40842" lon="2.44075">
        <ele>859.7</ele>
        <time>2026-06-20T08:59:01Z</time>
      </trkpt>
      <trkpt lat="43.40844" lon="2.44082">
        <ele>859</ele>
        <time>2026-06-20T08:59:02Z</time>
      </trkpt>
      <trkpt lat="43.40849" lon="2.44097">
        <ele>858.8</ele>
        <time>2026-06-20T08:59:04Z</time>
      </trkpt>
      <trkpt lat="43.40851" lon="2.44106">
        <ele>858.5</ele>
        <time>2026-06-20T08:59:05Z</time>
      </trkpt>
      <trkpt lat="43.40845" lon="2.44119">
        <ele>855.7</ele>
        <time>2026-06-20T08:59:07Z</time>
      </trkpt>
      <trkpt lat="43.40838" lon="2.44136">
        <ele>853.4</ele>
        <time>2026-06-20T08:59:09Z</time>
      </trkpt>
      <trkpt lat="43.40837" lon="2.44145">
        <ele>852.7</ele>
        <time>2026-06-20T08:59:10Z</time>
      </trkpt>
      <trkpt lat="43.40836" lon="2.44156">
        <ele>851.6</ele>
        <time>2026-06-20T08:59:11Z</time>
      </trkpt>
      <trkpt lat="43.40835" lon="2.44166">
        <ele>850.6</ele>
        <time>2026-06-20T08:59:12Z</time>
      </trkpt>
      <trkpt lat="43.40834" lon="2.44175">
        <ele>850.5</ele>
        <time>2026-06-20T08:59:13Z</time>
      </trkpt>
      <trkpt lat="43.40833" lon="2.44183">
        <ele>850.4</ele>
        <time>2026-06-20T08:59:14Z</time>
      </trkpt>
      <trkpt lat="43.40832" lon="2.44191">
        <ele>850.3</ele>
        <time>2026-06-20T08:59:15Z</time>
      </trkpt>
      <trkpt lat="43.40831" lon="2.44199">
        <ele>850.4</ele>
        <time>2026-06-20T08:59:16Z</time>
      </trkpt>
      <trkpt lat="43.4083" lon="2.44207">
        <ele>850.4</ele>
        <time>2026-06-20T08:59:17Z</time>
      </trkpt>
      <trkpt lat="43.40829" lon="2.44217">
        <ele>850.3</ele>
        <time>2026-06-20T08:59:18Z</time>
      </trkpt>
      <trkpt lat="43.4083" lon="2.44247">
        <ele>850.6</ele>
        <time>2026-06-20T08:59:21Z</time>
      </trkpt>
      <trkpt lat="43.4083" lon="2.44257">
        <ele>850.4</ele>
        <time>2026-06-20T08:59:22Z</time>
      </trkpt>
      <trkpt lat="43.40834" lon="2.44285">
        <ele>849.8</ele>
        <time>2026-06-20T08:59:25Z</time>
      </trkpt>
      <trkpt lat="43.40836" lon="2.44302">
        <ele>849.8</ele>
        <time>2026-06-20T08:59:27Z</time>
      </trkpt>
      <trkpt lat="43.40837" lon="2.4431">
        <ele>849.5</ele>
        <time>2026-06-20T08:59:28Z</time>
      </trkpt>
      <trkpt lat="43.4084" lon="2.44327">
        <ele>848.8</ele>
        <time>2026-06-20T08:59:30Z</time>
      </trkpt>
      <trkpt lat="43.40844" lon="2.44346">
        <ele>848.5</ele>
        <time>2026-06-20T08:59:32Z</time>
      </trkpt>
      <trkpt lat="43.40847" lon="2.44362">
        <ele>848.4</ele>
        <time>2026-06-20T08:59:34Z</time>
      </trkpt>
      <trkpt lat="43.40848" lon="2.44366">
        <ele>847.9</ele>
        <time>2026-06-20T08:59:35Z</time>
      </trkpt>
      <trkpt lat="43.40847" lon="2.44368">
        <ele>847.3</ele>
        <time>2026-06-20T08:59:36Z</time>
      </trkpt>
      <trkpt lat="43.40843" lon="2.44367">
        <ele>846.4</ele>
        <time>2026-06-20T08:59:37Z</time>
      </trkpt>
      <trkpt lat="43.40833" lon="2.44364">
        <ele>843.5</ele>
        <time>2026-06-20T08:59:39Z</time>
      </trkpt>
      <trkpt lat="43.40828" lon="2.44363">
        <ele>842.4</ele>
        <time>2026-06-20T08:59:40Z</time>
      </trkpt>
      <trkpt lat="43.40823" lon="2.44361">
        <ele>841.3</ele>
        <time>2026-06-20T08:59:41Z</time>
      </trkpt>
      <trkpt lat="43.40818" lon="2.4436">
        <ele>840.3</ele>
        <time>2026-06-20T08:59:42Z</time>
      </trkpt>
      <trkpt lat="43.40815" lon="2.44359">
        <ele>839.5</ele>
        <time>2026-06-20T08:59:43Z</time>
      </trkpt>
      <trkpt lat="43.40812" lon="2.44358">
        <ele>839</ele>
        <time>2026-06-20T08:59:44Z</time>
      </trkpt>
      <trkpt lat="43.40809" lon="2.44356">
        <ele>838.6</ele>
        <time>2026-06-20T08:59:45Z</time>
      </trkpt>
      <trkpt lat="43.40805" lon="2.44351">
        <ele>838.4</ele>
        <time>2026-06-20T08:59:46Z</time>
      </trkpt>
      <trkpt lat="43.40802" lon="2.44345">
        <ele>838.5</ele>
        <time>2026-06-20T08:59:47Z</time>
      </trkpt>
      <trkpt lat="43.40798" lon="2.44337">
        <ele>838.7</ele>
        <time>2026-06-20T08:59:48Z</time>
      </trkpt>
      <trkpt lat="43.40796" lon="2.44327">
        <ele>838.5</ele>
        <time>2026-06-20T08:59:49Z</time>
      </trkpt>
      <trkpt lat="43.40794" lon="2.44318">
        <ele>837.7</ele>
        <time>2026-06-20T08:59:50Z</time>
      </trkpt>
      <trkpt lat="43.40788" lon="2.44297">
        <ele>836.1</ele>
        <time>2026-06-20T08:59:52Z</time>
      </trkpt>
      <trkpt lat="43.40774" lon="2.44262">
        <ele>833</ele>
        <time>2026-06-20T08:59:55Z</time>
      </trkpt>
      <trkpt lat="43.4077" lon="2.44251">
        <ele>832</ele>
        <time>2026-06-20T08:59:56Z</time>
      </trkpt>
      <trkpt lat="43.40759" lon="2.44225">
        <ele>829.6</ele>
        <time>2026-06-20T08:59:58Z</time>
      </trkpt>
      <trkpt lat="43.40748" lon="2.44199">
        <ele>827.6</ele>
        <time>2026-06-20T09:00:00Z</time>
      </trkpt>
      <trkpt lat="43.40736" lon="2.44172">
        <ele>826.4</ele>
        <time>2026-06-20T09:00:02Z</time>
      </trkpt>
      <trkpt lat="43.40724" lon="2.44144">
        <ele>825.1</ele>
        <time>2026-06-20T09:00:04Z</time>
      </trkpt>
      <trkpt lat="43.40711" lon="2.44118">
        <ele>823.4</ele>
        <time>2026-06-20T09:00:06Z</time>
      </trkpt>
      <trkpt lat="43.40705" lon="2.44108">
        <ele>822.7</ele>
        <time>2026-06-20T09:00:07Z</time>
      </trkpt>
      <trkpt lat="43.40699" lon="2.441">
        <ele>822.1</ele>
        <time>2026-06-20T09:00:08Z</time>
      </trkpt>
      <trkpt lat="43.40692" lon="2.44094">
        <ele>821.2</ele>
        <time>2026-06-20T09:00:09Z</time>
      </trkpt>
      <trkpt lat="43.40685" lon="2.4409">
        <ele>820.3</ele>
        <time>2026-06-20T09:00:10Z</time>
      </trkpt>
      <trkpt lat="43.40679" lon="2.44083">
        <ele>819.7</ele>
        <time>2026-06-20T09:00:11Z</time>
      </trkpt>
      <trkpt lat="43.40675" lon="2.44075">
        <ele>819.8</ele>
        <time>2026-06-20T09:00:12Z</time>
      </trkpt>
      <trkpt lat="43.40672" lon="2.44065">
        <ele>820</ele>
        <time>2026-06-20T09:00:13Z</time>
      </trkpt>
      <trkpt lat="43.40668" lon="2.44057">
        <ele>820.1</ele>
        <time>2026-06-20T09:00:14Z</time>
      </trkpt>
      <trkpt lat="43.40664" lon="2.44051">
        <ele>819.8</ele>
        <time>2026-06-20T09:00:15Z</time>
      </trkpt>
      <trkpt lat="43.40658" lon="2.44048">
        <ele>818.8</ele>
        <time>2026-06-20T09:00:16Z</time>
      </trkpt>
      <trkpt lat="43.40649" lon="2.44047">
        <ele>817.3</ele>
        <time>2026-06-20T09:00:17Z</time>
      </trkpt>
      <trkpt lat="43.40641" lon="2.44047">
        <ele>815.6</ele>
        <time>2026-06-20T09:00:18Z</time>
      </trkpt>
      <trkpt lat="43.40631" lon="2.44046">
        <ele>813.8</ele>
        <time>2026-06-20T09:00:19Z</time>
      </trkpt>
      <trkpt lat="43.40621" lon="2.44046">
        <ele>811.9</ele>
        <time>2026-06-20T09:00:20Z</time>
      </trkpt>
      <trkpt lat="43.40591" lon="2.44042">
        <ele>807.1</ele>
        <time>2026-06-20T09:00:23Z</time>
      </trkpt>
      <trkpt lat="43.4056" lon="2.44033">
        <ele>802</ele>
        <time>2026-06-20T09:00:26Z</time>
      </trkpt>
      <trkpt lat="43.40552" lon="2.44029">
        <ele>800.6</ele>
        <time>2026-06-20T09:00:27Z</time>
      </trkpt>
      <trkpt lat="43.40545" lon="2.44023">
        <ele>800.2</ele>
        <time>2026-06-20T09:00:28Z</time>
      </trkpt>
      <trkpt lat="43.40541" lon="2.44015">
        <ele>800</ele>
        <time>2026-06-20T09:00:29Z</time>
      </trkpt>
      <trkpt lat="43.40537" lon="2.44007">
        <ele>800.1</ele>
        <time>2026-06-20T09:00:30Z</time>
      </trkpt>
      <trkpt lat="43.40534" lon="2.43998">
        <ele>800.1</ele>
        <time>2026-06-20T09:00:31Z</time>
      </trkpt>
      <trkpt lat="43.40531" lon="2.4399">
        <ele>800.2</ele>
        <time>2026-06-20T09:00:32Z</time>
      </trkpt>
      <trkpt lat="43.40527" lon="2.43983">
        <ele>800.1</ele>
        <time>2026-06-20T09:00:33Z</time>
      </trkpt>
      <trkpt lat="43.40522" lon="2.43977">
        <ele>799.8</ele>
        <time>2026-06-20T09:00:34Z</time>
      </trkpt>
      <trkpt lat="43.40516" lon="2.43972">
        <ele>799.3</ele>
        <time>2026-06-20T09:00:35Z</time>
      </trkpt>
      <trkpt lat="43.40509" lon="2.43968">
        <ele>798.7</ele>
        <time>2026-06-20T09:00:36Z</time>
      </trkpt>
      <trkpt lat="43.40501" lon="2.43965">
        <ele>797.9</ele>
        <time>2026-06-20T09:00:37Z</time>
      </trkpt>
      <trkpt lat="43.40494" lon="2.43963">
        <ele>797.8</ele>
        <time>2026-06-20T09:00:38Z</time>
      </trkpt>
      <trkpt lat="43.40487" lon="2.43962">
        <ele>797.6</ele>
        <time>2026-06-20T09:00:39Z</time>
      </trkpt>
      <trkpt lat="43.40481" lon="2.43963">
        <ele>797.3</ele>
        <time>2026-06-20T09:00:40Z</time>
      </trkpt>
      <trkpt lat="43.40473" lon="2.43965">
        <ele>796.8</ele>
        <time>2026-06-20T09:00:41Z</time>
      </trkpt>
      <trkpt lat="43.40465" lon="2.43968">
        <ele>796.2</ele>
        <time>2026-06-20T09:00:42Z</time>
      </trkpt>
      <trkpt lat="43.40457" lon="2.43972">
        <ele>795.5</ele>
        <time>2026-06-20T09:00:43Z</time>
      </trkpt>
      <trkpt lat="43.40441" lon="2.43979">
        <ele>794.1</ele>
        <time>2026-06-20T09:00:45Z</time>
      </trkpt>
      <trkpt lat="43.40433" lon="2.43982">
        <ele>793.2</ele>
        <time>2026-06-20T09:00:46Z</time>
      </trkpt>
      <trkpt lat="43.40404" lon="2.43978">
        <ele>789.2</ele>
        <time>2026-06-20T09:00:49Z</time>
      </trkpt>
      <trkpt lat="43.40394" lon="2.43974">
        <ele>787.2</ele>
        <time>2026-06-20T09:00:50Z</time>
      </trkpt>
      <trkpt lat="43.40378" lon="2.43964">
        <ele>785.6</ele>
        <time>2026-06-20T09:00:52Z</time>
      </trkpt>
      <trkpt lat="43.40371" lon="2.43957">
        <ele>785.7</ele>
        <time>2026-06-20T09:00:53Z</time>
      </trkpt>
      <trkpt lat="43.40366" lon="2.43948">
        <ele>786</ele>
        <time>2026-06-20T09:00:54Z</time>
      </trkpt>
      <trkpt lat="43.40362" lon="2.4394">
        <ele>786.5</ele>
        <time>2026-06-20T09:00:55Z</time>
      </trkpt>
      <trkpt lat="43.40359" lon="2.43932">
        <ele>787.1</ele>
        <time>2026-06-20T09:00:56Z</time>
      </trkpt>
      <trkpt lat="43.40355" lon="2.43925">
        <ele>787.6</ele>
        <time>2026-06-20T09:00:57Z</time>
      </trkpt>
      <trkpt lat="43.40351" lon="2.43919">
        <ele>788</ele>
        <time>2026-06-20T09:00:58Z</time>
      </trkpt>
      <trkpt lat="43.40347" lon="2.43913">
        <ele>788.4</ele>
        <time>2026-06-20T09:00:59Z</time>
      </trkpt>
      <trkpt lat="43.40343" lon="2.43908">
        <ele>788.7</ele>
        <time>2026-06-20T09:01:00Z</time>
      </trkpt>
      <trkpt lat="43.40334" lon="2.43896">
        <ele>789.2</ele>
        <time>2026-06-20T09:01:02Z</time>
      </trkpt>
      <trkpt lat="43.4033" lon="2.43893">
        <ele>789.7</ele>
        <time>2026-06-20T09:01:03Z</time>
      </trkpt>
      <trkpt lat="43.40324" lon="2.4389">
        <ele>790.2</ele>
        <time>2026-06-20T09:01:04Z</time>
      </trkpt>
      <trkpt lat="43.40318" lon="2.4389">
        <ele>790.4</ele>
        <time>2026-06-20T09:01:05Z</time>
      </trkpt>
      <trkpt lat="43.40314" lon="2.43892">
        <ele>790.4</ele>
        <time>2026-06-20T09:01:06Z</time>
      </trkpt>
      <trkpt lat="43.40307" lon="2.43893">
        <ele>790.5</ele>
        <time>2026-06-20T09:01:07Z</time>
      </trkpt>
      <trkpt lat="43.40301" lon="2.43894">
        <ele>790.8</ele>
        <time>2026-06-20T09:01:08Z</time>
      </trkpt>
      <trkpt lat="43.40296" lon="2.43896">
        <ele>791</ele>
        <time>2026-06-20T09:01:09Z</time>
      </trkpt>
      <trkpt lat="43.40285" lon="2.439">
        <ele>791.3</ele>
        <time>2026-06-20T09:01:11Z</time>
      </trkpt>
      <trkpt lat="43.4028" lon="2.43903">
        <ele>791.4</ele>
        <time>2026-06-20T09:01:12Z</time>
      </trkpt>
      <trkpt lat="43.40245" lon="2.43915">
        <ele>791.5</ele>
        <time>2026-06-20T09:01:18Z</time>
      </trkpt>
      <trkpt lat="43.40234" lon="2.43919">
        <ele>791.9</ele>
        <time>2026-06-20T09:01:20Z</time>
      </trkpt>
      <trkpt lat="43.40229" lon="2.43921">
        <ele>792.1</ele>
        <time>2026-06-20T09:01:21Z</time>
      </trkpt>
      <trkpt lat="43.40208" lon="2.4393">
        <ele>791.8</ele>
        <time>2026-06-20T09:01:25Z</time>
      </trkpt>
      <trkpt lat="43.40204" lon="2.43932">
        <ele>791.7</ele>
        <time>2026-06-20T09:01:26Z</time>
      </trkpt>
      <trkpt lat="43.40199" lon="2.43934">
        <ele>791.7</ele>
        <time>2026-06-20T09:01:27Z</time>
      </trkpt>
      <trkpt lat="43.40196" lon="2.43937">
        <ele>791.5</ele>
        <time>2026-06-20T09:01:28Z</time>
      </trkpt>
      <trkpt lat="43.40192" lon="2.43938">
        <ele>791.4</ele>
        <time>2026-06-20T09:01:29Z</time>
      </trkpt>
      <trkpt lat="43.40188" lon="2.43936">
        <ele>791.3</ele>
        <time>2026-06-20T09:01:30Z</time>
      </trkpt>
      <trkpt lat="43.40184" lon="2.43933">
        <ele>791.3</ele>
        <time>2026-06-20T09:01:31Z</time>
      </trkpt>
      <trkpt lat="43.40176" lon="2.43924">
        <ele>791.3</ele>
        <time>2026-06-20T09:01:33Z</time>
      </trkpt>
      <trkpt lat="43.4017" lon="2.4392">
        <ele>791.1</ele>
        <time>2026-06-20T09:01:35Z</time>
      </trkpt>
      <trkpt lat="43.40167" lon="2.43921">
        <ele>790.9</ele>
        <time>2026-06-20T09:01:36Z</time>
      </trkpt>
      <trkpt lat="43.40159" lon="2.43928">
        <ele>790.2</ele>
        <time>2026-06-20T09:01:38Z</time>
      </trkpt>
      <trkpt lat="43.40154" lon="2.43934">
        <ele>789.7</ele>
        <time>2026-06-20T09:01:39Z</time>
      </trkpt>
      <trkpt lat="43.40138" lon="2.43957">
        <ele>787</ele>
        <time>2026-06-20T09:01:43Z</time>
      </trkpt>
      <trkpt lat="43.40136" lon="2.43963">
        <ele>786.5</ele>
        <time>2026-06-20T09:01:44Z</time>
      </trkpt>
      <trkpt lat="43.40135" lon="2.4397">
        <ele>786</ele>
        <time>2026-06-20T09:01:45Z</time>
      </trkpt>
      <trkpt lat="43.40135" lon="2.43978">
        <ele>785.5</ele>
        <time>2026-06-20T09:01:46Z</time>
      </trkpt>
      <trkpt lat="43.40135" lon="2.43986">
        <ele>784.8</ele>
        <time>2026-06-20T09:01:47Z</time>
      </trkpt>
      <trkpt lat="43.40135" lon="2.43995">
        <ele>784.1</ele>
        <time>2026-06-20T09:01:48Z</time>
      </trkpt>
      <trkpt lat="43.40135" lon="2.44005">
        <ele>783.4</ele>
        <time>2026-06-20T09:01:49Z</time>
      </trkpt>
      <trkpt lat="43.40135" lon="2.44016">
        <ele>782.6</ele>
        <time>2026-06-20T09:01:50Z</time>
      </trkpt>
      <trkpt lat="43.40135" lon="2.44027">
        <ele>781.7</ele>
        <time>2026-06-20T09:01:51Z</time>
      </trkpt>
      <trkpt lat="43.40134" lon="2.44039">
        <ele>780.8</ele>
        <time>2026-06-20T09:01:52Z</time>
      </trkpt>
      <trkpt lat="43.40134" lon="2.44073">
        <ele>778.2</ele>
        <time>2026-06-20T09:01:55Z</time>
      </trkpt>
      <trkpt lat="43.40134" lon="2.44082">
        <ele>777.5</ele>
        <time>2026-06-20T09:01:56Z</time>
      </trkpt>
      <trkpt lat="43.40132" lon="2.44091">
        <ele>776.8</ele>
        <time>2026-06-20T09:01:57Z</time>
      </trkpt>
      <trkpt lat="43.4013" lon="2.44099">
        <ele>776.2</ele>
        <time>2026-06-20T09:01:58Z</time>
      </trkpt>
      <trkpt lat="43.40128" lon="2.44107">
        <ele>775.4</ele>
        <time>2026-06-20T09:01:59Z</time>
      </trkpt>
      <trkpt lat="43.40125" lon="2.44116">
        <ele>774.7</ele>
        <time>2026-06-20T09:02:00Z</time>
      </trkpt>
      <trkpt lat="43.40121" lon="2.44125">
        <ele>774</ele>
        <time>2026-06-20T09:02:01Z</time>
      </trkpt>
      <trkpt lat="43.40117" lon="2.44132">
        <ele>773.5</ele>
        <time>2026-06-20T09:02:02Z</time>
      </trkpt>
      <trkpt lat="43.40114" lon="2.44138">
        <ele>773.1</ele>
        <time>2026-06-20T09:02:03Z</time>
      </trkpt>
      <trkpt lat="43.40112" lon="2.44146">
        <ele>772.5</ele>
        <time>2026-06-20T09:02:04Z</time>
      </trkpt>
      <trkpt lat="43.40112" lon="2.44155">
        <ele>771.9</ele>
        <time>2026-06-20T09:02:05Z</time>
      </trkpt>
      <trkpt lat="43.40114" lon="2.44162">
        <ele>771.5</ele>
        <time>2026-06-20T09:02:06Z</time>
      </trkpt>
      <trkpt lat="43.40116" lon="2.44167">
        <ele>771.3</ele>
        <time>2026-06-20T09:02:07Z</time>
      </trkpt>
      <trkpt lat="43.40119" lon="2.44172">
        <ele>771.1</ele>
        <time>2026-06-20T09:02:08Z</time>
      </trkpt>
      <trkpt lat="43.4012" lon="2.44179">
        <ele>770.7</ele>
        <time>2026-06-20T09:02:09Z</time>
      </trkpt>
      <trkpt lat="43.40119" lon="2.44185">
        <ele>770.3</ele>
        <time>2026-06-20T09:02:10Z</time>
      </trkpt>
      <trkpt lat="43.40118" lon="2.44193">
        <ele>769.6</ele>
        <time>2026-06-20T09:02:11Z</time>
      </trkpt>
      <trkpt lat="43.40117" lon="2.44202">
        <ele>769.2</ele>
        <time>2026-06-20T09:02:12Z</time>
      </trkpt>
      <trkpt lat="43.40115" lon="2.44208">
        <ele>768.8</ele>
        <time>2026-06-20T09:02:13Z</time>
      </trkpt>
      <trkpt lat="43.40111" lon="2.44212">
        <ele>768.4</ele>
        <time>2026-06-20T09:02:14Z</time>
      </trkpt>
      <trkpt lat="43.40108" lon="2.44215">
        <ele>767.9</ele>
        <time>2026-06-20T09:02:15Z</time>
      </trkpt>
      <trkpt lat="43.40104" lon="2.44217">
        <ele>767.4</ele>
        <time>2026-06-20T09:02:16Z</time>
      </trkpt>
      <trkpt lat="43.40101" lon="2.4422">
        <ele>767</ele>
        <time>2026-06-20T09:02:17Z</time>
      </trkpt>
      <trkpt lat="43.401" lon="2.44224">
        <ele>766.8</ele>
        <time>2026-06-20T09:02:18Z</time>
      </trkpt>
      <trkpt lat="43.401" lon="2.44228">
        <ele>766.8</ele>
        <time>2026-06-20T09:02:19Z</time>
      </trkpt>
      <trkpt lat="43.401" lon="2.44231">
        <ele>766.9</ele>
        <time>2026-06-20T09:02:20Z</time>
      </trkpt>
      <trkpt lat="43.401" lon="2.44233">
        <ele>766.9</ele>
        <time>2026-06-20T09:02:21Z</time>
      </trkpt>
      <trkpt lat="43.40101" lon="2.44236">
        <ele>766.9</ele>
        <time>2026-06-20T09:02:22Z</time>
      </trkpt>
      <trkpt lat="43.40099" lon="2.44242">
        <ele>766.9</ele>
        <time>2026-06-20T09:02:24Z</time>
      </trkpt>
      <trkpt lat="43.40096" lon="2.44245">
        <ele>766.9</ele>
        <time>2026-06-20T09:02:25Z</time>
      </trkpt>
      <trkpt lat="43.40093" lon="2.4425">
        <ele>767</ele>
        <time>2026-06-20T09:02:26Z</time>
      </trkpt>
      <trkpt lat="43.40093" lon="2.44256">
        <ele>767.1</ele>
        <time>2026-06-20T09:02:27Z</time>
      </trkpt>
      <trkpt lat="43.40093" lon="2.44263">
        <ele>767.2</ele>
        <time>2026-06-20T09:02:28Z</time>
      </trkpt>
      <trkpt lat="43.40091" lon="2.44271">
        <ele>767.2</ele>
        <time>2026-06-20T09:02:29Z</time>
      </trkpt>
      <trkpt lat="43.40092" lon="2.44278">
        <ele>767.3</ele>
        <time>2026-06-20T09:02:30Z</time>
      </trkpt>
      <trkpt lat="43.40093" lon="2.44283">
        <ele>767.5</ele>
        <time>2026-06-20T09:02:31Z</time>
      </trkpt>
      <trkpt lat="43.40096" lon="2.44296">
        <ele>768.1</ele>
        <time>2026-06-20T09:02:33Z</time>
      </trkpt>
      <trkpt lat="43.40096" lon="2.44302">
        <ele>768.3</ele>
        <time>2026-06-20T09:02:34Z</time>
      </trkpt>
      <trkpt lat="43.40095" lon="2.44308">
        <ele>768.7</ele>
        <time>2026-06-20T09:02:35Z</time>
      </trkpt>
      <trkpt lat="43.40097" lon="2.44314">
        <ele>769.2</ele>
        <time>2026-06-20T09:02:36Z</time>
      </trkpt>
      <trkpt lat="43.40101" lon="2.44319">
        <ele>769.9</ele>
        <time>2026-06-20T09:02:37Z</time>
      </trkpt>
      <trkpt lat="43.40102" lon="2.44324">
        <ele>770.4</ele>
        <time>2026-06-20T09:02:38Z</time>
      </trkpt>
      <trkpt lat="43.40102" lon="2.44328">
        <ele>770.8</ele>
        <time>2026-06-20T09:02:39Z</time>
      </trkpt>
      <trkpt lat="43.401" lon="2.44332">
        <ele>771.1</ele>
        <time>2026-06-20T09:02:40Z</time>
      </trkpt>
      <trkpt lat="43.40098" lon="2.44335">
        <ele>771.1</ele>
        <time>2026-06-20T09:02:41Z</time>
      </trkpt>
      <trkpt lat="43.40095" lon="2.44337">
        <ele>771</ele>
        <time>2026-06-20T09:02:42Z</time>
      </trkpt>
      <trkpt lat="43.40092" lon="2.4434">
        <ele>770.9</ele>
        <time>2026-06-20T09:02:43Z</time>
      </trkpt>
      <trkpt lat="43.40084" lon="2.44347">
        <ele>770.5</ele>
        <time>2026-06-20T09:02:46Z</time>
      </trkpt>
      <trkpt lat="43.40082" lon="2.44349">
        <ele>770.4</ele>
        <time>2026-06-20T09:02:47Z</time>
      </trkpt>
      <trkpt lat="43.40081" lon="2.44352">
        <ele>770.4</ele>
        <time>2026-06-20T09:02:48Z</time>
      </trkpt>
      <trkpt lat="43.4008" lon="2.44356">
        <ele>770.4</ele>
        <time>2026-06-20T09:02:49Z</time>
      </trkpt>
      <trkpt lat="43.40079" lon="2.4436">
        <ele>770.5</ele>
        <time>2026-06-20T09:02:50Z</time>
      </trkpt>
      <trkpt lat="43.40077" lon="2.44365">
        <ele>770.4</ele>
        <time>2026-06-20T09:02:51Z</time>
      </trkpt>
      <trkpt lat="43.40075" lon="2.4437">
        <ele>770.4</ele>
        <time>2026-06-20T09:02:52Z</time>
      </trkpt>
      <trkpt lat="43.40074" lon="2.44375">
        <ele>770.4</ele>
        <time>2026-06-20T09:02:53Z</time>
      </trkpt>
      <trkpt lat="43.40072" lon="2.4438">
        <ele>770.5</ele>
        <time>2026-06-20T09:02:54Z</time>
      </trkpt>
      <trkpt lat="43.40069" lon="2.44392">
        <ele>770.6</ele>
        <time>2026-06-20T09:02:56Z</time>
      </trkpt>
      <trkpt lat="43.40068" lon="2.44399">
        <ele>770.7</ele>
        <time>2026-06-20T09:02:57Z</time>
      </trkpt>
      <trkpt lat="43.40066" lon="2.44414">
        <ele>771</ele>
        <time>2026-06-20T09:02:59Z</time>
      </trkpt>
      <trkpt lat="43.40061" lon="2.44429">
        <ele>770.9</ele>
        <time>2026-06-20T09:03:01Z</time>
      </trkpt>
      <trkpt lat="43.40054" lon="2.44455">
        <ele>771.3</ele>
        <time>2026-06-20T09:03:04Z</time>
      </trkpt>
      <trkpt lat="43.40053" lon="2.44463">
        <ele>771.6</ele>
        <time>2026-06-20T09:03:05Z</time>
      </trkpt>
      <trkpt lat="43.40051" lon="2.4447">
        <ele>771.8</ele>
        <time>2026-06-20T09:03:06Z</time>
      </trkpt>
      <trkpt lat="43.40048" lon="2.44483">
        <ele>772.1</ele>
        <time>2026-06-20T09:03:08Z</time>
      </trkpt>
      <trkpt lat="43.40046" lon="2.44491">
        <ele>772.3</ele>
        <time>2026-06-20T09:03:09Z</time>
      </trkpt>
      <trkpt lat="43.40043" lon="2.445">
        <ele>772.6</ele>
        <time>2026-06-20T09:03:10Z</time>
      </trkpt>
      <trkpt lat="43.40042" lon="2.44519">
        <ele>773.2</ele>
        <time>2026-06-20T09:03:12Z</time>
      </trkpt>
      <trkpt lat="43.4004" lon="2.44537">
        <ele>773.6</ele>
        <time>2026-06-20T09:03:14Z</time>
      </trkpt>
      <trkpt lat="43.40038" lon="2.44548">
        <ele>773.6</ele>
        <time>2026-06-20T09:03:15Z</time>
      </trkpt>
      <trkpt lat="43.40036" lon="2.44558">
        <ele>773.6</ele>
        <time>2026-06-20T09:03:16Z</time>
      </trkpt>
      <trkpt lat="43.40031" lon="2.44575">
        <ele>773.8</ele>
        <time>2026-06-20T09:03:18Z</time>
      </trkpt>
      <trkpt lat="43.40025" lon="2.44593">
        <ele>774.2</ele>
        <time>2026-06-20T09:03:20Z</time>
      </trkpt>
      <trkpt lat="43.40021" lon="2.446">
        <ele>774.4</ele>
        <time>2026-06-20T09:03:21Z</time>
      </trkpt>
      <trkpt lat="43.40017" lon="2.44606">
        <ele>774.4</ele>
        <time>2026-06-20T09:03:22Z</time>
      </trkpt>
      <trkpt lat="43.40013" lon="2.44611">
        <ele>774.5</ele>
        <time>2026-06-20T09:03:23Z</time>
      </trkpt>
      <trkpt lat="43.40009" lon="2.44616">
        <ele>774.3</ele>
        <time>2026-06-20T09:03:24Z</time>
      </trkpt>
      <trkpt lat="43.40004" lon="2.44622">
        <ele>774.2</ele>
        <time>2026-06-20T09:03:25Z</time>
      </trkpt>
      <trkpt lat="43.39999" lon="2.44627">
        <ele>774</ele>
        <time>2026-06-20T09:03:26Z</time>
      </trkpt>
      <trkpt lat="43.39995" lon="2.44633">
        <ele>774</ele>
        <time>2026-06-20T09:03:27Z</time>
      </trkpt>
      <trkpt lat="43.3999" lon="2.4464">
        <ele>774</ele>
        <time>2026-06-20T09:03:28Z</time>
      </trkpt>
      <trkpt lat="43.39987" lon="2.44648">
        <ele>774</ele>
        <time>2026-06-20T09:03:29Z</time>
      </trkpt>
      <trkpt lat="43.39984" lon="2.44657">
        <ele>774</ele>
        <time>2026-06-20T09:03:30Z</time>
      </trkpt>
      <trkpt lat="43.39982" lon="2.44665">
        <ele>774</ele>
        <time>2026-06-20T09:03:31Z</time>
      </trkpt>
      <trkpt lat="43.39981" lon="2.44673">
        <ele>774.1</ele>
        <time>2026-06-20T09:03:32Z</time>
      </trkpt>
      <trkpt lat="43.3998" lon="2.44681">
        <ele>774.1</ele>
        <time>2026-06-20T09:03:33Z</time>
      </trkpt>
      <trkpt lat="43.39977" lon="2.44688">
        <ele>774.1</ele>
        <time>2026-06-20T09:03:34Z</time>
      </trkpt>
      <trkpt lat="43.39974" lon="2.44694">
        <ele>774.1</ele>
        <time>2026-06-20T09:03:35Z</time>
      </trkpt>
      <trkpt lat="43.39971" lon="2.44701">
        <ele>774.2</ele>
        <time>2026-06-20T09:03:36Z</time>
      </trkpt>
      <trkpt lat="43.39969" lon="2.44708">
        <ele>774.4</ele>
        <time>2026-06-20T09:03:37Z</time>
      </trkpt>
      <trkpt lat="43.39966" lon="2.44714">
        <ele>774.4</ele>
        <time>2026-06-20T09:03:38Z</time>
      </trkpt>
      <trkpt lat="43.39963" lon="2.4472">
        <ele>774.3</ele>
        <time>2026-06-20T09:03:39Z</time>
      </trkpt>
      <trkpt lat="43.39958" lon="2.44725">
        <ele>774</ele>
        <time>2026-06-20T09:03:40Z</time>
      </trkpt>
      <trkpt lat="43.39953" lon="2.44729">
        <ele>773.6</ele>
        <time>2026-06-20T09:03:41Z</time>
      </trkpt>
      <trkpt lat="43.39917" lon="2.44758">
        <ele>771</ele>
        <time>2026-06-20T09:03:47Z</time>
      </trkpt>
      <trkpt lat="43.39902" lon="2.44768">
        <ele>768.9</ele>
        <time>2026-06-20T09:03:49Z</time>
      </trkpt>
      <trkpt lat="43.39898" lon="2.44775">
        <ele>768.2</ele>
        <time>2026-06-20T09:03:50Z</time>
      </trkpt>
      <trkpt lat="43.39895" lon="2.44793">
        <ele>767.8</ele>
        <time>2026-06-20T09:03:51Z</time>
      </trkpt>
      <trkpt lat="43.39896" lon="2.44803">
        <ele>768.1</ele>
        <time>2026-06-20T09:03:52Z</time>
      </trkpt>
      <trkpt lat="43.39898" lon="2.44813">
        <ele>768.4</ele>
        <time>2026-06-20T09:03:54Z</time>
      </trkpt>
      <trkpt lat="43.39899" lon="2.4482">
        <ele>768.8</ele>
        <time>2026-06-20T09:03:55Z</time>
      </trkpt>
      <trkpt lat="43.399" lon="2.44829">
        <ele>769.1</ele>
        <time>2026-06-20T09:03:56Z</time>
      </trkpt>
      <trkpt lat="43.399" lon="2.44838">
        <ele>769</ele>
        <time>2026-06-20T09:03:57Z</time>
      </trkpt>
      <trkpt lat="43.39899" lon="2.44849">
        <ele>768.7</ele>
        <time>2026-06-20T09:03:58Z</time>
      </trkpt>
      <trkpt lat="43.39899" lon="2.44858">
        <ele>768.5</ele>
        <time>2026-06-20T09:03:59Z</time>
      </trkpt>
      <trkpt lat="43.39899" lon="2.44866">
        <ele>768.4</ele>
        <time>2026-06-20T09:04:00Z</time>
      </trkpt>
      <trkpt lat="43.39898" lon="2.44874">
        <ele>768.3</ele>
        <time>2026-06-20T09:04:01Z</time>
      </trkpt>
      <trkpt lat="43.39898" lon="2.44882">
        <ele>768.3</ele>
        <time>2026-06-20T09:04:02Z</time>
      </trkpt>
      <trkpt lat="43.39898" lon="2.44891">
        <ele>768.4</ele>
        <time>2026-06-20T09:04:03Z</time>
      </trkpt>
      <trkpt lat="43.39897" lon="2.44899">
        <ele>768.6</ele>
        <time>2026-06-20T09:04:04Z</time>
      </trkpt>
      <trkpt lat="43.39897" lon="2.44907">
        <ele>768.7</ele>
        <time>2026-06-20T09:04:05Z</time>
      </trkpt>
      <trkpt lat="43.39895" lon="2.44914">
        <ele>768.9</ele>
        <time>2026-06-20T09:04:06Z</time>
      </trkpt>
      <trkpt lat="43.39893" lon="2.44921">
        <ele>769.2</ele>
        <time>2026-06-20T09:04:07Z</time>
      </trkpt>
      <trkpt lat="43.39892" lon="2.44929">
        <ele>769.4</ele>
        <time>2026-06-20T09:04:08Z</time>
      </trkpt>
      <trkpt lat="43.39892" lon="2.44936">
        <ele>769.7</ele>
        <time>2026-06-20T09:04:09Z</time>
      </trkpt>
      <trkpt lat="43.39891" lon="2.44943">
        <ele>770</ele>
        <time>2026-06-20T09:04:10Z</time>
      </trkpt>
      <trkpt lat="43.39889" lon="2.4495">
        <ele>770</ele>
        <time>2026-06-20T09:04:11Z</time>
      </trkpt>
      <trkpt lat="43.39887" lon="2.44956">
        <ele>770.3</ele>
        <time>2026-06-20T09:04:12Z</time>
      </trkpt>
      <trkpt lat="43.39883" lon="2.44961">
        <ele>770.9</ele>
        <time>2026-06-20T09:04:13Z</time>
      </trkpt>
      <trkpt lat="43.39879" lon="2.44965">
        <ele>771.8</ele>
        <time>2026-06-20T09:04:14Z</time>
      </trkpt>
      <trkpt lat="43.39875" lon="2.4497">
        <ele>772.8</ele>
        <time>2026-06-20T09:04:15Z</time>
      </trkpt>
      <trkpt lat="43.39873" lon="2.44976">
        <ele>773.9</ele>
        <time>2026-06-20T09:04:16Z</time>
      </trkpt>
      <trkpt lat="43.39871" lon="2.44982">
        <ele>774.8</ele>
        <time>2026-06-20T09:04:17Z</time>
      </trkpt>
      <trkpt lat="43.3987" lon="2.44987">
        <ele>775.8</ele>
        <time>2026-06-20T09:04:18Z</time>
      </trkpt>
      <trkpt lat="43.3987" lon="2.44994">
        <ele>776.5</ele>
        <time>2026-06-20T09:04:19Z</time>
      </trkpt>
      <trkpt lat="43.39869" lon="2.44999">
        <ele>777.1</ele>
        <time>2026-06-20T09:04:20Z</time>
      </trkpt>
      <trkpt lat="43.39868" lon="2.45004">
        <ele>777.7</ele>
        <time>2026-06-20T09:04:21Z</time>
      </trkpt>
      <trkpt lat="43.39867" lon="2.45008">
        <ele>778.3</ele>
        <time>2026-06-20T09:04:22Z</time>
      </trkpt>
      <trkpt lat="43.39865" lon="2.45012">
        <ele>778.9</ele>
        <time>2026-06-20T09:04:23Z</time>
      </trkpt>
      <trkpt lat="43.39863" lon="2.45015">
        <ele>779.2</ele>
        <time>2026-06-20T09:04:24Z</time>
      </trkpt>
      <trkpt lat="43.39862" lon="2.45019">
        <ele>779.6</ele>
        <time>2026-06-20T09:04:25Z</time>
      </trkpt>
      <trkpt lat="43.3986" lon="2.45023">
        <ele>780</ele>
        <time>2026-06-20T09:04:26Z</time>
      </trkpt>
      <trkpt lat="43.39854" lon="2.45031">
        <ele>780.8</ele>
        <time>2026-06-20T09:04:28Z</time>
      </trkpt>
      <trkpt lat="43.39853" lon="2.45035">
        <ele>781.1</ele>
        <time>2026-06-20T09:04:29Z</time>
      </trkpt>
      <trkpt lat="43.3985" lon="2.45039">
        <ele>781.4</ele>
        <time>2026-06-20T09:04:30Z</time>
      </trkpt>
      <trkpt lat="43.39848" lon="2.45042">
        <ele>781.7</ele>
        <time>2026-06-20T09:04:31Z</time>
      </trkpt>
      <trkpt lat="43.39843" lon="2.45043">
        <ele>782.1</ele>
        <time>2026-06-20T09:04:32Z</time>
      </trkpt>
      <trkpt lat="43.3984" lon="2.45043">
        <ele>782.4</ele>
        <time>2026-06-20T09:04:33Z</time>
      </trkpt>
      <trkpt lat="43.39837" lon="2.45042">
        <ele>782.7</ele>
        <time>2026-06-20T09:04:34Z</time>
      </trkpt>
      <trkpt lat="43.39833" lon="2.45039">
        <ele>783</ele>
        <time>2026-06-20T09:04:35Z</time>
      </trkpt>
      <trkpt lat="43.39831" lon="2.45035">
        <ele>783.2</ele>
        <time>2026-06-20T09:04:36Z</time>
      </trkpt>
      <trkpt lat="43.39829" lon="2.45031">
        <ele>783.3</ele>
        <time>2026-06-20T09:04:37Z</time>
      </trkpt>
      <trkpt lat="43.39827" lon="2.45025">
        <ele>783.4</ele>
        <time>2026-06-20T09:04:38Z</time>
      </trkpt>
      <trkpt lat="43.39825" lon="2.45019">
        <ele>783.4</ele>
        <time>2026-06-20T09:04:39Z</time>
      </trkpt>
      <trkpt lat="43.39822" lon="2.45013">
        <ele>783.5</ele>
        <time>2026-06-20T09:04:40Z</time>
      </trkpt>
      <trkpt lat="43.3982" lon="2.45006">
        <ele>783.6</ele>
        <time>2026-06-20T09:04:41Z</time>
      </trkpt>
      <trkpt lat="43.39817" lon="2.45">
        <ele>783.8</ele>
        <time>2026-06-20T09:04:42Z</time>
      </trkpt>
      <trkpt lat="43.39814" lon="2.44994">
        <ele>783.9</ele>
        <time>2026-06-20T09:04:43Z</time>
      </trkpt>
      <trkpt lat="43.39811" lon="2.44988">
        <ele>783.9</ele>
        <time>2026-06-20T09:04:44Z</time>
      </trkpt>
      <trkpt lat="43.39808" lon="2.44982">
        <ele>784.1</ele>
        <time>2026-06-20T09:04:45Z</time>
      </trkpt>
      <trkpt lat="43.39805" lon="2.44976">
        <ele>784.2</ele>
        <time>2026-06-20T09:04:46Z</time>
      </trkpt>
      <trkpt lat="43.39802" lon="2.4497">
        <ele>784.4</ele>
        <time>2026-06-20T09:04:47Z</time>
      </trkpt>
      <trkpt lat="43.39799" lon="2.44964">
        <ele>784.7</ele>
        <time>2026-06-20T09:04:48Z</time>
      </trkpt>
      <trkpt lat="43.39796" lon="2.44958">
        <ele>785</ele>
        <time>2026-06-20T09:04:49Z</time>
      </trkpt>
      <trkpt lat="43.39793" lon="2.44952">
        <ele>785.3</ele>
        <time>2026-06-20T09:04:50Z</time>
      </trkpt>
      <trkpt lat="43.39791" lon="2.44947">
        <ele>785.7</ele>
        <time>2026-06-20T09:04:51Z</time>
      </trkpt>
      <trkpt lat="43.39789" lon="2.44941">
        <ele>785.9</ele>
        <time>2026-06-20T09:04:52Z</time>
      </trkpt>
      <trkpt lat="43.39786" lon="2.44936">
        <ele>786.2</ele>
        <time>2026-06-20T09:04:53Z</time>
      </trkpt>
      <trkpt lat="43.39784" lon="2.44932">
        <ele>786.5</ele>
        <time>2026-06-20T09:04:54Z</time>
      </trkpt>
      <trkpt lat="43.39781" lon="2.44927">
        <ele>786.8</ele>
        <time>2026-06-20T09:04:55Z</time>
      </trkpt>
      <trkpt lat="43.39778" lon="2.44922">
        <ele>787.1</ele>
        <time>2026-06-20T09:04:56Z</time>
      </trkpt>
      <trkpt lat="43.39775" lon="2.44917">
        <ele>787.4</ele>
        <time>2026-06-20T09:04:57Z</time>
      </trkpt>
      <trkpt lat="43.39772" lon="2.44914">
        <ele>787.8</ele>
        <time>2026-06-20T09:04:58Z</time>
      </trkpt>
      <trkpt lat="43.39767" lon="2.44912">
        <ele>788.3</ele>
        <time>2026-06-20T09:04:59Z</time>
      </trkpt>
      <trkpt lat="43.39764" lon="2.4491">
        <ele>788.6</ele>
        <time>2026-06-20T09:05:00Z</time>
      </trkpt>
      <trkpt lat="43.39761" lon="2.44908">
        <ele>788.9</ele>
        <time>2026-06-20T09:05:01Z</time>
      </trkpt>
      <trkpt lat="43.39758" lon="2.44906">
        <ele>789.1</ele>
        <time>2026-06-20T09:05:02Z</time>
      </trkpt>
      <trkpt lat="43.39756" lon="2.44904">
        <ele>789.3</ele>
        <time>2026-06-20T09:05:03Z</time>
      </trkpt>
      <trkpt lat="43.39753" lon="2.44902">
        <ele>789.6</ele>
        <time>2026-06-20T09:05:04Z</time>
      </trkpt>
      <trkpt lat="43.3975" lon="2.44901">
        <ele>789.9</ele>
        <time>2026-06-20T09:05:05Z</time>
      </trkpt>
      <trkpt lat="43.39746" lon="2.449">
        <ele>790.3</ele>
        <time>2026-06-20T09:05:06Z</time>
      </trkpt>
      <trkpt lat="43.39743" lon="2.44899">
        <ele>790.8</ele>
        <time>2026-06-20T09:05:07Z</time>
      </trkpt>
      <trkpt lat="43.39739" lon="2.44899">
        <ele>791.3</ele>
        <time>2026-06-20T09:05:08Z</time>
      </trkpt>
      <trkpt lat="43.39736" lon="2.44898">
        <ele>791.6</ele>
        <time>2026-06-20T09:05:09Z</time>
      </trkpt>
      <trkpt lat="43.39734" lon="2.44896">
        <ele>791.9</ele>
        <time>2026-06-20T09:05:10Z</time>
      </trkpt>
      <trkpt lat="43.39732" lon="2.44895">
        <ele>792.1</ele>
        <time>2026-06-20T09:05:11Z</time>
      </trkpt>
      <trkpt lat="43.3973" lon="2.44894">
        <ele>792.3</ele>
        <time>2026-06-20T09:05:12Z</time>
      </trkpt>
      <trkpt lat="43.39729" lon="2.44894">
        <ele>792.4</ele>
        <time>2026-06-20T09:05:13Z</time>
      </trkpt>
      <trkpt lat="43.39729" lon="2.44893">
        <ele>792.4</ele>
        <time>2026-06-20T09:05:14Z</time>
      </trkpt>
      <trkpt lat="43.39727" lon="2.44891">
        <ele>792.4</ele>
        <time>2026-06-20T09:05:15Z</time>
      </trkpt>
      <trkpt lat="43.39726" lon="2.4489">
        <ele>792.5</ele>
        <time>2026-06-20T09:05:16Z</time>
      </trkpt>
      <trkpt lat="43.39726" lon="2.4489">
        <ele>792.6</ele>
        <time>2026-06-20T09:05:17Z</time>
      </trkpt>
      <trkpt lat="43.39726" lon="2.4489">
        <ele>792.6</ele>
        <time>2026-06-20T09:05:18Z</time>
      </trkpt>
      <trkpt lat="43.39725" lon="2.4489">
        <ele>792.6</ele>
        <time>2026-06-20T09:05:19Z</time>
      </trkpt>
      <trkpt lat="43.39725" lon="2.4489">
        <ele>792.7</ele>
        <time>2026-06-20T09:05:20Z</time>
      </trkpt>
      <trkpt lat="43.39725" lon="2.44889">
        <ele>792.7</ele>
        <time>2026-06-20T09:05:21Z</time>
      </trkpt>
      <trkpt lat="43.39724" lon="2.44889">
        <ele>792.8</ele>
        <time>2026-06-20T09:05:22Z</time>
      </trkpt>
      <trkpt lat="43.39724" lon="2.44889">
        <ele>792.8</ele>
        <time>2026-06-20T09:05:23Z</time>
      </trkpt>
      <trkpt lat="43.39724" lon="2.44889">
        <ele>792.8</ele>
        <time>2026-06-20T09:05:24Z</time>
      </trkpt>
      <trkpt lat="43.39724" lon="2.44889">
        <ele>792.8</ele>
        <time>2026-06-20T09:05:26Z</time>
      </trkpt>
      <trkpt lat="43.39724" lon="2.44889">
        <ele>792.8</ele>
        <time>2026-06-20T09:05:27Z</time>
      </trkpt>
      <trkpt lat="43.39723" lon="2.44889">
        <ele>792.9</ele>
        <time>2026-06-20T09:05:28Z</time>
      </trkpt>
      <trkpt lat="43.39721" lon="2.44885">
        <ele>793</ele>
        <time>2026-06-20T09:05:33Z</time>
      </trkpt>
      <trkpt lat="43.39721" lon="2.44883">
        <ele>793.1</ele>
        <time>2026-06-20T09:05:34Z</time>
      </trkpt>
      <trkpt lat="43.3972" lon="2.44882">
        <ele>793.2</ele>
        <time>2026-06-20T09:05:35Z</time>
      </trkpt>
      <trkpt lat="43.3972" lon="2.44882">
        <ele>793.2</ele>
        <time>2026-06-20T09:05:36Z</time>
      </trkpt>
      <trkpt lat="43.3972" lon="2.44882">
        <ele>793.2</ele>
        <time>2026-06-20T09:05:38Z</time>
      </trkpt>
      <trkpt lat="43.39716" lon="2.44873">
        <ele>793.4</ele>
        <time>2026-06-20T09:05:51Z</time>
      </trkpt>
      <trkpt lat="43.39714" lon="2.4487">
        <ele>793.6</ele>
        <time>2026-06-20T09:05:52Z</time>
      </trkpt>
      <trkpt lat="43.39711" lon="2.44866">
        <ele>793.9</ele>
        <time>2026-06-20T09:05:53Z</time>
      </trkpt>
      <trkpt lat="43.39708" lon="2.44862">
        <ele>794.1</ele>
        <time>2026-06-20T09:05:54Z</time>
      </trkpt>
      <trkpt lat="43.39706" lon="2.44858">
        <ele>794.3</ele>
        <time>2026-06-20T09:05:55Z</time>
      </trkpt>
      <trkpt lat="43.39703" lon="2.44853">
        <ele>794.7</ele>
        <time>2026-06-20T09:05:56Z</time>
      </trkpt>
      <trkpt lat="43.39698" lon="2.4485">
        <ele>795.4</ele>
        <time>2026-06-20T09:05:57Z</time>
      </trkpt>
      <trkpt lat="43.39695" lon="2.44845">
        <ele>796</ele>
        <time>2026-06-20T09:05:58Z</time>
      </trkpt>
      <trkpt lat="43.39691" lon="2.44841">
        <ele>796.4</ele>
        <time>2026-06-20T09:05:59Z</time>
      </trkpt>
      <trkpt lat="43.39689" lon="2.44838">
        <ele>796.6</ele>
        <time>2026-06-20T09:06:00Z</time>
      </trkpt>
      <trkpt lat="43.39687" lon="2.44835">
        <ele>796.8</ele>
        <time>2026-06-20T09:06:01Z</time>
      </trkpt>
      <trkpt lat="43.39684" lon="2.44831">
        <ele>797</ele>
        <time>2026-06-20T09:06:02Z</time>
      </trkpt>
      <trkpt lat="43.3968" lon="2.44827">
        <ele>797.2</ele>
        <time>2026-06-20T09:06:03Z</time>
      </trkpt>
      <trkpt lat="43.39676" lon="2.44824">
        <ele>797.6</ele>
        <time>2026-06-20T09:06:04Z</time>
      </trkpt>
      <trkpt lat="43.39672" lon="2.44822">
        <ele>798.2</ele>
        <time>2026-06-20T09:06:05Z</time>
      </trkpt>
      <trkpt lat="43.39668" lon="2.4482">
        <ele>798.8</ele>
        <time>2026-06-20T09:06:06Z</time>
      </trkpt>
      <trkpt lat="43.39664" lon="2.44818">
        <ele>799.4</ele>
        <time>2026-06-20T09:06:07Z</time>
      </trkpt>
      <trkpt lat="43.3966" lon="2.44816">
        <ele>800.1</ele>
        <time>2026-06-20T09:06:08Z</time>
      </trkpt>
      <trkpt lat="43.39657" lon="2.44814">
        <ele>800.6</ele>
        <time>2026-06-20T09:06:09Z</time>
      </trkpt>
      <trkpt lat="43.39653" lon="2.44811">
        <ele>801.1</ele>
        <time>2026-06-20T09:06:10Z</time>
      </trkpt>
      <trkpt lat="43.3965" lon="2.44809">
        <ele>801.5</ele>
        <time>2026-06-20T09:06:11Z</time>
      </trkpt>
      <trkpt lat="43.39648" lon="2.44806">
        <ele>801.7</ele>
        <time>2026-06-20T09:06:12Z</time>
      </trkpt>
      <trkpt lat="43.39646" lon="2.44803">
        <ele>801.8</ele>
        <time>2026-06-20T09:06:13Z</time>
      </trkpt>
      <trkpt lat="43.39644" lon="2.44798">
        <ele>802</ele>
        <time>2026-06-20T09:06:14Z</time>
      </trkpt>
      <trkpt lat="43.39641" lon="2.44793">
        <ele>802.2</ele>
        <time>2026-06-20T09:06:15Z</time>
      </trkpt>
      <trkpt lat="43.39638" lon="2.44787">
        <ele>802.4</ele>
        <time>2026-06-20T09:06:16Z</time>
      </trkpt>
      <trkpt lat="43.39636" lon="2.44782">
        <ele>802.5</ele>
        <time>2026-06-20T09:06:17Z</time>
      </trkpt>
      <trkpt lat="43.39633" lon="2.44779">
        <ele>802.8</ele>
        <time>2026-06-20T09:06:18Z</time>
      </trkpt>
      <trkpt lat="43.39631" lon="2.44778">
        <ele>802.9</ele>
        <time>2026-06-20T09:06:19Z</time>
      </trkpt>
      <trkpt lat="43.39626" lon="2.44775">
        <ele>803.2</ele>
        <time>2026-06-20T09:06:20Z</time>
      </trkpt>
      <trkpt lat="43.39621" lon="2.44771">
        <ele>803.6</ele>
        <time>2026-06-20T09:06:21Z</time>
      </trkpt>
      <trkpt lat="43.39618" lon="2.44768">
        <ele>803.9</ele>
        <time>2026-06-20T09:06:22Z</time>
      </trkpt>
      <trkpt lat="43.39614" lon="2.44765">
        <ele>804.2</ele>
        <time>2026-06-20T09:06:23Z</time>
      </trkpt>
      <trkpt lat="43.39609" lon="2.44759">
        <ele>804.8</ele>
        <time>2026-06-20T09:06:24Z</time>
      </trkpt>
      <trkpt lat="43.39605" lon="2.44756">
        <ele>805.4</ele>
        <time>2026-06-20T09:06:25Z</time>
      </trkpt>
      <trkpt lat="43.39602" lon="2.44755">
        <ele>806</ele>
        <time>2026-06-20T09:06:26Z</time>
      </trkpt>
      <trkpt lat="43.39598" lon="2.44754">
        <ele>806.6</ele>
        <time>2026-06-20T09:06:27Z</time>
      </trkpt>
      <trkpt lat="43.39595" lon="2.44754">
        <ele>807.1</ele>
        <time>2026-06-20T09:06:28Z</time>
      </trkpt>
      <trkpt lat="43.39593" lon="2.44752">
        <ele>807.4</ele>
        <time>2026-06-20T09:06:29Z</time>
      </trkpt>
      <trkpt lat="43.39591" lon="2.44749">
        <ele>807.6</ele>
        <time>2026-06-20T09:06:30Z</time>
      </trkpt>
      <trkpt lat="43.39588" lon="2.44745">
        <ele>807.9</ele>
        <time>2026-06-20T09:06:31Z</time>
      </trkpt>
      <trkpt lat="43.39585" lon="2.44741">
        <ele>808</ele>
        <time>2026-06-20T09:06:32Z</time>
      </trkpt>
      <trkpt lat="43.39582" lon="2.44736">
        <ele>808.3</ele>
        <time>2026-06-20T09:06:33Z</time>
      </trkpt>
      <trkpt lat="43.39578" lon="2.44731">
        <ele>808.7</ele>
        <time>2026-06-20T09:06:34Z</time>
      </trkpt>
      <trkpt lat="43.39576" lon="2.44728">
        <ele>808.9</ele>
        <time>2026-06-20T09:06:35Z</time>
      </trkpt>
      <trkpt lat="43.39572" lon="2.44725">
        <ele>809.2</ele>
        <time>2026-06-20T09:06:36Z</time>
      </trkpt>
      <trkpt lat="43.39568" lon="2.44721">
        <ele>809.6</ele>
        <time>2026-06-20T09:06:37Z</time>
      </trkpt>
      <trkpt lat="43.39562" lon="2.44716">
        <ele>810.4</ele>
        <time>2026-06-20T09:06:38Z</time>
      </trkpt>
      <trkpt lat="43.39558" lon="2.44712">
        <ele>810.8</ele>
        <time>2026-06-20T09:06:39Z</time>
      </trkpt>
      <trkpt lat="43.39554" lon="2.44709">
        <ele>811.4</ele>
        <time>2026-06-20T09:06:40Z</time>
      </trkpt>
      <trkpt lat="43.3955" lon="2.44705">
        <ele>812</ele>
        <time>2026-06-20T09:06:41Z</time>
      </trkpt>
      <trkpt lat="43.39546" lon="2.44702">
        <ele>812.4</ele>
        <time>2026-06-20T09:06:42Z</time>
      </trkpt>
      <trkpt lat="43.39543" lon="2.447">
        <ele>812.8</ele>
        <time>2026-06-20T09:06:43Z</time>
      </trkpt>
      <trkpt lat="43.3954" lon="2.44697">
        <ele>813</ele>
        <time>2026-06-20T09:06:44Z</time>
      </trkpt>
      <trkpt lat="43.39538" lon="2.44694">
        <ele>813.2</ele>
        <time>2026-06-20T09:06:45Z</time>
      </trkpt>
      <trkpt lat="43.39536" lon="2.44691">
        <ele>813.3</ele>
        <time>2026-06-20T09:06:46Z</time>
      </trkpt>
      <trkpt lat="43.39534" lon="2.44687">
        <ele>813.5</ele>
        <time>2026-06-20T09:06:47Z</time>
      </trkpt>
      <trkpt lat="43.39532" lon="2.44682">
        <ele>813.7</ele>
        <time>2026-06-20T09:06:48Z</time>
      </trkpt>
      <trkpt lat="43.3953" lon="2.44678">
        <ele>814</ele>
        <time>2026-06-20T09:06:49Z</time>
      </trkpt>
      <trkpt lat="43.39528" lon="2.44674">
        <ele>814.2</ele>
        <time>2026-06-20T09:06:50Z</time>
      </trkpt>
      <trkpt lat="43.39527" lon="2.44671">
        <ele>814.5</ele>
        <time>2026-06-20T09:06:51Z</time>
      </trkpt>
      <trkpt lat="43.39524" lon="2.44667">
        <ele>814.9</ele>
        <time>2026-06-20T09:06:52Z</time>
      </trkpt>
      <trkpt lat="43.39519" lon="2.44662">
        <ele>815.7</ele>
        <time>2026-06-20T09:06:53Z</time>
      </trkpt>
      <trkpt lat="43.39514" lon="2.44657">
        <ele>816.4</ele>
        <time>2026-06-20T09:06:54Z</time>
      </trkpt>
      <trkpt lat="43.3951" lon="2.44651">
        <ele>816.9</ele>
        <time>2026-06-20T09:06:55Z</time>
      </trkpt>
      <trkpt lat="43.39506" lon="2.44647">
        <ele>817.4</ele>
        <time>2026-06-20T09:06:56Z</time>
      </trkpt>
      <trkpt lat="43.39504" lon="2.44645">
        <ele>817.7</ele>
        <time>2026-06-20T09:06:57Z</time>
      </trkpt>
      <trkpt lat="43.39501" lon="2.44642">
        <ele>818.1</ele>
        <time>2026-06-20T09:06:58Z</time>
      </trkpt>
      <trkpt lat="43.39496" lon="2.44637">
        <ele>818.8</ele>
        <time>2026-06-20T09:06:59Z</time>
      </trkpt>
      <trkpt lat="43.39493" lon="2.44633">
        <ele>818.8</ele>
        <time>2026-06-20T09:07:00Z</time>
      </trkpt>
      <trkpt lat="43.39488" lon="2.44627">
        <ele>819.2</ele>
        <time>2026-06-20T09:07:01Z</time>
      </trkpt>
      <trkpt lat="43.39484" lon="2.44625">
        <ele>819.6</ele>
        <time>2026-06-20T09:07:02Z</time>
      </trkpt>
      <trkpt lat="43.39482" lon="2.44622">
        <ele>819.7</ele>
        <time>2026-06-20T09:07:03Z</time>
      </trkpt>
      <trkpt lat="43.39479" lon="2.44619">
        <ele>819.9</ele>
        <time>2026-06-20T09:07:04Z</time>
      </trkpt>
      <trkpt lat="43.39475" lon="2.44617">
        <ele>820.2</ele>
        <time>2026-06-20T09:07:05Z</time>
      </trkpt>
      <trkpt lat="43.39474" lon="2.44612">
        <ele>819.8</ele>
        <time>2026-06-20T09:07:06Z</time>
      </trkpt>
      <trkpt lat="43.39471" lon="2.44609">
        <ele>820.1</ele>
        <time>2026-06-20T09:07:07Z</time>
      </trkpt>
      <trkpt lat="43.39464" lon="2.44603">
        <ele>820.9</ele>
        <time>2026-06-20T09:07:08Z</time>
      </trkpt>
      <trkpt lat="43.39461" lon="2.44597">
        <ele>821</ele>
        <time>2026-06-20T09:07:09Z</time>
      </trkpt>
      <trkpt lat="43.39456" lon="2.4459">
        <ele>821</ele>
        <time>2026-06-20T09:07:10Z</time>
      </trkpt>
      <trkpt lat="43.39453" lon="2.44586">
        <ele>820.9</ele>
        <time>2026-06-20T09:07:11Z</time>
      </trkpt>
      <trkpt lat="43.39448" lon="2.44584">
        <ele>821.4</ele>
        <time>2026-06-20T09:07:12Z</time>
      </trkpt>
      <trkpt lat="43.39445" lon="2.44583">
        <ele>821.8</ele>
        <time>2026-06-20T09:07:13Z</time>
      </trkpt>
      <trkpt lat="43.39442" lon="2.44582">
        <ele>822.6</ele>
        <time>2026-06-20T09:07:14Z</time>
      </trkpt>
      <trkpt lat="43.3944" lon="2.44581">
        <ele>823.1</ele>
        <time>2026-06-20T09:07:15Z</time>
      </trkpt>
      <trkpt lat="43.39437" lon="2.44581">
        <ele>823.8</ele>
        <time>2026-06-20T09:07:16Z</time>
      </trkpt>
      <trkpt lat="43.39435" lon="2.44579">
        <ele>824.1</ele>
        <time>2026-06-20T09:07:17Z</time>
      </trkpt>
      <trkpt lat="43.39432" lon="2.44575">
        <ele>824.4</ele>
        <time>2026-06-20T09:07:18Z</time>
      </trkpt>
      <trkpt lat="43.39429" lon="2.44572">
        <ele>824.5</ele>
        <time>2026-06-20T09:07:19Z</time>
      </trkpt>
      <trkpt lat="43.39425" lon="2.4457">
        <ele>825</ele>
        <time>2026-06-20T09:07:20Z</time>
      </trkpt>
      <trkpt lat="43.39421" lon="2.44567">
        <ele>825.5</ele>
        <time>2026-06-20T09:07:21Z</time>
      </trkpt>
      <trkpt lat="43.39417" lon="2.44565">
        <ele>825.9</ele>
        <time>2026-06-20T09:07:22Z</time>
      </trkpt>
      <trkpt lat="43.39412" lon="2.44562">
        <ele>826.8</ele>
        <time>2026-06-20T09:07:23Z</time>
      </trkpt>
      <trkpt lat="43.39409" lon="2.44559">
        <ele>827</ele>
        <time>2026-06-20T09:07:24Z</time>
      </trkpt>
      <trkpt lat="43.39406" lon="2.44557">
        <ele>827.4</ele>
        <time>2026-06-20T09:07:25Z</time>
      </trkpt>
      <trkpt lat="43.39403" lon="2.44555">
        <ele>827.8</ele>
        <time>2026-06-20T09:07:26Z</time>
      </trkpt>
      <trkpt lat="43.394" lon="2.44553">
        <ele>828.1</ele>
        <time>2026-06-20T09:07:27Z</time>
      </trkpt>
      <trkpt lat="43.39396" lon="2.44551">
        <ele>828.9</ele>
        <time>2026-06-20T09:07:28Z</time>
      </trkpt>
      <trkpt lat="43.39393" lon="2.4455">
        <ele>829.7</ele>
        <time>2026-06-20T09:07:29Z</time>
      </trkpt>
      <trkpt lat="43.39389" lon="2.4455">
        <ele>830.5</ele>
        <time>2026-06-20T09:07:30Z</time>
      </trkpt>
      <trkpt lat="43.39386" lon="2.4455">
        <ele>831</ele>
        <time>2026-06-20T09:07:31Z</time>
      </trkpt>
      <trkpt lat="43.39384" lon="2.44551">
        <ele>831.5</ele>
        <time>2026-06-20T09:07:32Z</time>
      </trkpt>
      <trkpt lat="43.39381" lon="2.44552">
        <ele>832.1</ele>
        <time>2026-06-20T09:07:33Z</time>
      </trkpt>
      <trkpt lat="43.39379" lon="2.44552">
        <ele>832.7</ele>
        <time>2026-06-20T09:07:34Z</time>
      </trkpt>
      <trkpt lat="43.39376" lon="2.44553">
        <ele>833.3</ele>
        <time>2026-06-20T09:07:35Z</time>
      </trkpt>
      <trkpt lat="43.39373" lon="2.44553">
        <ele>833.6</ele>
        <time>2026-06-20T09:07:36Z</time>
      </trkpt>
      <trkpt lat="43.39371" lon="2.44552">
        <ele>833.8</ele>
        <time>2026-06-20T09:07:37Z</time>
      </trkpt>
      <trkpt lat="43.39368" lon="2.44551">
        <ele>833.9</ele>
        <time>2026-06-20T09:07:38Z</time>
      </trkpt>
      <trkpt lat="43.39365" lon="2.4455">
        <ele>834.1</ele>
        <time>2026-06-20T09:07:39Z</time>
      </trkpt>
      <trkpt lat="43.3936" lon="2.44547">
        <ele>834.2</ele>
        <time>2026-06-20T09:07:40Z</time>
      </trkpt>
      <trkpt lat="43.39356" lon="2.44545">
        <ele>834.2</ele>
        <time>2026-06-20T09:07:41Z</time>
      </trkpt>
      <trkpt lat="43.39351" lon="2.44542">
        <ele>834.2</ele>
        <time>2026-06-20T09:07:42Z</time>
      </trkpt>
      <trkpt lat="43.39346" lon="2.4454">
        <ele>834.3</ele>
        <time>2026-06-20T09:07:43Z</time>
      </trkpt>
      <trkpt lat="43.39341" lon="2.44536">
        <ele>833.9</ele>
        <time>2026-06-20T09:07:44Z</time>
      </trkpt>
      <trkpt lat="43.39336" lon="2.44531">
        <ele>833.5</ele>
        <time>2026-06-20T09:07:45Z</time>
      </trkpt>
      <trkpt lat="43.39332" lon="2.4453">
        <ele>833.5</ele>
        <time>2026-06-20T09:07:46Z</time>
      </trkpt>
      <trkpt lat="43.39328" lon="2.4453">
        <ele>833.7</ele>
        <time>2026-06-20T09:07:47Z</time>
      </trkpt>
      <trkpt lat="43.39324" lon="2.44531">
        <ele>834</ele>
        <time>2026-06-20T09:07:48Z</time>
      </trkpt>
      <trkpt lat="43.3932" lon="2.44531">
        <ele>834.3</ele>
        <time>2026-06-20T09:07:49Z</time>
      </trkpt>
      <trkpt lat="43.39315" lon="2.44532">
        <ele>834.6</ele>
        <time>2026-06-20T09:07:50Z</time>
      </trkpt>
      <trkpt lat="43.39311" lon="2.44533">
        <ele>834.9</ele>
        <time>2026-06-20T09:07:51Z</time>
      </trkpt>
      <trkpt lat="43.39306" lon="2.44534">
        <ele>835.2</ele>
        <time>2026-06-20T09:07:52Z</time>
      </trkpt>
      <trkpt lat="43.39303" lon="2.44534">
        <ele>835.5</ele>
        <time>2026-06-20T09:07:53Z</time>
      </trkpt>
      <trkpt lat="43.39301" lon="2.44534">
        <ele>835.6</ele>
        <time>2026-06-20T09:07:54Z</time>
      </trkpt>
      <trkpt lat="43.393" lon="2.44533">
        <ele>835.4</ele>
        <time>2026-06-20T09:07:55Z</time>
      </trkpt>
      <trkpt lat="43.39299" lon="2.44533">
        <ele>835.4</ele>
        <time>2026-06-20T09:07:56Z</time>
      </trkpt>
      <trkpt lat="43.39297" lon="2.44534">
        <ele>835.7</ele>
        <time>2026-06-20T09:07:57Z</time>
      </trkpt>
      <trkpt lat="43.39293" lon="2.44535">
        <ele>836</ele>
        <time>2026-06-20T09:07:58Z</time>
      </trkpt>
      <trkpt lat="43.39289" lon="2.44536">
        <ele>836.4</ele>
        <time>2026-06-20T09:07:59Z</time>
      </trkpt>
      <trkpt lat="43.39285" lon="2.44537">
        <ele>836.7</ele>
        <time>2026-06-20T09:08:00Z</time>
      </trkpt>
      <trkpt lat="43.39281" lon="2.44538">
        <ele>837.1</ele>
        <time>2026-06-20T09:08:01Z</time>
      </trkpt>
      <trkpt lat="43.39278" lon="2.44539">
        <ele>837.4</ele>
        <time>2026-06-20T09:08:02Z</time>
      </trkpt>
      <trkpt lat="43.39274" lon="2.44539">
        <ele>837.8</ele>
        <time>2026-06-20T09:08:03Z</time>
      </trkpt>
      <trkpt lat="43.3927" lon="2.4454">
        <ele>838.2</ele>
        <time>2026-06-20T09:08:04Z</time>
      </trkpt>
      <trkpt lat="43.39266" lon="2.44539">
        <ele>838.3</ele>
        <time>2026-06-20T09:08:05Z</time>
      </trkpt>
      <trkpt lat="43.39263" lon="2.44537">
        <ele>838.2</ele>
        <time>2026-06-20T09:08:06Z</time>
      </trkpt>
      <trkpt lat="43.39261" lon="2.44534">
        <ele>837.9</ele>
        <time>2026-06-20T09:08:07Z</time>
      </trkpt>
      <trkpt lat="43.39258" lon="2.4453">
        <ele>837.4</ele>
        <time>2026-06-20T09:08:08Z</time>
      </trkpt>
      <trkpt lat="43.39256" lon="2.44525">
        <ele>837.1</ele>
        <time>2026-06-20T09:08:09Z</time>
      </trkpt>
      <trkpt lat="43.39253" lon="2.44521">
        <ele>837</ele>
        <time>2026-06-20T09:08:10Z</time>
      </trkpt>
      <trkpt lat="43.39249" lon="2.44515">
        <ele>837.3</ele>
        <time>2026-06-20T09:08:11Z</time>
      </trkpt>
      <trkpt lat="43.39246" lon="2.44511">
        <ele>838</ele>
        <time>2026-06-20T09:08:12Z</time>
      </trkpt>
      <trkpt lat="43.39244" lon="2.44508">
        <ele>838.4</ele>
        <time>2026-06-20T09:08:13Z</time>
      </trkpt>
      <trkpt lat="43.39243" lon="2.44504">
        <ele>838.4</ele>
        <time>2026-06-20T09:08:14Z</time>
      </trkpt>
      <trkpt lat="43.39242" lon="2.44498">
        <ele>838.5</ele>
        <time>2026-06-20T09:08:15Z</time>
      </trkpt>
      <trkpt lat="43.39241" lon="2.44492">
        <ele>838.6</ele>
        <time>2026-06-20T09:08:16Z</time>
      </trkpt>
      <trkpt lat="43.3924" lon="2.44489">
        <ele>838.6</ele>
        <time>2026-06-20T09:08:17Z</time>
      </trkpt>
      <trkpt lat="43.39239" lon="2.44484">
        <ele>838.7</ele>
        <time>2026-06-20T09:08:18Z</time>
      </trkpt>
      <trkpt lat="43.39237" lon="2.44479">
        <ele>838.8</ele>
        <time>2026-06-20T09:08:19Z</time>
      </trkpt>
      <trkpt lat="43.39235" lon="2.44474">
        <ele>839</ele>
        <time>2026-06-20T09:08:20Z</time>
      </trkpt>
      <trkpt lat="43.39232" lon="2.44472">
        <ele>839.4</ele>
        <time>2026-06-20T09:08:21Z</time>
      </trkpt>
      <trkpt lat="43.39231" lon="2.4447">
        <ele>839.7</ele>
        <time>2026-06-20T09:08:22Z</time>
      </trkpt>
      <trkpt lat="43.3923" lon="2.44467">
        <ele>839.9</ele>
        <time>2026-06-20T09:08:23Z</time>
      </trkpt>
      <trkpt lat="43.39227" lon="2.44462">
        <ele>840.2</ele>
        <time>2026-06-20T09:08:24Z</time>
      </trkpt>
      <trkpt lat="43.39225" lon="2.44457">
        <ele>840.3</ele>
        <time>2026-06-20T09:08:25Z</time>
      </trkpt>
      <trkpt lat="43.39222" lon="2.44451">
        <ele>840.4</ele>
        <time>2026-06-20T09:08:26Z</time>
      </trkpt>
      <trkpt lat="43.39221" lon="2.44447">
        <ele>840.4</ele>
        <time>2026-06-20T09:08:27Z</time>
      </trkpt>
      <trkpt lat="43.39218" lon="2.44442">
        <ele>840.7</ele>
        <time>2026-06-20T09:08:28Z</time>
      </trkpt>
      <trkpt lat="43.39216" lon="2.44442">
        <ele>841.1</ele>
        <time>2026-06-20T09:08:29Z</time>
      </trkpt>
      <trkpt lat="43.39215" lon="2.4444">
        <ele>841.2</ele>
        <time>2026-06-20T09:08:30Z</time>
      </trkpt>
      <trkpt lat="43.39212" lon="2.44437">
        <ele>841.7</ele>
        <time>2026-06-20T09:08:31Z</time>
      </trkpt>
      <trkpt lat="43.39205" lon="2.44431">
        <ele>842.8</ele>
        <time>2026-06-20T09:08:32Z</time>
      </trkpt>
      <trkpt lat="43.392" lon="2.44426">
        <ele>843.5</ele>
        <time>2026-06-20T09:08:33Z</time>
      </trkpt>
      <trkpt lat="43.39194" lon="2.44422">
        <ele>844.4</ele>
        <time>2026-06-20T09:08:34Z</time>
      </trkpt>
      <trkpt lat="43.39192" lon="2.4442">
        <ele>844.9</ele>
        <time>2026-06-20T09:08:35Z</time>
      </trkpt>
      <trkpt lat="43.39188" lon="2.44416">
        <ele>845.3</ele>
        <time>2026-06-20T09:08:36Z</time>
      </trkpt>
      <trkpt lat="43.39185" lon="2.44413">
        <ele>845.6</ele>
        <time>2026-06-20T09:08:37Z</time>
      </trkpt>
      <trkpt lat="43.39181" lon="2.44408">
        <ele>846.1</ele>
        <time>2026-06-20T09:08:38Z</time>
      </trkpt>
      <trkpt lat="43.39177" lon="2.44404">
        <ele>846.6</ele>
        <time>2026-06-20T09:08:39Z</time>
      </trkpt>
      <trkpt lat="43.39173" lon="2.444">
        <ele>847</ele>
        <time>2026-06-20T09:08:40Z</time>
      </trkpt>
      <trkpt lat="43.39171" lon="2.44395">
        <ele>846.9</ele>
        <time>2026-06-20T09:08:41Z</time>
      </trkpt>
      <trkpt lat="43.39169" lon="2.44392">
        <ele>847</ele>
        <time>2026-06-20T09:08:42Z</time>
      </trkpt>
      <trkpt lat="43.39166" lon="2.4439">
        <ele>847.2</ele>
        <time>2026-06-20T09:08:43Z</time>
      </trkpt>
      <trkpt lat="43.39164" lon="2.44388">
        <ele>847.3</ele>
        <time>2026-06-20T09:08:44Z</time>
      </trkpt>
      <trkpt lat="43.39162" lon="2.44386">
        <ele>847.4</ele>
        <time>2026-06-20T09:08:45Z</time>
      </trkpt>
      <trkpt lat="43.39159" lon="2.44384">
        <ele>847.6</ele>
        <time>2026-06-20T09:08:46Z</time>
      </trkpt>
      <trkpt lat="43.39157" lon="2.44382">
        <ele>847.6</ele>
        <time>2026-06-20T09:08:47Z</time>
      </trkpt>
      <trkpt lat="43.39156" lon="2.44381">
        <ele>847.8</ele>
        <time>2026-06-20T09:08:48Z</time>
      </trkpt>
      <trkpt lat="43.39153" lon="2.4438">
        <ele>848.1</ele>
        <time>2026-06-20T09:08:49Z</time>
      </trkpt>
      <trkpt lat="43.39149" lon="2.44379">
        <ele>848.4</ele>
        <time>2026-06-20T09:08:50Z</time>
      </trkpt>
      <trkpt lat="43.39146" lon="2.44378">
        <ele>848.8</ele>
        <time>2026-06-20T09:08:51Z</time>
      </trkpt>
      <trkpt lat="43.39143" lon="2.44377">
        <ele>849.1</ele>
        <time>2026-06-20T09:08:52Z</time>
      </trkpt>
      <trkpt lat="43.39139" lon="2.44375">
        <ele>849.5</ele>
        <time>2026-06-20T09:08:53Z</time>
      </trkpt>
      <trkpt lat="43.39134" lon="2.44373">
        <ele>849.7</ele>
        <time>2026-06-20T09:08:54Z</time>
      </trkpt>
      <trkpt lat="43.39132" lon="2.44372">
        <ele>849.9</ele>
        <time>2026-06-20T09:08:55Z</time>
      </trkpt>
      <trkpt lat="43.39129" lon="2.44372">
        <ele>850.3</ele>
        <time>2026-06-20T09:08:56Z</time>
      </trkpt>
      <trkpt lat="43.39125" lon="2.44372">
        <ele>850.8</ele>
        <time>2026-06-20T09:08:57Z</time>
      </trkpt>
      <trkpt lat="43.39122" lon="2.44372">
        <ele>851.1</ele>
        <time>2026-06-20T09:08:58Z</time>
      </trkpt>
      <trkpt lat="43.39119" lon="2.44372">
        <ele>851.6</ele>
        <time>2026-06-20T09:08:59Z</time>
      </trkpt>
      <trkpt lat="43.39115" lon="2.44372">
        <ele>852.1</ele>
        <time>2026-06-20T09:09:00Z</time>
      </trkpt>
      <trkpt lat="43.39111" lon="2.44372">
        <ele>852.6</ele>
        <time>2026-06-20T09:09:01Z</time>
      </trkpt>
      <trkpt lat="43.39108" lon="2.44373">
        <ele>852.9</ele>
        <time>2026-06-20T09:09:02Z</time>
      </trkpt>
      <trkpt lat="43.39104" lon="2.44374">
        <ele>853.3</ele>
        <time>2026-06-20T09:09:03Z</time>
      </trkpt>
      <trkpt lat="43.391" lon="2.44376">
        <ele>853.8</ele>
        <time>2026-06-20T09:09:04Z</time>
      </trkpt>
      <trkpt lat="43.39097" lon="2.44377">
        <ele>854.1</ele>
        <time>2026-06-20T09:09:05Z</time>
      </trkpt>
      <trkpt lat="43.39093" lon="2.44378">
        <ele>854.5</ele>
        <time>2026-06-20T09:09:06Z</time>
      </trkpt>
      <trkpt lat="43.39089" lon="2.4438">
        <ele>855</ele>
        <time>2026-06-20T09:09:07Z</time>
      </trkpt>
      <trkpt lat="43.39085" lon="2.44381">
        <ele>855.5</ele>
        <time>2026-06-20T09:09:08Z</time>
      </trkpt>
      <trkpt lat="43.3908" lon="2.44382">
        <ele>855.8</ele>
        <time>2026-06-20T09:09:09Z</time>
      </trkpt>
      <trkpt lat="43.39075" lon="2.44384">
        <ele>856.2</ele>
        <time>2026-06-20T09:09:10Z</time>
      </trkpt>
      <trkpt lat="43.39072" lon="2.44387">
        <ele>856.7</ele>
        <time>2026-06-20T09:09:11Z</time>
      </trkpt>
      <trkpt lat="43.39068" lon="2.44389">
        <ele>857.1</ele>
        <time>2026-06-20T09:09:12Z</time>
      </trkpt>
      <trkpt lat="43.39065" lon="2.44392">
        <ele>857.4</ele>
        <time>2026-06-20T09:09:13Z</time>
      </trkpt>
      <trkpt lat="43.39062" lon="2.44392">
        <ele>857.5</ele>
        <time>2026-06-20T09:09:14Z</time>
      </trkpt>
      <trkpt lat="43.39058" lon="2.44394">
        <ele>857.7</ele>
        <time>2026-06-20T09:09:15Z</time>
      </trkpt>
      <trkpt lat="43.39053" lon="2.44395">
        <ele>857.9</ele>
        <time>2026-06-20T09:09:16Z</time>
      </trkpt>
      <trkpt lat="43.39049" lon="2.44397">
        <ele>858.3</ele>
        <time>2026-06-20T09:09:17Z</time>
      </trkpt>
      <trkpt lat="43.39044" lon="2.444">
        <ele>858.8</ele>
        <time>2026-06-20T09:09:18Z</time>
      </trkpt>
      <trkpt lat="43.39039" lon="2.444">
        <ele>859</ele>
        <time>2026-06-20T09:09:19Z</time>
      </trkpt>
      <trkpt lat="43.39032" lon="2.44401">
        <ele>859.2</ele>
        <time>2026-06-20T09:09:20Z</time>
      </trkpt>
      <trkpt lat="43.39029" lon="2.44403">
        <ele>859.5</ele>
        <time>2026-06-20T09:09:21Z</time>
      </trkpt>
      <trkpt lat="43.39025" lon="2.44405">
        <ele>859.6</ele>
        <time>2026-06-20T09:09:22Z</time>
      </trkpt>
      <trkpt lat="43.3902" lon="2.44408">
        <ele>859.8</ele>
        <time>2026-06-20T09:09:23Z</time>
      </trkpt>
      <trkpt lat="43.39015" lon="2.44411">
        <ele>860</ele>
        <time>2026-06-20T09:09:24Z</time>
      </trkpt>
      <trkpt lat="43.39013" lon="2.44416">
        <ele>860.3</ele>
        <time>2026-06-20T09:09:25Z</time>
      </trkpt>
      <trkpt lat="43.39012" lon="2.44422">
        <ele>860.9</ele>
        <time>2026-06-20T09:09:26Z</time>
      </trkpt>
      <trkpt lat="43.39008" lon="2.44427">
        <ele>861.1</ele>
        <time>2026-06-20T09:09:27Z</time>
      </trkpt>
      <trkpt lat="43.39005" lon="2.4443">
        <ele>861.3</ele>
        <time>2026-06-20T09:09:28Z</time>
      </trkpt>
      <trkpt lat="43.39002" lon="2.44435">
        <ele>861.4</ele>
        <time>2026-06-20T09:09:29Z</time>
      </trkpt>
      <trkpt lat="43.38999" lon="2.44439">
        <ele>861.5</ele>
        <time>2026-06-20T09:09:30Z</time>
      </trkpt>
      <trkpt lat="43.38995" lon="2.44443">
        <ele>861.5</ele>
        <time>2026-06-20T09:09:31Z</time>
      </trkpt>
      <trkpt lat="43.38991" lon="2.44447">
        <ele>861.7</ele>
        <time>2026-06-20T09:09:32Z</time>
      </trkpt>
      <trkpt lat="43.38989" lon="2.44451">
        <ele>862.1</ele>
        <time>2026-06-20T09:09:33Z</time>
      </trkpt>
      <trkpt lat="43.38987" lon="2.44455">
        <ele>862.5</ele>
        <time>2026-06-20T09:09:34Z</time>
      </trkpt>
      <trkpt lat="43.38984" lon="2.44459">
        <ele>862.9</ele>
        <time>2026-06-20T09:09:35Z</time>
      </trkpt>
      <trkpt lat="43.38981" lon="2.44464">
        <ele>863.4</ele>
        <time>2026-06-20T09:09:36Z</time>
      </trkpt>
      <trkpt lat="43.38979" lon="2.44467">
        <ele>863.8</ele>
        <time>2026-06-20T09:09:37Z</time>
      </trkpt>
      <trkpt lat="43.38976" lon="2.4447">
        <ele>863.9</ele>
        <time>2026-06-20T09:09:38Z</time>
      </trkpt>
      <trkpt lat="43.38973" lon="2.44472">
        <ele>864.1</ele>
        <time>2026-06-20T09:09:39Z</time>
      </trkpt>
      <trkpt lat="43.38968" lon="2.44475">
        <ele>864.6</ele>
        <time>2026-06-20T09:09:40Z</time>
      </trkpt>
      <trkpt lat="43.38964" lon="2.44476">
        <ele>864.9</ele>
        <time>2026-06-20T09:09:41Z</time>
      </trkpt>
      <trkpt lat="43.38961" lon="2.44476">
        <ele>865.1</ele>
        <time>2026-06-20T09:09:42Z</time>
      </trkpt>
      <trkpt lat="43.38955" lon="2.44476">
        <ele>865.3</ele>
        <time>2026-06-20T09:09:43Z</time>
      </trkpt>
      <trkpt lat="43.38951" lon="2.44476">
        <ele>865.3</ele>
        <time>2026-06-20T09:09:44Z</time>
      </trkpt>
      <trkpt lat="43.38947" lon="2.44475">
        <ele>865.3</ele>
        <time>2026-06-20T09:09:45Z</time>
      </trkpt>
      <trkpt lat="43.38943" lon="2.44473">
        <ele>865.3</ele>
        <time>2026-06-20T09:09:46Z</time>
      </trkpt>
      <trkpt lat="43.38938" lon="2.44472">
        <ele>865.4</ele>
        <time>2026-06-20T09:09:47Z</time>
      </trkpt>
      <trkpt lat="43.38933" lon="2.4447">
        <ele>865.6</ele>
        <time>2026-06-20T09:09:48Z</time>
      </trkpt>
      <trkpt lat="43.38929" lon="2.44468">
        <ele>865.7</ele>
        <time>2026-06-20T09:09:49Z</time>
      </trkpt>
      <trkpt lat="43.38924" lon="2.44466">
        <ele>865.8</ele>
        <time>2026-06-20T09:09:50Z</time>
      </trkpt>
      <trkpt lat="43.38919" lon="2.44464">
        <ele>865.9</ele>
        <time>2026-06-20T09:09:51Z</time>
      </trkpt>
      <trkpt lat="43.38914" lon="2.44461">
        <ele>866</ele>
        <time>2026-06-20T09:09:52Z</time>
      </trkpt>
      <trkpt lat="43.38909" lon="2.44459">
        <ele>866.1</ele>
        <time>2026-06-20T09:09:53Z</time>
      </trkpt>
      <trkpt lat="43.38904" lon="2.44458">
        <ele>866.4</ele>
        <time>2026-06-20T09:09:54Z</time>
      </trkpt>
      <trkpt lat="43.389" lon="2.44457">
        <ele>866.6</ele>
        <time>2026-06-20T09:09:55Z</time>
      </trkpt>
      <trkpt lat="43.38894" lon="2.44455">
        <ele>866.8</ele>
        <time>2026-06-20T09:09:56Z</time>
      </trkpt>
      <trkpt lat="43.38888" lon="2.44454">
        <ele>867</ele>
        <time>2026-06-20T09:09:57Z</time>
      </trkpt>
      <trkpt lat="43.38882" lon="2.44452">
        <ele>867</ele>
        <time>2026-06-20T09:09:58Z</time>
      </trkpt>
      <trkpt lat="43.38877" lon="2.4445">
        <ele>867.1</ele>
        <time>2026-06-20T09:09:59Z</time>
      </trkpt>
      <trkpt lat="43.38871" lon="2.44449">
        <ele>867.1</ele>
        <time>2026-06-20T09:10:00Z</time>
      </trkpt>
      <trkpt lat="43.38866" lon="2.44448">
        <ele>867.2</ele>
        <time>2026-06-20T09:10:01Z</time>
      </trkpt>
      <trkpt lat="43.3886" lon="2.44447">
        <ele>867.2</ele>
        <time>2026-06-20T09:10:02Z</time>
      </trkpt>
      <trkpt lat="43.38853" lon="2.44446">
        <ele>867.1</ele>
        <time>2026-06-20T09:10:03Z</time>
      </trkpt>
      <trkpt lat="43.38847" lon="2.44446">
        <ele>867.1</ele>
        <time>2026-06-20T09:10:04Z</time>
      </trkpt>
      <trkpt lat="43.38839" lon="2.44445">
        <ele>867</ele>
        <time>2026-06-20T09:10:05Z</time>
      </trkpt>
      <trkpt lat="43.38832" lon="2.44444">
        <ele>867</ele>
        <time>2026-06-20T09:10:06Z</time>
      </trkpt>
      <trkpt lat="43.38827" lon="2.44447">
        <ele>867.2</ele>
        <time>2026-06-20T09:10:07Z</time>
      </trkpt>
      <trkpt lat="43.38822" lon="2.44451">
        <ele>867.6</ele>
        <time>2026-06-20T09:10:08Z</time>
      </trkpt>
      <trkpt lat="43.38817" lon="2.44455">
        <ele>868</ele>
        <time>2026-06-20T09:10:09Z</time>
      </trkpt>
      <trkpt lat="43.38811" lon="2.44461">
        <ele>868.3</ele>
        <time>2026-06-20T09:10:10Z</time>
      </trkpt>
      <trkpt lat="43.38807" lon="2.44464">
        <ele>868.5</ele>
        <time>2026-06-20T09:10:11Z</time>
      </trkpt>
      <trkpt lat="43.38803" lon="2.44469">
        <ele>868.7</ele>
        <time>2026-06-20T09:10:12Z</time>
      </trkpt>
      <trkpt lat="43.38798" lon="2.44475">
        <ele>868.9</ele>
        <time>2026-06-20T09:10:13Z</time>
      </trkpt>
      <trkpt lat="43.38795" lon="2.44479">
        <ele>869</ele>
        <time>2026-06-20T09:10:14Z</time>
      </trkpt>
      <trkpt lat="43.38792" lon="2.44485">
        <ele>869.2</ele>
        <time>2026-06-20T09:10:15Z</time>
      </trkpt>
      <trkpt lat="43.38789" lon="2.4449">
        <ele>869.3</ele>
        <time>2026-06-20T09:10:16Z</time>
      </trkpt>
      <trkpt lat="43.38785" lon="2.44496">
        <ele>869.4</ele>
        <time>2026-06-20T09:10:17Z</time>
      </trkpt>
      <trkpt lat="43.38782" lon="2.44502">
        <ele>869.4</ele>
        <time>2026-06-20T09:10:18Z</time>
      </trkpt>
      <trkpt lat="43.38779" lon="2.44509">
        <ele>869.4</ele>
        <time>2026-06-20T09:10:19Z</time>
      </trkpt>
      <trkpt lat="43.38776" lon="2.44513">
        <ele>869.4</ele>
        <time>2026-06-20T09:10:20Z</time>
      </trkpt>
      <trkpt lat="43.38772" lon="2.44521">
        <ele>869.6</ele>
        <time>2026-06-20T09:10:21Z</time>
      </trkpt>
      <trkpt lat="43.38771" lon="2.44525">
        <ele>869.7</ele>
        <time>2026-06-20T09:10:22Z</time>
      </trkpt>
      <trkpt lat="43.38769" lon="2.4453">
        <ele>869.7</ele>
        <time>2026-06-20T09:10:23Z</time>
      </trkpt>
      <trkpt lat="43.38768" lon="2.44537">
        <ele>869.7</ele>
        <time>2026-06-20T09:10:24Z</time>
      </trkpt>
      <trkpt lat="43.3877" lon="2.44542">
        <ele>869.7</ele>
        <time>2026-06-20T09:10:25Z</time>
      </trkpt>
      <trkpt lat="43.38773" lon="2.44548">
        <ele>869.8</ele>
        <time>2026-06-20T09:10:26Z</time>
      </trkpt>
      <trkpt lat="43.38776" lon="2.44552">
        <ele>869.9</ele>
        <time>2026-06-20T09:10:27Z</time>
      </trkpt>
      <trkpt lat="43.3878" lon="2.44557">
        <ele>870.1</ele>
        <time>2026-06-20T09:10:28Z</time>
      </trkpt>
      <trkpt lat="43.38784" lon="2.44562">
        <ele>870.2</ele>
        <time>2026-06-20T09:10:29Z</time>
      </trkpt>
      <trkpt lat="43.38788" lon="2.44567">
        <ele>870.3</ele>
        <time>2026-06-20T09:10:30Z</time>
      </trkpt>
      <trkpt lat="43.38792" lon="2.44572">
        <ele>870.4</ele>
        <time>2026-06-20T09:10:31Z</time>
      </trkpt>
      <trkpt lat="43.38796" lon="2.44576">
        <ele>870.5</ele>
        <time>2026-06-20T09:10:32Z</time>
      </trkpt>
      <trkpt lat="43.388" lon="2.44581">
        <ele>870.7</ele>
        <time>2026-06-20T09:10:33Z</time>
      </trkpt>
      <trkpt lat="43.38803" lon="2.44585">
        <ele>870.8</ele>
        <time>2026-06-20T09:10:34Z</time>
      </trkpt>
      <trkpt lat="43.38806" lon="2.4459">
        <ele>870.8</ele>
        <time>2026-06-20T09:10:35Z</time>
      </trkpt>
      <trkpt lat="43.38813" lon="2.446">
        <ele>871.2</ele>
        <time>2026-06-20T09:10:37Z</time>
      </trkpt>
      <trkpt lat="43.38831" lon="2.44628">
        <ele>872.1</ele>
        <time>2026-06-20T09:10:42Z</time>
      </trkpt>
      <trkpt lat="43.38835" lon="2.44633">
        <ele>872.3</ele>
        <time>2026-06-20T09:10:43Z</time>
      </trkpt>
      <trkpt lat="43.38848" lon="2.44662">
        <ele>873.2</ele>
        <time>2026-06-20T09:10:47Z</time>
      </trkpt>
      <trkpt lat="43.3885" lon="2.4467">
        <ele>873.3</ele>
        <time>2026-06-20T09:10:48Z</time>
      </trkpt>
      <trkpt lat="43.38851" lon="2.44691">
        <ele>872.7</ele>
        <time>2026-06-20T09:10:51Z</time>
      </trkpt>
      <trkpt lat="43.3885" lon="2.44697">
        <ele>872.6</ele>
        <time>2026-06-20T09:10:52Z</time>
      </trkpt>
      <trkpt lat="43.38848" lon="2.44704">
        <ele>872.8</ele>
        <time>2026-06-20T09:10:53Z</time>
      </trkpt>
      <trkpt lat="43.38847" lon="2.44712">
        <ele>873.3</ele>
        <time>2026-06-20T09:10:54Z</time>
      </trkpt>
      <trkpt lat="43.38842" lon="2.44735">
        <ele>874.4</ele>
        <time>2026-06-20T09:10:57Z</time>
      </trkpt>
      <trkpt lat="43.38839" lon="2.44742">
        <ele>874.7</ele>
        <time>2026-06-20T09:10:58Z</time>
      </trkpt>
      <trkpt lat="43.38832" lon="2.44755">
        <ele>875</ele>
        <time>2026-06-20T09:11:00Z</time>
      </trkpt>
      <trkpt lat="43.38829" lon="2.44761">
        <ele>874.8</ele>
        <time>2026-06-20T09:11:01Z</time>
      </trkpt>
      <trkpt lat="43.38828" lon="2.44767">
        <ele>874.8</ele>
        <time>2026-06-20T09:11:02Z</time>
      </trkpt>
      <trkpt lat="43.38826" lon="2.44773">
        <ele>874.9</ele>
        <time>2026-06-20T09:11:03Z</time>
      </trkpt>
      <trkpt lat="43.38822" lon="2.44777">
        <ele>874.8</ele>
        <time>2026-06-20T09:11:04Z</time>
      </trkpt>
      <trkpt lat="43.38819" lon="2.44782">
        <ele>874.8</ele>
        <time>2026-06-20T09:11:05Z</time>
      </trkpt>
      <trkpt lat="43.38814" lon="2.44788">
        <ele>874.9</ele>
        <time>2026-06-20T09:11:06Z</time>
      </trkpt>
      <trkpt lat="43.3881" lon="2.44793">
        <ele>875</ele>
        <time>2026-06-20T09:11:07Z</time>
      </trkpt>
      <trkpt lat="43.38805" lon="2.44799">
        <ele>875.2</ele>
        <time>2026-06-20T09:11:08Z</time>
      </trkpt>
      <trkpt lat="43.38802" lon="2.44804">
        <ele>875.5</ele>
        <time>2026-06-20T09:11:09Z</time>
      </trkpt>
      <trkpt lat="43.388" lon="2.44811">
        <ele>875.8</ele>
        <time>2026-06-20T09:11:10Z</time>
      </trkpt>
      <trkpt lat="43.38798" lon="2.44818">
        <ele>876.1</ele>
        <time>2026-06-20T09:11:11Z</time>
      </trkpt>
      <trkpt lat="43.38797" lon="2.44825">
        <ele>876.7</ele>
        <time>2026-06-20T09:11:12Z</time>
      </trkpt>
      <trkpt lat="43.38795" lon="2.44832">
        <ele>877.1</ele>
        <time>2026-06-20T09:11:13Z</time>
      </trkpt>
      <trkpt lat="43.38792" lon="2.44839">
        <ele>877.6</ele>
        <time>2026-06-20T09:11:14Z</time>
      </trkpt>
      <trkpt lat="43.3879" lon="2.44843">
        <ele>877.8</ele>
        <time>2026-06-20T09:11:15Z</time>
      </trkpt>
      <trkpt lat="43.38786" lon="2.44847">
        <ele>877.9</ele>
        <time>2026-06-20T09:11:16Z</time>
      </trkpt>
      <trkpt lat="43.38782" lon="2.44848">
        <ele>877.8</ele>
        <time>2026-06-20T09:11:17Z</time>
      </trkpt>
      <trkpt lat="43.38778" lon="2.44846">
        <ele>877.4</ele>
        <time>2026-06-20T09:11:18Z</time>
      </trkpt>
      <trkpt lat="43.38777" lon="2.44843">
        <ele>877</ele>
        <time>2026-06-20T09:11:19Z</time>
      </trkpt>
      <trkpt lat="43.38775" lon="2.44839">
        <ele>876.6</ele>
        <time>2026-06-20T09:11:20Z</time>
      </trkpt>
      <trkpt lat="43.38773" lon="2.44835">
        <ele>876.1</ele>
        <time>2026-06-20T09:11:21Z</time>
      </trkpt>
      <trkpt lat="43.38769" lon="2.44831">
        <ele>875.8</ele>
        <time>2026-06-20T09:11:22Z</time>
      </trkpt>
      <trkpt lat="43.38765" lon="2.44828">
        <ele>875.4</ele>
        <time>2026-06-20T09:11:23Z</time>
      </trkpt>
      <trkpt lat="43.38762" lon="2.44825">
        <ele>875.1</ele>
        <time>2026-06-20T09:11:24Z</time>
      </trkpt>
      <trkpt lat="43.38761" lon="2.44823">
        <ele>874.9</ele>
        <time>2026-06-20T09:11:25Z</time>
      </trkpt>
      <trkpt lat="43.3876" lon="2.44823">
        <ele>874.8</ele>
        <time>2026-06-20T09:11:26Z</time>
      </trkpt>
      <trkpt lat="43.3876" lon="2.44823">
        <ele>874.8</ele>
        <time>2026-06-20T09:11:27Z</time>
      </trkpt>
      <trkpt lat="43.3876" lon="2.44823">
        <ele>874.8</ele>
        <time>2026-06-20T09:11:28Z</time>
      </trkpt>
      <trkpt lat="43.3876" lon="2.44823">
        <ele>874.8</ele>
        <time>2026-06-20T09:11:30Z</time>
      </trkpt>
      <trkpt lat="43.3876" lon="2.44813">
        <ele>873.8</ele>
        <time>2026-06-20T09:11:38Z</time>
      </trkpt>
      <trkpt lat="43.38759" lon="2.44787">
        <ele>870.5</ele>
        <time>2026-06-20T09:11:43Z</time>
      </trkpt>
      <trkpt lat="43.38759" lon="2.44781">
        <ele>869.8</ele>
        <time>2026-06-20T09:11:44Z</time>
      </trkpt>
      <trkpt lat="43.38759" lon="2.44775">
        <ele>868.9</ele>
        <time>2026-06-20T09:11:45Z</time>
      </trkpt>
      <trkpt lat="43.3876" lon="2.4477">
        <ele>868.1</ele>
        <time>2026-06-20T09:11:46Z</time>
      </trkpt>
      <trkpt lat="43.38759" lon="2.44765">
        <ele>867.6</ele>
        <time>2026-06-20T09:11:47Z</time>
      </trkpt>
      <trkpt lat="43.38758" lon="2.44762">
        <ele>867.1</ele>
        <time>2026-06-20T09:11:48Z</time>
      </trkpt>
      <trkpt lat="43.38754" lon="2.44757">
        <ele>866.7</ele>
        <time>2026-06-20T09:11:49Z</time>
      </trkpt>
      <trkpt lat="43.38749" lon="2.44753">
        <ele>866.4</ele>
        <time>2026-06-20T09:11:50Z</time>
      </trkpt>
      <trkpt lat="43.38739" lon="2.44744">
        <ele>864.4</ele>
        <time>2026-06-20T09:11:52Z</time>
      </trkpt>
      <trkpt lat="43.38733" lon="2.44743">
        <ele>864</ele>
        <time>2026-06-20T09:11:53Z</time>
      </trkpt>
      <trkpt lat="43.3873" lon="2.44745">
        <ele>864.3</ele>
        <time>2026-06-20T09:11:54Z</time>
      </trkpt>
      <trkpt lat="43.38728" lon="2.44747">
        <ele>864.5</ele>
        <time>2026-06-20T09:11:55Z</time>
      </trkpt>
      <trkpt lat="43.38724" lon="2.44748">
        <ele>864.6</ele>
        <time>2026-06-20T09:11:56Z</time>
      </trkpt>
      <trkpt lat="43.3872" lon="2.44748">
        <ele>864.6</ele>
        <time>2026-06-20T09:11:57Z</time>
      </trkpt>
      <trkpt lat="43.38714" lon="2.44748">
        <ele>864.1</ele>
        <time>2026-06-20T09:11:58Z</time>
      </trkpt>
      <trkpt lat="43.38708" lon="2.44748">
        <ele>864</ele>
        <time>2026-06-20T09:11:59Z</time>
      </trkpt>
      <trkpt lat="43.38702" lon="2.4475">
        <ele>864.2</ele>
        <time>2026-06-20T09:12:00Z</time>
      </trkpt>
      <trkpt lat="43.38697" lon="2.44753">
        <ele>864.5</ele>
        <time>2026-06-20T09:12:01Z</time>
      </trkpt>
      <trkpt lat="43.38694" lon="2.44755">
        <ele>864.7</ele>
        <time>2026-06-20T09:12:02Z</time>
      </trkpt>
      <trkpt lat="43.38689" lon="2.44754">
        <ele>864.3</ele>
        <time>2026-06-20T09:12:03Z</time>
      </trkpt>
      <trkpt lat="43.38683" lon="2.44752">
        <ele>863.5</ele>
        <time>2026-06-20T09:12:04Z</time>
      </trkpt>
      <trkpt lat="43.38678" lon="2.4475">
        <ele>862.8</ele>
        <time>2026-06-20T09:12:05Z</time>
      </trkpt>
      <trkpt lat="43.38672" lon="2.44748">
        <ele>861.9</ele>
        <time>2026-06-20T09:12:06Z</time>
      </trkpt>
      <trkpt lat="43.3866" lon="2.44745">
        <ele>860.9</ele>
        <time>2026-06-20T09:12:08Z</time>
      </trkpt>
      <trkpt lat="43.38648" lon="2.4474">
        <ele>859.7</ele>
        <time>2026-06-20T09:12:10Z</time>
      </trkpt>
      <trkpt lat="43.38637" lon="2.44733">
        <ele>858.5</ele>
        <time>2026-06-20T09:12:12Z</time>
      </trkpt>
      <trkpt lat="43.38626" lon="2.44727">
        <ele>857.8</ele>
        <time>2026-06-20T09:12:14Z</time>
      </trkpt>
      <trkpt lat="43.38621" lon="2.44724">
        <ele>857.6</ele>
        <time>2026-06-20T09:12:15Z</time>
      </trkpt>
      <trkpt lat="43.38617" lon="2.44722">
        <ele>857.5</ele>
        <time>2026-06-20T09:12:16Z</time>
      </trkpt>
      <trkpt lat="43.38612" lon="2.44721">
        <ele>857.6</ele>
        <time>2026-06-20T09:12:17Z</time>
      </trkpt>
      <trkpt lat="43.38608" lon="2.44721">
        <ele>858</ele>
        <time>2026-06-20T09:12:18Z</time>
      </trkpt>
      <trkpt lat="43.38603" lon="2.4472">
        <ele>858.2</ele>
        <time>2026-06-20T09:12:19Z</time>
      </trkpt>
      <trkpt lat="43.38599" lon="2.4472">
        <ele>858.3</ele>
        <time>2026-06-20T09:12:20Z</time>
      </trkpt>
      <trkpt lat="43.38594" lon="2.44719">
        <ele>858.5</ele>
        <time>2026-06-20T09:12:21Z</time>
      </trkpt>
      <trkpt lat="43.38588" lon="2.44719">
        <ele>858.8</ele>
        <time>2026-06-20T09:12:22Z</time>
      </trkpt>
      <trkpt lat="43.38584" lon="2.44719">
        <ele>859.2</ele>
        <time>2026-06-20T09:12:23Z</time>
      </trkpt>
      <trkpt lat="43.38579" lon="2.44719">
        <ele>859.6</ele>
        <time>2026-06-20T09:12:24Z</time>
      </trkpt>
      <trkpt lat="43.38575" lon="2.44719">
        <ele>860</ele>
        <time>2026-06-20T09:12:25Z</time>
      </trkpt>
      <trkpt lat="43.38571" lon="2.44718">
        <ele>860.1</ele>
        <time>2026-06-20T09:12:26Z</time>
      </trkpt>
      <trkpt lat="43.38568" lon="2.44717">
        <ele>860</ele>
        <time>2026-06-20T09:12:27Z</time>
      </trkpt>
      <trkpt lat="43.38565" lon="2.44717">
        <ele>860.3</ele>
        <time>2026-06-20T09:12:28Z</time>
      </trkpt>
      <trkpt lat="43.38561" lon="2.44716">
        <ele>860.6</ele>
        <time>2026-06-20T09:12:29Z</time>
      </trkpt>
      <trkpt lat="43.38556" lon="2.44715">
        <ele>860.7</ele>
        <time>2026-06-20T09:12:30Z</time>
      </trkpt>
      <trkpt lat="43.38542" lon="2.44709">
        <ele>859.4</ele>
        <time>2026-06-20T09:12:32Z</time>
      </trkpt>
      <trkpt lat="43.38535" lon="2.44706">
        <ele>858.7</ele>
        <time>2026-06-20T09:12:33Z</time>
      </trkpt>
      <trkpt lat="43.38515" lon="2.44699">
        <ele>856.8</ele>
        <time>2026-06-20T09:12:35Z</time>
      </trkpt>
      <trkpt lat="43.38509" lon="2.44699">
        <ele>856.4</ele>
        <time>2026-06-20T09:12:36Z</time>
      </trkpt>
      <trkpt lat="43.38503" lon="2.44701">
        <ele>856.1</ele>
        <time>2026-06-20T09:12:37Z</time>
      </trkpt>
      <trkpt lat="43.38497" lon="2.44703">
        <ele>856.2</ele>
        <time>2026-06-20T09:12:38Z</time>
      </trkpt>
      <trkpt lat="43.38492" lon="2.44708">
        <ele>856.9</ele>
        <time>2026-06-20T09:12:39Z</time>
      </trkpt>
      <trkpt lat="43.38487" lon="2.44713">
        <ele>857.2</ele>
        <time>2026-06-20T09:12:40Z</time>
      </trkpt>
      <trkpt lat="43.38484" lon="2.44716">
        <ele>857.3</ele>
        <time>2026-06-20T09:12:41Z</time>
      </trkpt>
      <trkpt lat="43.38479" lon="2.44718">
        <ele>857.2</ele>
        <time>2026-06-20T09:12:42Z</time>
      </trkpt>
      <trkpt lat="43.38474" lon="2.44719">
        <ele>857</ele>
        <time>2026-06-20T09:12:43Z</time>
      </trkpt>
      <trkpt lat="43.38469" lon="2.44721">
        <ele>856.7</ele>
        <time>2026-06-20T09:12:44Z</time>
      </trkpt>
      <trkpt lat="43.38464" lon="2.44724">
        <ele>856.5</ele>
        <time>2026-06-20T09:12:45Z</time>
      </trkpt>
      <trkpt lat="43.38459" lon="2.44726">
        <ele>856.4</ele>
        <time>2026-06-20T09:12:46Z</time>
      </trkpt>
      <trkpt lat="43.38454" lon="2.44727">
        <ele>856.1</ele>
        <time>2026-06-20T09:12:47Z</time>
      </trkpt>
      <trkpt lat="43.38449" lon="2.44725">
        <ele>855.6</ele>
        <time>2026-06-20T09:12:48Z</time>
      </trkpt>
      <trkpt lat="43.38439" lon="2.44714">
        <ele>853.9</ele>
        <time>2026-06-20T09:12:50Z</time>
      </trkpt>
      <trkpt lat="43.38433" lon="2.44707">
        <ele>852.9</ele>
        <time>2026-06-20T09:12:51Z</time>
      </trkpt>
      <trkpt lat="43.38419" lon="2.44694">
        <ele>851</ele>
        <time>2026-06-20T09:12:53Z</time>
      </trkpt>
      <trkpt lat="43.38411" lon="2.44687">
        <ele>849.6</ele>
        <time>2026-06-20T09:12:54Z</time>
      </trkpt>
      <trkpt lat="43.38395" lon="2.44673">
        <ele>847.7</ele>
        <time>2026-06-20T09:12:56Z</time>
      </trkpt>
      <trkpt lat="43.38387" lon="2.44666">
        <ele>847</ele>
        <time>2026-06-20T09:12:57Z</time>
      </trkpt>
      <trkpt lat="43.38379" lon="2.44659">
        <ele>846.6</ele>
        <time>2026-06-20T09:12:58Z</time>
      </trkpt>
      <trkpt lat="43.38372" lon="2.44653">
        <ele>846.3</ele>
        <time>2026-06-20T09:12:59Z</time>
      </trkpt>
      <trkpt lat="43.38357" lon="2.44637">
        <ele>846.4</ele>
        <time>2026-06-20T09:13:01Z</time>
      </trkpt>
      <trkpt lat="43.3835" lon="2.4463">
        <ele>846.6</ele>
        <time>2026-06-20T09:13:02Z</time>
      </trkpt>
      <trkpt lat="43.38343" lon="2.44623">
        <ele>847</ele>
        <time>2026-06-20T09:13:03Z</time>
      </trkpt>
      <trkpt lat="43.38338" lon="2.44616">
        <ele>847.4</ele>
        <time>2026-06-20T09:13:04Z</time>
      </trkpt>
      <trkpt lat="43.38334" lon="2.44611">
        <ele>847.9</ele>
        <time>2026-06-20T09:13:05Z</time>
      </trkpt>
      <trkpt lat="43.3833" lon="2.44606">
        <ele>848.1</ele>
        <time>2026-06-20T09:13:06Z</time>
      </trkpt>
      <trkpt lat="43.38325" lon="2.44602">
        <ele>848.6</ele>
        <time>2026-06-20T09:13:07Z</time>
      </trkpt>
      <trkpt lat="43.38321" lon="2.44598">
        <ele>849.1</ele>
        <time>2026-06-20T09:13:08Z</time>
      </trkpt>
      <trkpt lat="43.38315" lon="2.44593">
        <ele>849.8</ele>
        <time>2026-06-20T09:13:09Z</time>
      </trkpt>
      <trkpt lat="43.38306" lon="2.44584">
        <ele>851</ele>
        <time>2026-06-20T09:13:11Z</time>
      </trkpt>
      <trkpt lat="43.38279" lon="2.44557">
        <ele>849.9</ele>
        <time>2026-06-20T09:13:16Z</time>
      </trkpt>
      <trkpt lat="43.38273" lon="2.44552">
        <ele>849.5</ele>
        <time>2026-06-20T09:13:17Z</time>
      </trkpt>
      <trkpt lat="43.38262" lon="2.44543">
        <ele>848.7</ele>
        <time>2026-06-20T09:13:19Z</time>
      </trkpt>
      <trkpt lat="43.38256" lon="2.44538">
        <ele>848.9</ele>
        <time>2026-06-20T09:13:20Z</time>
      </trkpt>
      <trkpt lat="43.3825" lon="2.44534">
        <ele>849.2</ele>
        <time>2026-06-20T09:13:21Z</time>
      </trkpt>
      <trkpt lat="43.38245" lon="2.4453">
        <ele>848.7</ele>
        <time>2026-06-20T09:13:22Z</time>
      </trkpt>
      <trkpt lat="43.3824" lon="2.44526">
        <ele>848</ele>
        <time>2026-06-20T09:13:23Z</time>
      </trkpt>
      <trkpt lat="43.38236" lon="2.44522">
        <ele>847.1</ele>
        <time>2026-06-20T09:13:24Z</time>
      </trkpt>
      <trkpt lat="43.38231" lon="2.44519">
        <ele>846.5</ele>
        <time>2026-06-20T09:13:25Z</time>
      </trkpt>
      <trkpt lat="43.38227" lon="2.44517">
        <ele>846</ele>
        <time>2026-06-20T09:13:26Z</time>
      </trkpt>
      <trkpt lat="43.38222" lon="2.44515">
        <ele>845.6</ele>
        <time>2026-06-20T09:13:27Z</time>
      </trkpt>
      <trkpt lat="43.38217" lon="2.44513">
        <ele>843.9</ele>
        <time>2026-06-20T09:13:28Z</time>
      </trkpt>
      <trkpt lat="43.382" lon="2.44508">
        <ele>839.1</ele>
        <time>2026-06-20T09:13:31Z</time>
      </trkpt>
      <trkpt lat="43.38196" lon="2.44505">
        <ele>837.7</ele>
        <time>2026-06-20T09:13:32Z</time>
      </trkpt>
      <trkpt lat="43.38191" lon="2.44502">
        <ele>836.7</ele>
        <time>2026-06-20T09:13:33Z</time>
      </trkpt>
      <trkpt lat="43.38188" lon="2.44497">
        <ele>835.8</ele>
        <time>2026-06-20T09:13:34Z</time>
      </trkpt>
      <trkpt lat="43.38185" lon="2.44493">
        <ele>834.7</ele>
        <time>2026-06-20T09:13:35Z</time>
      </trkpt>
      <trkpt lat="43.38181" lon="2.44488">
        <ele>833.4</ele>
        <time>2026-06-20T09:13:36Z</time>
      </trkpt>
      <trkpt lat="43.38178" lon="2.44483">
        <ele>832</ele>
        <time>2026-06-20T09:13:37Z</time>
      </trkpt>
      <trkpt lat="43.38174" lon="2.44479">
        <ele>830.5</ele>
        <time>2026-06-20T09:13:38Z</time>
      </trkpt>
      <trkpt lat="43.38169" lon="2.44476">
        <ele>829</ele>
        <time>2026-06-20T09:13:39Z</time>
      </trkpt>
      <trkpt lat="43.38158" lon="2.4447">
        <ele>825.9</ele>
        <time>2026-06-20T09:13:41Z</time>
      </trkpt>
      <trkpt lat="43.38153" lon="2.44468">
        <ele>824.5</ele>
        <time>2026-06-20T09:13:42Z</time>
      </trkpt>
      <trkpt lat="43.38147" lon="2.44466">
        <ele>822.9</ele>
        <time>2026-06-20T09:13:43Z</time>
      </trkpt>
      <trkpt lat="43.38142" lon="2.44463">
        <ele>821.2</ele>
        <time>2026-06-20T09:13:44Z</time>
      </trkpt>
      <trkpt lat="43.38136" lon="2.44461">
        <ele>819.5</ele>
        <time>2026-06-20T09:13:45Z</time>
      </trkpt>
      <trkpt lat="43.38129" lon="2.44459">
        <ele>817.9</ele>
        <time>2026-06-20T09:13:46Z</time>
      </trkpt>
      <trkpt lat="43.38124" lon="2.44458">
        <ele>816.8</ele>
        <time>2026-06-20T09:13:47Z</time>
      </trkpt>
      <trkpt lat="43.38117" lon="2.44456">
        <ele>815.1</ele>
        <time>2026-06-20T09:13:48Z</time>
      </trkpt>
      <trkpt lat="43.38111" lon="2.44453">
        <ele>813.6</ele>
        <time>2026-06-20T09:13:49Z</time>
      </trkpt>
      <trkpt lat="43.38105" lon="2.44452">
        <ele>811.9</ele>
        <time>2026-06-20T09:13:50Z</time>
      </trkpt>
      <trkpt lat="43.38099" lon="2.4445">
        <ele>810.3</ele>
        <time>2026-06-20T09:13:51Z</time>
      </trkpt>
      <trkpt lat="43.38094" lon="2.44447">
        <ele>808.9</ele>
        <time>2026-06-20T09:13:52Z</time>
      </trkpt>
      <trkpt lat="43.38089" lon="2.44442">
        <ele>807.4</ele>
        <time>2026-06-20T09:13:53Z</time>
      </trkpt>
      <trkpt lat="43.38084" lon="2.44437">
        <ele>805.3</ele>
        <time>2026-06-20T09:13:54Z</time>
      </trkpt>
      <trkpt lat="43.38078" lon="2.44433">
        <ele>803.3</ele>
        <time>2026-06-20T09:13:55Z</time>
      </trkpt>
      <trkpt lat="43.38072" lon="2.44428">
        <ele>801.6</ele>
        <time>2026-06-20T09:13:56Z</time>
      </trkpt>
      <trkpt lat="43.38067" lon="2.44425">
        <ele>800.4</ele>
        <time>2026-06-20T09:13:57Z</time>
      </trkpt>
      <trkpt lat="43.38062" lon="2.44423">
        <ele>799.6</ele>
        <time>2026-06-20T09:13:58Z</time>
      </trkpt>
      <trkpt lat="43.3806" lon="2.44423">
        <ele>799.3</ele>
        <time>2026-06-20T09:13:59Z</time>
      </trkpt>
      <trkpt lat="43.38056" lon="2.44423">
        <ele>799</ele>
        <time>2026-06-20T09:14:00Z</time>
      </trkpt>
      <trkpt lat="43.38053" lon="2.44423">
        <ele>798.2</ele>
        <time>2026-06-20T09:14:01Z</time>
      </trkpt>
      <trkpt lat="43.38052" lon="2.44422">
        <ele>797.7</ele>
        <time>2026-06-20T09:14:02Z</time>
      </trkpt>
      <trkpt lat="43.38051" lon="2.44421">
        <ele>797.4</ele>
        <time>2026-06-20T09:14:03Z</time>
      </trkpt>
      <trkpt lat="43.38051" lon="2.4442">
        <ele>797.1</ele>
        <time>2026-06-20T09:14:04Z</time>
      </trkpt>
      <trkpt lat="43.3805" lon="2.44419">
        <ele>796.8</ele>
        <time>2026-06-20T09:14:05Z</time>
      </trkpt>
      <trkpt lat="43.38049" lon="2.44418">
        <ele>796.6</ele>
        <time>2026-06-20T09:14:06Z</time>
      </trkpt>
      <trkpt lat="43.38047" lon="2.44417">
        <ele>795.8</ele>
        <time>2026-06-20T09:14:08Z</time>
      </trkpt>
      <trkpt lat="43.38044" lon="2.44413">
        <ele>794</ele>
        <time>2026-06-20T09:14:10Z</time>
      </trkpt>
      <trkpt lat="43.38041" lon="2.44409">
        <ele>792</ele>
        <time>2026-06-20T09:14:12Z</time>
      </trkpt>
      <trkpt lat="43.38039" lon="2.44407">
        <ele>791</ele>
        <time>2026-06-20T09:14:13Z</time>
      </trkpt>
      <trkpt lat="43.38029" lon="2.44399">
        <ele>787.3</ele>
        <time>2026-06-20T09:14:16Z</time>
      </trkpt>
      <trkpt lat="43.38019" lon="2.44393">
        <ele>785</ele>
        <time>2026-06-20T09:14:18Z</time>
      </trkpt>
      <trkpt lat="43.3801" lon="2.44388">
        <ele>783.5</ele>
        <time>2026-06-20T09:14:20Z</time>
      </trkpt>
      <trkpt lat="43.38007" lon="2.44385">
        <ele>782.6</ele>
        <time>2026-06-20T09:14:21Z</time>
      </trkpt>
      <trkpt lat="43.38005" lon="2.4438">
        <ele>781.6</ele>
        <time>2026-06-20T09:14:22Z</time>
      </trkpt>
      <trkpt lat="43.38002" lon="2.44376">
        <ele>780.6</ele>
        <time>2026-06-20T09:14:23Z</time>
      </trkpt>
      <trkpt lat="43.37994" lon="2.44367">
        <ele>779.8</ele>
        <time>2026-06-20T09:14:25Z</time>
      </trkpt>
      <trkpt lat="43.37988" lon="2.44364">
        <ele>780</ele>
        <time>2026-06-20T09:14:26Z</time>
      </trkpt>
      <trkpt lat="43.37983" lon="2.44363">
        <ele>780.6</ele>
        <time>2026-06-20T09:14:27Z</time>
      </trkpt>
      <trkpt lat="43.37978" lon="2.44364">
        <ele>781.3</ele>
        <time>2026-06-20T09:14:28Z</time>
      </trkpt>
      <trkpt lat="43.37972" lon="2.44365">
        <ele>782</ele>
        <time>2026-06-20T09:14:29Z</time>
      </trkpt>
      <trkpt lat="43.37967" lon="2.44366">
        <ele>781.7</ele>
        <time>2026-06-20T09:14:30Z</time>
      </trkpt>
      <trkpt lat="43.37962" lon="2.44367">
        <ele>781.3</ele>
        <time>2026-06-20T09:14:31Z</time>
      </trkpt>
      <trkpt lat="43.37952" lon="2.44368">
        <ele>780.5</ele>
        <time>2026-06-20T09:14:33Z</time>
      </trkpt>
      <trkpt lat="43.37947" lon="2.44365">
        <ele>780.4</ele>
        <time>2026-06-20T09:14:34Z</time>
      </trkpt>
      <trkpt lat="43.37942" lon="2.44361">
        <ele>780.8</ele>
        <time>2026-06-20T09:14:35Z</time>
      </trkpt>
      <trkpt lat="43.37937" lon="2.44358">
        <ele>781.2</ele>
        <time>2026-06-20T09:14:36Z</time>
      </trkpt>
      <trkpt lat="43.37928" lon="2.44351">
        <ele>783</ele>
        <time>2026-06-20T09:14:38Z</time>
      </trkpt>
      <trkpt lat="43.37924" lon="2.44349">
        <ele>783.8</ele>
        <time>2026-06-20T09:14:39Z</time>
      </trkpt>
      <trkpt lat="43.3792" lon="2.44348">
        <ele>784.6</ele>
        <time>2026-06-20T09:14:40Z</time>
      </trkpt>
      <trkpt lat="43.37917" lon="2.44346">
        <ele>785.6</ele>
        <time>2026-06-20T09:14:41Z</time>
      </trkpt>
      <trkpt lat="43.37915" lon="2.44345">
        <ele>785.8</ele>
        <time>2026-06-20T09:14:42Z</time>
      </trkpt>
      <trkpt lat="43.37914" lon="2.44344">
        <ele>785.6</ele>
        <time>2026-06-20T09:14:43Z</time>
      </trkpt>
      <trkpt lat="43.37913" lon="2.44344">
        <ele>785.4</ele>
        <time>2026-06-20T09:14:44Z</time>
      </trkpt>
      <trkpt lat="43.37913" lon="2.44344">
        <ele>785.4</ele>
        <time>2026-06-20T09:14:45Z</time>
      </trkpt>
      <trkpt lat="43.37908" lon="2.4434">
        <ele>785.9</ele>
        <time>2026-06-20T09:14:50Z</time>
      </trkpt>
      <trkpt lat="43.37901" lon="2.44336">
        <ele>785.7</ele>
        <time>2026-06-20T09:14:52Z</time>
      </trkpt>
      <trkpt lat="43.37897" lon="2.44335">
        <ele>785.5</ele>
        <time>2026-06-20T09:14:53Z</time>
      </trkpt>
      <trkpt lat="43.3788" lon="2.44327">
        <ele>783.5</ele>
        <time>2026-06-20T09:14:57Z</time>
      </trkpt>
      <trkpt lat="43.37875" lon="2.44324">
        <ele>783.1</ele>
        <time>2026-06-20T09:14:58Z</time>
      </trkpt>
      <trkpt lat="43.37861" lon="2.44313">
        <ele>783.2</ele>
        <time>2026-06-20T09:15:01Z</time>
      </trkpt>
      <trkpt lat="43.37848" lon="2.44305">
        <ele>783.6</ele>
        <time>2026-06-20T09:15:03Z</time>
      </trkpt>
      <trkpt lat="43.37839" lon="2.44301">
        <ele>782.6</ele>
        <time>2026-06-20T09:15:05Z</time>
      </trkpt>
      <trkpt lat="43.37834" lon="2.44298">
        <ele>782.7</ele>
        <time>2026-06-20T09:15:06Z</time>
      </trkpt>
      <trkpt lat="43.37831" lon="2.44296">
        <ele>782.8</ele>
        <time>2026-06-20T09:15:07Z</time>
      </trkpt>
      <trkpt lat="43.37827" lon="2.44294">
        <ele>782.9</ele>
        <time>2026-06-20T09:15:08Z</time>
      </trkpt>
      <trkpt lat="43.37822" lon="2.44291">
        <ele>783</ele>
        <time>2026-06-20T09:15:09Z</time>
      </trkpt>
      <trkpt lat="43.37806" lon="2.44282">
        <ele>782.3</ele>
        <time>2026-06-20T09:15:12Z</time>
      </trkpt>
      <trkpt lat="43.37801" lon="2.4428">
        <ele>782.6</ele>
        <time>2026-06-20T09:15:13Z</time>
      </trkpt>
      <trkpt lat="43.37795" lon="2.44277">
        <ele>783</ele>
        <time>2026-06-20T09:15:14Z</time>
      </trkpt>
      <trkpt lat="43.37755" lon="2.44263">
        <ele>783.9</ele>
        <time>2026-06-20T09:15:21Z</time>
      </trkpt>
      <trkpt lat="43.37723" lon="2.44256">
        <ele>784.2</ele>
        <time>2026-06-20T09:15:27Z</time>
      </trkpt>
      <trkpt lat="43.37682" lon="2.44252">
        <ele>784.4</ele>
        <time>2026-06-20T09:15:34Z</time>
      </trkpt>
      <trkpt lat="43.37676" lon="2.44252">
        <ele>783.9</ele>
        <time>2026-06-20T09:15:35Z</time>
      </trkpt>
      <trkpt lat="43.3767" lon="2.44251">
        <ele>783.8</ele>
        <time>2026-06-20T09:15:36Z</time>
      </trkpt>
      <trkpt lat="43.37665" lon="2.4425">
        <ele>784.1</ele>
        <time>2026-06-20T09:15:37Z</time>
      </trkpt>
      <trkpt lat="43.3766" lon="2.44249">
        <ele>784.6</ele>
        <time>2026-06-20T09:15:38Z</time>
      </trkpt>
      <trkpt lat="43.37656" lon="2.44249">
        <ele>784.9</ele>
        <time>2026-06-20T09:15:39Z</time>
      </trkpt>
      <trkpt lat="43.37651" lon="2.44248">
        <ele>785.2</ele>
        <time>2026-06-20T09:15:40Z</time>
      </trkpt>
      <trkpt lat="43.37636" lon="2.44248">
        <ele>786.1</ele>
        <time>2026-06-20T09:15:43Z</time>
      </trkpt>
      <trkpt lat="43.37625" lon="2.4425">
        <ele>786.5</ele>
        <time>2026-06-20T09:15:45Z</time>
      </trkpt>
      <trkpt lat="43.37608" lon="2.44255">
        <ele>786.8</ele>
        <time>2026-06-20T09:15:48Z</time>
      </trkpt>
      <trkpt lat="43.37603" lon="2.44256">
        <ele>787.5</ele>
        <time>2026-06-20T09:15:49Z</time>
      </trkpt>
      <trkpt lat="43.37598" lon="2.44256">
        <ele>788.2</ele>
        <time>2026-06-20T09:15:50Z</time>
      </trkpt>
      <trkpt lat="43.37593" lon="2.44257">
        <ele>788.8</ele>
        <time>2026-06-20T09:15:51Z</time>
      </trkpt>
      <trkpt lat="43.37588" lon="2.44258">
        <ele>789.4</ele>
        <time>2026-06-20T09:15:52Z</time>
      </trkpt>
      <trkpt lat="43.37585" lon="2.44258">
        <ele>790</ele>
        <time>2026-06-20T09:15:53Z</time>
      </trkpt>
      <trkpt lat="43.3758" lon="2.44258">
        <ele>790.2</ele>
        <time>2026-06-20T09:15:54Z</time>
      </trkpt>
      <trkpt lat="43.37576" lon="2.44258">
        <ele>790.1</ele>
        <time>2026-06-20T09:15:55Z</time>
      </trkpt>
      <trkpt lat="43.37571" lon="2.44258">
        <ele>790.1</ele>
        <time>2026-06-20T09:15:56Z</time>
      </trkpt>
      <trkpt lat="43.37567" lon="2.44258">
        <ele>790.3</ele>
        <time>2026-06-20T09:15:57Z</time>
      </trkpt>
      <trkpt lat="43.37562" lon="2.44257">
        <ele>790.5</ele>
        <time>2026-06-20T09:15:58Z</time>
      </trkpt>
      <trkpt lat="43.37552" lon="2.44255">
        <ele>790.7</ele>
        <time>2026-06-20T09:16:00Z</time>
      </trkpt>
      <trkpt lat="43.37539" lon="2.44252">
        <ele>789</ele>
        <time>2026-06-20T09:16:02Z</time>
      </trkpt>
      <trkpt lat="43.37532" lon="2.4425">
        <ele>787.9</ele>
        <time>2026-06-20T09:16:03Z</time>
      </trkpt>
      <trkpt lat="43.37525" lon="2.44247">
        <ele>787.1</ele>
        <time>2026-06-20T09:16:04Z</time>
      </trkpt>
      <trkpt lat="43.37517" lon="2.44244">
        <ele>786.5</ele>
        <time>2026-06-20T09:16:05Z</time>
      </trkpt>
      <trkpt lat="43.37509" lon="2.4424">
        <ele>785.8</ele>
        <time>2026-06-20T09:16:06Z</time>
      </trkpt>
      <trkpt lat="43.37501" lon="2.44236">
        <ele>785.1</ele>
        <time>2026-06-20T09:16:07Z</time>
      </trkpt>
      <trkpt lat="43.37493" lon="2.44232">
        <ele>784.3</ele>
        <time>2026-06-20T09:16:08Z</time>
      </trkpt>
      <trkpt lat="43.37484" lon="2.44227">
        <ele>783.7</ele>
        <time>2026-06-20T09:16:09Z</time>
      </trkpt>
      <trkpt lat="43.37477" lon="2.44221">
        <ele>783.5</ele>
        <time>2026-06-20T09:16:10Z</time>
      </trkpt>
      <trkpt lat="43.37469" lon="2.44215">
        <ele>783.7</ele>
        <time>2026-06-20T09:16:11Z</time>
      </trkpt>
      <trkpt lat="43.37462" lon="2.44209">
        <ele>783.9</ele>
        <time>2026-06-20T09:16:12Z</time>
      </trkpt>
      <trkpt lat="43.37454" lon="2.44204">
        <ele>783.6</ele>
        <time>2026-06-20T09:16:13Z</time>
      </trkpt>
      <trkpt lat="43.37447" lon="2.44201">
        <ele>783.2</ele>
        <time>2026-06-20T09:16:14Z</time>
      </trkpt>
      <trkpt lat="43.3744" lon="2.44197">
        <ele>783.3</ele>
        <time>2026-06-20T09:16:15Z</time>
      </trkpt>
      <trkpt lat="43.37434" lon="2.44193">
        <ele>783.6</ele>
        <time>2026-06-20T09:16:16Z</time>
      </trkpt>
      <trkpt lat="43.37428" lon="2.44189">
        <ele>783.8</ele>
        <time>2026-06-20T09:16:17Z</time>
      </trkpt>
      <trkpt lat="43.37422" lon="2.44186">
        <ele>783.8</ele>
        <time>2026-06-20T09:16:18Z</time>
      </trkpt>
      <trkpt lat="43.37416" lon="2.44184">
        <ele>783.2</ele>
        <time>2026-06-20T09:16:19Z</time>
      </trkpt>
      <trkpt lat="43.37409" lon="2.44182">
        <ele>782.2</ele>
        <time>2026-06-20T09:16:20Z</time>
      </trkpt>
      <trkpt lat="43.37403" lon="2.44179">
        <ele>781.5</ele>
        <time>2026-06-20T09:16:21Z</time>
      </trkpt>
      <trkpt lat="43.3738" lon="2.44172">
        <ele>779.3</ele>
        <time>2026-06-20T09:16:24Z</time>
      </trkpt>
      <trkpt lat="43.37355" lon="2.44167">
        <ele>776.7</ele>
        <time>2026-06-20T09:16:27Z</time>
      </trkpt>
      <trkpt lat="43.37347" lon="2.44166">
        <ele>775.8</ele>
        <time>2026-06-20T09:16:28Z</time>
      </trkpt>
      <trkpt lat="43.37338" lon="2.44162">
        <ele>775.5</ele>
        <time>2026-06-20T09:16:29Z</time>
      </trkpt>
      <trkpt lat="43.37329" lon="2.44161">
        <ele>775.3</ele>
        <time>2026-06-20T09:16:30Z</time>
      </trkpt>
      <trkpt lat="43.37321" lon="2.4416">
        <ele>775.1</ele>
        <time>2026-06-20T09:16:31Z</time>
      </trkpt>
      <trkpt lat="43.37312" lon="2.4416">
        <ele>774.7</ele>
        <time>2026-06-20T09:16:32Z</time>
      </trkpt>
      <trkpt lat="43.37304" lon="2.44161">
        <ele>774.2</ele>
        <time>2026-06-20T09:16:33Z</time>
      </trkpt>
      <trkpt lat="43.37287" lon="2.44163">
        <ele>772.9</ele>
        <time>2026-06-20T09:16:35Z</time>
      </trkpt>
      <trkpt lat="43.37278" lon="2.44165">
        <ele>771.8</ele>
        <time>2026-06-20T09:16:36Z</time>
      </trkpt>
      <trkpt lat="43.37261" lon="2.44169">
        <ele>770.5</ele>
        <time>2026-06-20T09:16:38Z</time>
      </trkpt>
      <trkpt lat="43.37252" lon="2.44171">
        <ele>769.9</ele>
        <time>2026-06-20T09:16:39Z</time>
      </trkpt>
      <trkpt lat="43.37245" lon="2.44174">
        <ele>768.6</ele>
        <time>2026-06-20T09:16:40Z</time>
      </trkpt>
      <trkpt lat="43.37238" lon="2.44177">
        <ele>767</ele>
        <time>2026-06-20T09:16:41Z</time>
      </trkpt>
      <trkpt lat="43.37232" lon="2.44179">
        <ele>765.7</ele>
        <time>2026-06-20T09:16:42Z</time>
      </trkpt>
      <trkpt lat="43.37226" lon="2.4418">
        <ele>764.8</ele>
        <time>2026-06-20T09:16:43Z</time>
      </trkpt>
      <trkpt lat="43.37219" lon="2.44181">
        <ele>763.9</ele>
        <time>2026-06-20T09:16:44Z</time>
      </trkpt>
      <trkpt lat="43.37212" lon="2.4418">
        <ele>763.2</ele>
        <time>2026-06-20T09:16:45Z</time>
      </trkpt>
      <trkpt lat="43.37205" lon="2.44179">
        <ele>762.6</ele>
        <time>2026-06-20T09:16:46Z</time>
      </trkpt>
      <trkpt lat="43.37198" lon="2.44179">
        <ele>761.8</ele>
        <time>2026-06-20T09:16:47Z</time>
      </trkpt>
      <trkpt lat="43.3719" lon="2.44177">
        <ele>761.1</ele>
        <time>2026-06-20T09:16:48Z</time>
      </trkpt>
      <trkpt lat="43.37174" lon="2.44173">
        <ele>760.4</ele>
        <time>2026-06-20T09:16:50Z</time>
      </trkpt>
      <trkpt lat="43.37167" lon="2.44171">
        <ele>760.3</ele>
        <time>2026-06-20T09:16:51Z</time>
      </trkpt>
      <trkpt lat="43.3716" lon="2.44168">
        <ele>760.5</ele>
        <time>2026-06-20T09:16:52Z</time>
      </trkpt>
      <trkpt lat="43.37154" lon="2.44167">
        <ele>760.5</ele>
        <time>2026-06-20T09:16:53Z</time>
      </trkpt>
      <trkpt lat="43.3715" lon="2.44166">
        <ele>760.4</ele>
        <time>2026-06-20T09:16:54Z</time>
      </trkpt>
      <trkpt lat="43.37144" lon="2.44165">
        <ele>760</ele>
        <time>2026-06-20T09:16:55Z</time>
      </trkpt>
      <trkpt lat="43.37139" lon="2.44164">
        <ele>759.6</ele>
        <time>2026-06-20T09:16:56Z</time>
      </trkpt>
      <trkpt lat="43.37126" lon="2.44161">
        <ele>759.1</ele>
        <time>2026-06-20T09:16:58Z</time>
      </trkpt>
      <trkpt lat="43.37113" lon="2.44164">
        <ele>757.6</ele>
        <time>2026-06-20T09:17:00Z</time>
      </trkpt>
      <trkpt lat="43.37106" lon="2.44168">
        <ele>756.7</ele>
        <time>2026-06-20T09:17:01Z</time>
      </trkpt>
      <trkpt lat="43.37086" lon="2.44175">
        <ele>754.5</ele>
        <time>2026-06-20T09:17:04Z</time>
      </trkpt>
      <trkpt lat="43.37079" lon="2.44178">
        <ele>754</ele>
        <time>2026-06-20T09:17:05Z</time>
      </trkpt>
      <trkpt lat="43.37058" lon="2.44187">
        <ele>753.6</ele>
        <time>2026-06-20T09:17:08Z</time>
      </trkpt>
      <trkpt lat="43.37051" lon="2.44191">
        <ele>753.4</ele>
        <time>2026-06-20T09:17:09Z</time>
      </trkpt>
      <trkpt lat="43.37044" lon="2.44194">
        <ele>753.1</ele>
        <time>2026-06-20T09:17:10Z</time>
      </trkpt>
      <trkpt lat="43.37025" lon="2.442">
        <ele>752.4</ele>
        <time>2026-06-20T09:17:13Z</time>
      </trkpt>
      <trkpt lat="43.37019" lon="2.44203">
        <ele>752.3</ele>
        <time>2026-06-20T09:17:14Z</time>
      </trkpt>
      <trkpt lat="43.37007" lon="2.4421">
        <ele>751.9</ele>
        <time>2026-06-20T09:17:16Z</time>
      </trkpt>
      <trkpt lat="43.37002" lon="2.44213">
        <ele>751.9</ele>
        <time>2026-06-20T09:17:17Z</time>
      </trkpt>
      <trkpt lat="43.36996" lon="2.44217">
        <ele>751.8</ele>
        <time>2026-06-20T09:17:18Z</time>
      </trkpt>
      <trkpt lat="43.36991" lon="2.44221">
        <ele>751.8</ele>
        <time>2026-06-20T09:17:19Z</time>
      </trkpt>
      <trkpt lat="43.36985" lon="2.44225">
        <ele>751.5</ele>
        <time>2026-06-20T09:17:20Z</time>
      </trkpt>
      <trkpt lat="43.3698" lon="2.44229">
        <ele>751.1</ele>
        <time>2026-06-20T09:17:21Z</time>
      </trkpt>
      <trkpt lat="43.36974" lon="2.44234">
        <ele>750.7</ele>
        <time>2026-06-20T09:17:22Z</time>
      </trkpt>
      <trkpt lat="43.36969" lon="2.44238">
        <ele>750.6</ele>
        <time>2026-06-20T09:17:23Z</time>
      </trkpt>
      <trkpt lat="43.36964" lon="2.44243">
        <ele>750.5</ele>
        <time>2026-06-20T09:17:24Z</time>
      </trkpt>
      <trkpt lat="43.36959" lon="2.44247">
        <ele>750.5</ele>
        <time>2026-06-20T09:17:25Z</time>
      </trkpt>
      <trkpt lat="43.36953" lon="2.44251">
        <ele>750.5</ele>
        <time>2026-06-20T09:17:26Z</time>
      </trkpt>
      <trkpt lat="43.36948" lon="2.44254">
        <ele>750.4</ele>
        <time>2026-06-20T09:17:27Z</time>
      </trkpt>
      <trkpt lat="43.36932" lon="2.44264">
        <ele>749.4</ele>
        <time>2026-06-20T09:17:30Z</time>
      </trkpt>
      <trkpt lat="43.36927" lon="2.44267">
        <ele>749</ele>
        <time>2026-06-20T09:17:31Z</time>
      </trkpt>
      <trkpt lat="43.36922" lon="2.44271">
        <ele>748.9</ele>
        <time>2026-06-20T09:17:32Z</time>
      </trkpt>
      <trkpt lat="43.36916" lon="2.44273">
        <ele>748.8</ele>
        <time>2026-06-20T09:17:33Z</time>
      </trkpt>
      <trkpt lat="43.36903" lon="2.44274">
        <ele>747.7</ele>
        <time>2026-06-20T09:17:35Z</time>
      </trkpt>
      <trkpt lat="43.36896" lon="2.44271">
        <ele>747.6</ele>
        <time>2026-06-20T09:17:36Z</time>
      </trkpt>
      <trkpt lat="43.3689" lon="2.44268">
        <ele>747.5</ele>
        <time>2026-06-20T09:17:37Z</time>
      </trkpt>
      <trkpt lat="43.36883" lon="2.44264">
        <ele>746.9</ele>
        <time>2026-06-20T09:17:38Z</time>
      </trkpt>
      <trkpt lat="43.36877" lon="2.4426">
        <ele>746.3</ele>
        <time>2026-06-20T09:17:39Z</time>
      </trkpt>
      <trkpt lat="43.36873" lon="2.44255">
        <ele>746.2</ele>
        <time>2026-06-20T09:17:40Z</time>
      </trkpt>
      <trkpt lat="43.36867" lon="2.4425">
        <ele>746</ele>
        <time>2026-06-20T09:17:41Z</time>
      </trkpt>
      <trkpt lat="43.36854" lon="2.4424">
        <ele>745.9</ele>
        <time>2026-06-20T09:17:43Z</time>
      </trkpt>
      <trkpt lat="43.3685" lon="2.44237">
        <ele>745.9</ele>
        <time>2026-06-20T09:17:44Z</time>
      </trkpt>
      <trkpt lat="43.36844" lon="2.44233">
        <ele>745.9</ele>
        <time>2026-06-20T09:17:45Z</time>
      </trkpt>
      <trkpt lat="43.3684" lon="2.44231">
        <ele>745.8</ele>
        <time>2026-06-20T09:17:46Z</time>
      </trkpt>
      <trkpt lat="43.36834" lon="2.44228">
        <ele>745.7</ele>
        <time>2026-06-20T09:17:47Z</time>
      </trkpt>
      <trkpt lat="43.36828" lon="2.44225">
        <ele>745.6</ele>
        <time>2026-06-20T09:17:48Z</time>
      </trkpt>
      <trkpt lat="43.36816" lon="2.4422">
        <ele>745.1</ele>
        <time>2026-06-20T09:17:50Z</time>
      </trkpt>
      <trkpt lat="43.36811" lon="2.44217">
        <ele>744.8</ele>
        <time>2026-06-20T09:17:51Z</time>
      </trkpt>
      <trkpt lat="43.368" lon="2.4421">
        <ele>743.9</ele>
        <time>2026-06-20T09:17:53Z</time>
      </trkpt>
      <trkpt lat="43.36795" lon="2.44205">
        <ele>743.5</ele>
        <time>2026-06-20T09:17:54Z</time>
      </trkpt>
      <trkpt lat="43.36785" lon="2.44193">
        <ele>742.9</ele>
        <time>2026-06-20T09:17:56Z</time>
      </trkpt>
      <trkpt lat="43.3678" lon="2.44186">
        <ele>742.3</ele>
        <time>2026-06-20T09:17:57Z</time>
      </trkpt>
      <trkpt lat="43.36769" lon="2.44173">
        <ele>742</ele>
        <time>2026-06-20T09:17:59Z</time>
      </trkpt>
      <trkpt lat="43.36766" lon="2.44165">
        <ele>742.3</ele>
        <time>2026-06-20T09:18:00Z</time>
      </trkpt>
      <trkpt lat="43.36762" lon="2.44157">
        <ele>742.5</ele>
        <time>2026-06-20T09:18:01Z</time>
      </trkpt>
      <trkpt lat="43.36759" lon="2.44149">
        <ele>742.6</ele>
        <time>2026-06-20T09:18:02Z</time>
      </trkpt>
      <trkpt lat="43.36756" lon="2.44142">
        <ele>742.6</ele>
        <time>2026-06-20T09:18:03Z</time>
      </trkpt>
      <trkpt lat="43.36752" lon="2.44136">
        <ele>742.3</ele>
        <time>2026-06-20T09:18:04Z</time>
      </trkpt>
      <trkpt lat="43.36749" lon="2.4413">
        <ele>742</ele>
        <time>2026-06-20T09:18:05Z</time>
      </trkpt>
      <trkpt lat="43.36736" lon="2.44109">
        <ele>741.4</ele>
        <time>2026-06-20T09:18:08Z</time>
      </trkpt>
      <trkpt lat="43.36731" lon="2.44103">
        <ele>740.9</ele>
        <time>2026-06-20T09:18:09Z</time>
      </trkpt>
      <trkpt lat="43.36725" lon="2.441">
        <ele>740.4</ele>
        <time>2026-06-20T09:18:10Z</time>
      </trkpt>
      <trkpt lat="43.36719" lon="2.44096">
        <ele>739.7</ele>
        <time>2026-06-20T09:18:11Z</time>
      </trkpt>
      <trkpt lat="43.36713" lon="2.44092">
        <ele>739</ele>
        <time>2026-06-20T09:18:12Z</time>
      </trkpt>
      <trkpt lat="43.36706" lon="2.44089">
        <ele>738.6</ele>
        <time>2026-06-20T09:18:13Z</time>
      </trkpt>
      <trkpt lat="43.36699" lon="2.44089">
        <ele>738.2</ele>
        <time>2026-06-20T09:18:14Z</time>
      </trkpt>
      <trkpt lat="43.36693" lon="2.44092">
        <ele>738</ele>
        <time>2026-06-20T09:18:15Z</time>
      </trkpt>
      <trkpt lat="43.36683" lon="2.44101">
        <ele>738.4</ele>
        <time>2026-06-20T09:18:17Z</time>
      </trkpt>
      <trkpt lat="43.36679" lon="2.44108">
        <ele>738.6</ele>
        <time>2026-06-20T09:18:18Z</time>
      </trkpt>
      <trkpt lat="43.36675" lon="2.44114">
        <ele>738.6</ele>
        <time>2026-06-20T09:18:19Z</time>
      </trkpt>
      <trkpt lat="43.3667" lon="2.44119">
        <ele>738.4</ele>
        <time>2026-06-20T09:18:20Z</time>
      </trkpt>
      <trkpt lat="43.36665" lon="2.44123">
        <ele>738.2</ele>
        <time>2026-06-20T09:18:21Z</time>
      </trkpt>
      <trkpt lat="43.36661" lon="2.44127">
        <ele>738.2</ele>
        <time>2026-06-20T09:18:22Z</time>
      </trkpt>
      <trkpt lat="43.36657" lon="2.44131">
        <ele>738.3</ele>
        <time>2026-06-20T09:18:23Z</time>
      </trkpt>
      <trkpt lat="43.36651" lon="2.44134">
        <ele>738.5</ele>
        <time>2026-06-20T09:18:24Z</time>
      </trkpt>
      <trkpt lat="43.36645" lon="2.44137">
        <ele>738.7</ele>
        <time>2026-06-20T09:18:25Z</time>
      </trkpt>
      <trkpt lat="43.36629" lon="2.44149">
        <ele>737.6</ele>
        <time>2026-06-20T09:18:28Z</time>
      </trkpt>
      <trkpt lat="43.36618" lon="2.44155">
        <ele>736.5</ele>
        <time>2026-06-20T09:18:30Z</time>
      </trkpt>
      <trkpt lat="43.3661" lon="2.44159">
        <ele>735.8</ele>
        <time>2026-06-20T09:18:31Z</time>
      </trkpt>
      <trkpt lat="43.36598" lon="2.4417">
        <ele>734.6</ele>
        <time>2026-06-20T09:18:33Z</time>
      </trkpt>
      <trkpt lat="43.36581" lon="2.44187">
        <ele>732.9</ele>
        <time>2026-06-20T09:18:36Z</time>
      </trkpt>
      <trkpt lat="43.36576" lon="2.44195">
        <ele>732.2</ele>
        <time>2026-06-20T09:18:37Z</time>
      </trkpt>
      <trkpt lat="43.36574" lon="2.44204">
        <ele>731.2</ele>
        <time>2026-06-20T09:18:38Z</time>
      </trkpt>
      <trkpt lat="43.36571" lon="2.44212">
        <ele>730.5</ele>
        <time>2026-06-20T09:18:39Z</time>
      </trkpt>
      <trkpt lat="43.36567" lon="2.44223">
        <ele>729.6</ele>
        <time>2026-06-20T09:18:40Z</time>
      </trkpt>
      <trkpt lat="43.36563" lon="2.44232">
        <ele>728.7</ele>
        <time>2026-06-20T09:18:41Z</time>
      </trkpt>
      <trkpt lat="43.36557" lon="2.44239">
        <ele>728.4</ele>
        <time>2026-06-20T09:18:42Z</time>
      </trkpt>
      <trkpt lat="43.36553" lon="2.44244">
        <ele>728</ele>
        <time>2026-06-20T09:18:43Z</time>
      </trkpt>
      <trkpt lat="43.36546" lon="2.44253">
        <ele>727.4</ele>
        <time>2026-06-20T09:18:44Z</time>
      </trkpt>
      <trkpt lat="43.36543" lon="2.4426">
        <ele>726.9</ele>
        <time>2026-06-20T09:18:45Z</time>
      </trkpt>
      <trkpt lat="43.36532" lon="2.44277">
        <ele>726.4</ele>
        <time>2026-06-20T09:18:47Z</time>
      </trkpt>
      <trkpt lat="43.36522" lon="2.4429">
        <ele>725.4</ele>
        <time>2026-06-20T09:18:49Z</time>
      </trkpt>
      <trkpt lat="43.36519" lon="2.44297">
        <ele>724.7</ele>
        <time>2026-06-20T09:18:50Z</time>
      </trkpt>
      <trkpt lat="43.36518" lon="2.44304">
        <ele>724.1</ele>
        <time>2026-06-20T09:18:51Z</time>
      </trkpt>
      <trkpt lat="43.36517" lon="2.44315">
        <ele>723.1</ele>
        <time>2026-06-20T09:18:52Z</time>
      </trkpt>
      <trkpt lat="43.36516" lon="2.44325">
        <ele>722.2</ele>
        <time>2026-06-20T09:18:53Z</time>
      </trkpt>
      <trkpt lat="43.36514" lon="2.44334">
        <ele>721.5</ele>
        <time>2026-06-20T09:18:54Z</time>
      </trkpt>
      <trkpt lat="43.3651" lon="2.44343">
        <ele>721.2</ele>
        <time>2026-06-20T09:18:55Z</time>
      </trkpt>
      <trkpt lat="43.36507" lon="2.44351">
        <ele>721</ele>
        <time>2026-06-20T09:18:56Z</time>
      </trkpt>
      <trkpt lat="43.36503" lon="2.44359">
        <ele>720.9</ele>
        <time>2026-06-20T09:18:57Z</time>
      </trkpt>
      <trkpt lat="43.36497" lon="2.44377">
        <ele>720.3</ele>
        <time>2026-06-20T09:18:59Z</time>
      </trkpt>
      <trkpt lat="43.36493" lon="2.44384">
        <ele>719.9</ele>
        <time>2026-06-20T09:19:00Z</time>
      </trkpt>
      <trkpt lat="43.36489" lon="2.44392">
        <ele>719.4</ele>
        <time>2026-06-20T09:19:01Z</time>
      </trkpt>
      <trkpt lat="43.36485" lon="2.44401">
        <ele>718.9</ele>
        <time>2026-06-20T09:19:02Z</time>
      </trkpt>
      <trkpt lat="43.36482" lon="2.44409">
        <ele>718.6</ele>
        <time>2026-06-20T09:19:03Z</time>
      </trkpt>
      <trkpt lat="43.36476" lon="2.44423">
        <ele>718</ele>
        <time>2026-06-20T09:19:05Z</time>
      </trkpt>
      <trkpt lat="43.36473" lon="2.44427">
        <ele>717.9</ele>
        <time>2026-06-20T09:19:06Z</time>
      </trkpt>
      <trkpt lat="43.36469" lon="2.44429">
        <ele>716.7</ele>
        <time>2026-06-20T09:19:07Z</time>
      </trkpt>
      <trkpt lat="43.36464" lon="2.44432">
        <ele>715</ele>
        <time>2026-06-20T09:19:08Z</time>
      </trkpt>
      <trkpt lat="43.36461" lon="2.44435">
        <ele>713.6</ele>
        <time>2026-06-20T09:19:09Z</time>
      </trkpt>
      <trkpt lat="43.36457" lon="2.44439">
        <ele>712.4</ele>
        <time>2026-06-20T09:19:10Z</time>
      </trkpt>
      <trkpt lat="43.36453" lon="2.44442">
        <ele>711.3</ele>
        <time>2026-06-20T09:19:11Z</time>
      </trkpt>
      <trkpt lat="43.3645" lon="2.44445">
        <ele>710.3</ele>
        <time>2026-06-20T09:19:12Z</time>
      </trkpt>
      <trkpt lat="43.36447" lon="2.44447">
        <ele>709.6</ele>
        <time>2026-06-20T09:19:13Z</time>
      </trkpt>
      <trkpt lat="43.36443" lon="2.44448">
        <ele>708.8</ele>
        <time>2026-06-20T09:19:14Z</time>
      </trkpt>
      <trkpt lat="43.36439" lon="2.44447">
        <ele>708</ele>
        <time>2026-06-20T09:19:15Z</time>
      </trkpt>
      <trkpt lat="43.36434" lon="2.44448">
        <ele>707.2</ele>
        <time>2026-06-20T09:19:16Z</time>
      </trkpt>
      <trkpt lat="43.36429" lon="2.44449">
        <ele>706.4</ele>
        <time>2026-06-20T09:19:17Z</time>
      </trkpt>
      <trkpt lat="43.36424" lon="2.44449">
        <ele>705.6</ele>
        <time>2026-06-20T09:19:18Z</time>
      </trkpt>
      <trkpt lat="43.36421" lon="2.4445">
        <ele>705</ele>
        <time>2026-06-20T09:19:19Z</time>
      </trkpt>
      <trkpt lat="43.36418" lon="2.44449">
        <ele>704.6</ele>
        <time>2026-06-20T09:19:20Z</time>
      </trkpt>
      <trkpt lat="43.36418" lon="2.44447">
        <ele>704.4</ele>
        <time>2026-06-20T09:19:21Z</time>
      </trkpt>
      <trkpt lat="43.36418" lon="2.44442">
        <ele>704.1</ele>
        <time>2026-06-20T09:19:22Z</time>
      </trkpt>
      <trkpt lat="43.36418" lon="2.44435">
        <ele>703.9</ele>
        <time>2026-06-20T09:19:23Z</time>
      </trkpt>
      <trkpt lat="43.36417" lon="2.44428">
        <ele>703.5</ele>
        <time>2026-06-20T09:19:24Z</time>
      </trkpt>
      <trkpt lat="43.36416" lon="2.44424">
        <ele>703.2</ele>
        <time>2026-06-20T09:19:25Z</time>
      </trkpt>
      <trkpt lat="43.36416" lon="2.44423">
        <ele>703.1</ele>
        <time>2026-06-20T09:19:26Z</time>
      </trkpt>
      <trkpt lat="43.36416" lon="2.44423">
        <ele>703.1</ele>
        <time>2026-06-20T09:19:27Z</time>
      </trkpt>
      <trkpt lat="43.36416" lon="2.44423">
        <ele>703.1</ele>
        <time>2026-06-20T09:19:28Z</time>
      </trkpt>
      <trkpt lat="43.36418" lon="2.44415">
        <ele>703.2</ele>
        <time>2026-06-20T09:20:18Z</time>
      </trkpt>
      <trkpt lat="43.36419" lon="2.44405">
        <ele>703.2</ele>
        <time>2026-06-20T09:20:20Z</time>
      </trkpt>
      <trkpt lat="43.36419" lon="2.44398">
        <ele>703</ele>
        <time>2026-06-20T09:20:21Z</time>
      </trkpt>
      <trkpt lat="43.36419" lon="2.44391">
        <ele>702.8</ele>
        <time>2026-06-20T09:20:22Z</time>
      </trkpt>
      <trkpt lat="43.36419" lon="2.44382">
        <ele>702.5</ele>
        <time>2026-06-20T09:20:23Z</time>
      </trkpt>
      <trkpt lat="43.36419" lon="2.44365">
        <ele>701.9</ele>
        <time>2026-06-20T09:20:25Z</time>
      </trkpt>
      <trkpt lat="43.36417" lon="2.44338">
        <ele>700.2</ele>
        <time>2026-06-20T09:20:28Z</time>
      </trkpt>
      <trkpt lat="43.36417" lon="2.4433">
        <ele>700.3</ele>
        <time>2026-06-20T09:20:29Z</time>
      </trkpt>
      <trkpt lat="43.36417" lon="2.44322">
        <ele>700.6</ele>
        <time>2026-06-20T09:20:30Z</time>
      </trkpt>
      <trkpt lat="43.36418" lon="2.44316">
        <ele>701.1</ele>
        <time>2026-06-20T09:20:31Z</time>
      </trkpt>
      <trkpt lat="43.36417" lon="2.44297">
        <ele>701</ele>
        <time>2026-06-20T09:20:33Z</time>
      </trkpt>
      <trkpt lat="43.36415" lon="2.44282">
        <ele>700.6</ele>
        <time>2026-06-20T09:20:35Z</time>
      </trkpt>
      <trkpt lat="43.36415" lon="2.44274">
        <ele>700.4</ele>
        <time>2026-06-20T09:20:36Z</time>
      </trkpt>
      <trkpt lat="43.36414" lon="2.44266">
        <ele>700.3</ele>
        <time>2026-06-20T09:20:37Z</time>
      </trkpt>
      <trkpt lat="43.36415" lon="2.44258">
        <ele>700.4</ele>
        <time>2026-06-20T09:20:38Z</time>
      </trkpt>
      <trkpt lat="43.36415" lon="2.44249">
        <ele>700.4</ele>
        <time>2026-06-20T09:20:39Z</time>
      </trkpt>
      <trkpt lat="43.36415" lon="2.44185">
        <ele>699.9</ele>
        <time>2026-06-20T09:20:46Z</time>
      </trkpt>
      <trkpt lat="43.36416" lon="2.44176">
        <ele>700</ele>
        <time>2026-06-20T09:20:47Z</time>
      </trkpt>
      <trkpt lat="43.36419" lon="2.44152">
        <ele>700.9</ele>
        <time>2026-06-20T09:20:50Z</time>
      </trkpt>
      <trkpt lat="43.3642" lon="2.44145">
        <ele>701.5</ele>
        <time>2026-06-20T09:20:51Z</time>
      </trkpt>
      <trkpt lat="43.36421" lon="2.44137">
        <ele>702</ele>
        <time>2026-06-20T09:20:52Z</time>
      </trkpt>
      <trkpt lat="43.36422" lon="2.44123">
        <ele>702.6</ele>
        <time>2026-06-20T09:20:54Z</time>
      </trkpt>
      <trkpt lat="43.36423" lon="2.44117">
        <ele>703.1</ele>
        <time>2026-06-20T09:20:55Z</time>
      </trkpt>
      <trkpt lat="43.36425" lon="2.44112">
        <ele>703.6</ele>
        <time>2026-06-20T09:20:56Z</time>
      </trkpt>
      <trkpt lat="43.36427" lon="2.44106">
        <ele>704</ele>
        <time>2026-06-20T09:20:57Z</time>
      </trkpt>
      <trkpt lat="43.36428" lon="2.44101">
        <ele>704.2</ele>
        <time>2026-06-20T09:20:58Z</time>
      </trkpt>
      <trkpt lat="43.36431" lon="2.44095">
        <ele>704.6</ele>
        <time>2026-06-20T09:20:59Z</time>
      </trkpt>
      <trkpt lat="43.3644" lon="2.44069">
        <ele>706.7</ele>
        <time>2026-06-20T09:21:03Z</time>
      </trkpt>
      <trkpt lat="43.36443" lon="2.44056">
        <ele>707.6</ele>
        <time>2026-06-20T09:21:05Z</time>
      </trkpt>
      <trkpt lat="43.36447" lon="2.44042">
        <ele>708.1</ele>
        <time>2026-06-20T09:21:07Z</time>
      </trkpt>
      <trkpt lat="43.36448" lon="2.44034">
        <ele>708.2</ele>
        <time>2026-06-20T09:21:08Z</time>
      </trkpt>
      <trkpt lat="43.3645" lon="2.44027">
        <ele>708.5</ele>
        <time>2026-06-20T09:21:09Z</time>
      </trkpt>
      <trkpt lat="43.36452" lon="2.4402">
        <ele>709.3</ele>
        <time>2026-06-20T09:21:10Z</time>
      </trkpt>
      <trkpt lat="43.36453" lon="2.44013">
        <ele>710</ele>
        <time>2026-06-20T09:21:11Z</time>
      </trkpt>
      <trkpt lat="43.36454" lon="2.44005">
        <ele>710.7</ele>
        <time>2026-06-20T09:21:12Z</time>
      </trkpt>
      <trkpt lat="43.36455" lon="2.43998">
        <ele>711.2</ele>
        <time>2026-06-20T09:21:13Z</time>
      </trkpt>
      <trkpt lat="43.36455" lon="2.43991">
        <ele>711.6</ele>
        <time>2026-06-20T09:21:14Z</time>
      </trkpt>
      <trkpt lat="43.36454" lon="2.43983">
        <ele>711.9</ele>
        <time>2026-06-20T09:21:15Z</time>
      </trkpt>
      <trkpt lat="43.36453" lon="2.43976">
        <ele>712</ele>
        <time>2026-06-20T09:21:16Z</time>
      </trkpt>
      <trkpt lat="43.36452" lon="2.4397">
        <ele>712.1</ele>
        <time>2026-06-20T09:21:17Z</time>
      </trkpt>
      <trkpt lat="43.36451" lon="2.43964">
        <ele>711.9</ele>
        <time>2026-06-20T09:21:18Z</time>
      </trkpt>
      <trkpt lat="43.36448" lon="2.43957">
        <ele>711.5</ele>
        <time>2026-06-20T09:21:19Z</time>
      </trkpt>
      <trkpt lat="43.36445" lon="2.4395">
        <ele>711</ele>
        <time>2026-06-20T09:21:20Z</time>
      </trkpt>
      <trkpt lat="43.36442" lon="2.43942">
        <ele>710.6</ele>
        <time>2026-06-20T09:21:21Z</time>
      </trkpt>
      <trkpt lat="43.36438" lon="2.43935">
        <ele>710.4</ele>
        <time>2026-06-20T09:21:22Z</time>
      </trkpt>
      <trkpt lat="43.36434" lon="2.43927">
        <ele>710.2</ele>
        <time>2026-06-20T09:21:23Z</time>
      </trkpt>
      <trkpt lat="43.3643" lon="2.4392">
        <ele>710</ele>
        <time>2026-06-20T09:21:24Z</time>
      </trkpt>
      <trkpt lat="43.36425" lon="2.43913">
        <ele>709.5</ele>
        <time>2026-06-20T09:21:25Z</time>
      </trkpt>
      <trkpt lat="43.3642" lon="2.43906">
        <ele>708.6</ele>
        <time>2026-06-20T09:21:26Z</time>
      </trkpt>
      <trkpt lat="43.36417" lon="2.43898">
        <ele>708</ele>
        <time>2026-06-20T09:21:27Z</time>
      </trkpt>
      <trkpt lat="43.36416" lon="2.43889">
        <ele>707.6</ele>
        <time>2026-06-20T09:21:28Z</time>
      </trkpt>
      <trkpt lat="43.36416" lon="2.43882">
        <ele>707.1</ele>
        <time>2026-06-20T09:21:29Z</time>
      </trkpt>
      <trkpt lat="43.36417" lon="2.43871">
        <ele>706.8</ele>
        <time>2026-06-20T09:21:30Z</time>
      </trkpt>
      <trkpt lat="43.3642" lon="2.43862">
        <ele>706.7</ele>
        <time>2026-06-20T09:21:31Z</time>
      </trkpt>
      <trkpt lat="43.36422" lon="2.43852">
        <ele>706.3</ele>
        <time>2026-06-20T09:21:32Z</time>
      </trkpt>
      <trkpt lat="43.36424" lon="2.43842">
        <ele>705.5</ele>
        <time>2026-06-20T09:21:33Z</time>
      </trkpt>
      <trkpt lat="43.36424" lon="2.43831">
        <ele>704.5</ele>
        <time>2026-06-20T09:21:34Z</time>
      </trkpt>
      <trkpt lat="43.36424" lon="2.4382">
        <ele>703.4</ele>
        <time>2026-06-20T09:21:35Z</time>
      </trkpt>
      <trkpt lat="43.36424" lon="2.43808">
        <ele>702.2</ele>
        <time>2026-06-20T09:21:36Z</time>
      </trkpt>
      <trkpt lat="43.36424" lon="2.43796">
        <ele>701.6</ele>
        <time>2026-06-20T09:21:37Z</time>
      </trkpt>
      <trkpt lat="43.36424" lon="2.43787">
        <ele>701.3</ele>
        <time>2026-06-20T09:21:38Z</time>
      </trkpt>
      <trkpt lat="43.36425" lon="2.43772">
        <ele>701</ele>
        <time>2026-06-20T09:21:39Z</time>
      </trkpt>
      <trkpt lat="43.36425" lon="2.4376">
        <ele>700.5</ele>
        <time>2026-06-20T09:21:40Z</time>
      </trkpt>
      <trkpt lat="43.36424" lon="2.4375">
        <ele>699.9</ele>
        <time>2026-06-20T09:21:41Z</time>
      </trkpt>
      <trkpt lat="43.36423" lon="2.43735">
        <ele>699.1</ele>
        <time>2026-06-20T09:21:42Z</time>
      </trkpt>
      <trkpt lat="43.36422" lon="2.43724">
        <ele>698.3</ele>
        <time>2026-06-20T09:21:43Z</time>
      </trkpt>
      <trkpt lat="43.36419" lon="2.43714">
        <ele>699</ele>
        <time>2026-06-20T09:21:44Z</time>
      </trkpt>
      <trkpt lat="43.36416" lon="2.43709">
        <ele>699.1</ele>
        <time>2026-06-20T09:21:45Z</time>
      </trkpt>
      <trkpt lat="43.36408" lon="2.43705">
        <ele>698.4</ele>
        <time>2026-06-20T09:21:46Z</time>
      </trkpt>
      <trkpt lat="43.36401" lon="2.43704">
        <ele>697.1</ele>
        <time>2026-06-20T09:21:47Z</time>
      </trkpt>
      <trkpt lat="43.36395" lon="2.43701">
        <ele>696.2</ele>
        <time>2026-06-20T09:21:48Z</time>
      </trkpt>
      <trkpt lat="43.36389" lon="2.43696">
        <ele>695.7</ele>
        <time>2026-06-20T09:21:49Z</time>
      </trkpt>
      <trkpt lat="43.36383" lon="2.43689">
        <ele>695.2</ele>
        <time>2026-06-20T09:21:50Z</time>
      </trkpt>
      <trkpt lat="43.36376" lon="2.43682">
        <ele>694.5</ele>
        <time>2026-06-20T09:21:51Z</time>
      </trkpt>
      <trkpt lat="43.36356" lon="2.43659">
        <ele>693.3</ele>
        <time>2026-06-20T09:21:54Z</time>
      </trkpt>
      <trkpt lat="43.36348" lon="2.43652">
        <ele>693.2</ele>
        <time>2026-06-20T09:21:55Z</time>
      </trkpt>
      <trkpt lat="43.36331" lon="2.43642">
        <ele>692.2</ele>
        <time>2026-06-20T09:21:57Z</time>
      </trkpt>
      <trkpt lat="43.36322" lon="2.43639">
        <ele>692.1</ele>
        <time>2026-06-20T09:21:58Z</time>
      </trkpt>
      <trkpt lat="43.36312" lon="2.43639">
        <ele>691.5</ele>
        <time>2026-06-20T09:21:59Z</time>
      </trkpt>
      <trkpt lat="43.36302" lon="2.43641">
        <ele>690.3</ele>
        <time>2026-06-20T09:22:00Z</time>
      </trkpt>
      <trkpt lat="43.36291" lon="2.43643">
        <ele>689.3</ele>
        <time>2026-06-20T09:22:01Z</time>
      </trkpt>
      <trkpt lat="43.36271" lon="2.43646">
        <ele>687.3</ele>
        <time>2026-06-20T09:22:03Z</time>
      </trkpt>
      <trkpt lat="43.36261" lon="2.43646">
        <ele>686.2</ele>
        <time>2026-06-20T09:22:04Z</time>
      </trkpt>
      <trkpt lat="43.36252" lon="2.43643">
        <ele>685.6</ele>
        <time>2026-06-20T09:22:05Z</time>
      </trkpt>
      <trkpt lat="43.36243" lon="2.43638">
        <ele>684.9</ele>
        <time>2026-06-20T09:22:06Z</time>
      </trkpt>
      <trkpt lat="43.36235" lon="2.43629">
        <ele>684.1</ele>
        <time>2026-06-20T09:22:07Z</time>
      </trkpt>
      <trkpt lat="43.36229" lon="2.4362">
        <ele>683.3</ele>
        <time>2026-06-20T09:22:08Z</time>
      </trkpt>
      <trkpt lat="43.36224" lon="2.43611">
        <ele>682.4</ele>
        <time>2026-06-20T09:22:09Z</time>
      </trkpt>
      <trkpt lat="43.3622" lon="2.43606">
        <ele>681.6</ele>
        <time>2026-06-20T09:22:10Z</time>
      </trkpt>
      <trkpt lat="43.36215" lon="2.43604">
        <ele>680.6</ele>
        <time>2026-06-20T09:22:11Z</time>
      </trkpt>
      <trkpt lat="43.36211" lon="2.43603">
        <ele>679.8</ele>
        <time>2026-06-20T09:22:12Z</time>
      </trkpt>
      <trkpt lat="43.36205" lon="2.43598">
        <ele>678.5</ele>
        <time>2026-06-20T09:22:13Z</time>
      </trkpt>
      <trkpt lat="43.36199" lon="2.43593">
        <ele>677</ele>
        <time>2026-06-20T09:22:14Z</time>
      </trkpt>
      <trkpt lat="43.36191" lon="2.43588">
        <ele>675.4</ele>
        <time>2026-06-20T09:22:15Z</time>
      </trkpt>
      <trkpt lat="43.36183" lon="2.43584">
        <ele>673.9</ele>
        <time>2026-06-20T09:22:16Z</time>
      </trkpt>
      <trkpt lat="43.36173" lon="2.4358">
        <ele>672.2</ele>
        <time>2026-06-20T09:22:17Z</time>
      </trkpt>
      <trkpt lat="43.36164" lon="2.43578">
        <ele>670.4</ele>
        <time>2026-06-20T09:22:18Z</time>
      </trkpt>
      <trkpt lat="43.36134" lon="2.43573">
        <ele>665.5</ele>
        <time>2026-06-20T09:22:21Z</time>
      </trkpt>
      <trkpt lat="43.36123" lon="2.43572">
        <ele>664.3</ele>
        <time>2026-06-20T09:22:22Z</time>
      </trkpt>
      <trkpt lat="43.36102" lon="2.43574">
        <ele>661.9</ele>
        <time>2026-06-20T09:22:24Z</time>
      </trkpt>
      <trkpt lat="43.36093" lon="2.43575">
        <ele>660.9</ele>
        <time>2026-06-20T09:22:25Z</time>
      </trkpt>
      <trkpt lat="43.36085" lon="2.43574">
        <ele>659.9</ele>
        <time>2026-06-20T09:22:26Z</time>
      </trkpt>
      <trkpt lat="43.36077" lon="2.43573">
        <ele>659.2</ele>
        <time>2026-06-20T09:22:27Z</time>
      </trkpt>
      <trkpt lat="43.36069" lon="2.43572">
        <ele>658.6</ele>
        <time>2026-06-20T09:22:28Z</time>
      </trkpt>
      <trkpt lat="43.36063" lon="2.4357">
        <ele>658</ele>
        <time>2026-06-20T09:22:29Z</time>
      </trkpt>
      <trkpt lat="43.36057" lon="2.43568">
        <ele>657.5</ele>
        <time>2026-06-20T09:22:30Z</time>
      </trkpt>
      <trkpt lat="43.36052" lon="2.43567">
        <ele>657.2</ele>
        <time>2026-06-20T09:22:31Z</time>
      </trkpt>
      <trkpt lat="43.36048" lon="2.43568">
        <ele>657</ele>
        <time>2026-06-20T09:22:32Z</time>
      </trkpt>
      <trkpt lat="43.36046" lon="2.4357">
        <ele>657</ele>
        <time>2026-06-20T09:22:33Z</time>
      </trkpt>
      <trkpt lat="43.36044" lon="2.43572">
        <ele>657</ele>
        <time>2026-06-20T09:22:34Z</time>
      </trkpt>
      <trkpt lat="43.36041" lon="2.43574">
        <ele>656.9</ele>
        <time>2026-06-20T09:22:35Z</time>
      </trkpt>
      <trkpt lat="43.36037" lon="2.43576">
        <ele>656.9</ele>
        <time>2026-06-20T09:22:36Z</time>
      </trkpt>
      <trkpt lat="43.36032" lon="2.43578">
        <ele>656.8</ele>
        <time>2026-06-20T09:22:37Z</time>
      </trkpt>
      <trkpt lat="43.36027" lon="2.4358">
        <ele>656.7</ele>
        <time>2026-06-20T09:22:38Z</time>
      </trkpt>
      <trkpt lat="43.36001" lon="2.4359">
        <ele>656.8</ele>
        <time>2026-06-20T09:22:42Z</time>
      </trkpt>
      <trkpt lat="43.35977" lon="2.43599">
        <ele>656.9</ele>
        <time>2026-06-20T09:22:46Z</time>
      </trkpt>
      <trkpt lat="43.3597" lon="2.43603">
        <ele>656.9</ele>
        <time>2026-06-20T09:22:47Z</time>
      </trkpt>
      <trkpt lat="43.3596" lon="2.43614">
        <ele>656.9</ele>
        <time>2026-06-20T09:22:49Z</time>
      </trkpt>
      <trkpt lat="43.35956" lon="2.43619">
        <ele>656.8</ele>
        <time>2026-06-20T09:22:50Z</time>
      </trkpt>
      <trkpt lat="43.35951" lon="2.43622">
        <ele>656.4</ele>
        <time>2026-06-20T09:22:51Z</time>
      </trkpt>
      <trkpt lat="43.35946" lon="2.4362">
        <ele>655.8</ele>
        <time>2026-06-20T09:22:52Z</time>
      </trkpt>
      <trkpt lat="43.3594" lon="2.43605">
        <ele>653.6</ele>
        <time>2026-06-20T09:22:54Z</time>
      </trkpt>
      <trkpt lat="43.35938" lon="2.43597">
        <ele>652.4</ele>
        <time>2026-06-20T09:22:55Z</time>
      </trkpt>
      <trkpt lat="43.35935" lon="2.4359">
        <ele>651</ele>
        <time>2026-06-20T09:22:56Z</time>
      </trkpt>
      <trkpt lat="43.35932" lon="2.43582">
        <ele>649.7</ele>
        <time>2026-06-20T09:22:57Z</time>
      </trkpt>
      <trkpt lat="43.35932" lon="2.43576">
        <ele>648.8</ele>
        <time>2026-06-20T09:22:58Z</time>
      </trkpt>
      <trkpt lat="43.35933" lon="2.43569">
        <ele>648</ele>
        <time>2026-06-20T09:22:59Z</time>
      </trkpt>
      <trkpt lat="43.35933" lon="2.43564">
        <ele>647.5</ele>
        <time>2026-06-20T09:23:00Z</time>
      </trkpt>
      <trkpt lat="43.35932" lon="2.43559">
        <ele>646.5</ele>
        <time>2026-06-20T09:23:01Z</time>
      </trkpt>
      <trkpt lat="43.35928" lon="2.43555">
        <ele>645.6</ele>
        <time>2026-06-20T09:23:02Z</time>
      </trkpt>
      <trkpt lat="43.35926" lon="2.43552">
        <ele>644.8</ele>
        <time>2026-06-20T09:23:03Z</time>
      </trkpt>
      <trkpt lat="43.35924" lon="2.43549">
        <ele>644.2</ele>
        <time>2026-06-20T09:23:04Z</time>
      </trkpt>
      <trkpt lat="43.35923" lon="2.43544">
        <ele>643.2</ele>
        <time>2026-06-20T09:23:05Z</time>
      </trkpt>
      <trkpt lat="43.35922" lon="2.43538">
        <ele>642.2</ele>
        <time>2026-06-20T09:23:06Z</time>
      </trkpt>
      <trkpt lat="43.35924" lon="2.43523">
        <ele>640.3</ele>
        <time>2026-06-20T09:23:08Z</time>
      </trkpt>
      <trkpt lat="43.35925" lon="2.43517">
        <ele>639.9</ele>
        <time>2026-06-20T09:23:09Z</time>
      </trkpt>
      <trkpt lat="43.35926" lon="2.43513">
        <ele>639.4</ele>
        <time>2026-06-20T09:23:10Z</time>
      </trkpt>
      <trkpt lat="43.35924" lon="2.43509">
        <ele>638.6</ele>
        <time>2026-06-20T09:23:11Z</time>
      </trkpt>
      <trkpt lat="43.35922" lon="2.43505">
        <ele>637.7</ele>
        <time>2026-06-20T09:23:12Z</time>
      </trkpt>
      <trkpt lat="43.3592" lon="2.435">
        <ele>636.6</ele>
        <time>2026-06-20T09:23:13Z</time>
      </trkpt>
      <trkpt lat="43.35917" lon="2.43493">
        <ele>636.1</ele>
        <time>2026-06-20T09:23:14Z</time>
      </trkpt>
      <trkpt lat="43.35914" lon="2.43487">
        <ele>635.6</ele>
        <time>2026-06-20T09:23:15Z</time>
      </trkpt>
      <trkpt lat="43.3591" lon="2.43483">
        <ele>634.8</ele>
        <time>2026-06-20T09:23:16Z</time>
      </trkpt>
      <trkpt lat="43.35907" lon="2.43479">
        <ele>634.3</ele>
        <time>2026-06-20T09:23:17Z</time>
      </trkpt>
      <trkpt lat="43.35905" lon="2.43474">
        <ele>633.8</ele>
        <time>2026-06-20T09:23:18Z</time>
      </trkpt>
      <trkpt lat="43.359" lon="2.43469">
        <ele>633.1</ele>
        <time>2026-06-20T09:23:19Z</time>
      </trkpt>
      <trkpt lat="43.35897" lon="2.43465">
        <ele>632.4</ele>
        <time>2026-06-20T09:23:20Z</time>
      </trkpt>
      <trkpt lat="43.3589" lon="2.43455">
        <ele>631.3</ele>
        <time>2026-06-20T09:23:22Z</time>
      </trkpt>
      <trkpt lat="43.35887" lon="2.43451">
        <ele>630.6</ele>
        <time>2026-06-20T09:23:23Z</time>
      </trkpt>
      <trkpt lat="43.35881" lon="2.43447">
        <ele>629.8</ele>
        <time>2026-06-20T09:23:24Z</time>
      </trkpt>
      <trkpt lat="43.35875" lon="2.43444">
        <ele>628.9</ele>
        <time>2026-06-20T09:23:25Z</time>
      </trkpt>
      <trkpt lat="43.35868" lon="2.43443">
        <ele>628</ele>
        <time>2026-06-20T09:23:26Z</time>
      </trkpt>
      <trkpt lat="43.35864" lon="2.43442">
        <ele>627.4</ele>
        <time>2026-06-20T09:23:27Z</time>
      </trkpt>
      <trkpt lat="43.3586" lon="2.43441">
        <ele>626.8</ele>
        <time>2026-06-20T09:23:28Z</time>
      </trkpt>
      <trkpt lat="43.35855" lon="2.43436">
        <ele>626.1</ele>
        <time>2026-06-20T09:23:29Z</time>
      </trkpt>
      <trkpt lat="43.35847" lon="2.43423">
        <ele>625</ele>
        <time>2026-06-20T09:23:31Z</time>
      </trkpt>
      <trkpt lat="43.35841" lon="2.43418">
        <ele>624.1</ele>
        <time>2026-06-20T09:23:32Z</time>
      </trkpt>
      <trkpt lat="43.35837" lon="2.43416">
        <ele>623.4</ele>
        <time>2026-06-20T09:23:33Z</time>
      </trkpt>
      <trkpt lat="43.3583" lon="2.43415">
        <ele>622.5</ele>
        <time>2026-06-20T09:23:34Z</time>
      </trkpt>
      <trkpt lat="43.35825" lon="2.43416">
        <ele>621.7</ele>
        <time>2026-06-20T09:23:35Z</time>
      </trkpt>
      <trkpt lat="43.35819" lon="2.43418">
        <ele>620.9</ele>
        <time>2026-06-20T09:23:36Z</time>
      </trkpt>
      <trkpt lat="43.35813" lon="2.43422">
        <ele>620.2</ele>
        <time>2026-06-20T09:23:37Z</time>
      </trkpt>
      <trkpt lat="43.35809" lon="2.43427">
        <ele>619.8</ele>
        <time>2026-06-20T09:23:38Z</time>
      </trkpt>
      <trkpt lat="43.35804" lon="2.43433">
        <ele>619.5</ele>
        <time>2026-06-20T09:23:39Z</time>
      </trkpt>
      <trkpt lat="43.35799" lon="2.43438">
        <ele>619.2</ele>
        <time>2026-06-20T09:23:40Z</time>
      </trkpt>
      <trkpt lat="43.35788" lon="2.43447">
        <ele>618.5</ele>
        <time>2026-06-20T09:23:42Z</time>
      </trkpt>
      <trkpt lat="43.35784" lon="2.43449">
        <ele>617.9</ele>
        <time>2026-06-20T09:23:43Z</time>
      </trkpt>
      <trkpt lat="43.35778" lon="2.4345">
        <ele>617.4</ele>
        <time>2026-06-20T09:23:44Z</time>
      </trkpt>
      <trkpt lat="43.35772" lon="2.4345">
        <ele>616.8</ele>
        <time>2026-06-20T09:23:45Z</time>
      </trkpt>
      <trkpt lat="43.35765" lon="2.43451">
        <ele>616</ele>
        <time>2026-06-20T09:23:46Z</time>
      </trkpt>
      <trkpt lat="43.3576" lon="2.43452">
        <ele>615.4</ele>
        <time>2026-06-20T09:23:47Z</time>
      </trkpt>
      <trkpt lat="43.35755" lon="2.43452">
        <ele>614.9</ele>
        <time>2026-06-20T09:23:48Z</time>
      </trkpt>
      <trkpt lat="43.35748" lon="2.43453">
        <ele>614.2</ele>
        <time>2026-06-20T09:23:49Z</time>
      </trkpt>
      <trkpt lat="43.35743" lon="2.43454">
        <ele>613.7</ele>
        <time>2026-06-20T09:23:50Z</time>
      </trkpt>
      <trkpt lat="43.35738" lon="2.43456">
        <ele>613.2</ele>
        <time>2026-06-20T09:23:51Z</time>
      </trkpt>
      <trkpt lat="43.35732" lon="2.43458">
        <ele>612.7</ele>
        <time>2026-06-20T09:23:52Z</time>
      </trkpt>
      <trkpt lat="43.35726" lon="2.43461">
        <ele>612.3</ele>
        <time>2026-06-20T09:23:53Z</time>
      </trkpt>
      <trkpt lat="43.3572" lon="2.43462">
        <ele>611.8</ele>
        <time>2026-06-20T09:23:54Z</time>
      </trkpt>
      <trkpt lat="43.3571" lon="2.43466">
        <ele>610.8</ele>
        <time>2026-06-20T09:23:56Z</time>
      </trkpt>
      <trkpt lat="43.35704" lon="2.4347">
        <ele>610.5</ele>
        <time>2026-06-20T09:23:57Z</time>
      </trkpt>
      <trkpt lat="43.357" lon="2.4347">
        <ele>610.2</ele>
        <time>2026-06-20T09:23:58Z</time>
      </trkpt>
      <trkpt lat="43.35695" lon="2.43469">
        <ele>609.7</ele>
        <time>2026-06-20T09:23:59Z</time>
      </trkpt>
      <trkpt lat="43.35689" lon="2.4347">
        <ele>608.8</ele>
        <time>2026-06-20T09:24:00Z</time>
      </trkpt>
      <trkpt lat="43.3568" lon="2.43475">
        <ele>607.1</ele>
        <time>2026-06-20T09:24:02Z</time>
      </trkpt>
      <trkpt lat="43.35675" lon="2.43476">
        <ele>606.3</ele>
        <time>2026-06-20T09:24:03Z</time>
      </trkpt>
      <trkpt lat="43.3567" lon="2.43475">
        <ele>605.5</ele>
        <time>2026-06-20T09:24:04Z</time>
      </trkpt>
      <trkpt lat="43.35664" lon="2.43473">
        <ele>604.6</ele>
        <time>2026-06-20T09:24:05Z</time>
      </trkpt>
      <trkpt lat="43.35658" lon="2.43472">
        <ele>603.3</ele>
        <time>2026-06-20T09:24:06Z</time>
      </trkpt>
      <trkpt lat="43.35652" lon="2.43471">
        <ele>602.2</ele>
        <time>2026-06-20T09:24:07Z</time>
      </trkpt>
      <trkpt lat="43.35647" lon="2.43471">
        <ele>601.4</ele>
        <time>2026-06-20T09:24:08Z</time>
      </trkpt>
      <trkpt lat="43.35643" lon="2.43472">
        <ele>600.7</ele>
        <time>2026-06-20T09:24:09Z</time>
      </trkpt>
      <trkpt lat="43.35639" lon="2.43473">
        <ele>600.1</ele>
        <time>2026-06-20T09:24:10Z</time>
      </trkpt>
      <trkpt lat="43.35635" lon="2.43474">
        <ele>599.3</ele>
        <time>2026-06-20T09:24:11Z</time>
      </trkpt>
      <trkpt lat="43.35632" lon="2.43473">
        <ele>598.6</ele>
        <time>2026-06-20T09:24:12Z</time>
      </trkpt>
      <trkpt lat="43.35629" lon="2.43475">
        <ele>598</ele>
        <time>2026-06-20T09:24:13Z</time>
      </trkpt>
      <trkpt lat="43.35625" lon="2.43479">
        <ele>597.4</ele>
        <time>2026-06-20T09:24:14Z</time>
      </trkpt>
      <trkpt lat="43.35621" lon="2.43483">
        <ele>596.9</ele>
        <time>2026-06-20T09:24:15Z</time>
      </trkpt>
      <trkpt lat="43.35618" lon="2.43487">
        <ele>596.4</ele>
        <time>2026-06-20T09:24:16Z</time>
      </trkpt>
      <trkpt lat="43.35609" lon="2.43497">
        <ele>595.2</ele>
        <time>2026-06-20T09:24:18Z</time>
      </trkpt>
      <trkpt lat="43.35604" lon="2.43499">
        <ele>594.2</ele>
        <time>2026-06-20T09:24:19Z</time>
      </trkpt>
      <trkpt lat="43.356" lon="2.43499">
        <ele>593.2</ele>
        <time>2026-06-20T09:24:20Z</time>
      </trkpt>
      <trkpt lat="43.35598" lon="2.43497">
        <ele>592.4</ele>
        <time>2026-06-20T09:24:21Z</time>
      </trkpt>
      <trkpt lat="43.35595" lon="2.43495">
        <ele>591.8</ele>
        <time>2026-06-20T09:24:22Z</time>
      </trkpt>
      <trkpt lat="43.35592" lon="2.43495">
        <ele>590.9</ele>
        <time>2026-06-20T09:24:23Z</time>
      </trkpt>
      <trkpt lat="43.35589" lon="2.43497">
        <ele>590.2</ele>
        <time>2026-06-20T09:24:24Z</time>
      </trkpt>
      <trkpt lat="43.35585" lon="2.43499">
        <ele>589.4</ele>
        <time>2026-06-20T09:24:25Z</time>
      </trkpt>
      <trkpt lat="43.35582" lon="2.435">
        <ele>588.6</ele>
        <time>2026-06-20T09:24:26Z</time>
      </trkpt>
      <trkpt lat="43.35579" lon="2.43499">
        <ele>587.9</ele>
        <time>2026-06-20T09:24:27Z</time>
      </trkpt>
      <trkpt lat="43.35575" lon="2.43496">
        <ele>586.9</ele>
        <time>2026-06-20T09:24:28Z</time>
      </trkpt>
      <trkpt lat="43.35571" lon="2.43493">
        <ele>585.8</ele>
        <time>2026-06-20T09:24:29Z</time>
      </trkpt>
      <trkpt lat="43.35567" lon="2.43492">
        <ele>584.8</ele>
        <time>2026-06-20T09:24:30Z</time>
      </trkpt>
      <trkpt lat="43.35563" lon="2.4349">
        <ele>583.8</ele>
        <time>2026-06-20T09:24:31Z</time>
      </trkpt>
      <trkpt lat="43.3556" lon="2.43487">
        <ele>583.1</ele>
        <time>2026-06-20T09:24:32Z</time>
      </trkpt>
      <trkpt lat="43.35558" lon="2.43483">
        <ele>582.6</ele>
        <time>2026-06-20T09:24:33Z</time>
      </trkpt>
      <trkpt lat="43.35554" lon="2.43481">
        <ele>581.7</ele>
        <time>2026-06-20T09:24:34Z</time>
      </trkpt>
      <trkpt lat="43.3555" lon="2.43479">
        <ele>580.5</ele>
        <time>2026-06-20T09:24:35Z</time>
      </trkpt>
      <trkpt lat="43.35545" lon="2.43479">
        <ele>579.1</ele>
        <time>2026-06-20T09:24:36Z</time>
      </trkpt>
      <trkpt lat="43.35539" lon="2.4348">
        <ele>577.6</ele>
        <time>2026-06-20T09:24:37Z</time>
      </trkpt>
      <trkpt lat="43.35534" lon="2.43483">
        <ele>575.9</ele>
        <time>2026-06-20T09:24:38Z</time>
      </trkpt>
      <trkpt lat="43.3553" lon="2.43485">
        <ele>574.3</ele>
        <time>2026-06-20T09:24:39Z</time>
      </trkpt>
      <trkpt lat="43.35526" lon="2.43485">
        <ele>573.1</ele>
        <time>2026-06-20T09:24:40Z</time>
      </trkpt>
      <trkpt lat="43.35522" lon="2.43484">
        <ele>572.2</ele>
        <time>2026-06-20T09:24:41Z</time>
      </trkpt>
      <trkpt lat="43.35518" lon="2.43483">
        <ele>571.3</ele>
        <time>2026-06-20T09:24:42Z</time>
      </trkpt>
      <trkpt lat="43.35515" lon="2.43481">
        <ele>570.7</ele>
        <time>2026-06-20T09:24:43Z</time>
      </trkpt>
      <trkpt lat="43.35512" lon="2.43478">
        <ele>570.7</ele>
        <time>2026-06-20T09:24:44Z</time>
      </trkpt>
      <trkpt lat="43.35511" lon="2.43474">
        <ele>571.3</ele>
        <time>2026-06-20T09:24:45Z</time>
      </trkpt>
      <trkpt lat="43.35509" lon="2.43471">
        <ele>571</ele>
        <time>2026-06-20T09:24:46Z</time>
      </trkpt>
      <trkpt lat="43.35507" lon="2.43467">
        <ele>569.5</ele>
        <time>2026-06-20T09:24:47Z</time>
      </trkpt>
      <trkpt lat="43.35501" lon="2.43461">
        <ele>566.8</ele>
        <time>2026-06-20T09:24:49Z</time>
      </trkpt>
      <trkpt lat="43.35492" lon="2.43462">
        <ele>564.6</ele>
        <time>2026-06-20T09:24:51Z</time>
      </trkpt>
      <trkpt lat="43.35487" lon="2.43464">
        <ele>563.8</ele>
        <time>2026-06-20T09:24:52Z</time>
      </trkpt>
      <trkpt lat="43.35483" lon="2.43468">
        <ele>563.6</ele>
        <time>2026-06-20T09:24:53Z</time>
      </trkpt>
      <trkpt lat="43.35479" lon="2.43473">
        <ele>563.4</ele>
        <time>2026-06-20T09:24:54Z</time>
      </trkpt>
      <trkpt lat="43.35475" lon="2.43476">
        <ele>561.7</ele>
        <time>2026-06-20T09:24:55Z</time>
      </trkpt>
      <trkpt lat="43.35472" lon="2.43477">
        <ele>560.7</ele>
        <time>2026-06-20T09:24:56Z</time>
      </trkpt>
      <trkpt lat="43.35468" lon="2.43477">
        <ele>559.7</ele>
        <time>2026-06-20T09:24:57Z</time>
      </trkpt>
      <trkpt lat="43.35466" lon="2.43479">
        <ele>558.6</ele>
        <time>2026-06-20T09:24:58Z</time>
      </trkpt>
      <trkpt lat="43.35463" lon="2.4348">
        <ele>557.6</ele>
        <time>2026-06-20T09:24:59Z</time>
      </trkpt>
      <trkpt lat="43.35454" lon="2.43478">
        <ele>555.6</ele>
        <time>2026-06-20T09:25:01Z</time>
      </trkpt>
      <trkpt lat="43.35449" lon="2.43477">
        <ele>554.5</ele>
        <time>2026-06-20T09:25:02Z</time>
      </trkpt>
      <trkpt lat="43.35443" lon="2.43477">
        <ele>553.1</ele>
        <time>2026-06-20T09:25:03Z</time>
      </trkpt>
      <trkpt lat="43.35432" lon="2.4348">
        <ele>550.9</ele>
        <time>2026-06-20T09:25:05Z</time>
      </trkpt>
      <trkpt lat="43.35425" lon="2.43483">
        <ele>549.9</ele>
        <time>2026-06-20T09:25:06Z</time>
      </trkpt>
      <trkpt lat="43.35418" lon="2.43484">
        <ele>549.1</ele>
        <time>2026-06-20T09:25:07Z</time>
      </trkpt>
      <trkpt lat="43.35412" lon="2.43486">
        <ele>548.4</ele>
        <time>2026-06-20T09:25:08Z</time>
      </trkpt>
      <trkpt lat="43.35405" lon="2.43488">
        <ele>548.1</ele>
        <time>2026-06-20T09:25:09Z</time>
      </trkpt>
      <trkpt lat="43.354" lon="2.43492">
        <ele>548.1</ele>
        <time>2026-06-20T09:25:10Z</time>
      </trkpt>
      <trkpt lat="43.35395" lon="2.43494">
        <ele>548</ele>
        <time>2026-06-20T09:25:11Z</time>
      </trkpt>
      <trkpt lat="43.35389" lon="2.43496">
        <ele>548</ele>
        <time>2026-06-20T09:25:12Z</time>
      </trkpt>
      <trkpt lat="43.35384" lon="2.43496">
        <ele>548</ele>
        <time>2026-06-20T09:25:13Z</time>
      </trkpt>
      <trkpt lat="43.35376" lon="2.43498">
        <ele>547.9</ele>
        <time>2026-06-20T09:25:14Z</time>
      </trkpt>
      <trkpt lat="43.35371" lon="2.435">
        <ele>548.2</ele>
        <time>2026-06-20T09:25:15Z</time>
      </trkpt>
      <trkpt lat="43.35365" lon="2.43502">
        <ele>547.7</ele>
        <time>2026-06-20T09:25:16Z</time>
      </trkpt>
      <trkpt lat="43.3536" lon="2.43505">
        <ele>547</ele>
        <time>2026-06-20T09:25:17Z</time>
      </trkpt>
      <trkpt lat="43.35354" lon="2.43508">
        <ele>546.5</ele>
        <time>2026-06-20T09:25:18Z</time>
      </trkpt>
      <trkpt lat="43.35349" lon="2.43509">
        <ele>546.3</ele>
        <time>2026-06-20T09:25:19Z</time>
      </trkpt>
      <trkpt lat="43.35338" lon="2.43509">
        <ele>546.3</ele>
        <time>2026-06-20T09:25:21Z</time>
      </trkpt>
      <trkpt lat="43.35328" lon="2.43513">
        <ele>546.6</ele>
        <time>2026-06-20T09:25:23Z</time>
      </trkpt>
      <trkpt lat="43.35324" lon="2.43516">
        <ele>547</ele>
        <time>2026-06-20T09:25:24Z</time>
      </trkpt>
      <trkpt lat="43.35319" lon="2.43518">
        <ele>547.5</ele>
        <time>2026-06-20T09:25:25Z</time>
      </trkpt>
      <trkpt lat="43.35314" lon="2.4352">
        <ele>548</ele>
        <time>2026-06-20T09:25:26Z</time>
      </trkpt>
      <trkpt lat="43.353" lon="2.43525">
        <ele>549.5</ele>
        <time>2026-06-20T09:25:29Z</time>
      </trkpt>
      <trkpt lat="43.3529" lon="2.4353">
        <ele>549.7</ele>
        <time>2026-06-20T09:25:31Z</time>
      </trkpt>
      <trkpt lat="43.35285" lon="2.43531">
        <ele>549.6</ele>
        <time>2026-06-20T09:25:32Z</time>
      </trkpt>
      <trkpt lat="43.35281" lon="2.43532">
        <ele>549.6</ele>
        <time>2026-06-20T09:25:33Z</time>
      </trkpt>
      <trkpt lat="43.35267" lon="2.43537">
        <ele>550</ele>
        <time>2026-06-20T09:25:36Z</time>
      </trkpt>
      <trkpt lat="43.35264" lon="2.43538">
        <ele>550.2</ele>
        <time>2026-06-20T09:25:37Z</time>
      </trkpt>
      <trkpt lat="43.35262" lon="2.4354">
        <ele>550.4</ele>
        <time>2026-06-20T09:25:38Z</time>
      </trkpt>
      <trkpt lat="43.35261" lon="2.4354">
        <ele>550.5</ele>
        <time>2026-06-20T09:25:39Z</time>
      </trkpt>
      <trkpt lat="43.35259" lon="2.43541">
        <ele>550.6</ele>
        <time>2026-06-20T09:25:40Z</time>
      </trkpt>
      <trkpt lat="43.35258" lon="2.43542">
        <ele>550.8</ele>
        <time>2026-06-20T09:25:41Z</time>
      </trkpt>
      <trkpt lat="43.35256" lon="2.43543">
        <ele>551.1</ele>
        <time>2026-06-20T09:25:42Z</time>
      </trkpt>
      <trkpt lat="43.35251" lon="2.43548">
        <ele>552</ele>
        <time>2026-06-20T09:25:44Z</time>
      </trkpt>
      <trkpt lat="43.35249" lon="2.4355">
        <ele>552.5</ele>
        <time>2026-06-20T09:25:45Z</time>
      </trkpt>
      <trkpt lat="43.35247" lon="2.43552">
        <ele>552.7</ele>
        <time>2026-06-20T09:25:46Z</time>
      </trkpt>
      <trkpt lat="43.35242" lon="2.43555">
        <ele>553.2</ele>
        <time>2026-06-20T09:25:48Z</time>
      </trkpt>
      <trkpt lat="43.35234" lon="2.43555">
        <ele>553.5</ele>
        <time>2026-06-20T09:25:50Z</time>
      </trkpt>
      <trkpt lat="43.35226" lon="2.43561">
        <ele>553.3</ele>
        <time>2026-06-20T09:25:52Z</time>
      </trkpt>
      <trkpt lat="43.35223" lon="2.43564">
        <ele>553.3</ele>
        <time>2026-06-20T09:25:53Z</time>
      </trkpt>
      <trkpt lat="43.3522" lon="2.43565">
        <ele>553.3</ele>
        <time>2026-06-20T09:25:54Z</time>
      </trkpt>
      <trkpt lat="43.35214" lon="2.43568">
        <ele>553.3</ele>
        <time>2026-06-20T09:25:55Z</time>
      </trkpt>
      <trkpt lat="43.3521" lon="2.43571">
        <ele>553.5</ele>
        <time>2026-06-20T09:25:56Z</time>
      </trkpt>
      <trkpt lat="43.35207" lon="2.43576">
        <ele>554.1</ele>
        <time>2026-06-20T09:25:57Z</time>
      </trkpt>
      <trkpt lat="43.35204" lon="2.43579">
        <ele>554.9</ele>
        <time>2026-06-20T09:25:58Z</time>
      </trkpt>
      <trkpt lat="43.35201" lon="2.43583">
        <ele>555.7</ele>
        <time>2026-06-20T09:25:59Z</time>
      </trkpt>
      <trkpt lat="43.35197" lon="2.43586">
        <ele>556.1</ele>
        <time>2026-06-20T09:26:00Z</time>
      </trkpt>
      <trkpt lat="43.35194" lon="2.43589">
        <ele>556.2</ele>
        <time>2026-06-20T09:26:01Z</time>
      </trkpt>
      <trkpt lat="43.3519" lon="2.43592">
        <ele>555.9</ele>
        <time>2026-06-20T09:26:02Z</time>
      </trkpt>
      <trkpt lat="43.35186" lon="2.43595">
        <ele>555.8</ele>
        <time>2026-06-20T09:26:03Z</time>
      </trkpt>
      <trkpt lat="43.35182" lon="2.43597">
        <ele>556.1</ele>
        <time>2026-06-20T09:26:04Z</time>
      </trkpt>
      <trkpt lat="43.35178" lon="2.43599">
        <ele>556.6</ele>
        <time>2026-06-20T09:26:05Z</time>
      </trkpt>
      <trkpt lat="43.35174" lon="2.43603">
        <ele>557.4</ele>
        <time>2026-06-20T09:26:06Z</time>
      </trkpt>
      <trkpt lat="43.35171" lon="2.43606">
        <ele>558.4</ele>
        <time>2026-06-20T09:26:07Z</time>
      </trkpt>
      <trkpt lat="43.35168" lon="2.4361">
        <ele>559.4</ele>
        <time>2026-06-20T09:26:08Z</time>
      </trkpt>
      <trkpt lat="43.35165" lon="2.43612">
        <ele>559.7</ele>
        <time>2026-06-20T09:26:09Z</time>
      </trkpt>
      <trkpt lat="43.3516" lon="2.43614">
        <ele>559.1</ele>
        <time>2026-06-20T09:26:10Z</time>
      </trkpt>
      <trkpt lat="43.35156" lon="2.43616">
        <ele>558.8</ele>
        <time>2026-06-20T09:26:11Z</time>
      </trkpt>
      <trkpt lat="43.35151" lon="2.4362">
        <ele>558.6</ele>
        <time>2026-06-20T09:26:12Z</time>
      </trkpt>
      <trkpt lat="43.35148" lon="2.43624">
        <ele>558.7</ele>
        <time>2026-06-20T09:26:13Z</time>
      </trkpt>
      <trkpt lat="43.35146" lon="2.43629">
        <ele>559</ele>
        <time>2026-06-20T09:26:14Z</time>
      </trkpt>
      <trkpt lat="43.35144" lon="2.43634">
        <ele>559.5</ele>
        <time>2026-06-20T09:26:15Z</time>
      </trkpt>
      <trkpt lat="43.35142" lon="2.43636">
        <ele>560</ele>
        <time>2026-06-20T09:26:16Z</time>
      </trkpt>
      <trkpt lat="43.35139" lon="2.43636">
        <ele>560.6</ele>
        <time>2026-06-20T09:26:17Z</time>
      </trkpt>
      <trkpt lat="43.35135" lon="2.43636">
        <ele>560.6</ele>
        <time>2026-06-20T09:26:18Z</time>
      </trkpt>
      <trkpt lat="43.3513" lon="2.43637">
        <ele>560.7</ele>
        <time>2026-06-20T09:26:19Z</time>
      </trkpt>
      <trkpt lat="43.35126" lon="2.4364">
        <ele>560.9</ele>
        <time>2026-06-20T09:26:20Z</time>
      </trkpt>
      <trkpt lat="43.35121" lon="2.43643">
        <ele>560.8</ele>
        <time>2026-06-20T09:26:21Z</time>
      </trkpt>
      <trkpt lat="43.35116" lon="2.43646">
        <ele>560.9</ele>
        <time>2026-06-20T09:26:22Z</time>
      </trkpt>
      <trkpt lat="43.35111" lon="2.43649">
        <ele>561.4</ele>
        <time>2026-06-20T09:26:23Z</time>
      </trkpt>
      <trkpt lat="43.35106" lon="2.43651">
        <ele>561.4</ele>
        <time>2026-06-20T09:26:24Z</time>
      </trkpt>
      <trkpt lat="43.35101" lon="2.43654">
        <ele>561.5</ele>
        <time>2026-06-20T09:26:25Z</time>
      </trkpt>
      <trkpt lat="43.35096" lon="2.43656">
        <ele>561.6</ele>
        <time>2026-06-20T09:26:26Z</time>
      </trkpt>
      <trkpt lat="43.3509" lon="2.43658">
        <ele>561.7</ele>
        <time>2026-06-20T09:26:27Z</time>
      </trkpt>
      <trkpt lat="43.35085" lon="2.43661">
        <ele>561.8</ele>
        <time>2026-06-20T09:26:28Z</time>
      </trkpt>
      <trkpt lat="43.35081" lon="2.43663">
        <ele>561.6</ele>
        <time>2026-06-20T09:26:29Z</time>
      </trkpt>
      <trkpt lat="43.35077" lon="2.43665">
        <ele>561.2</ele>
        <time>2026-06-20T09:26:30Z</time>
      </trkpt>
      <trkpt lat="43.35072" lon="2.43663">
        <ele>560.7</ele>
        <time>2026-06-20T09:26:31Z</time>
      </trkpt>
      <trkpt lat="43.35068" lon="2.43659">
        <ele>560</ele>
        <time>2026-06-20T09:26:32Z</time>
      </trkpt>
      <trkpt lat="43.35063" lon="2.43654">
        <ele>559.3</ele>
        <time>2026-06-20T09:26:33Z</time>
      </trkpt>
      <trkpt lat="43.35058" lon="2.43651">
        <ele>558.6</ele>
        <time>2026-06-20T09:26:34Z</time>
      </trkpt>
      <trkpt lat="43.35053" lon="2.43646">
        <ele>557.9</ele>
        <time>2026-06-20T09:26:35Z</time>
      </trkpt>
      <trkpt lat="43.3505" lon="2.4364">
        <ele>557.2</ele>
        <time>2026-06-20T09:26:36Z</time>
      </trkpt>
      <trkpt lat="43.35049" lon="2.43633">
        <ele>556.4</ele>
        <time>2026-06-20T09:26:37Z</time>
      </trkpt>
      <trkpt lat="43.35048" lon="2.43626">
        <ele>555.7</ele>
        <time>2026-06-20T09:26:38Z</time>
      </trkpt>
      <trkpt lat="43.35042" lon="2.43616">
        <ele>554</ele>
        <time>2026-06-20T09:26:39Z</time>
      </trkpt>
      <trkpt lat="43.3504" lon="2.43615">
        <ele>553.6</ele>
        <time>2026-06-20T09:26:40Z</time>
      </trkpt>
      <trkpt lat="43.35038" lon="2.43614">
        <ele>553.3</ele>
        <time>2026-06-20T09:26:41Z</time>
      </trkpt>
      <trkpt lat="43.35034" lon="2.43611">
        <ele>552.6</ele>
        <time>2026-06-20T09:26:42Z</time>
      </trkpt>
      <trkpt lat="43.3503" lon="2.43606">
        <ele>551.5</ele>
        <time>2026-06-20T09:26:43Z</time>
      </trkpt>
      <trkpt lat="43.35026" lon="2.43603">
        <ele>550.6</ele>
        <time>2026-06-20T09:26:44Z</time>
      </trkpt>
      <trkpt lat="43.35021" lon="2.43603">
        <ele>549.9</ele>
        <time>2026-06-20T09:26:45Z</time>
      </trkpt>
      <trkpt lat="43.35017" lon="2.43604">
        <ele>549.5</ele>
        <time>2026-06-20T09:26:46Z</time>
      </trkpt>
      <trkpt lat="43.35012" lon="2.43604">
        <ele>548.9</ele>
        <time>2026-06-20T09:26:47Z</time>
      </trkpt>
      <trkpt lat="43.35002" lon="2.43599">
        <ele>547</ele>
        <time>2026-06-20T09:26:49Z</time>
      </trkpt>
      <trkpt lat="43.34998" lon="2.43595">
        <ele>545.8</ele>
        <time>2026-06-20T09:26:50Z</time>
      </trkpt>
      <trkpt lat="43.34989" lon="2.43586">
        <ele>542.9</ele>
        <time>2026-06-20T09:26:52Z</time>
      </trkpt>
      <trkpt lat="43.34983" lon="2.43574">
        <ele>540.1</ele>
        <time>2026-06-20T09:26:54Z</time>
      </trkpt>
      <trkpt lat="43.3498" lon="2.43569">
        <ele>538.9</ele>
        <time>2026-06-20T09:26:55Z</time>
      </trkpt>
      <trkpt lat="43.34976" lon="2.43564">
        <ele>537.5</ele>
        <time>2026-06-20T09:26:56Z</time>
      </trkpt>
      <trkpt lat="43.34971" lon="2.43559">
        <ele>536.2</ele>
        <time>2026-06-20T09:26:57Z</time>
      </trkpt>
      <trkpt lat="43.34965" lon="2.43556">
        <ele>534.5</ele>
        <time>2026-06-20T09:26:58Z</time>
      </trkpt>
      <trkpt lat="43.3496" lon="2.43554">
        <ele>533.2</ele>
        <time>2026-06-20T09:26:59Z</time>
      </trkpt>
      <trkpt lat="43.34956" lon="2.43552">
        <ele>532</ele>
        <time>2026-06-20T09:27:00Z</time>
      </trkpt>
      <trkpt lat="43.34951" lon="2.43549">
        <ele>530.7</ele>
        <time>2026-06-20T09:27:01Z</time>
      </trkpt>
      <trkpt lat="43.34947" lon="2.43546">
        <ele>529.5</ele>
        <time>2026-06-20T09:27:02Z</time>
      </trkpt>
      <trkpt lat="43.34944" lon="2.43541">
        <ele>528.3</ele>
        <time>2026-06-20T09:27:03Z</time>
      </trkpt>
      <trkpt lat="43.34942" lon="2.43537">
        <ele>527.3</ele>
        <time>2026-06-20T09:27:04Z</time>
      </trkpt>
      <trkpt lat="43.3494" lon="2.4353">
        <ele>526</ele>
        <time>2026-06-20T09:27:05Z</time>
      </trkpt>
      <trkpt lat="43.34937" lon="2.43524">
        <ele>524.6</ele>
        <time>2026-06-20T09:27:06Z</time>
      </trkpt>
      <trkpt lat="43.34934" lon="2.4352">
        <ele>522.9</ele>
        <time>2026-06-20T09:27:07Z</time>
      </trkpt>
      <trkpt lat="43.3493" lon="2.43516">
        <ele>521.4</ele>
        <time>2026-06-20T09:27:08Z</time>
      </trkpt>
      <trkpt lat="43.34925" lon="2.43514">
        <ele>520.2</ele>
        <time>2026-06-20T09:27:09Z</time>
      </trkpt>
      <trkpt lat="43.34921" lon="2.43513">
        <ele>519.2</ele>
        <time>2026-06-20T09:27:10Z</time>
      </trkpt>
      <trkpt lat="43.34917" lon="2.43513">
        <ele>518.3</ele>
        <time>2026-06-20T09:27:11Z</time>
      </trkpt>
      <trkpt lat="43.34912" lon="2.43512">
        <ele>517.4</ele>
        <time>2026-06-20T09:27:12Z</time>
      </trkpt>
      <trkpt lat="43.34908" lon="2.43508">
        <ele>516.4</ele>
        <time>2026-06-20T09:27:13Z</time>
      </trkpt>
      <trkpt lat="43.34903" lon="2.43503">
        <ele>515.3</ele>
        <time>2026-06-20T09:27:14Z</time>
      </trkpt>
      <trkpt lat="43.34899" lon="2.43499">
        <ele>514.4</ele>
        <time>2026-06-20T09:27:15Z</time>
      </trkpt>
      <trkpt lat="43.34894" lon="2.43493">
        <ele>513.1</ele>
        <time>2026-06-20T09:27:16Z</time>
      </trkpt>
      <trkpt lat="43.3489" lon="2.43487">
        <ele>512.2</ele>
        <time>2026-06-20T09:27:17Z</time>
      </trkpt>
      <trkpt lat="43.34886" lon="2.43482">
        <ele>511.4</ele>
        <time>2026-06-20T09:27:18Z</time>
      </trkpt>
      <trkpt lat="43.34881" lon="2.43479">
        <ele>510.8</ele>
        <time>2026-06-20T09:27:19Z</time>
      </trkpt>
      <trkpt lat="43.34876" lon="2.43477">
        <ele>510.2</ele>
        <time>2026-06-20T09:27:20Z</time>
      </trkpt>
      <trkpt lat="43.34871" lon="2.43474">
        <ele>509.7</ele>
        <time>2026-06-20T09:27:21Z</time>
      </trkpt>
      <trkpt lat="43.34865" lon="2.43471">
        <ele>508.9</ele>
        <time>2026-06-20T09:27:22Z</time>
      </trkpt>
      <trkpt lat="43.3486" lon="2.43467">
        <ele>507.6</ele>
        <time>2026-06-20T09:27:23Z</time>
      </trkpt>
      <trkpt lat="43.34856" lon="2.43463">
        <ele>506.1</ele>
        <time>2026-06-20T09:27:24Z</time>
      </trkpt>
      <trkpt lat="43.34853" lon="2.4346">
        <ele>505</ele>
        <time>2026-06-20T09:27:25Z</time>
      </trkpt>
      <trkpt lat="43.3485" lon="2.43456">
        <ele>504.1</ele>
        <time>2026-06-20T09:27:26Z</time>
      </trkpt>
      <trkpt lat="43.34846" lon="2.43454">
        <ele>503.5</ele>
        <time>2026-06-20T09:27:27Z</time>
      </trkpt>
      <trkpt lat="43.34843" lon="2.43453">
        <ele>503.2</ele>
        <time>2026-06-20T09:27:28Z</time>
      </trkpt>
      <trkpt lat="43.34839" lon="2.43453">
        <ele>503</ele>
        <time>2026-06-20T09:27:29Z</time>
      </trkpt>
      <trkpt lat="43.34836" lon="2.43452">
        <ele>502.7</ele>
        <time>2026-06-20T09:27:30Z</time>
      </trkpt>
      <trkpt lat="43.34833" lon="2.4345">
        <ele>502.4</ele>
        <time>2026-06-20T09:27:31Z</time>
      </trkpt>
      <trkpt lat="43.34831" lon="2.43447">
        <ele>501.8</ele>
        <time>2026-06-20T09:27:32Z</time>
      </trkpt>
      <trkpt lat="43.34829" lon="2.43443">
        <ele>501</ele>
        <time>2026-06-20T09:27:33Z</time>
      </trkpt>
      <trkpt lat="43.34827" lon="2.43438">
        <ele>499.8</ele>
        <time>2026-06-20T09:27:34Z</time>
      </trkpt>
      <trkpt lat="43.34825" lon="2.43434">
        <ele>498.9</ele>
        <time>2026-06-20T09:27:35Z</time>
      </trkpt>
      <trkpt lat="43.34824" lon="2.4343">
        <ele>498.3</ele>
        <time>2026-06-20T09:27:36Z</time>
      </trkpt>
      <trkpt lat="43.34824" lon="2.43428">
        <ele>497.9</ele>
        <time>2026-06-20T09:27:37Z</time>
      </trkpt>
      <trkpt lat="43.34824" lon="2.43426">
        <ele>497.6</ele>
        <time>2026-06-20T09:27:38Z</time>
      </trkpt>
      <trkpt lat="43.34823" lon="2.43423">
        <ele>497</ele>
        <time>2026-06-20T09:27:39Z</time>
      </trkpt>
      <trkpt lat="43.3482" lon="2.4342">
        <ele>496.9</ele>
        <time>2026-06-20T09:27:40Z</time>
      </trkpt>
      <trkpt lat="43.34816" lon="2.43419">
        <ele>497.1</ele>
        <time>2026-06-20T09:27:41Z</time>
      </trkpt>
      <trkpt lat="43.34813" lon="2.43419">
        <ele>497.4</ele>
        <time>2026-06-20T09:27:42Z</time>
      </trkpt>
      <trkpt lat="43.3481" lon="2.43418">
        <ele>497.6</ele>
        <time>2026-06-20T09:27:43Z</time>
      </trkpt>
      <trkpt lat="43.34803" lon="2.43415">
        <ele>496.9</ele>
        <time>2026-06-20T09:27:45Z</time>
      </trkpt>
      <trkpt lat="43.34797" lon="2.43415">
        <ele>495.8</ele>
        <time>2026-06-20T09:27:47Z</time>
      </trkpt>
      <trkpt lat="43.34794" lon="2.43414">
        <ele>494.9</ele>
        <time>2026-06-20T09:27:48Z</time>
      </trkpt>
      <trkpt lat="43.34793" lon="2.43411">
        <ele>494.2</ele>
        <time>2026-06-20T09:27:49Z</time>
      </trkpt>
      <trkpt lat="43.34791" lon="2.43404">
        <ele>492.8</ele>
        <time>2026-06-20T09:27:51Z</time>
      </trkpt>
      <trkpt lat="43.34788" lon="2.43401">
        <ele>492.3</ele>
        <time>2026-06-20T09:27:52Z</time>
      </trkpt>
      <trkpt lat="43.34786" lon="2.43401">
        <ele>492</ele>
        <time>2026-06-20T09:27:53Z</time>
      </trkpt>
      <trkpt lat="43.34783" lon="2.43401">
        <ele>491.8</ele>
        <time>2026-06-20T09:27:54Z</time>
      </trkpt>
      <trkpt lat="43.3478" lon="2.43401">
        <ele>491.6</ele>
        <time>2026-06-20T09:27:55Z</time>
      </trkpt>
      <trkpt lat="43.34779" lon="2.43401">
        <ele>491.5</ele>
        <time>2026-06-20T09:27:56Z</time>
      </trkpt>
      <trkpt lat="43.34777" lon="2.43398">
        <ele>491.1</ele>
        <time>2026-06-20T09:27:57Z</time>
      </trkpt>
      <trkpt lat="43.34776" lon="2.43395">
        <ele>490.9</ele>
        <time>2026-06-20T09:27:58Z</time>
      </trkpt>
      <trkpt lat="43.34774" lon="2.43391">
        <ele>490.6</ele>
        <time>2026-06-20T09:27:59Z</time>
      </trkpt>
      <trkpt lat="43.34773" lon="2.43388">
        <ele>490.1</ele>
        <time>2026-06-20T09:28:00Z</time>
      </trkpt>
      <trkpt lat="43.3477" lon="2.43383">
        <ele>489.5</ele>
        <time>2026-06-20T09:28:01Z</time>
      </trkpt>
      <trkpt lat="43.34767" lon="2.43378">
        <ele>488.9</ele>
        <time>2026-06-20T09:28:02Z</time>
      </trkpt>
      <trkpt lat="43.34763" lon="2.43374">
        <ele>488.4</ele>
        <time>2026-06-20T09:28:03Z</time>
      </trkpt>
      <trkpt lat="43.34758" lon="2.43371">
        <ele>488</ele>
        <time>2026-06-20T09:28:04Z</time>
      </trkpt>
      <trkpt lat="43.34753" lon="2.43368">
        <ele>487.8</ele>
        <time>2026-06-20T09:28:05Z</time>
      </trkpt>
      <trkpt lat="43.34748" lon="2.43364">
        <ele>487.9</ele>
        <time>2026-06-20T09:28:06Z</time>
      </trkpt>
      <trkpt lat="43.34745" lon="2.43359">
        <ele>488</ele>
        <time>2026-06-20T09:28:07Z</time>
      </trkpt>
      <trkpt lat="43.34744" lon="2.43353">
        <ele>488.2</ele>
        <time>2026-06-20T09:28:08Z</time>
      </trkpt>
      <trkpt lat="43.34745" lon="2.43347">
        <ele>488.3</ele>
        <time>2026-06-20T09:28:09Z</time>
      </trkpt>
      <trkpt lat="43.34747" lon="2.43341">
        <ele>488.3</ele>
        <time>2026-06-20T09:28:10Z</time>
      </trkpt>
      <trkpt lat="43.34749" lon="2.43336">
        <ele>488.1</ele>
        <time>2026-06-20T09:28:11Z</time>
      </trkpt>
      <trkpt lat="43.34751" lon="2.43332">
        <ele>487.7</ele>
        <time>2026-06-20T09:28:12Z</time>
      </trkpt>
      <trkpt lat="43.34754" lon="2.4333">
        <ele>486.8</ele>
        <time>2026-06-20T09:28:13Z</time>
      </trkpt>
      <trkpt lat="43.34758" lon="2.43331">
        <ele>485.8</ele>
        <time>2026-06-20T09:28:14Z</time>
      </trkpt>
      <trkpt lat="43.34766" lon="2.43337">
        <ele>484.5</ele>
        <time>2026-06-20T09:28:16Z</time>
      </trkpt>
      <trkpt lat="43.34772" lon="2.43342">
        <ele>484.2</ele>
        <time>2026-06-20T09:28:17Z</time>
      </trkpt>
      <trkpt lat="43.34787" lon="2.43352">
        <ele>482.4</ele>
        <time>2026-06-20T09:28:20Z</time>
      </trkpt>
      <trkpt lat="43.34793" lon="2.43357">
        <ele>482.2</ele>
        <time>2026-06-20T09:28:21Z</time>
      </trkpt>
      <trkpt lat="43.34806" lon="2.43364">
        <ele>481</ele>
        <time>2026-06-20T09:28:23Z</time>
      </trkpt>
      <trkpt lat="43.34812" lon="2.43367">
        <ele>480.6</ele>
        <time>2026-06-20T09:28:24Z</time>
      </trkpt>
      <trkpt lat="43.34819" lon="2.43371">
        <ele>480.3</ele>
        <time>2026-06-20T09:28:25Z</time>
      </trkpt>
      <trkpt lat="43.34826" lon="2.43374">
        <ele>479.7</ele>
        <time>2026-06-20T09:28:26Z</time>
      </trkpt>
      <trkpt lat="43.34839" lon="2.43379">
        <ele>479.4</ele>
        <time>2026-06-20T09:28:28Z</time>
      </trkpt>
      <trkpt lat="43.34846" lon="2.43379">
        <ele>478.9</ele>
        <time>2026-06-20T09:28:29Z</time>
      </trkpt>
      <trkpt lat="43.34854" lon="2.43378">
        <ele>477.9</ele>
        <time>2026-06-20T09:28:30Z</time>
      </trkpt>
      <trkpt lat="43.34861" lon="2.43378">
        <ele>477.2</ele>
        <time>2026-06-20T09:28:31Z</time>
      </trkpt>
      <trkpt lat="43.34868" lon="2.43379">
        <ele>477.9</ele>
        <time>2026-06-20T09:28:32Z</time>
      </trkpt>
      <trkpt lat="43.34875" lon="2.43379">
        <ele>478.3</ele>
        <time>2026-06-20T09:28:33Z</time>
      </trkpt>
      <trkpt lat="43.3488" lon="2.43377">
        <ele>477.9</ele>
        <time>2026-06-20T09:28:34Z</time>
      </trkpt>
      <trkpt lat="43.34893" lon="2.43372">
        <ele>476.6</ele>
        <time>2026-06-20T09:28:36Z</time>
      </trkpt>
      <trkpt lat="43.349" lon="2.43371">
        <ele>476.4</ele>
        <time>2026-06-20T09:28:37Z</time>
      </trkpt>
      <trkpt lat="43.34906" lon="2.4337">
        <ele>476.4</ele>
        <time>2026-06-20T09:28:38Z</time>
      </trkpt>
      <trkpt lat="43.34913" lon="2.4337">
        <ele>476.6</ele>
        <time>2026-06-20T09:28:39Z</time>
      </trkpt>
      <trkpt lat="43.34919" lon="2.4337">
        <ele>476.5</ele>
        <time>2026-06-20T09:28:40Z</time>
      </trkpt>
      <trkpt lat="43.34925" lon="2.4337">
        <ele>475.9</ele>
        <time>2026-06-20T09:28:41Z</time>
      </trkpt>
      <trkpt lat="43.34932" lon="2.43369">
        <ele>475.1</ele>
        <time>2026-06-20T09:28:42Z</time>
      </trkpt>
      <trkpt lat="43.34946" lon="2.43367">
        <ele>473.3</ele>
        <time>2026-06-20T09:28:44Z</time>
      </trkpt>
      <trkpt lat="43.34954" lon="2.43366">
        <ele>472.3</ele>
        <time>2026-06-20T09:28:45Z</time>
      </trkpt>
      <trkpt lat="43.34994" lon="2.43364">
        <ele>466.9</ele>
        <time>2026-06-20T09:28:50Z</time>
      </trkpt>
      <trkpt lat="43.35002" lon="2.43363">
        <ele>465.9</ele>
        <time>2026-06-20T09:28:51Z</time>
      </trkpt>
      <trkpt lat="43.3501" lon="2.43362">
        <ele>465.4</ele>
        <time>2026-06-20T09:28:52Z</time>
      </trkpt>
      <trkpt lat="43.35019" lon="2.43361">
        <ele>464.8</ele>
        <time>2026-06-20T09:28:53Z</time>
      </trkpt>
      <trkpt lat="43.35036" lon="2.43359">
        <ele>464.5</ele>
        <time>2026-06-20T09:28:55Z</time>
      </trkpt>
      <trkpt lat="43.35053" lon="2.43355">
        <ele>464.1</ele>
        <time>2026-06-20T09:28:57Z</time>
      </trkpt>
      <trkpt lat="43.35061" lon="2.43353">
        <ele>464.4</ele>
        <time>2026-06-20T09:28:58Z</time>
      </trkpt>
      <trkpt lat="43.35069" lon="2.43352">
        <ele>465</ele>
        <time>2026-06-20T09:28:59Z</time>
      </trkpt>
      <trkpt lat="43.35077" lon="2.43351">
        <ele>465.5</ele>
        <time>2026-06-20T09:29:00Z</time>
      </trkpt>
      <trkpt lat="43.35084" lon="2.4335">
        <ele>466.1</ele>
        <time>2026-06-20T09:29:01Z</time>
      </trkpt>
      <trkpt lat="43.3509" lon="2.43349">
        <ele>466.8</ele>
        <time>2026-06-20T09:29:02Z</time>
      </trkpt>
      <trkpt lat="43.35095" lon="2.43347">
        <ele>467.1</ele>
        <time>2026-06-20T09:29:03Z</time>
      </trkpt>
      <trkpt lat="43.35101" lon="2.43345">
        <ele>467.5</ele>
        <time>2026-06-20T09:29:04Z</time>
      </trkpt>
      <trkpt lat="43.35106" lon="2.43344">
        <ele>468</ele>
        <time>2026-06-20T09:29:05Z</time>
      </trkpt>
      <trkpt lat="43.35111" lon="2.43342">
        <ele>468.2</ele>
        <time>2026-06-20T09:29:06Z</time>
      </trkpt>
      <trkpt lat="43.35116" lon="2.43342">
        <ele>468.3</ele>
        <time>2026-06-20T09:29:07Z</time>
      </trkpt>
      <trkpt lat="43.3512" lon="2.43342">
        <ele>468.5</ele>
        <time>2026-06-20T09:29:08Z</time>
      </trkpt>
      <trkpt lat="43.35124" lon="2.43342">
        <ele>468.8</ele>
        <time>2026-06-20T09:29:09Z</time>
      </trkpt>
      <trkpt lat="43.35128" lon="2.4334">
        <ele>468.7</ele>
        <time>2026-06-20T09:29:10Z</time>
      </trkpt>
      <trkpt lat="43.35132" lon="2.43338">
        <ele>468.3</ele>
        <time>2026-06-20T09:29:11Z</time>
      </trkpt>
      <trkpt lat="43.35136" lon="2.43335">
        <ele>467.5</ele>
        <time>2026-06-20T09:29:12Z</time>
      </trkpt>
      <trkpt lat="43.35139" lon="2.43332">
        <ele>467.4</ele>
        <time>2026-06-20T09:29:13Z</time>
      </trkpt>
      <trkpt lat="43.35142" lon="2.4333">
        <ele>468.3</ele>
        <time>2026-06-20T09:29:14Z</time>
      </trkpt>
      <trkpt lat="43.35144" lon="2.43327">
        <ele>469.3</ele>
        <time>2026-06-20T09:29:15Z</time>
      </trkpt>
      <trkpt lat="43.35144" lon="2.43324">
        <ele>470.1</ele>
        <time>2026-06-20T09:29:16Z</time>
      </trkpt>
      <trkpt lat="43.35143" lon="2.43322">
        <ele>470.7</ele>
        <time>2026-06-20T09:29:17Z</time>
      </trkpt>
      <trkpt lat="43.35141" lon="2.4332">
        <ele>471.1</ele>
        <time>2026-06-20T09:29:18Z</time>
      </trkpt>
      <trkpt lat="43.35139" lon="2.43317">
        <ele>471.7</ele>
        <time>2026-06-20T09:29:19Z</time>
      </trkpt>
      <trkpt lat="43.35136" lon="2.43314">
        <ele>472.3</ele>
        <time>2026-06-20T09:29:20Z</time>
      </trkpt>
      <trkpt lat="43.35132" lon="2.4331">
        <ele>473.4</ele>
        <time>2026-06-20T09:29:22Z</time>
      </trkpt>
      <trkpt lat="43.3513" lon="2.43308">
        <ele>473.7</ele>
        <time>2026-06-20T09:29:23Z</time>
      </trkpt>
      <trkpt lat="43.35128" lon="2.43307">
        <ele>474</ele>
        <time>2026-06-20T09:29:24Z</time>
      </trkpt>
      <trkpt lat="43.35126" lon="2.43305">
        <ele>474.1</ele>
        <time>2026-06-20T09:29:25Z</time>
      </trkpt>
      <trkpt lat="43.35124" lon="2.43304">
        <ele>474.7</ele>
        <time>2026-06-20T09:29:26Z</time>
      </trkpt>
      <trkpt lat="43.35122" lon="2.43303">
        <ele>475</ele>
        <time>2026-06-20T09:29:27Z</time>
      </trkpt>
      <trkpt lat="43.35116" lon="2.43301">
        <ele>475.3</ele>
        <time>2026-06-20T09:29:29Z</time>
      </trkpt>
      <trkpt lat="43.35113" lon="2.433">
        <ele>475.3</ele>
        <time>2026-06-20T09:29:30Z</time>
      </trkpt>
      <trkpt lat="43.35109" lon="2.43301">
        <ele>474.8</ele>
        <time>2026-06-20T09:29:31Z</time>
      </trkpt>
      <trkpt lat="43.35105" lon="2.43301">
        <ele>474.8</ele>
        <time>2026-06-20T09:29:32Z</time>
      </trkpt>
      <trkpt lat="43.35101" lon="2.433">
        <ele>475.3</ele>
        <time>2026-06-20T09:29:33Z</time>
      </trkpt>
      <trkpt lat="43.35098" lon="2.43298">
        <ele>476.1</ele>
        <time>2026-06-20T09:29:34Z</time>
      </trkpt>
      <trkpt lat="43.35095" lon="2.43295">
        <ele>477</ele>
        <time>2026-06-20T09:29:35Z</time>
      </trkpt>
      <trkpt lat="43.35091" lon="2.43294">
        <ele>477.3</ele>
        <time>2026-06-20T09:29:36Z</time>
      </trkpt>
      <trkpt lat="43.35087" lon="2.43294">
        <ele>477.3</ele>
        <time>2026-06-20T09:29:37Z</time>
      </trkpt>
      <trkpt lat="43.35083" lon="2.43294">
        <ele>477.3</ele>
        <time>2026-06-20T09:29:38Z</time>
      </trkpt>
      <trkpt lat="43.35079" lon="2.43292">
        <ele>477.6</ele>
        <time>2026-06-20T09:29:39Z</time>
      </trkpt>
      <trkpt lat="43.35075" lon="2.43291">
        <ele>477.8</ele>
        <time>2026-06-20T09:29:40Z</time>
      </trkpt>
      <trkpt lat="43.3507" lon="2.4329">
        <ele>478</ele>
        <time>2026-06-20T09:29:41Z</time>
      </trkpt>
      <trkpt lat="43.35066" lon="2.4329">
        <ele>478</ele>
        <time>2026-06-20T09:29:42Z</time>
      </trkpt>
      <trkpt lat="43.35062" lon="2.43289">
        <ele>478.2</ele>
        <time>2026-06-20T09:29:43Z</time>
      </trkpt>
      <trkpt lat="43.35057" lon="2.43288">
        <ele>478.4</ele>
        <time>2026-06-20T09:29:44Z</time>
      </trkpt>
      <trkpt lat="43.35052" lon="2.43286">
        <ele>478.7</ele>
        <time>2026-06-20T09:29:45Z</time>
      </trkpt>
      <trkpt lat="43.35047" lon="2.43284">
        <ele>479</ele>
        <time>2026-06-20T09:29:46Z</time>
      </trkpt>
      <trkpt lat="43.35043" lon="2.43282">
        <ele>479.4</ele>
        <time>2026-06-20T09:29:47Z</time>
      </trkpt>
      <trkpt lat="43.35039" lon="2.4328">
        <ele>480</ele>
        <time>2026-06-20T09:29:48Z</time>
      </trkpt>
      <trkpt lat="43.35034" lon="2.43277">
        <ele>480.7</ele>
        <time>2026-06-20T09:29:49Z</time>
      </trkpt>
      <trkpt lat="43.3503" lon="2.43274">
        <ele>481.6</ele>
        <time>2026-06-20T09:29:50Z</time>
      </trkpt>
      <trkpt lat="43.35027" lon="2.43271">
        <ele>482.3</ele>
        <time>2026-06-20T09:29:51Z</time>
      </trkpt>
      <trkpt lat="43.35024" lon="2.43268">
        <ele>482.6</ele>
        <time>2026-06-20T09:29:52Z</time>
      </trkpt>
      <trkpt lat="43.35021" lon="2.43265">
        <ele>482.9</ele>
        <time>2026-06-20T09:29:53Z</time>
      </trkpt>
      <trkpt lat="43.35019" lon="2.43262">
        <ele>483.5</ele>
        <time>2026-06-20T09:29:54Z</time>
      </trkpt>
      <trkpt lat="43.35017" lon="2.43259">
        <ele>484.4</ele>
        <time>2026-06-20T09:29:55Z</time>
      </trkpt>
      <trkpt lat="43.35016" lon="2.43256">
        <ele>485</ele>
        <time>2026-06-20T09:29:56Z</time>
      </trkpt>
      <trkpt lat="43.35014" lon="2.43254">
        <ele>485.6</ele>
        <time>2026-06-20T09:29:57Z</time>
      </trkpt>
      <trkpt lat="43.35012" lon="2.43251">
        <ele>486.2</ele>
        <time>2026-06-20T09:29:58Z</time>
      </trkpt>
      <trkpt lat="43.3501" lon="2.43248">
        <ele>486.8</ele>
        <time>2026-06-20T09:29:59Z</time>
      </trkpt>
      <trkpt lat="43.35009" lon="2.43246">
        <ele>487.3</ele>
        <time>2026-06-20T09:30:00Z</time>
      </trkpt>
      <trkpt lat="43.35008" lon="2.43244">
        <ele>487.9</ele>
        <time>2026-06-20T09:30:01Z</time>
      </trkpt>
      <trkpt lat="43.35007" lon="2.4324">
        <ele>488.9</ele>
        <time>2026-06-20T09:30:02Z</time>
      </trkpt>
      <trkpt lat="43.35006" lon="2.43238">
        <ele>489.6</ele>
        <time>2026-06-20T09:30:03Z</time>
      </trkpt>
      <trkpt lat="43.35004" lon="2.43236">
        <ele>490</ele>
        <time>2026-06-20T09:30:04Z</time>
      </trkpt>
      <trkpt lat="43.35002" lon="2.43233">
        <ele>490.4</ele>
        <time>2026-06-20T09:30:05Z</time>
      </trkpt>
      <trkpt lat="43.35" lon="2.43231">
        <ele>490.7</ele>
        <time>2026-06-20T09:30:06Z</time>
      </trkpt>
      <trkpt lat="43.34997" lon="2.43228">
        <ele>490.7</ele>
        <time>2026-06-20T09:30:07Z</time>
      </trkpt>
      <trkpt lat="43.34995" lon="2.43225">
        <ele>490.7</ele>
        <time>2026-06-20T09:30:08Z</time>
      </trkpt>
      <trkpt lat="43.34993" lon="2.43222">
        <ele>490.8</ele>
        <time>2026-06-20T09:30:09Z</time>
      </trkpt>
      <trkpt lat="43.34991" lon="2.43219">
        <ele>490.9</ele>
        <time>2026-06-20T09:30:10Z</time>
      </trkpt>
      <trkpt lat="43.34989" lon="2.43216">
        <ele>491.4</ele>
        <time>2026-06-20T09:30:11Z</time>
      </trkpt>
      <trkpt lat="43.34987" lon="2.43213">
        <ele>491.8</ele>
        <time>2026-06-20T09:30:12Z</time>
      </trkpt>
      <trkpt lat="43.34985" lon="2.4321">
        <ele>492.1</ele>
        <time>2026-06-20T09:30:13Z</time>
      </trkpt>
      <trkpt lat="43.34984" lon="2.43208">
        <ele>492.6</ele>
        <time>2026-06-20T09:30:14Z</time>
      </trkpt>
      <trkpt lat="43.34982" lon="2.43205">
        <ele>492.9</ele>
        <time>2026-06-20T09:30:15Z</time>
      </trkpt>
      <trkpt lat="43.34979" lon="2.43202">
        <ele>493.3</ele>
        <time>2026-06-20T09:30:16Z</time>
      </trkpt>
      <trkpt lat="43.34977" lon="2.43199">
        <ele>493.9</ele>
        <time>2026-06-20T09:30:17Z</time>
      </trkpt>
      <trkpt lat="43.34974" lon="2.43195">
        <ele>494.5</ele>
        <time>2026-06-20T09:30:18Z</time>
      </trkpt>
      <trkpt lat="43.34971" lon="2.43191">
        <ele>495.1</ele>
        <time>2026-06-20T09:30:19Z</time>
      </trkpt>
      <trkpt lat="43.34968" lon="2.43188">
        <ele>495.9</ele>
        <time>2026-06-20T09:30:20Z</time>
      </trkpt>
      <trkpt lat="43.34966" lon="2.43184">
        <ele>496.5</ele>
        <time>2026-06-20T09:30:21Z</time>
      </trkpt>
      <trkpt lat="43.34964" lon="2.43182">
        <ele>497</ele>
        <time>2026-06-20T09:30:22Z</time>
      </trkpt>
      <trkpt lat="43.34963" lon="2.43179">
        <ele>497.7</ele>
        <time>2026-06-20T09:30:23Z</time>
      </trkpt>
      <trkpt lat="43.34961" lon="2.43177">
        <ele>498.2</ele>
        <time>2026-06-20T09:30:24Z</time>
      </trkpt>
      <trkpt lat="43.34959" lon="2.43174">
        <ele>498.6</ele>
        <time>2026-06-20T09:30:25Z</time>
      </trkpt>
      <trkpt lat="43.34957" lon="2.43171">
        <ele>499.1</ele>
        <time>2026-06-20T09:30:26Z</time>
      </trkpt>
      <trkpt lat="43.34955" lon="2.43169">
        <ele>499.6</ele>
        <time>2026-06-20T09:30:27Z</time>
      </trkpt>
      <trkpt lat="43.34954" lon="2.43166">
        <ele>500</ele>
        <time>2026-06-20T09:30:28Z</time>
      </trkpt>
      <trkpt lat="43.34952" lon="2.43163">
        <ele>500.3</ele>
        <time>2026-06-20T09:30:29Z</time>
      </trkpt>
      <trkpt lat="43.34951" lon="2.43161">
        <ele>500.6</ele>
        <time>2026-06-20T09:30:30Z</time>
      </trkpt>
      <trkpt lat="43.34949" lon="2.43159">
        <ele>500.8</ele>
        <time>2026-06-20T09:30:31Z</time>
      </trkpt>
      <trkpt lat="43.34947" lon="2.43157">
        <ele>500.7</ele>
        <time>2026-06-20T09:30:32Z</time>
      </trkpt>
      <trkpt lat="43.34944" lon="2.43155">
        <ele>500.4</ele>
        <time>2026-06-20T09:30:33Z</time>
      </trkpt>
      <trkpt lat="43.34941" lon="2.43152">
        <ele>500.3</ele>
        <time>2026-06-20T09:30:34Z</time>
      </trkpt>
      <trkpt lat="43.34938" lon="2.43149">
        <ele>500.3</ele>
        <time>2026-06-20T09:30:35Z</time>
      </trkpt>
      <trkpt lat="43.34936" lon="2.43145">
        <ele>500.4</ele>
        <time>2026-06-20T09:30:36Z</time>
      </trkpt>
      <trkpt lat="43.34934" lon="2.4314">
        <ele>500.9</ele>
        <time>2026-06-20T09:30:37Z</time>
      </trkpt>
      <trkpt lat="43.34932" lon="2.43136">
        <ele>501.2</ele>
        <time>2026-06-20T09:30:38Z</time>
      </trkpt>
      <trkpt lat="43.34931" lon="2.43131">
        <ele>501.7</ele>
        <time>2026-06-20T09:30:39Z</time>
      </trkpt>
      <trkpt lat="43.3493" lon="2.43126">
        <ele>502.3</ele>
        <time>2026-06-20T09:30:40Z</time>
      </trkpt>
      <trkpt lat="43.34929" lon="2.43122">
        <ele>502.8</ele>
        <time>2026-06-20T09:30:41Z</time>
      </trkpt>
      <trkpt lat="43.34928" lon="2.43117">
        <ele>503.4</ele>
        <time>2026-06-20T09:30:42Z</time>
      </trkpt>
      <trkpt lat="43.34927" lon="2.43111">
        <ele>504.2</ele>
        <time>2026-06-20T09:30:43Z</time>
      </trkpt>
      <trkpt lat="43.34926" lon="2.43106">
        <ele>504.9</ele>
        <time>2026-06-20T09:30:44Z</time>
      </trkpt>
      <trkpt lat="43.34925" lon="2.43102">
        <ele>505.5</ele>
        <time>2026-06-20T09:30:45Z</time>
      </trkpt>
      <trkpt lat="43.34924" lon="2.43098">
        <ele>506</ele>
        <time>2026-06-20T09:30:46Z</time>
      </trkpt>
      <trkpt lat="43.34923" lon="2.43093">
        <ele>506.6</ele>
        <time>2026-06-20T09:30:47Z</time>
      </trkpt>
      <trkpt lat="43.34922" lon="2.43088">
        <ele>507.3</ele>
        <time>2026-06-20T09:30:48Z</time>
      </trkpt>
      <trkpt lat="43.34921" lon="2.43083">
        <ele>507.8</ele>
        <time>2026-06-20T09:30:49Z</time>
      </trkpt>
      <trkpt lat="43.34919" lon="2.43078">
        <ele>507.6</ele>
        <time>2026-06-20T09:30:50Z</time>
      </trkpt>
      <trkpt lat="43.34916" lon="2.43073">
        <ele>507.3</ele>
        <time>2026-06-20T09:30:51Z</time>
      </trkpt>
      <trkpt lat="43.34915" lon="2.43067">
        <ele>507.2</ele>
        <time>2026-06-20T09:30:52Z</time>
      </trkpt>
      <trkpt lat="43.34913" lon="2.4306">
        <ele>507.7</ele>
        <time>2026-06-20T09:30:53Z</time>
      </trkpt>
      <trkpt lat="43.34913" lon="2.43053">
        <ele>508.4</ele>
        <time>2026-06-20T09:30:54Z</time>
      </trkpt>
      <trkpt lat="43.34913" lon="2.43048">
        <ele>508.9</ele>
        <time>2026-06-20T09:30:55Z</time>
      </trkpt>
      <trkpt lat="43.34913" lon="2.43043">
        <ele>509.5</ele>
        <time>2026-06-20T09:30:56Z</time>
      </trkpt>
      <trkpt lat="43.34913" lon="2.43038">
        <ele>510.1</ele>
        <time>2026-06-20T09:30:57Z</time>
      </trkpt>
      <trkpt lat="43.34913" lon="2.43034">
        <ele>510.6</ele>
        <time>2026-06-20T09:30:58Z</time>
      </trkpt>
      <trkpt lat="43.34913" lon="2.43029">
        <ele>510.9</ele>
        <time>2026-06-20T09:30:59Z</time>
      </trkpt>
      <trkpt lat="43.34912" lon="2.43023">
        <ele>511</ele>
        <time>2026-06-20T09:31:00Z</time>
      </trkpt>
      <trkpt lat="43.34911" lon="2.43016">
        <ele>511.1</ele>
        <time>2026-06-20T09:31:01Z</time>
      </trkpt>
      <trkpt lat="43.3491" lon="2.43009">
        <ele>511</ele>
        <time>2026-06-20T09:31:02Z</time>
      </trkpt>
      <trkpt lat="43.34909" lon="2.43002">
        <ele>511.1</ele>
        <time>2026-06-20T09:31:03Z</time>
      </trkpt>
      <trkpt lat="43.34907" lon="2.42994">
        <ele>511.2</ele>
        <time>2026-06-20T09:31:04Z</time>
      </trkpt>
      <trkpt lat="43.34906" lon="2.42987">
        <ele>511.1</ele>
        <time>2026-06-20T09:31:05Z</time>
      </trkpt>
      <trkpt lat="43.34904" lon="2.42979">
        <ele>511.1</ele>
        <time>2026-06-20T09:31:06Z</time>
      </trkpt>
      <trkpt lat="43.34904" lon="2.42972">
        <ele>511.4</ele>
        <time>2026-06-20T09:31:07Z</time>
      </trkpt>
      <trkpt lat="43.34903" lon="2.42965">
        <ele>511.4</ele>
        <time>2026-06-20T09:31:08Z</time>
      </trkpt>
      <trkpt lat="43.34901" lon="2.42957">
        <ele>511.5</ele>
        <time>2026-06-20T09:31:09Z</time>
      </trkpt>
      <trkpt lat="43.34901" lon="2.4295">
        <ele>511.6</ele>
        <time>2026-06-20T09:31:10Z</time>
      </trkpt>
      <trkpt lat="43.34899" lon="2.42942">
        <ele>511.7</ele>
        <time>2026-06-20T09:31:11Z</time>
      </trkpt>
      <trkpt lat="43.34898" lon="2.42935">
        <ele>511.8</ele>
        <time>2026-06-20T09:31:12Z</time>
      </trkpt>
      <trkpt lat="43.34897" lon="2.42926">
        <ele>511.9</ele>
        <time>2026-06-20T09:31:13Z</time>
      </trkpt>
      <trkpt lat="43.34896" lon="2.42919">
        <ele>512.3</ele>
        <time>2026-06-20T09:31:14Z</time>
      </trkpt>
      <trkpt lat="43.34895" lon="2.42912">
        <ele>512.6</ele>
        <time>2026-06-20T09:31:15Z</time>
      </trkpt>
      <trkpt lat="43.34894" lon="2.42905">
        <ele>513</ele>
        <time>2026-06-20T09:31:16Z</time>
      </trkpt>
      <trkpt lat="43.34895" lon="2.429">
        <ele>513.6</ele>
        <time>2026-06-20T09:31:17Z</time>
      </trkpt>
      <trkpt lat="43.34896" lon="2.42894">
        <ele>514.5</ele>
        <time>2026-06-20T09:31:18Z</time>
      </trkpt>
      <trkpt lat="43.34896" lon="2.42887">
        <ele>515.2</ele>
        <time>2026-06-20T09:31:19Z</time>
      </trkpt>
      <trkpt lat="43.34897" lon="2.42881">
        <ele>515.4</ele>
        <time>2026-06-20T09:31:20Z</time>
      </trkpt>
      <trkpt lat="43.34896" lon="2.42874">
        <ele>515.5</ele>
        <time>2026-06-20T09:31:21Z</time>
      </trkpt>
      <trkpt lat="43.34896" lon="2.42869">
        <ele>515.7</ele>
        <time>2026-06-20T09:31:22Z</time>
      </trkpt>
      <trkpt lat="43.34897" lon="2.42864">
        <ele>516</ele>
        <time>2026-06-20T09:31:23Z</time>
      </trkpt>
      <trkpt lat="43.34898" lon="2.42861">
        <ele>516.2</ele>
        <time>2026-06-20T09:31:24Z</time>
      </trkpt>
      <trkpt lat="43.34897" lon="2.42857">
        <ele>516.2</ele>
        <time>2026-06-20T09:31:25Z</time>
      </trkpt>
      <trkpt lat="43.34897" lon="2.42853">
        <ele>516.1</ele>
        <time>2026-06-20T09:31:26Z</time>
      </trkpt>
      <trkpt lat="43.34896" lon="2.42848">
        <ele>516.1</ele>
        <time>2026-06-20T09:31:27Z</time>
      </trkpt>
      <trkpt lat="43.34896" lon="2.42843">
        <ele>516.3</ele>
        <time>2026-06-20T09:31:28Z</time>
      </trkpt>
      <trkpt lat="43.34897" lon="2.42836">
        <ele>516.6</ele>
        <time>2026-06-20T09:31:29Z</time>
      </trkpt>
      <trkpt lat="43.34898" lon="2.42831">
        <ele>516.7</ele>
        <time>2026-06-20T09:31:30Z</time>
      </trkpt>
      <trkpt lat="43.34898" lon="2.42825">
        <ele>516.3</ele>
        <time>2026-06-20T09:31:31Z</time>
      </trkpt>
      <trkpt lat="43.34898" lon="2.42819">
        <ele>515.9</ele>
        <time>2026-06-20T09:31:32Z</time>
      </trkpt>
      <trkpt lat="43.34898" lon="2.42811">
        <ele>515.4</ele>
        <time>2026-06-20T09:31:33Z</time>
      </trkpt>
      <trkpt lat="43.349" lon="2.42805">
        <ele>515.4</ele>
        <time>2026-06-20T09:31:34Z</time>
      </trkpt>
      <trkpt lat="43.34903" lon="2.42799">
        <ele>515.2</ele>
        <time>2026-06-20T09:31:35Z</time>
      </trkpt>
      <trkpt lat="43.34907" lon="2.42795">
        <ele>515.2</ele>
        <time>2026-06-20T09:31:36Z</time>
      </trkpt>
      <trkpt lat="43.3491" lon="2.42791">
        <ele>515.5</ele>
        <time>2026-06-20T09:31:37Z</time>
      </trkpt>
      <trkpt lat="43.34914" lon="2.42787">
        <ele>515.8</ele>
        <time>2026-06-20T09:31:38Z</time>
      </trkpt>
      <trkpt lat="43.34919" lon="2.42783">
        <ele>516.2</ele>
        <time>2026-06-20T09:31:39Z</time>
      </trkpt>
      <trkpt lat="43.34923" lon="2.42781">
        <ele>516.7</ele>
        <time>2026-06-20T09:31:40Z</time>
      </trkpt>
      <trkpt lat="43.34928" lon="2.42779">
        <ele>517.2</ele>
        <time>2026-06-20T09:31:41Z</time>
      </trkpt>
      <trkpt lat="43.34932" lon="2.42778">
        <ele>517.7</ele>
        <time>2026-06-20T09:31:42Z</time>
      </trkpt>
      <trkpt lat="43.34935" lon="2.42776">
        <ele>518</ele>
        <time>2026-06-20T09:31:43Z</time>
      </trkpt>
      <trkpt lat="43.34939" lon="2.42774">
        <ele>518.2</ele>
        <time>2026-06-20T09:31:44Z</time>
      </trkpt>
      <trkpt lat="43.34944" lon="2.4277">
        <ele>518.2</ele>
        <time>2026-06-20T09:31:45Z</time>
      </trkpt>
      <trkpt lat="43.34947" lon="2.42765">
        <ele>517.8</ele>
        <time>2026-06-20T09:31:46Z</time>
      </trkpt>
      <trkpt lat="43.3495" lon="2.4276">
        <ele>517</ele>
        <time>2026-06-20T09:31:47Z</time>
      </trkpt>
      <trkpt lat="43.34953" lon="2.42754">
        <ele>516.4</ele>
        <time>2026-06-20T09:31:48Z</time>
      </trkpt>
      <trkpt lat="43.34956" lon="2.42749">
        <ele>515.8</ele>
        <time>2026-06-20T09:31:49Z</time>
      </trkpt>
      <trkpt lat="43.34961" lon="2.42745">
        <ele>515.6</ele>
        <time>2026-06-20T09:31:50Z</time>
      </trkpt>
      <trkpt lat="43.34965" lon="2.42742">
        <ele>515.5</ele>
        <time>2026-06-20T09:31:51Z</time>
      </trkpt>
      <trkpt lat="43.34969" lon="2.42739">
        <ele>515.2</ele>
        <time>2026-06-20T09:31:52Z</time>
      </trkpt>
      <trkpt lat="43.34972" lon="2.42734">
        <ele>514.4</ele>
        <time>2026-06-20T09:31:53Z</time>
      </trkpt>
      <trkpt lat="43.34973" lon="2.42731">
        <ele>513.6</ele>
        <time>2026-06-20T09:31:54Z</time>
      </trkpt>
      <trkpt lat="43.34974" lon="2.42724">
        <ele>512.2</ele>
        <time>2026-06-20T09:31:55Z</time>
      </trkpt>
      <trkpt lat="43.34976" lon="2.42719">
        <ele>511.3</ele>
        <time>2026-06-20T09:31:56Z</time>
      </trkpt>
      <trkpt lat="43.34979" lon="2.42713">
        <ele>510.7</ele>
        <time>2026-06-20T09:31:57Z</time>
      </trkpt>
      <trkpt lat="43.34981" lon="2.42708">
        <ele>510.3</ele>
        <time>2026-06-20T09:31:58Z</time>
      </trkpt>
      <trkpt lat="43.34984" lon="2.42702">
        <ele>510.1</ele>
        <time>2026-06-20T09:31:59Z</time>
      </trkpt>
      <trkpt lat="43.34985" lon="2.42697">
        <ele>509.5</ele>
        <time>2026-06-20T09:32:00Z</time>
      </trkpt>
      <trkpt lat="43.34985" lon="2.42692">
        <ele>509</ele>
        <time>2026-06-20T09:32:01Z</time>
      </trkpt>
      <trkpt lat="43.34984" lon="2.42687">
        <ele>508.6</ele>
        <time>2026-06-20T09:32:02Z</time>
      </trkpt>
      <trkpt lat="43.34983" lon="2.42681">
        <ele>507.9</ele>
        <time>2026-06-20T09:32:03Z</time>
      </trkpt>
      <trkpt lat="43.34982" lon="2.42674">
        <ele>507.4</ele>
        <time>2026-06-20T09:32:04Z</time>
      </trkpt>
      <trkpt lat="43.34986" lon="2.42663">
        <ele>508.3</ele>
        <time>2026-06-20T09:32:06Z</time>
      </trkpt>
      <trkpt lat="43.34989" lon="2.4266">
        <ele>509</ele>
        <time>2026-06-20T09:32:07Z</time>
      </trkpt>
      <trkpt lat="43.34993" lon="2.42657">
        <ele>509.8</ele>
        <time>2026-06-20T09:32:08Z</time>
      </trkpt>
      <trkpt lat="43.34996" lon="2.42655">
        <ele>510.6</ele>
        <time>2026-06-20T09:32:09Z</time>
      </trkpt>
      <trkpt lat="43.34999" lon="2.42653">
        <ele>511.1</ele>
        <time>2026-06-20T09:32:10Z</time>
      </trkpt>
      <trkpt lat="43.35001" lon="2.42651">
        <ele>511.6</ele>
        <time>2026-06-20T09:32:11Z</time>
      </trkpt>
      <trkpt lat="43.35004" lon="2.42648">
        <ele>511.9</ele>
        <time>2026-06-20T09:32:12Z</time>
      </trkpt>
      <trkpt lat="43.35006" lon="2.42644">
        <ele>512</ele>
        <time>2026-06-20T09:32:13Z</time>
      </trkpt>
      <trkpt lat="43.35012" lon="2.42638">
        <ele>512.5</ele>
        <time>2026-06-20T09:32:15Z</time>
      </trkpt>
      <trkpt lat="43.35016" lon="2.42634">
        <ele>512.7</ele>
        <time>2026-06-20T09:32:17Z</time>
      </trkpt>
      <trkpt lat="43.35015" lon="2.42631">
        <ele>511.6</ele>
        <time>2026-06-20T09:32:18Z</time>
      </trkpt>
      <trkpt lat="43.35013" lon="2.42627">
        <ele>510.1</ele>
        <time>2026-06-20T09:32:19Z</time>
      </trkpt>
      <trkpt lat="43.35014" lon="2.42621">
        <ele>508.6</ele>
        <time>2026-06-20T09:32:20Z</time>
      </trkpt>
      <trkpt lat="43.35015" lon="2.42616">
        <ele>507.7</ele>
        <time>2026-06-20T09:32:21Z</time>
      </trkpt>
      <trkpt lat="43.35015" lon="2.4261">
        <ele>506.2</ele>
        <time>2026-06-20T09:32:22Z</time>
      </trkpt>
      <trkpt lat="43.35014" lon="2.42606">
        <ele>504.7</ele>
        <time>2026-06-20T09:32:23Z</time>
      </trkpt>
      <trkpt lat="43.35014" lon="2.426">
        <ele>503.2</ele>
        <time>2026-06-20T09:32:24Z</time>
      </trkpt>
      <trkpt lat="43.35017" lon="2.42588">
        <ele>501.1</ele>
        <time>2026-06-20T09:32:26Z</time>
      </trkpt>
      <trkpt lat="43.35019" lon="2.42583">
        <ele>500.2</ele>
        <time>2026-06-20T09:32:27Z</time>
      </trkpt>
      <trkpt lat="43.3502" lon="2.42578">
        <ele>499.5</ele>
        <time>2026-06-20T09:32:28Z</time>
      </trkpt>
      <trkpt lat="43.3502" lon="2.42573">
        <ele>498.2</ele>
        <time>2026-06-20T09:32:29Z</time>
      </trkpt>
      <trkpt lat="43.35021" lon="2.42565">
        <ele>496.6</ele>
        <time>2026-06-20T09:32:30Z</time>
      </trkpt>
      <trkpt lat="43.35021" lon="2.42557">
        <ele>494.6</ele>
        <time>2026-06-20T09:32:31Z</time>
      </trkpt>
      <trkpt lat="43.35021" lon="2.42549">
        <ele>495.8</ele>
        <time>2026-06-20T09:32:32Z</time>
      </trkpt>
      <trkpt lat="43.35019" lon="2.42543">
        <ele>496.9</ele>
        <time>2026-06-20T09:32:33Z</time>
      </trkpt>
      <trkpt lat="43.35015" lon="2.42539">
        <ele>497.4</ele>
        <time>2026-06-20T09:32:34Z</time>
      </trkpt>
      <trkpt lat="43.3501" lon="2.42537">
        <ele>497.5</ele>
        <time>2026-06-20T09:32:35Z</time>
      </trkpt>
      <trkpt lat="43.35001" lon="2.42535">
        <ele>497.4</ele>
        <time>2026-06-20T09:32:37Z</time>
      </trkpt>
      <trkpt lat="43.34997" lon="2.42535">
        <ele>497.3</ele>
        <time>2026-06-20T09:32:38Z</time>
      </trkpt>
      <trkpt lat="43.34993" lon="2.42535">
        <ele>497.4</ele>
        <time>2026-06-20T09:32:39Z</time>
      </trkpt>
      <trkpt lat="43.34988" lon="2.42535">
        <ele>497.3</ele>
        <time>2026-06-20T09:32:40Z</time>
      </trkpt>
      <trkpt lat="43.34983" lon="2.42537">
        <ele>496.8</ele>
        <time>2026-06-20T09:32:41Z</time>
      </trkpt>
      <trkpt lat="43.34978" lon="2.42538">
        <ele>496.4</ele>
        <time>2026-06-20T09:32:42Z</time>
      </trkpt>
      <trkpt lat="43.34963" lon="2.42537">
        <ele>497.4</ele>
        <time>2026-06-20T09:32:45Z</time>
      </trkpt>
      <trkpt lat="43.34957" lon="2.42533">
        <ele>499.3</ele>
        <time>2026-06-20T09:32:46Z</time>
      </trkpt>
      <trkpt lat="43.3495" lon="2.42528">
        <ele>501.5</ele>
        <time>2026-06-20T09:32:47Z</time>
      </trkpt>
      <trkpt lat="43.34946" lon="2.42527">
        <ele>502.2</ele>
        <time>2026-06-20T09:32:48Z</time>
      </trkpt>
      <trkpt lat="43.34942" lon="2.42527">
        <ele>502.6</ele>
        <time>2026-06-20T09:32:49Z</time>
      </trkpt>
      <trkpt lat="43.3494" lon="2.42527">
        <ele>502.9</ele>
        <time>2026-06-20T09:32:50Z</time>
      </trkpt>
      <trkpt lat="43.34936" lon="2.42526">
        <ele>503.6</ele>
        <time>2026-06-20T09:32:51Z</time>
      </trkpt>
      <trkpt lat="43.34933" lon="2.42526">
        <ele>504.1</ele>
        <time>2026-06-20T09:32:52Z</time>
      </trkpt>
      <trkpt lat="43.3493" lon="2.42525">
        <ele>504.6</ele>
        <time>2026-06-20T09:32:53Z</time>
      </trkpt>
      <trkpt lat="43.34924" lon="2.42524">
        <ele>505.8</ele>
        <time>2026-06-20T09:32:55Z</time>
      </trkpt>
      <trkpt lat="43.34921" lon="2.42523">
        <ele>506.2</ele>
        <time>2026-06-20T09:32:56Z</time>
      </trkpt>
      <trkpt lat="43.34918" lon="2.42523">
        <ele>506.8</ele>
        <time>2026-06-20T09:32:57Z</time>
      </trkpt>
      <trkpt lat="43.3491" lon="2.42521">
        <ele>507.8</ele>
        <time>2026-06-20T09:32:59Z</time>
      </trkpt>
      <trkpt lat="43.34906" lon="2.42521">
        <ele>508.3</ele>
        <time>2026-06-20T09:33:00Z</time>
      </trkpt>
      <trkpt lat="43.34902" lon="2.4252">
        <ele>508.9</ele>
        <time>2026-06-20T09:33:01Z</time>
      </trkpt>
      <trkpt lat="43.34897" lon="2.42519">
        <ele>509.3</ele>
        <time>2026-06-20T09:33:02Z</time>
      </trkpt>
      <trkpt lat="43.3489" lon="2.42518">
        <ele>510.2</ele>
        <time>2026-06-20T09:33:04Z</time>
      </trkpt>
      <trkpt lat="43.34886" lon="2.42517">
        <ele>510.5</ele>
        <time>2026-06-20T09:33:05Z</time>
      </trkpt>
      <trkpt lat="43.34882" lon="2.42516">
        <ele>511.4</ele>
        <time>2026-06-20T09:33:06Z</time>
      </trkpt>
      <trkpt lat="43.34878" lon="2.42514">
        <ele>512</ele>
        <time>2026-06-20T09:33:07Z</time>
      </trkpt>
      <trkpt lat="43.34875" lon="2.42514">
        <ele>512.3</ele>
        <time>2026-06-20T09:33:08Z</time>
      </trkpt>
      <trkpt lat="43.34872" lon="2.42512">
        <ele>513</ele>
        <time>2026-06-20T09:33:09Z</time>
      </trkpt>
      <trkpt lat="43.3487" lon="2.4251">
        <ele>513.6</ele>
        <time>2026-06-20T09:33:10Z</time>
      </trkpt>
      <trkpt lat="43.34869" lon="2.42509">
        <ele>514.1</ele>
        <time>2026-06-20T09:33:11Z</time>
      </trkpt>
      <trkpt lat="43.34867" lon="2.42506">
        <ele>514.9</ele>
        <time>2026-06-20T09:33:12Z</time>
      </trkpt>
      <trkpt lat="43.34865" lon="2.42505">
        <ele>515.4</ele>
        <time>2026-06-20T09:33:13Z</time>
      </trkpt>
      <trkpt lat="43.34863" lon="2.42504">
        <ele>515.8</ele>
        <time>2026-06-20T09:33:14Z</time>
      </trkpt>
      <trkpt lat="43.3486" lon="2.42502">
        <ele>516.5</ele>
        <time>2026-06-20T09:33:15Z</time>
      </trkpt>
      <trkpt lat="43.34858" lon="2.425">
        <ele>517.1</ele>
        <time>2026-06-20T09:33:16Z</time>
      </trkpt>
      <trkpt lat="43.34855" lon="2.42498">
        <ele>517.6</ele>
        <time>2026-06-20T09:33:17Z</time>
      </trkpt>
      <trkpt lat="43.34852" lon="2.42496">
        <ele>518.2</ele>
        <time>2026-06-20T09:33:18Z</time>
      </trkpt>
      <trkpt lat="43.34848" lon="2.42495">
        <ele>518.5</ele>
        <time>2026-06-20T09:33:19Z</time>
      </trkpt>
      <trkpt lat="43.34844" lon="2.42493">
        <ele>518.8</ele>
        <time>2026-06-20T09:33:20Z</time>
      </trkpt>
      <trkpt lat="43.34841" lon="2.42491">
        <ele>519.2</ele>
        <time>2026-06-20T09:33:21Z</time>
      </trkpt>
      <trkpt lat="43.34838" lon="2.42489">
        <ele>519.5</ele>
        <time>2026-06-20T09:33:22Z</time>
      </trkpt>
      <trkpt lat="43.34835" lon="2.42487">
        <ele>519.8</ele>
        <time>2026-06-20T09:33:23Z</time>
      </trkpt>
      <trkpt lat="43.34831" lon="2.42485">
        <ele>520.1</ele>
        <time>2026-06-20T09:33:24Z</time>
      </trkpt>
      <trkpt lat="43.3483" lon="2.42483">
        <ele>520.4</ele>
        <time>2026-06-20T09:33:25Z</time>
      </trkpt>
      <trkpt lat="43.34828" lon="2.4248">
        <ele>520.8</ele>
        <time>2026-06-20T09:33:26Z</time>
      </trkpt>
      <trkpt lat="43.34828" lon="2.42476">
        <ele>521.2</ele>
        <time>2026-06-20T09:33:27Z</time>
      </trkpt>
      <trkpt lat="43.34829" lon="2.42474">
        <ele>521.6</ele>
        <time>2026-06-20T09:33:28Z</time>
      </trkpt>
      <trkpt lat="43.34829" lon="2.42469">
        <ele>522</ele>
        <time>2026-06-20T09:33:29Z</time>
      </trkpt>
      <trkpt lat="43.34827" lon="2.42465">
        <ele>522.1</ele>
        <time>2026-06-20T09:33:30Z</time>
      </trkpt>
      <trkpt lat="43.34826" lon="2.42461">
        <ele>522.2</ele>
        <time>2026-06-20T09:33:31Z</time>
      </trkpt>
      <trkpt lat="43.34825" lon="2.42456">
        <ele>522.3</ele>
        <time>2026-06-20T09:33:32Z</time>
      </trkpt>
      <trkpt lat="43.34825" lon="2.42452">
        <ele>522.5</ele>
        <time>2026-06-20T09:33:33Z</time>
      </trkpt>
      <trkpt lat="43.34827" lon="2.42448">
        <ele>522.9</ele>
        <time>2026-06-20T09:33:34Z</time>
      </trkpt>
      <trkpt lat="43.34829" lon="2.42443">
        <ele>523.4</ele>
        <time>2026-06-20T09:33:35Z</time>
      </trkpt>
      <trkpt lat="43.34832" lon="2.42439">
        <ele>523.6</ele>
        <time>2026-06-20T09:33:36Z</time>
      </trkpt>
      <trkpt lat="43.34836" lon="2.42436">
        <ele>523.9</ele>
        <time>2026-06-20T09:33:37Z</time>
      </trkpt>
      <trkpt lat="43.34839" lon="2.42432">
        <ele>524.1</ele>
        <time>2026-06-20T09:33:38Z</time>
      </trkpt>
      <trkpt lat="43.34843" lon="2.42428">
        <ele>524.3</ele>
        <time>2026-06-20T09:33:39Z</time>
      </trkpt>
      <trkpt lat="43.34846" lon="2.42424">
        <ele>524.5</ele>
        <time>2026-06-20T09:33:40Z</time>
      </trkpt>
      <trkpt lat="43.34849" lon="2.42419">
        <ele>524.8</ele>
        <time>2026-06-20T09:33:41Z</time>
      </trkpt>
      <trkpt lat="43.34852" lon="2.42415">
        <ele>525.2</ele>
        <time>2026-06-20T09:33:42Z</time>
      </trkpt>
      <trkpt lat="43.34855" lon="2.42411">
        <ele>525.8</ele>
        <time>2026-06-20T09:33:43Z</time>
      </trkpt>
      <trkpt lat="43.34858" lon="2.42407">
        <ele>526.4</ele>
        <time>2026-06-20T09:33:44Z</time>
      </trkpt>
      <trkpt lat="43.34861" lon="2.42403">
        <ele>526.9</ele>
        <time>2026-06-20T09:33:45Z</time>
      </trkpt>
      <trkpt lat="43.34864" lon="2.424">
        <ele>527.5</ele>
        <time>2026-06-20T09:33:46Z</time>
      </trkpt>
      <trkpt lat="43.34866" lon="2.42396">
        <ele>528.1</ele>
        <time>2026-06-20T09:33:47Z</time>
      </trkpt>
      <trkpt lat="43.34868" lon="2.42393">
        <ele>528.6</ele>
        <time>2026-06-20T09:33:48Z</time>
      </trkpt>
      <trkpt lat="43.34871" lon="2.42389">
        <ele>529</ele>
        <time>2026-06-20T09:33:49Z</time>
      </trkpt>
      <trkpt lat="43.34873" lon="2.42386">
        <ele>529.6</ele>
        <time>2026-06-20T09:33:50Z</time>
      </trkpt>
      <trkpt lat="43.34876" lon="2.42383">
        <ele>530.1</ele>
        <time>2026-06-20T09:33:51Z</time>
      </trkpt>
      <trkpt lat="43.34878" lon="2.4238">
        <ele>530.7</ele>
        <time>2026-06-20T09:33:52Z</time>
      </trkpt>
      <trkpt lat="43.34881" lon="2.42377">
        <ele>531.3</ele>
        <time>2026-06-20T09:33:53Z</time>
      </trkpt>
      <trkpt lat="43.34883" lon="2.42374">
        <ele>531.9</ele>
        <time>2026-06-20T09:33:54Z</time>
      </trkpt>
      <trkpt lat="43.34886" lon="2.42371">
        <ele>532.5</ele>
        <time>2026-06-20T09:33:55Z</time>
      </trkpt>
      <trkpt lat="43.34887" lon="2.42366">
        <ele>533.2</ele>
        <time>2026-06-20T09:33:56Z</time>
      </trkpt>
      <trkpt lat="43.34888" lon="2.42362">
        <ele>533.8</ele>
        <time>2026-06-20T09:33:57Z</time>
      </trkpt>
      <trkpt lat="43.34888" lon="2.42358">
        <ele>534.3</ele>
        <time>2026-06-20T09:33:58Z</time>
      </trkpt>
      <trkpt lat="43.34887" lon="2.42353">
        <ele>534.6</ele>
        <time>2026-06-20T09:33:59Z</time>
      </trkpt>
      <trkpt lat="43.34886" lon="2.42348">
        <ele>535</ele>
        <time>2026-06-20T09:34:00Z</time>
      </trkpt>
      <trkpt lat="43.34885" lon="2.42343">
        <ele>535.4</ele>
        <time>2026-06-20T09:34:01Z</time>
      </trkpt>
      <trkpt lat="43.34884" lon="2.42337">
        <ele>535.9</ele>
        <time>2026-06-20T09:34:02Z</time>
      </trkpt>
      <trkpt lat="43.34884" lon="2.42332">
        <ele>536.4</ele>
        <time>2026-06-20T09:34:03Z</time>
      </trkpt>
      <trkpt lat="43.34884" lon="2.42327">
        <ele>537</ele>
        <time>2026-06-20T09:34:04Z</time>
      </trkpt>
      <trkpt lat="43.34884" lon="2.42322">
        <ele>537.6</ele>
        <time>2026-06-20T09:34:05Z</time>
      </trkpt>
      <trkpt lat="43.34884" lon="2.42317">
        <ele>538.1</ele>
        <time>2026-06-20T09:34:06Z</time>
      </trkpt>
      <trkpt lat="43.34883" lon="2.42312">
        <ele>538.4</ele>
        <time>2026-06-20T09:34:07Z</time>
      </trkpt>
      <trkpt lat="43.34881" lon="2.42308">
        <ele>538.5</ele>
        <time>2026-06-20T09:34:08Z</time>
      </trkpt>
      <trkpt lat="43.34878" lon="2.42303">
        <ele>538.7</ele>
        <time>2026-06-20T09:34:09Z</time>
      </trkpt>
      <trkpt lat="43.34877" lon="2.42297">
        <ele>539</ele>
        <time>2026-06-20T09:34:10Z</time>
      </trkpt>
      <trkpt lat="43.34876" lon="2.42292">
        <ele>539.4</ele>
        <time>2026-06-20T09:34:11Z</time>
      </trkpt>
      <trkpt lat="43.34875" lon="2.42286">
        <ele>539.7</ele>
        <time>2026-06-20T09:34:12Z</time>
      </trkpt>
      <trkpt lat="43.34874" lon="2.42281">
        <ele>540.1</ele>
        <time>2026-06-20T09:34:13Z</time>
      </trkpt>
      <trkpt lat="43.34873" lon="2.42275">
        <ele>540.4</ele>
        <time>2026-06-20T09:34:14Z</time>
      </trkpt>
      <trkpt lat="43.34873" lon="2.42268">
        <ele>540.8</ele>
        <time>2026-06-20T09:34:15Z</time>
      </trkpt>
      <trkpt lat="43.34872" lon="2.42262">
        <ele>541</ele>
        <time>2026-06-20T09:34:16Z</time>
      </trkpt>
      <trkpt lat="43.34871" lon="2.42256">
        <ele>541.3</ele>
        <time>2026-06-20T09:34:17Z</time>
      </trkpt>
      <trkpt lat="43.3487" lon="2.42251">
        <ele>541.5</ele>
        <time>2026-06-20T09:34:18Z</time>
      </trkpt>
      <trkpt lat="43.34868" lon="2.42243">
        <ele>541.8</ele>
        <time>2026-06-20T09:34:19Z</time>
      </trkpt>
      <trkpt lat="43.34866" lon="2.42237">
        <ele>541.8</ele>
        <time>2026-06-20T09:34:20Z</time>
      </trkpt>
      <trkpt lat="43.34864" lon="2.4223">
        <ele>541.9</ele>
        <time>2026-06-20T09:34:21Z</time>
      </trkpt>
      <trkpt lat="43.34861" lon="2.42223">
        <ele>542</ele>
        <time>2026-06-20T09:34:22Z</time>
      </trkpt>
      <trkpt lat="43.34859" lon="2.42215">
        <ele>542.2</ele>
        <time>2026-06-20T09:34:23Z</time>
      </trkpt>
      <trkpt lat="43.34857" lon="2.42208">
        <ele>542.4</ele>
        <time>2026-06-20T09:34:24Z</time>
      </trkpt>
      <trkpt lat="43.34855" lon="2.422">
        <ele>542.6</ele>
        <time>2026-06-20T09:34:25Z</time>
      </trkpt>
      <trkpt lat="43.34853" lon="2.42193">
        <ele>542.7</ele>
        <time>2026-06-20T09:34:26Z</time>
      </trkpt>
      <trkpt lat="43.34852" lon="2.42185">
        <ele>542.7</ele>
        <time>2026-06-20T09:34:27Z</time>
      </trkpt>
      <trkpt lat="43.34851" lon="2.42177">
        <ele>542.8</ele>
        <time>2026-06-20T09:34:28Z</time>
      </trkpt>
      <trkpt lat="43.34851" lon="2.4217">
        <ele>543</ele>
        <time>2026-06-20T09:34:29Z</time>
      </trkpt>
      <trkpt lat="43.3485" lon="2.42162">
        <ele>543.1</ele>
        <time>2026-06-20T09:34:30Z</time>
      </trkpt>
      <trkpt lat="43.3485" lon="2.42154">
        <ele>542.9</ele>
        <time>2026-06-20T09:34:31Z</time>
      </trkpt>
      <trkpt lat="43.34848" lon="2.42147">
        <ele>542.6</ele>
        <time>2026-06-20T09:34:32Z</time>
      </trkpt>
      <trkpt lat="43.34846" lon="2.42139">
        <ele>542.4</ele>
        <time>2026-06-20T09:34:33Z</time>
      </trkpt>
      <trkpt lat="43.34845" lon="2.42131">
        <ele>542.1</ele>
        <time>2026-06-20T09:34:34Z</time>
      </trkpt>
      <trkpt lat="43.34843" lon="2.42123">
        <ele>541.8</ele>
        <time>2026-06-20T09:34:35Z</time>
      </trkpt>
      <trkpt lat="43.34842" lon="2.42114">
        <ele>541.5</ele>
        <time>2026-06-20T09:34:36Z</time>
      </trkpt>
      <trkpt lat="43.3484" lon="2.42105">
        <ele>541.3</ele>
        <time>2026-06-20T09:34:37Z</time>
      </trkpt>
      <trkpt lat="43.34839" lon="2.42097">
        <ele>541.1</ele>
        <time>2026-06-20T09:34:38Z</time>
      </trkpt>
      <trkpt lat="43.34837" lon="2.42088">
        <ele>540.8</ele>
        <time>2026-06-20T09:34:39Z</time>
      </trkpt>
      <trkpt lat="43.34835" lon="2.42078">
        <ele>540.4</ele>
        <time>2026-06-20T09:34:40Z</time>
      </trkpt>
      <trkpt lat="43.34834" lon="2.42069">
        <ele>540.1</ele>
        <time>2026-06-20T09:34:41Z</time>
      </trkpt>
      <trkpt lat="43.34832" lon="2.42059">
        <ele>539.8</ele>
        <time>2026-06-20T09:34:42Z</time>
      </trkpt>
      <trkpt lat="43.34831" lon="2.42048">
        <ele>539.5</ele>
        <time>2026-06-20T09:34:43Z</time>
      </trkpt>
      <trkpt lat="43.3483" lon="2.42038">
        <ele>539.3</ele>
        <time>2026-06-20T09:34:44Z</time>
      </trkpt>
      <trkpt lat="43.34829" lon="2.42028">
        <ele>539.2</ele>
        <time>2026-06-20T09:34:45Z</time>
      </trkpt>
      <trkpt lat="43.34828" lon="2.42017">
        <ele>538.7</ele>
        <time>2026-06-20T09:34:46Z</time>
      </trkpt>
      <trkpt lat="43.34828" lon="2.42006">
        <ele>538.2</ele>
        <time>2026-06-20T09:34:47Z</time>
      </trkpt>
      <trkpt lat="43.34827" lon="2.41998">
        <ele>537.8</ele>
        <time>2026-06-20T09:34:48Z</time>
      </trkpt>
      <trkpt lat="43.34826" lon="2.41991">
        <ele>537.6</ele>
        <time>2026-06-20T09:34:49Z</time>
      </trkpt>
      <trkpt lat="43.34826" lon="2.41987">
        <ele>537.6</ele>
        <time>2026-06-20T09:34:50Z</time>
      </trkpt>
      <trkpt lat="43.34827" lon="2.41985">
        <ele>537.8</ele>
        <time>2026-06-20T09:34:51Z</time>
      </trkpt>
      <trkpt lat="43.34828" lon="2.41984">
        <ele>538.1</ele>
        <time>2026-06-20T09:34:52Z</time>
      </trkpt>
      <trkpt lat="43.3483" lon="2.41982">
        <ele>538.4</ele>
        <time>2026-06-20T09:34:53Z</time>
      </trkpt>
      <trkpt lat="43.34831" lon="2.41981">
        <ele>538.7</ele>
        <time>2026-06-20T09:34:54Z</time>
      </trkpt>
      <trkpt lat="43.34833" lon="2.41978">
        <ele>539</ele>
        <time>2026-06-20T09:34:55Z</time>
      </trkpt>
      <trkpt lat="43.34835" lon="2.41976">
        <ele>539.3</ele>
        <time>2026-06-20T09:34:56Z</time>
      </trkpt>
      <trkpt lat="43.34836" lon="2.41973">
        <ele>539.6</ele>
        <time>2026-06-20T09:34:57Z</time>
      </trkpt>
      <trkpt lat="43.34844" lon="2.41957">
        <ele>540.7</ele>
        <time>2026-06-20T09:35:01Z</time>
      </trkpt>
      <trkpt lat="43.34848" lon="2.41946">
        <ele>541.2</ele>
        <time>2026-06-20T09:35:03Z</time>
      </trkpt>
      <trkpt lat="43.34851" lon="2.41929">
        <ele>541.3</ele>
        <time>2026-06-20T09:35:06Z</time>
      </trkpt>
      <trkpt lat="43.34851" lon="2.41922">
        <ele>541.2</ele>
        <time>2026-06-20T09:35:07Z</time>
      </trkpt>
      <trkpt lat="43.34851" lon="2.41916">
        <ele>541.1</ele>
        <time>2026-06-20T09:35:08Z</time>
      </trkpt>
      <trkpt lat="43.34851" lon="2.4191">
        <ele>541.1</ele>
        <time>2026-06-20T09:35:09Z</time>
      </trkpt>
      <trkpt lat="43.34851" lon="2.41906">
        <ele>541.1</ele>
        <time>2026-06-20T09:35:10Z</time>
      </trkpt>
      <trkpt lat="43.34851" lon="2.419">
        <ele>541.1</ele>
        <time>2026-06-20T09:35:11Z</time>
      </trkpt>
      <trkpt lat="43.34849" lon="2.41894">
        <ele>540.8</ele>
        <time>2026-06-20T09:35:12Z</time>
      </trkpt>
      <trkpt lat="43.34846" lon="2.41889">
        <ele>540.4</ele>
        <time>2026-06-20T09:35:13Z</time>
      </trkpt>
      <trkpt lat="43.34843" lon="2.41883">
        <ele>539.8</ele>
        <time>2026-06-20T09:35:14Z</time>
      </trkpt>
      <trkpt lat="43.3484" lon="2.41876">
        <ele>539.3</ele>
        <time>2026-06-20T09:35:15Z</time>
      </trkpt>
      <trkpt lat="43.34837" lon="2.41869">
        <ele>538.7</ele>
        <time>2026-06-20T09:35:16Z</time>
      </trkpt>
      <trkpt lat="43.34835" lon="2.41861">
        <ele>538.1</ele>
        <time>2026-06-20T09:35:17Z</time>
      </trkpt>
      <trkpt lat="43.34834" lon="2.41854">
        <ele>537.6</ele>
        <time>2026-06-20T09:35:18Z</time>
      </trkpt>
      <trkpt lat="43.34836" lon="2.41848">
        <ele>537.3</ele>
        <time>2026-06-20T09:35:19Z</time>
      </trkpt>
      <trkpt lat="43.34837" lon="2.41842">
        <ele>537</ele>
        <time>2026-06-20T09:35:20Z</time>
      </trkpt>
      <trkpt lat="43.34839" lon="2.41835">
        <ele>536.7</ele>
        <time>2026-06-20T09:35:21Z</time>
      </trkpt>
      <trkpt lat="43.3484" lon="2.41827">
        <ele>536.2</ele>
        <time>2026-06-20T09:35:22Z</time>
      </trkpt>
      <trkpt lat="43.34836" lon="2.41812">
        <ele>534.6</ele>
        <time>2026-06-20T09:35:24Z</time>
      </trkpt>
      <trkpt lat="43.34832" lon="2.41805">
        <ele>533.8</ele>
        <time>2026-06-20T09:35:25Z</time>
      </trkpt>
      <trkpt lat="43.34828" lon="2.41797">
        <ele>532.5</ele>
        <time>2026-06-20T09:35:26Z</time>
      </trkpt>
      <trkpt lat="43.34823" lon="2.41788">
        <ele>531.2</ele>
        <time>2026-06-20T09:35:27Z</time>
      </trkpt>
      <trkpt lat="43.34817" lon="2.41779">
        <ele>529.9</ele>
        <time>2026-06-20T09:35:28Z</time>
      </trkpt>
      <trkpt lat="43.34797" lon="2.41754">
        <ele>526.4</ele>
        <time>2026-06-20T09:35:31Z</time>
      </trkpt>
      <trkpt lat="43.34792" lon="2.41749">
        <ele>525.4</ele>
        <time>2026-06-20T09:35:32Z</time>
      </trkpt>
      <trkpt lat="43.34788" lon="2.41745">
        <ele>524.7</ele>
        <time>2026-06-20T09:35:33Z</time>
      </trkpt>
      <trkpt lat="43.34785" lon="2.41739">
        <ele>523.9</ele>
        <time>2026-06-20T09:35:34Z</time>
      </trkpt>
      <trkpt lat="43.34781" lon="2.41732">
        <ele>523</ele>
        <time>2026-06-20T09:35:35Z</time>
      </trkpt>
      <trkpt lat="43.34778" lon="2.41724">
        <ele>522.1</ele>
        <time>2026-06-20T09:35:36Z</time>
      </trkpt>
      <trkpt lat="43.34775" lon="2.41715">
        <ele>521.4</ele>
        <time>2026-06-20T09:35:37Z</time>
      </trkpt>
      <trkpt lat="43.34773" lon="2.41706">
        <ele>520.6</ele>
        <time>2026-06-20T09:35:38Z</time>
      </trkpt>
      <trkpt lat="43.34771" lon="2.41697">
        <ele>519.8</ele>
        <time>2026-06-20T09:35:39Z</time>
      </trkpt>
      <trkpt lat="43.34768" lon="2.41688">
        <ele>518.6</ele>
        <time>2026-06-20T09:35:40Z</time>
      </trkpt>
      <trkpt lat="43.34764" lon="2.41679">
        <ele>517.3</ele>
        <time>2026-06-20T09:35:41Z</time>
      </trkpt>
      <trkpt lat="43.34761" lon="2.41669">
        <ele>516.2</ele>
        <time>2026-06-20T09:35:42Z</time>
      </trkpt>
      <trkpt lat="43.34758" lon="2.41659">
        <ele>515.1</ele>
        <time>2026-06-20T09:35:43Z</time>
      </trkpt>
      <trkpt lat="43.34754" lon="2.4165">
        <ele>514</ele>
        <time>2026-06-20T09:35:44Z</time>
      </trkpt>
      <trkpt lat="43.34749" lon="2.41641">
        <ele>513.1</ele>
        <time>2026-06-20T09:35:45Z</time>
      </trkpt>
      <trkpt lat="43.34744" lon="2.41633">
        <ele>511.6</ele>
        <time>2026-06-20T09:35:46Z</time>
      </trkpt>
      <trkpt lat="43.34738" lon="2.41624">
        <ele>510.2</ele>
        <time>2026-06-20T09:35:47Z</time>
      </trkpt>
      <trkpt lat="43.34733" lon="2.41617">
        <ele>509.2</ele>
        <time>2026-06-20T09:35:48Z</time>
      </trkpt>
      <trkpt lat="43.34728" lon="2.41612">
        <ele>508.4</ele>
        <time>2026-06-20T09:35:49Z</time>
      </trkpt>
      <trkpt lat="43.34723" lon="2.41608">
        <ele>507.7</ele>
        <time>2026-06-20T09:35:50Z</time>
      </trkpt>
      <trkpt lat="43.3472" lon="2.41603">
        <ele>506.8</ele>
        <time>2026-06-20T09:35:51Z</time>
      </trkpt>
      <trkpt lat="43.34715" lon="2.41598">
        <ele>505.7</ele>
        <time>2026-06-20T09:35:52Z</time>
      </trkpt>
      <trkpt lat="43.34702" lon="2.41589">
        <ele>503.8</ele>
        <time>2026-06-20T09:35:54Z</time>
      </trkpt>
      <trkpt lat="43.34692" lon="2.41577">
        <ele>502.1</ele>
        <time>2026-06-20T09:35:56Z</time>
      </trkpt>
      <trkpt lat="43.34688" lon="2.41574">
        <ele>501.4</ele>
        <time>2026-06-20T09:35:57Z</time>
      </trkpt>
      <trkpt lat="43.34684" lon="2.41572">
        <ele>500.8</ele>
        <time>2026-06-20T09:35:58Z</time>
      </trkpt>
      <trkpt lat="43.3468" lon="2.41569">
        <ele>500.1</ele>
        <time>2026-06-20T09:35:59Z</time>
      </trkpt>
      <trkpt lat="43.34675" lon="2.41565">
        <ele>499.4</ele>
        <time>2026-06-20T09:36:00Z</time>
      </trkpt>
      <trkpt lat="43.34669" lon="2.4156">
        <ele>498.5</ele>
        <time>2026-06-20T09:36:01Z</time>
      </trkpt>
      <trkpt lat="43.34663" lon="2.41555">
        <ele>497.8</ele>
        <time>2026-06-20T09:36:02Z</time>
      </trkpt>
      <trkpt lat="43.34658" lon="2.41549">
        <ele>497.1</ele>
        <time>2026-06-20T09:36:03Z</time>
      </trkpt>
      <trkpt lat="43.34652" lon="2.41543">
        <ele>496.3</ele>
        <time>2026-06-20T09:36:04Z</time>
      </trkpt>
      <trkpt lat="43.34647" lon="2.4154">
        <ele>495.7</ele>
        <time>2026-06-20T09:36:05Z</time>
      </trkpt>
      <trkpt lat="43.3464" lon="2.41539">
        <ele>495.3</ele>
        <time>2026-06-20T09:36:06Z</time>
      </trkpt>
      <trkpt lat="43.34634" lon="2.41538">
        <ele>495.1</ele>
        <time>2026-06-20T09:36:07Z</time>
      </trkpt>
      <trkpt lat="43.3463" lon="2.41535">
        <ele>494.7</ele>
        <time>2026-06-20T09:36:08Z</time>
      </trkpt>
      <trkpt lat="43.34626" lon="2.41531">
        <ele>494.3</ele>
        <time>2026-06-20T09:36:09Z</time>
      </trkpt>
      <trkpt lat="43.34621" lon="2.41529">
        <ele>494.1</ele>
        <time>2026-06-20T09:36:10Z</time>
      </trkpt>
      <trkpt lat="43.34613" lon="2.41527">
        <ele>493.9</ele>
        <time>2026-06-20T09:36:12Z</time>
      </trkpt>
      <trkpt lat="43.34609" lon="2.41523">
        <ele>493.5</ele>
        <time>2026-06-20T09:36:13Z</time>
      </trkpt>
      <trkpt lat="43.34606" lon="2.41518">
        <ele>493</ele>
        <time>2026-06-20T09:36:14Z</time>
      </trkpt>
      <trkpt lat="43.34603" lon="2.41511">
        <ele>492.4</ele>
        <time>2026-06-20T09:36:15Z</time>
      </trkpt>
      <trkpt lat="43.34599" lon="2.41505">
        <ele>491.9</ele>
        <time>2026-06-20T09:36:16Z</time>
      </trkpt>
      <trkpt lat="43.34596" lon="2.41499">
        <ele>491.3</ele>
        <time>2026-06-20T09:36:17Z</time>
      </trkpt>
      <trkpt lat="43.34594" lon="2.4149">
        <ele>490.6</ele>
        <time>2026-06-20T09:36:18Z</time>
      </trkpt>
      <trkpt lat="43.34593" lon="2.41482">
        <ele>489.8</ele>
        <time>2026-06-20T09:36:19Z</time>
      </trkpt>
      <trkpt lat="43.34593" lon="2.41474">
        <ele>489.2</ele>
        <time>2026-06-20T09:36:20Z</time>
      </trkpt>
      <trkpt lat="43.34591" lon="2.41467">
        <ele>488.5</ele>
        <time>2026-06-20T09:36:21Z</time>
      </trkpt>
      <trkpt lat="43.34588" lon="2.41461">
        <ele>488</ele>
        <time>2026-06-20T09:36:22Z</time>
      </trkpt>
      <trkpt lat="43.34586" lon="2.41455">
        <ele>487.6</ele>
        <time>2026-06-20T09:36:23Z</time>
      </trkpt>
      <trkpt lat="43.34582" lon="2.41439">
        <ele>486.7</ele>
        <time>2026-06-20T09:36:25Z</time>
      </trkpt>
      <trkpt lat="43.34581" lon="2.41431">
        <ele>486.3</ele>
        <time>2026-06-20T09:36:26Z</time>
      </trkpt>
      <trkpt lat="43.3458" lon="2.41424">
        <ele>486</ele>
        <time>2026-06-20T09:36:27Z</time>
      </trkpt>
      <trkpt lat="43.34581" lon="2.41417">
        <ele>485.8</ele>
        <time>2026-06-20T09:36:28Z</time>
      </trkpt>
      <trkpt lat="43.34582" lon="2.41411">
        <ele>485.5</ele>
        <time>2026-06-20T09:36:29Z</time>
      </trkpt>
      <trkpt lat="43.34582" lon="2.41405">
        <ele>485.1</ele>
        <time>2026-06-20T09:36:30Z</time>
      </trkpt>
      <trkpt lat="43.34581" lon="2.41399">
        <ele>484.6</ele>
        <time>2026-06-20T09:36:31Z</time>
      </trkpt>
      <trkpt lat="43.34577" lon="2.41394">
        <ele>484.1</ele>
        <time>2026-06-20T09:36:32Z</time>
      </trkpt>
      <trkpt lat="43.34568" lon="2.41382">
        <ele>483.1</ele>
        <time>2026-06-20T09:36:34Z</time>
      </trkpt>
      <trkpt lat="43.34566" lon="2.41374">
        <ele>482.6</ele>
        <time>2026-06-20T09:36:35Z</time>
      </trkpt>
      <trkpt lat="43.34565" lon="2.41368">
        <ele>482.3</ele>
        <time>2026-06-20T09:36:36Z</time>
      </trkpt>
      <trkpt lat="43.34565" lon="2.41362">
        <ele>482.1</ele>
        <time>2026-06-20T09:36:37Z</time>
      </trkpt>
      <trkpt lat="43.34563" lon="2.41358">
        <ele>481.8</ele>
        <time>2026-06-20T09:36:38Z</time>
      </trkpt>
      <trkpt lat="43.3456" lon="2.41353">
        <ele>481.6</ele>
        <time>2026-06-20T09:36:39Z</time>
      </trkpt>
      <trkpt lat="43.34557" lon="2.41347">
        <ele>481.4</ele>
        <time>2026-06-20T09:36:40Z</time>
      </trkpt>
      <trkpt lat="43.34545" lon="2.41331">
        <ele>480.6</ele>
        <time>2026-06-20T09:36:43Z</time>
      </trkpt>
      <trkpt lat="43.34541" lon="2.4133">
        <ele>480.5</ele>
        <time>2026-06-20T09:36:44Z</time>
      </trkpt>
      <trkpt lat="43.34539" lon="2.41335">
        <ele>480.4</ele>
        <time>2026-06-20T09:36:45Z</time>
      </trkpt>
      <trkpt lat="43.34538" lon="2.4134">
        <ele>480.5</ele>
        <time>2026-06-20T09:36:46Z</time>
      </trkpt>
      <trkpt lat="43.34537" lon="2.41346">
        <ele>480.5</ele>
        <time>2026-06-20T09:36:47Z</time>
      </trkpt>
      <trkpt lat="43.34532" lon="2.41359">
        <ele>480.3</ele>
        <time>2026-06-20T09:36:49Z</time>
      </trkpt>
      <trkpt lat="43.34532" lon="2.41373">
        <ele>480.3</ele>
        <time>2026-06-20T09:36:51Z</time>
      </trkpt>
      <trkpt lat="43.3453" lon="2.41379">
        <ele>480.2</ele>
        <time>2026-06-20T09:36:52Z</time>
      </trkpt>
      <trkpt lat="43.34527" lon="2.41383">
        <ele>479.8</ele>
        <time>2026-06-20T09:36:53Z</time>
      </trkpt>
      <trkpt lat="43.34518" lon="2.41388">
        <ele>477.4</ele>
        <time>2026-06-20T09:36:55Z</time>
      </trkpt>
      <trkpt lat="43.34514" lon="2.41389">
        <ele>476.5</ele>
        <time>2026-06-20T09:36:56Z</time>
      </trkpt>
      <trkpt lat="43.34511" lon="2.41391">
        <ele>475.8</ele>
        <time>2026-06-20T09:36:57Z</time>
      </trkpt>
      <trkpt lat="43.34509" lon="2.41396">
        <ele>475.5</ele>
        <time>2026-06-20T09:36:58Z</time>
      </trkpt>
      <trkpt lat="43.34508" lon="2.41403">
        <ele>475.3</ele>
        <time>2026-06-20T09:36:59Z</time>
      </trkpt>
      <trkpt lat="43.34508" lon="2.41416">
        <ele>475.8</ele>
        <time>2026-06-20T09:37:01Z</time>
      </trkpt>
      <trkpt lat="43.34509" lon="2.41426">
        <ele>476.6</ele>
        <time>2026-06-20T09:37:03Z</time>
      </trkpt>
      <trkpt lat="43.34507" lon="2.41429">
        <ele>476.3</ele>
        <time>2026-06-20T09:37:04Z</time>
      </trkpt>
      <trkpt lat="43.34504" lon="2.41431">
        <ele>475.9</ele>
        <time>2026-06-20T09:37:05Z</time>
      </trkpt>
      <trkpt lat="43.345" lon="2.41439">
        <ele>475.6</ele>
        <time>2026-06-20T09:37:07Z</time>
      </trkpt>
      <trkpt lat="43.34498" lon="2.41443">
        <ele>475.8</ele>
        <time>2026-06-20T09:37:08Z</time>
      </trkpt>
      <trkpt lat="43.34495" lon="2.41448">
        <ele>475.7</ele>
        <time>2026-06-20T09:37:09Z</time>
      </trkpt>
      <trkpt lat="43.34492" lon="2.41451">
        <ele>475.7</ele>
        <time>2026-06-20T09:37:10Z</time>
      </trkpt>
      <trkpt lat="43.3449" lon="2.41455">
        <ele>475.8</ele>
        <time>2026-06-20T09:37:11Z</time>
      </trkpt>
      <trkpt lat="43.34488" lon="2.41459">
        <ele>476</ele>
        <time>2026-06-20T09:37:12Z</time>
      </trkpt>
      <trkpt lat="43.34487" lon="2.41462">
        <ele>476.2</ele>
        <time>2026-06-20T09:37:13Z</time>
      </trkpt>
      <trkpt lat="43.34486" lon="2.41462">
        <ele>476.3</ele>
        <time>2026-06-20T09:37:14Z</time>
      </trkpt>
      <trkpt lat="43.34486" lon="2.41462">
        <ele>476.3</ele>
        <time>2026-06-20T09:37:15Z</time>
      </trkpt>
      <trkpt lat="43.34485" lon="2.41462">
        <ele>476.3</ele>
        <time>2026-06-20T09:37:16Z</time>
      </trkpt>
      <trkpt lat="43.34485" lon="2.41462">
        <ele>476.3</ele>
        <time>2026-06-20T09:37:17Z</time>
      </trkpt>
      <trkpt lat="43.34483" lon="2.41461">
        <ele>476.2</ele>
        <time>2026-06-20T09:37:18Z</time>
      </trkpt>
      <trkpt lat="43.3448" lon="2.41456">
        <ele>475.7</ele>
        <time>2026-06-20T09:37:20Z</time>
      </trkpt>
      <trkpt lat="43.34477" lon="2.41453">
        <ele>475.3</ele>
        <time>2026-06-20T09:37:21Z</time>
      </trkpt>
      <trkpt lat="43.34474" lon="2.41451">
        <ele>475</ele>
        <time>2026-06-20T09:37:22Z</time>
      </trkpt>
      <trkpt lat="43.3447" lon="2.4145">
        <ele>475</ele>
        <time>2026-06-20T09:37:23Z</time>
      </trkpt>
      <trkpt lat="43.34464" lon="2.41452">
        <ele>475.7</ele>
        <time>2026-06-20T09:37:25Z</time>
      </trkpt>
      <trkpt lat="43.34453" lon="2.41454">
        <ele>476.7</ele>
        <time>2026-06-20T09:37:28Z</time>
      </trkpt>
      <trkpt lat="43.34445" lon="2.41459">
        <ele>477.5</ele>
        <time>2026-06-20T09:37:30Z</time>
      </trkpt>
      <trkpt lat="43.34441" lon="2.41462">
        <ele>477</ele>
        <time>2026-06-20T09:37:31Z</time>
      </trkpt>
      <trkpt lat="43.34437" lon="2.41461">
        <ele>476.4</ele>
        <time>2026-06-20T09:37:32Z</time>
      </trkpt>
      <trkpt lat="43.34434" lon="2.41458">
        <ele>475.8</ele>
        <time>2026-06-20T09:37:33Z</time>
      </trkpt>
      <trkpt lat="43.34433" lon="2.41453">
        <ele>475.4</ele>
        <time>2026-06-20T09:37:34Z</time>
      </trkpt>
      <trkpt lat="43.34431" lon="2.41447">
        <ele>475.2</ele>
        <time>2026-06-20T09:37:35Z</time>
      </trkpt>
      <trkpt lat="43.34428" lon="2.41435">
        <ele>474.1</ele>
        <time>2026-06-20T09:37:37Z</time>
      </trkpt>
      <trkpt lat="43.34427" lon="2.41427">
        <ele>473.6</ele>
        <time>2026-06-20T09:37:38Z</time>
      </trkpt>
      <trkpt lat="43.34426" lon="2.4142">
        <ele>473.2</ele>
        <time>2026-06-20T09:37:39Z</time>
      </trkpt>
      <trkpt lat="43.3442" lon="2.41408">
        <ele>472</ele>
        <time>2026-06-20T09:37:41Z</time>
      </trkpt>
      <trkpt lat="43.34419" lon="2.41403">
        <ele>471.7</ele>
        <time>2026-06-20T09:37:42Z</time>
      </trkpt>
      <trkpt lat="43.34419" lon="2.41397">
        <ele>471.4</ele>
        <time>2026-06-20T09:37:43Z</time>
      </trkpt>
      <trkpt lat="43.34417" lon="2.41392">
        <ele>471.1</ele>
        <time>2026-06-20T09:37:44Z</time>
      </trkpt>
      <trkpt lat="43.34413" lon="2.41391">
        <ele>470.1</ele>
        <time>2026-06-20T09:37:45Z</time>
      </trkpt>
      <trkpt lat="43.34411" lon="2.41394">
        <ele>469.4</ele>
        <time>2026-06-20T09:37:46Z</time>
      </trkpt>
      <trkpt lat="43.34409" lon="2.41396">
        <ele>468.9</ele>
        <time>2026-06-20T09:37:47Z</time>
      </trkpt>
      <trkpt lat="43.34407" lon="2.41398">
        <ele>468.3</ele>
        <time>2026-06-20T09:37:48Z</time>
      </trkpt>
      <trkpt lat="43.34405" lon="2.41398">
        <ele>467.6</ele>
        <time>2026-06-20T09:37:49Z</time>
      </trkpt>
      <trkpt lat="43.34402" lon="2.41399">
        <ele>466.8</ele>
        <time>2026-06-20T09:37:50Z</time>
      </trkpt>
      <trkpt lat="43.34401" lon="2.41402">
        <ele>466.3</ele>
        <time>2026-06-20T09:37:51Z</time>
      </trkpt>
      <trkpt lat="43.34399" lon="2.41406">
        <ele>465.9</ele>
        <time>2026-06-20T09:37:52Z</time>
      </trkpt>
      <trkpt lat="43.34398" lon="2.41411">
        <ele>465.3</ele>
        <time>2026-06-20T09:37:53Z</time>
      </trkpt>
      <trkpt lat="43.34397" lon="2.41417">
        <ele>464.8</ele>
        <time>2026-06-20T09:37:54Z</time>
      </trkpt>
      <trkpt lat="43.34394" lon="2.41426">
        <ele>464.1</ele>
        <time>2026-06-20T09:37:56Z</time>
      </trkpt>
      <trkpt lat="43.34391" lon="2.4143">
        <ele>463.1</ele>
        <time>2026-06-20T09:37:57Z</time>
      </trkpt>
      <trkpt lat="43.34388" lon="2.41434">
        <ele>462.1</ele>
        <time>2026-06-20T09:37:58Z</time>
      </trkpt>
      <trkpt lat="43.34385" lon="2.41439">
        <ele>461.1</ele>
        <time>2026-06-20T09:37:59Z</time>
      </trkpt>
      <trkpt lat="43.34379" lon="2.41451">
        <ele>459.4</ele>
        <time>2026-06-20T09:38:01Z</time>
      </trkpt>
      <trkpt lat="43.34375" lon="2.41459">
        <ele>458.1</ele>
        <time>2026-06-20T09:38:02Z</time>
      </trkpt>
      <trkpt lat="43.34361" lon="2.41483">
        <ele>455.1</ele>
        <time>2026-06-20T09:38:05Z</time>
      </trkpt>
      <trkpt lat="43.34357" lon="2.41488">
        <ele>455.4</ele>
        <time>2026-06-20T09:38:06Z</time>
      </trkpt>
      <trkpt lat="43.3435" lon="2.41495">
        <ele>455.7</ele>
        <time>2026-06-20T09:38:07Z</time>
      </trkpt>
      <trkpt lat="43.34346" lon="2.41501">
        <ele>455.9</ele>
        <time>2026-06-20T09:38:08Z</time>
      </trkpt>
      <trkpt lat="43.34342" lon="2.41507">
        <ele>455.7</ele>
        <time>2026-06-20T09:38:09Z</time>
      </trkpt>
      <trkpt lat="43.3434" lon="2.41513">
        <ele>455.5</ele>
        <time>2026-06-20T09:38:10Z</time>
      </trkpt>
      <trkpt lat="43.34337" lon="2.41519">
        <ele>455.2</ele>
        <time>2026-06-20T09:38:11Z</time>
      </trkpt>
      <trkpt lat="43.34333" lon="2.41523">
        <ele>455</ele>
        <time>2026-06-20T09:38:12Z</time>
      </trkpt>
      <trkpt lat="43.34328" lon="2.41525">
        <ele>454.7</ele>
        <time>2026-06-20T09:38:13Z</time>
      </trkpt>
      <trkpt lat="43.34323" lon="2.41527">
        <ele>454.2</ele>
        <time>2026-06-20T09:38:14Z</time>
      </trkpt>
      <trkpt lat="43.34317" lon="2.41528">
        <ele>453.8</ele>
        <time>2026-06-20T09:38:15Z</time>
      </trkpt>
      <trkpt lat="43.3431" lon="2.41528">
        <ele>453.3</ele>
        <time>2026-06-20T09:38:16Z</time>
      </trkpt>
      <trkpt lat="43.34291" lon="2.41524">
        <ele>452.1</ele>
        <time>2026-06-20T09:38:19Z</time>
      </trkpt>
      <trkpt lat="43.34286" lon="2.41521">
        <ele>451.8</ele>
        <time>2026-06-20T09:38:20Z</time>
      </trkpt>
      <trkpt lat="43.3428" lon="2.41517">
        <ele>451.6</ele>
        <time>2026-06-20T09:38:21Z</time>
      </trkpt>
      <trkpt lat="43.34275" lon="2.41511">
        <ele>451.1</ele>
        <time>2026-06-20T09:38:22Z</time>
      </trkpt>
      <trkpt lat="43.34269" lon="2.41506">
        <ele>450.5</ele>
        <time>2026-06-20T09:38:23Z</time>
      </trkpt>
      <trkpt lat="43.34257" lon="2.415">
        <ele>449</ele>
        <time>2026-06-20T09:38:25Z</time>
      </trkpt>
      <trkpt lat="43.34252" lon="2.41498">
        <ele>448.3</ele>
        <time>2026-06-20T09:38:26Z</time>
      </trkpt>
      <trkpt lat="43.34248" lon="2.41497">
        <ele>447.4</ele>
        <time>2026-06-20T09:38:27Z</time>
      </trkpt>
      <trkpt lat="43.34245" lon="2.41495">
        <ele>446.4</ele>
        <time>2026-06-20T09:38:28Z</time>
      </trkpt>
      <trkpt lat="43.34242" lon="2.41492">
        <ele>445.7</ele>
        <time>2026-06-20T09:38:29Z</time>
      </trkpt>
      <trkpt lat="43.3424" lon="2.41489">
        <ele>444.9</ele>
        <time>2026-06-20T09:38:30Z</time>
      </trkpt>
      <trkpt lat="43.34237" lon="2.41485">
        <ele>444.1</ele>
        <time>2026-06-20T09:38:31Z</time>
      </trkpt>
      <trkpt lat="43.34235" lon="2.41481">
        <ele>443.3</ele>
        <time>2026-06-20T09:38:32Z</time>
      </trkpt>
      <trkpt lat="43.34233" lon="2.41477">
        <ele>442.9</ele>
        <time>2026-06-20T09:38:33Z</time>
      </trkpt>
      <trkpt lat="43.34232" lon="2.41475">
        <ele>442.5</ele>
        <time>2026-06-20T09:38:34Z</time>
      </trkpt>
      <trkpt lat="43.3423" lon="2.41474">
        <ele>441.7</ele>
        <time>2026-06-20T09:38:35Z</time>
      </trkpt>
      <trkpt lat="43.34227" lon="2.41473">
        <ele>440.8</ele>
        <time>2026-06-20T09:38:36Z</time>
      </trkpt>
      <trkpt lat="43.34224" lon="2.41471">
        <ele>439.7</ele>
        <time>2026-06-20T09:38:37Z</time>
      </trkpt>
      <trkpt lat="43.3422" lon="2.41467">
        <ele>438.2</ele>
        <time>2026-06-20T09:38:38Z</time>
      </trkpt>
      <trkpt lat="43.34216" lon="2.41462">
        <ele>437</ele>
        <time>2026-06-20T09:38:39Z</time>
      </trkpt>
      <trkpt lat="43.34213" lon="2.41451">
        <ele>435.9</ele>
        <time>2026-06-20T09:38:41Z</time>
      </trkpt>
      <trkpt lat="43.34213" lon="2.41444">
        <ele>435.6</ele>
        <time>2026-06-20T09:38:42Z</time>
      </trkpt>
      <trkpt lat="43.34213" lon="2.41436">
        <ele>435.9</ele>
        <time>2026-06-20T09:38:43Z</time>
      </trkpt>
      <trkpt lat="43.34214" lon="2.41428">
        <ele>436.3</ele>
        <time>2026-06-20T09:38:44Z</time>
      </trkpt>
      <trkpt lat="43.34214" lon="2.41419">
        <ele>436.6</ele>
        <time>2026-06-20T09:38:45Z</time>
      </trkpt>
      <trkpt lat="43.34214" lon="2.41411">
        <ele>436.1</ele>
        <time>2026-06-20T09:38:46Z</time>
      </trkpt>
      <trkpt lat="43.34213" lon="2.41401">
        <ele>435.3</ele>
        <time>2026-06-20T09:38:47Z</time>
      </trkpt>
      <trkpt lat="43.3421" lon="2.41382">
        <ele>432.5</ele>
        <time>2026-06-20T09:38:49Z</time>
      </trkpt>
      <trkpt lat="43.34208" lon="2.41361">
        <ele>428.5</ele>
        <time>2026-06-20T09:38:51Z</time>
      </trkpt>
      <trkpt lat="43.34207" lon="2.41351">
        <ele>427.3</ele>
        <time>2026-06-20T09:38:52Z</time>
      </trkpt>
      <trkpt lat="43.34206" lon="2.41331">
        <ele>425.1</ele>
        <time>2026-06-20T09:38:54Z</time>
      </trkpt>
      <trkpt lat="43.34206" lon="2.41322">
        <ele>424.2</ele>
        <time>2026-06-20T09:38:55Z</time>
      </trkpt>
      <trkpt lat="43.34206" lon="2.41315">
        <ele>423.4</ele>
        <time>2026-06-20T09:38:56Z</time>
      </trkpt>
      <trkpt lat="43.34207" lon="2.41309">
        <ele>422.8</ele>
        <time>2026-06-20T09:38:57Z</time>
      </trkpt>
      <trkpt lat="43.34207" lon="2.41304">
        <ele>422.3</ele>
        <time>2026-06-20T09:38:58Z</time>
      </trkpt>
      <trkpt lat="43.34208" lon="2.41298">
        <ele>421.9</ele>
        <time>2026-06-20T09:38:59Z</time>
      </trkpt>
      <trkpt lat="43.34208" lon="2.41293">
        <ele>421.6</ele>
        <time>2026-06-20T09:39:00Z</time>
      </trkpt>
      <trkpt lat="43.34209" lon="2.41289">
        <ele>421.4</ele>
        <time>2026-06-20T09:39:01Z</time>
      </trkpt>
      <trkpt lat="43.34211" lon="2.41287">
        <ele>421.3</ele>
        <time>2026-06-20T09:39:02Z</time>
      </trkpt>
      <trkpt lat="43.34213" lon="2.41284">
        <ele>421.4</ele>
        <time>2026-06-20T09:39:03Z</time>
      </trkpt>
      <trkpt lat="43.34215" lon="2.41284">
        <ele>421.6</ele>
        <time>2026-06-20T09:39:04Z</time>
      </trkpt>
      <trkpt lat="43.34216" lon="2.41287">
        <ele>421.8</ele>
        <time>2026-06-20T09:39:05Z</time>
      </trkpt>
      <trkpt lat="43.34216" lon="2.4129">
        <ele>422</ele>
        <time>2026-06-20T09:39:06Z</time>
      </trkpt>
      <trkpt lat="43.34216" lon="2.41292">
        <ele>422.1</ele>
        <time>2026-06-20T09:39:07Z</time>
      </trkpt>
      <trkpt lat="43.34216" lon="2.41295">
        <ele>422.2</ele>
        <time>2026-06-20T09:39:08Z</time>
      </trkpt>
      <trkpt lat="43.34216" lon="2.41297">
        <ele>422.4</ele>
        <time>2026-06-20T09:39:09Z</time>
      </trkpt>
      <trkpt lat="43.34219" lon="2.41316">
        <ele>424</ele>
        <time>2026-06-20T09:39:14Z</time>
      </trkpt>
      <trkpt lat="43.34223" lon="2.41348">
        <ele>427.5</ele>
        <time>2026-06-20T09:39:20Z</time>
      </trkpt>
      <trkpt lat="43.3423" lon="2.41366">
        <ele>430.5</ele>
        <time>2026-06-20T09:39:24Z</time>
      </trkpt>
      <trkpt lat="43.34234" lon="2.41369">
        <ele>431.5</ele>
        <time>2026-06-20T09:39:25Z</time>
      </trkpt>
      <trkpt lat="43.34238" lon="2.41372">
        <ele>432.3</ele>
        <time>2026-06-20T09:39:26Z</time>
      </trkpt>
      <trkpt lat="43.34242" lon="2.41373">
        <ele>432.5</ele>
        <time>2026-06-20T09:39:27Z</time>
      </trkpt>
      <trkpt lat="43.34247" lon="2.41373">
        <ele>432.5</ele>
        <time>2026-06-20T09:39:28Z</time>
      </trkpt>
      <trkpt lat="43.34251" lon="2.41372">
        <ele>432.7</ele>
        <time>2026-06-20T09:39:29Z</time>
      </trkpt>
      <trkpt lat="43.34255" lon="2.4137">
        <ele>433.8</ele>
        <time>2026-06-20T09:39:30Z</time>
      </trkpt>
      <trkpt lat="43.34259" lon="2.41367">
        <ele>434.6</ele>
        <time>2026-06-20T09:39:31Z</time>
      </trkpt>
      <trkpt lat="43.34263" lon="2.41364">
        <ele>435.2</ele>
        <time>2026-06-20T09:39:32Z</time>
      </trkpt>
      <trkpt lat="43.34269" lon="2.41357">
        <ele>436</ele>
        <time>2026-06-20T09:39:34Z</time>
      </trkpt>
      <trkpt lat="43.34274" lon="2.41352">
        <ele>436.7</ele>
        <time>2026-06-20T09:39:36Z</time>
      </trkpt>
      <trkpt lat="43.34278" lon="2.41348">
        <ele>437.1</ele>
        <time>2026-06-20T09:39:37Z</time>
      </trkpt>
      <trkpt lat="43.3428" lon="2.41346">
        <ele>436.7</ele>
        <time>2026-06-20T09:39:38Z</time>
      </trkpt>
      <trkpt lat="43.34282" lon="2.41344">
        <ele>436.2</ele>
        <time>2026-06-20T09:39:39Z</time>
      </trkpt>
      <trkpt lat="43.34283" lon="2.41343">
        <ele>435.9</ele>
        <time>2026-06-20T09:39:40Z</time>
      </trkpt>
      <trkpt lat="43.34282" lon="2.41343">
        <ele>436</ele>
        <time>2026-06-20T09:39:41Z</time>
      </trkpt>
      <trkpt lat="43.34279" lon="2.41344">
        <ele>436.2</ele>
        <time>2026-06-20T09:39:43Z</time>
      </trkpt>
      <trkpt lat="43.34276" lon="2.41344">
        <ele>435.9</ele>
        <time>2026-06-20T09:46:13Z</time>
      </trkpt>
      <trkpt lat="43.34274" lon="2.41345">
        <ele>435.1</ele>
        <time>2026-06-20T09:46:14Z</time>
      </trkpt>
      <trkpt lat="43.34267" lon="2.41354">
        <ele>434.5</ele>
        <time>2026-06-20T09:46:16Z</time>
      </trkpt>
      <trkpt lat="43.34263" lon="2.41358">
        <ele>434</ele>
        <time>2026-06-20T09:46:17Z</time>
      </trkpt>
      <trkpt lat="43.34252" lon="2.41366">
        <ele>432</ele>
        <time>2026-06-20T09:46:19Z</time>
      </trkpt>
      <trkpt lat="43.34239" lon="2.41371">
        <ele>431.9</ele>
        <time>2026-06-20T09:46:21Z</time>
      </trkpt>
      <trkpt lat="43.34227" lon="2.41359">
        <ele>428.9</ele>
        <time>2026-06-20T09:46:23Z</time>
      </trkpt>
      <trkpt lat="43.34223" lon="2.4135">
        <ele>427.8</ele>
        <time>2026-06-20T09:46:24Z</time>
      </trkpt>
      <trkpt lat="43.34221" lon="2.4134">
        <ele>426.7</ele>
        <time>2026-06-20T09:46:25Z</time>
      </trkpt>
      <trkpt lat="43.3422" lon="2.41331">
        <ele>425.7</ele>
        <time>2026-06-20T09:46:26Z</time>
      </trkpt>
      <trkpt lat="43.34219" lon="2.41323">
        <ele>424.8</ele>
        <time>2026-06-20T09:46:27Z</time>
      </trkpt>
      <trkpt lat="43.34218" lon="2.41316">
        <ele>424</ele>
        <time>2026-06-20T09:46:28Z</time>
      </trkpt>
      <trkpt lat="43.34218" lon="2.41309">
        <ele>423.2</ele>
        <time>2026-06-20T09:46:29Z</time>
      </trkpt>
      <trkpt lat="43.34217" lon="2.41302">
        <ele>422.6</ele>
        <time>2026-06-20T09:46:30Z</time>
      </trkpt>
      <trkpt lat="43.34216" lon="2.41295">
        <ele>422.2</ele>
        <time>2026-06-20T09:46:31Z</time>
      </trkpt>
      <trkpt lat="43.34214" lon="2.41282">
        <ele>421.3</ele>
        <time>2026-06-20T09:46:33Z</time>
      </trkpt>
      <trkpt lat="43.34213" lon="2.41276">
        <ele>421.2</ele>
        <time>2026-06-20T09:46:34Z</time>
      </trkpt>
      <trkpt lat="43.34211" lon="2.4127">
        <ele>421.7</ele>
        <time>2026-06-20T09:46:35Z</time>
      </trkpt>
      <trkpt lat="43.34208" lon="2.41265">
        <ele>421.8</ele>
        <time>2026-06-20T09:46:36Z</time>
      </trkpt>
      <trkpt lat="43.34203" lon="2.41262">
        <ele>421.7</ele>
        <time>2026-06-20T09:46:37Z</time>
      </trkpt>
      <trkpt lat="43.34198" lon="2.4126">
        <ele>421.3</ele>
        <time>2026-06-20T09:46:38Z</time>
      </trkpt>
      <trkpt lat="43.34193" lon="2.4126">
        <ele>420.8</ele>
        <time>2026-06-20T09:46:39Z</time>
      </trkpt>
      <trkpt lat="43.34187" lon="2.4126">
        <ele>420.4</ele>
        <time>2026-06-20T09:46:40Z</time>
      </trkpt>
      <trkpt lat="43.34181" lon="2.4126">
        <ele>419.9</ele>
        <time>2026-06-20T09:46:41Z</time>
      </trkpt>
      <trkpt lat="43.34175" lon="2.4126">
        <ele>419.5</ele>
        <time>2026-06-20T09:46:42Z</time>
      </trkpt>
      <trkpt lat="43.34164" lon="2.4126">
        <ele>418.8</ele>
        <time>2026-06-20T09:46:44Z</time>
      </trkpt>
      <trkpt lat="43.34156" lon="2.41253">
        <ele>418.9</ele>
        <time>2026-06-20T09:46:46Z</time>
      </trkpt>
      <trkpt lat="43.34154" lon="2.41248">
        <ele>419.2</ele>
        <time>2026-06-20T09:46:47Z</time>
      </trkpt>
      <trkpt lat="43.34152" lon="2.41243">
        <ele>419.8</ele>
        <time>2026-06-20T09:46:48Z</time>
      </trkpt>
      <trkpt lat="43.3415" lon="2.4123">
        <ele>420.9</ele>
        <time>2026-06-20T09:46:50Z</time>
      </trkpt>
      <trkpt lat="43.3415" lon="2.41224">
        <ele>421.6</ele>
        <time>2026-06-20T09:46:51Z</time>
      </trkpt>
      <trkpt lat="43.34149" lon="2.41217">
        <ele>422.1</ele>
        <time>2026-06-20T09:46:52Z</time>
      </trkpt>
      <trkpt lat="43.34147" lon="2.41199">
        <ele>423.3</ele>
        <time>2026-06-20T09:46:55Z</time>
      </trkpt>
      <trkpt lat="43.34146" lon="2.41192">
        <ele>423.7</ele>
        <time>2026-06-20T09:46:56Z</time>
      </trkpt>
      <trkpt lat="43.34141" lon="2.41155">
        <ele>426.9</ele>
        <time>2026-06-20T09:47:02Z</time>
      </trkpt>
      <trkpt lat="43.34138" lon="2.41137">
        <ele>428.1</ele>
        <time>2026-06-20T09:47:05Z</time>
      </trkpt>
      <trkpt lat="43.34137" lon="2.41124">
        <ele>428.2</ele>
        <time>2026-06-20T09:47:07Z</time>
      </trkpt>
      <trkpt lat="43.34136" lon="2.41117">
        <ele>428.3</ele>
        <time>2026-06-20T09:47:08Z</time>
      </trkpt>
      <trkpt lat="43.34137" lon="2.41103">
        <ele>427.6</ele>
        <time>2026-06-20T09:47:10Z</time>
      </trkpt>
      <trkpt lat="43.34136" lon="2.41097">
        <ele>427.2</ele>
        <time>2026-06-20T09:47:11Z</time>
      </trkpt>
      <trkpt lat="43.34134" lon="2.41091">
        <ele>426.9</ele>
        <time>2026-06-20T09:47:12Z</time>
      </trkpt>
      <trkpt lat="43.34131" lon="2.41086">
        <ele>426.6</ele>
        <time>2026-06-20T09:47:13Z</time>
      </trkpt>
      <trkpt lat="43.34127" lon="2.41081">
        <ele>426.1</ele>
        <time>2026-06-20T09:47:14Z</time>
      </trkpt>
      <trkpt lat="43.34124" lon="2.41077">
        <ele>425.7</ele>
        <time>2026-06-20T09:47:15Z</time>
      </trkpt>
      <trkpt lat="43.34119" lon="2.41076">
        <ele>425.7</ele>
        <time>2026-06-20T09:47:16Z</time>
      </trkpt>
      <trkpt lat="43.34115" lon="2.41075">
        <ele>425.9</ele>
        <time>2026-06-20T09:47:17Z</time>
      </trkpt>
      <trkpt lat="43.3411" lon="2.41075">
        <ele>426.1</ele>
        <time>2026-06-20T09:47:18Z</time>
      </trkpt>
      <trkpt lat="43.34105" lon="2.41073">
        <ele>426.3</ele>
        <time>2026-06-20T09:47:19Z</time>
      </trkpt>
      <trkpt lat="43.341" lon="2.4107">
        <ele>426.3</ele>
        <time>2026-06-20T09:47:20Z</time>
      </trkpt>
      <trkpt lat="43.34097" lon="2.41064">
        <ele>426.1</ele>
        <time>2026-06-20T09:47:21Z</time>
      </trkpt>
      <trkpt lat="43.34096" lon="2.41057">
        <ele>425.8</ele>
        <time>2026-06-20T09:47:22Z</time>
      </trkpt>
      <trkpt lat="43.34095" lon="2.41049">
        <ele>425.7</ele>
        <time>2026-06-20T09:47:23Z</time>
      </trkpt>
      <trkpt lat="43.34094" lon="2.41042">
        <ele>425.7</ele>
        <time>2026-06-20T09:47:24Z</time>
      </trkpt>
      <trkpt lat="43.34094" lon="2.41036">
        <ele>425.6</ele>
        <time>2026-06-20T09:47:25Z</time>
      </trkpt>
      <trkpt lat="43.34095" lon="2.41031">
        <ele>425.3</ele>
        <time>2026-06-20T09:47:26Z</time>
      </trkpt>
      <trkpt lat="43.34096" lon="2.41026">
        <ele>425.1</ele>
        <time>2026-06-20T09:47:27Z</time>
      </trkpt>
      <trkpt lat="43.34095" lon="2.41022">
        <ele>425.1</ele>
        <time>2026-06-20T09:47:28Z</time>
      </trkpt>
      <trkpt lat="43.34093" lon="2.41019">
        <ele>425.3</ele>
        <time>2026-06-20T09:47:29Z</time>
      </trkpt>
      <trkpt lat="43.34091" lon="2.41017">
        <ele>425.7</ele>
        <time>2026-06-20T09:47:30Z</time>
      </trkpt>
      <trkpt lat="43.34088" lon="2.41014">
        <ele>426.1</ele>
        <time>2026-06-20T09:47:31Z</time>
      </trkpt>
      <trkpt lat="43.34086" lon="2.4101">
        <ele>426.6</ele>
        <time>2026-06-20T09:47:32Z</time>
      </trkpt>
      <trkpt lat="43.34083" lon="2.41005">
        <ele>427</ele>
        <time>2026-06-20T09:47:33Z</time>
      </trkpt>
      <trkpt lat="43.34079" lon="2.41001">
        <ele>427.2</ele>
        <time>2026-06-20T09:47:34Z</time>
      </trkpt>
      <trkpt lat="43.34068" lon="2.40987">
        <ele>427.1</ele>
        <time>2026-06-20T09:47:37Z</time>
      </trkpt>
      <trkpt lat="43.34065" lon="2.40981">
        <ele>427.2</ele>
        <time>2026-06-20T09:47:38Z</time>
      </trkpt>
      <trkpt lat="43.34064" lon="2.40974">
        <ele>427.2</ele>
        <time>2026-06-20T09:47:39Z</time>
      </trkpt>
      <trkpt lat="43.34062" lon="2.40967">
        <ele>427.3</ele>
        <time>2026-06-20T09:47:40Z</time>
      </trkpt>
      <trkpt lat="43.3406" lon="2.4096">
        <ele>427.6</ele>
        <time>2026-06-20T09:47:41Z</time>
      </trkpt>
      <trkpt lat="43.34053" lon="2.40942">
        <ele>429</ele>
        <time>2026-06-20T09:47:44Z</time>
      </trkpt>
      <trkpt lat="43.34051" lon="2.40937">
        <ele>429</ele>
        <time>2026-06-20T09:47:45Z</time>
      </trkpt>
      <trkpt lat="43.34048" lon="2.40934">
        <ele>429</ele>
        <time>2026-06-20T09:47:46Z</time>
      </trkpt>
      <trkpt lat="43.34044" lon="2.40931">
        <ele>429.1</ele>
        <time>2026-06-20T09:47:47Z</time>
      </trkpt>
      <trkpt lat="43.34041" lon="2.40929">
        <ele>429.3</ele>
        <time>2026-06-20T09:47:48Z</time>
      </trkpt>
      <trkpt lat="43.34038" lon="2.40926">
        <ele>429.4</ele>
        <time>2026-06-20T09:47:49Z</time>
      </trkpt>
      <trkpt lat="43.34038" lon="2.40923">
        <ele>429.4</ele>
        <time>2026-06-20T09:47:50Z</time>
      </trkpt>
      <trkpt lat="43.34039" lon="2.40919">
        <ele>429.2</ele>
        <time>2026-06-20T09:47:51Z</time>
      </trkpt>
      <trkpt lat="43.34041" lon="2.40909">
        <ele>428.5</ele>
        <time>2026-06-20T09:47:53Z</time>
      </trkpt>
      <trkpt lat="43.34041" lon="2.40903">
        <ele>428</ele>
        <time>2026-06-20T09:47:54Z</time>
      </trkpt>
      <trkpt lat="43.34043" lon="2.40897">
        <ele>427.5</ele>
        <time>2026-06-20T09:47:55Z</time>
      </trkpt>
      <trkpt lat="43.34047" lon="2.40886">
        <ele>426.4</ele>
        <time>2026-06-20T09:47:57Z</time>
      </trkpt>
      <trkpt lat="43.34049" lon="2.40873">
        <ele>425.3</ele>
        <time>2026-06-20T09:47:59Z</time>
      </trkpt>
      <trkpt lat="43.3405" lon="2.40859">
        <ele>424.2</ele>
        <time>2026-06-20T09:48:01Z</time>
      </trkpt>
      <trkpt lat="43.34051" lon="2.40853">
        <ele>423.4</ele>
        <time>2026-06-20T09:48:02Z</time>
      </trkpt>
      <trkpt lat="43.34051" lon="2.40847">
        <ele>422.7</ele>
        <time>2026-06-20T09:48:03Z</time>
      </trkpt>
      <trkpt lat="43.34051" lon="2.4084">
        <ele>422.1</ele>
        <time>2026-06-20T09:48:04Z</time>
      </trkpt>
      <trkpt lat="43.34049" lon="2.40832">
        <ele>421.3</ele>
        <time>2026-06-20T09:48:05Z</time>
      </trkpt>
      <trkpt lat="43.34047" lon="2.40825">
        <ele>420.3</ele>
        <time>2026-06-20T09:48:06Z</time>
      </trkpt>
      <trkpt lat="43.34045" lon="2.4082">
        <ele>419.7</ele>
        <time>2026-06-20T09:48:07Z</time>
      </trkpt>
      <trkpt lat="43.34043" lon="2.40815">
        <ele>419.1</ele>
        <time>2026-06-20T09:48:08Z</time>
      </trkpt>
      <trkpt lat="43.34044" lon="2.40809">
        <ele>418.2</ele>
        <time>2026-06-20T09:48:09Z</time>
      </trkpt>
      <trkpt lat="43.34045" lon="2.40804">
        <ele>417.2</ele>
        <time>2026-06-20T09:48:10Z</time>
      </trkpt>
      <trkpt lat="43.34044" lon="2.40797">
        <ele>415.9</ele>
        <time>2026-06-20T09:48:11Z</time>
      </trkpt>
      <trkpt lat="43.34045" lon="2.40784">
        <ele>413.2</ele>
        <time>2026-06-20T09:48:13Z</time>
      </trkpt>
      <trkpt lat="43.34045" lon="2.40777">
        <ele>411.9</ele>
        <time>2026-06-20T09:48:14Z</time>
      </trkpt>
      <trkpt lat="43.34044" lon="2.40771">
        <ele>410.8</ele>
        <time>2026-06-20T09:48:15Z</time>
      </trkpt>
      <trkpt lat="43.34041" lon="2.40765">
        <ele>410.4</ele>
        <time>2026-06-20T09:48:16Z</time>
      </trkpt>
      <trkpt lat="43.34036" lon="2.40761">
        <ele>410.4</ele>
        <time>2026-06-20T09:48:17Z</time>
      </trkpt>
      <trkpt lat="43.34032" lon="2.40758">
        <ele>410.6</ele>
        <time>2026-06-20T09:48:18Z</time>
      </trkpt>
      <trkpt lat="43.3403" lon="2.40754">
        <ele>410.4</ele>
        <time>2026-06-20T09:48:19Z</time>
      </trkpt>
      <trkpt lat="43.34029" lon="2.40749">
        <ele>409.5</ele>
        <time>2026-06-20T09:48:20Z</time>
      </trkpt>
      <trkpt lat="43.34029" lon="2.40743">
        <ele>408.5</ele>
        <time>2026-06-20T09:48:21Z</time>
      </trkpt>
      <trkpt lat="43.34027" lon="2.40738">
        <ele>407.7</ele>
        <time>2026-06-20T09:48:22Z</time>
      </trkpt>
      <trkpt lat="43.34024" lon="2.40736">
        <ele>406.9</ele>
        <time>2026-06-20T09:48:23Z</time>
      </trkpt>
      <trkpt lat="43.34021" lon="2.40734">
        <ele>406.1</ele>
        <time>2026-06-20T09:48:24Z</time>
      </trkpt>
      <trkpt lat="43.34018" lon="2.40734">
        <ele>405.5</ele>
        <time>2026-06-20T09:48:25Z</time>
      </trkpt>
      <trkpt lat="43.34015" lon="2.40736">
        <ele>405.2</ele>
        <time>2026-06-20T09:48:26Z</time>
      </trkpt>
      <trkpt lat="43.34007" lon="2.40742">
        <ele>405.6</ele>
        <time>2026-06-20T09:48:28Z</time>
      </trkpt>
      <trkpt lat="43.34003" lon="2.40746">
        <ele>406.1</ele>
        <time>2026-06-20T09:48:29Z</time>
      </trkpt>
      <trkpt lat="43.33998" lon="2.4075">
        <ele>406.8</ele>
        <time>2026-06-20T09:48:30Z</time>
      </trkpt>
      <trkpt lat="43.33989" lon="2.40758">
        <ele>408.1</ele>
        <time>2026-06-20T09:48:32Z</time>
      </trkpt>
      <trkpt lat="43.33985" lon="2.4076">
        <ele>408.4</ele>
        <time>2026-06-20T09:48:33Z</time>
      </trkpt>
      <trkpt lat="43.33979" lon="2.40761">
        <ele>408.3</ele>
        <time>2026-06-20T09:48:34Z</time>
      </trkpt>
      <trkpt lat="43.33974" lon="2.4076">
        <ele>408</ele>
        <time>2026-06-20T09:48:35Z</time>
      </trkpt>
      <trkpt lat="43.33969" lon="2.40759">
        <ele>408.1</ele>
        <time>2026-06-20T09:48:36Z</time>
      </trkpt>
      <trkpt lat="43.33963" lon="2.40758">
        <ele>408.5</ele>
        <time>2026-06-20T09:48:37Z</time>
      </trkpt>
      <trkpt lat="43.33958" lon="2.40756">
        <ele>408.9</ele>
        <time>2026-06-20T09:48:38Z</time>
      </trkpt>
      <trkpt lat="43.33953" lon="2.40753">
        <ele>409.2</ele>
        <time>2026-06-20T09:48:39Z</time>
      </trkpt>
      <trkpt lat="43.33948" lon="2.4075">
        <ele>409.5</ele>
        <time>2026-06-20T09:48:40Z</time>
      </trkpt>
      <trkpt lat="43.3393" lon="2.4074">
        <ele>409.7</ele>
        <time>2026-06-20T09:48:44Z</time>
      </trkpt>
      <trkpt lat="43.33926" lon="2.40738">
        <ele>409.9</ele>
        <time>2026-06-20T09:48:45Z</time>
      </trkpt>
      <trkpt lat="43.33921" lon="2.40737">
        <ele>410.2</ele>
        <time>2026-06-20T09:48:46Z</time>
      </trkpt>
      <trkpt lat="43.33916" lon="2.40736">
        <ele>410.4</ele>
        <time>2026-06-20T09:48:47Z</time>
      </trkpt>
      <trkpt lat="43.3391" lon="2.40737">
        <ele>409.8</ele>
        <time>2026-06-20T09:48:48Z</time>
      </trkpt>
      <trkpt lat="43.33899" lon="2.40739">
        <ele>408.7</ele>
        <time>2026-06-20T09:48:50Z</time>
      </trkpt>
      <trkpt lat="43.33893" lon="2.40741">
        <ele>408.2</ele>
        <time>2026-06-20T09:48:51Z</time>
      </trkpt>
      <trkpt lat="43.33866" lon="2.40755">
        <ele>406.4</ele>
        <time>2026-06-20T09:48:55Z</time>
      </trkpt>
      <trkpt lat="43.33843" lon="2.40763">
        <ele>405</ele>
        <time>2026-06-20T09:48:58Z</time>
      </trkpt>
      <trkpt lat="43.33835" lon="2.40765">
        <ele>404.3</ele>
        <time>2026-06-20T09:48:59Z</time>
      </trkpt>
      <trkpt lat="43.33826" lon="2.40765">
        <ele>404.1</ele>
        <time>2026-06-20T09:49:00Z</time>
      </trkpt>
      <trkpt lat="43.33818" lon="2.40764">
        <ele>403.7</ele>
        <time>2026-06-20T09:49:01Z</time>
      </trkpt>
      <trkpt lat="43.33803" lon="2.40761">
        <ele>403.3</ele>
        <time>2026-06-20T09:49:03Z</time>
      </trkpt>
      <trkpt lat="43.33795" lon="2.4076">
        <ele>403.4</ele>
        <time>2026-06-20T09:49:04Z</time>
      </trkpt>
      <trkpt lat="43.33788" lon="2.40759">
        <ele>403.6</ele>
        <time>2026-06-20T09:49:05Z</time>
      </trkpt>
      <trkpt lat="43.33782" lon="2.40757">
        <ele>403.8</ele>
        <time>2026-06-20T09:49:06Z</time>
      </trkpt>
      <trkpt lat="43.33777" lon="2.40754">
        <ele>404</ele>
        <time>2026-06-20T09:49:07Z</time>
      </trkpt>
      <trkpt lat="43.33774" lon="2.40748">
        <ele>403.8</ele>
        <time>2026-06-20T09:49:08Z</time>
      </trkpt>
      <trkpt lat="43.33773" lon="2.4074">
        <ele>403.6</ele>
        <time>2026-06-20T09:49:09Z</time>
      </trkpt>
      <trkpt lat="43.33771" lon="2.40733">
        <ele>403.4</ele>
        <time>2026-06-20T09:49:10Z</time>
      </trkpt>
      <trkpt lat="43.33768" lon="2.40726">
        <ele>403.4</ele>
        <time>2026-06-20T09:49:11Z</time>
      </trkpt>
      <trkpt lat="43.33765" lon="2.4072">
        <ele>403.4</ele>
        <time>2026-06-20T09:49:12Z</time>
      </trkpt>
      <trkpt lat="43.33765" lon="2.40715">
        <ele>403.2</ele>
        <time>2026-06-20T09:49:13Z</time>
      </trkpt>
      <trkpt lat="43.33766" lon="2.40711">
        <ele>403</ele>
        <time>2026-06-20T09:49:14Z</time>
      </trkpt>
      <trkpt lat="43.33765" lon="2.40707">
        <ele>402.8</ele>
        <time>2026-06-20T09:49:15Z</time>
      </trkpt>
      <trkpt lat="43.33763" lon="2.40703">
        <ele>402.9</ele>
        <time>2026-06-20T09:49:16Z</time>
      </trkpt>
      <trkpt lat="43.33761" lon="2.40698">
        <ele>402.9</ele>
        <time>2026-06-20T09:49:17Z</time>
      </trkpt>
      <trkpt lat="43.33759" lon="2.40693">
        <ele>402.9</ele>
        <time>2026-06-20T09:49:18Z</time>
      </trkpt>
      <trkpt lat="43.33758" lon="2.40687">
        <ele>402.8</ele>
        <time>2026-06-20T09:49:19Z</time>
      </trkpt>
      <trkpt lat="43.33757" lon="2.40681">
        <ele>402.6</ele>
        <time>2026-06-20T09:49:20Z</time>
      </trkpt>
      <trkpt lat="43.33758" lon="2.40676">
        <ele>402.3</ele>
        <time>2026-06-20T09:49:21Z</time>
      </trkpt>
      <trkpt lat="43.33757" lon="2.4067">
        <ele>402.1</ele>
        <time>2026-06-20T09:49:22Z</time>
      </trkpt>
      <trkpt lat="43.33754" lon="2.4066">
        <ele>401.7</ele>
        <time>2026-06-20T09:49:24Z</time>
      </trkpt>
      <trkpt lat="43.3375" lon="2.40658">
        <ele>402</ele>
        <time>2026-06-20T09:49:25Z</time>
      </trkpt>
      <trkpt lat="43.33747" lon="2.40657">
        <ele>401.9</ele>
        <time>2026-06-20T09:49:26Z</time>
      </trkpt>
      <trkpt lat="43.3374" lon="2.40656">
        <ele>401.6</ele>
        <time>2026-06-20T09:49:28Z</time>
      </trkpt>
      <trkpt lat="43.33735" lon="2.40655">
        <ele>401.4</ele>
        <time>2026-06-20T09:49:29Z</time>
      </trkpt>
      <trkpt lat="43.33732" lon="2.40652">
        <ele>401.1</ele>
        <time>2026-06-20T09:49:30Z</time>
      </trkpt>
      <trkpt lat="43.33731" lon="2.40647">
        <ele>400.7</ele>
        <time>2026-06-20T09:49:31Z</time>
      </trkpt>
      <trkpt lat="43.33727" lon="2.40633">
        <ele>399.3</ele>
        <time>2026-06-20T09:49:33Z</time>
      </trkpt>
      <trkpt lat="43.33721" lon="2.40622">
        <ele>398.1</ele>
        <time>2026-06-20T09:49:35Z</time>
      </trkpt>
      <trkpt lat="43.33719" lon="2.40617">
        <ele>397.6</ele>
        <time>2026-06-20T09:49:36Z</time>
      </trkpt>
      <trkpt lat="43.33717" lon="2.40612">
        <ele>397.1</ele>
        <time>2026-06-20T09:49:37Z</time>
      </trkpt>
      <trkpt lat="43.33715" lon="2.40606">
        <ele>396.6</ele>
        <time>2026-06-20T09:49:38Z</time>
      </trkpt>
      <trkpt lat="43.33712" lon="2.40601">
        <ele>396.2</ele>
        <time>2026-06-20T09:49:39Z</time>
      </trkpt>
      <trkpt lat="43.3371" lon="2.40595">
        <ele>395.8</ele>
        <time>2026-06-20T09:49:40Z</time>
      </trkpt>
      <trkpt lat="43.33709" lon="2.40588">
        <ele>395.3</ele>
        <time>2026-06-20T09:49:41Z</time>
      </trkpt>
      <trkpt lat="43.33711" lon="2.40583">
        <ele>394.8</ele>
        <time>2026-06-20T09:49:42Z</time>
      </trkpt>
      <trkpt lat="43.33713" lon="2.40579">
        <ele>394.2</ele>
        <time>2026-06-20T09:49:43Z</time>
      </trkpt>
      <trkpt lat="43.33715" lon="2.40576">
        <ele>393.6</ele>
        <time>2026-06-20T09:49:44Z</time>
      </trkpt>
      <trkpt lat="43.33715" lon="2.40572">
        <ele>393.2</ele>
        <time>2026-06-20T09:49:45Z</time>
      </trkpt>
      <trkpt lat="43.33713" lon="2.40568">
        <ele>393</ele>
        <time>2026-06-20T09:49:46Z</time>
      </trkpt>
      <trkpt lat="43.33707" lon="2.40559">
        <ele>393</ele>
        <time>2026-06-20T09:49:48Z</time>
      </trkpt>
      <trkpt lat="43.33703" lon="2.40554">
        <ele>393.1</ele>
        <time>2026-06-20T09:49:49Z</time>
      </trkpt>
      <trkpt lat="43.337" lon="2.40548">
        <ele>392.9</ele>
        <time>2026-06-20T09:49:50Z</time>
      </trkpt>
      <trkpt lat="43.33697" lon="2.40542">
        <ele>392.7</ele>
        <time>2026-06-20T09:49:51Z</time>
      </trkpt>
      <trkpt lat="43.33689" lon="2.40531">
        <ele>392</ele>
        <time>2026-06-20T09:49:53Z</time>
      </trkpt>
      <trkpt lat="43.33673" lon="2.40518">
        <ele>391.5</ele>
        <time>2026-06-20T09:49:56Z</time>
      </trkpt>
      <trkpt lat="43.33668" lon="2.40517">
        <ele>391.9</ele>
        <time>2026-06-20T09:49:57Z</time>
      </trkpt>
      <trkpt lat="43.33663" lon="2.40517">
        <ele>392.1</ele>
        <time>2026-06-20T09:49:58Z</time>
      </trkpt>
      <trkpt lat="43.33657" lon="2.40519">
        <ele>392.3</ele>
        <time>2026-06-20T09:49:59Z</time>
      </trkpt>
      <trkpt lat="43.33652" lon="2.40518">
        <ele>392.1</ele>
        <time>2026-06-20T09:50:00Z</time>
      </trkpt>
      <trkpt lat="43.33645" lon="2.40509">
        <ele>390.9</ele>
        <time>2026-06-20T09:50:02Z</time>
      </trkpt>
      <trkpt lat="43.3364" lon="2.40494">
        <ele>389.1</ele>
        <time>2026-06-20T09:50:04Z</time>
      </trkpt>
      <trkpt lat="43.33631" lon="2.40483">
        <ele>387.3</ele>
        <time>2026-06-20T09:50:06Z</time>
      </trkpt>
      <trkpt lat="43.33629" lon="2.40477">
        <ele>386.5</ele>
        <time>2026-06-20T09:50:07Z</time>
      </trkpt>
      <trkpt lat="43.3363" lon="2.40469">
        <ele>385.4</ele>
        <time>2026-06-20T09:50:08Z</time>
      </trkpt>
      <trkpt lat="43.33629" lon="2.40462">
        <ele>384.1</ele>
        <time>2026-06-20T09:50:09Z</time>
      </trkpt>
      <trkpt lat="43.33626" lon="2.40458">
        <ele>383.3</ele>
        <time>2026-06-20T09:50:10Z</time>
      </trkpt>
      <trkpt lat="43.33622" lon="2.40455">
        <ele>383</ele>
        <time>2026-06-20T09:50:11Z</time>
      </trkpt>
      <trkpt lat="43.33618" lon="2.4045">
        <ele>382.5</ele>
        <time>2026-06-20T09:50:12Z</time>
      </trkpt>
      <trkpt lat="43.33614" lon="2.40444">
        <ele>381.7</ele>
        <time>2026-06-20T09:50:13Z</time>
      </trkpt>
      <trkpt lat="43.3361" lon="2.40436">
        <ele>381</ele>
        <time>2026-06-20T09:50:14Z</time>
      </trkpt>
      <trkpt lat="43.33608" lon="2.40427">
        <ele>380</ele>
        <time>2026-06-20T09:50:15Z</time>
      </trkpt>
      <trkpt lat="43.33606" lon="2.40416">
        <ele>379.1</ele>
        <time>2026-06-20T09:50:16Z</time>
      </trkpt>
      <trkpt lat="43.33602" lon="2.40407">
        <ele>378.8</ele>
        <time>2026-06-20T09:50:17Z</time>
      </trkpt>
      <trkpt lat="43.33599" lon="2.40399">
        <ele>378.8</ele>
        <time>2026-06-20T09:50:18Z</time>
      </trkpt>
      <trkpt lat="43.33595" lon="2.40391">
        <ele>378.7</ele>
        <time>2026-06-20T09:50:19Z</time>
      </trkpt>
      <trkpt lat="43.33593" lon="2.40383">
        <ele>378.7</ele>
        <time>2026-06-20T09:50:20Z</time>
      </trkpt>
      <trkpt lat="43.33591" lon="2.40375">
        <ele>378.9</ele>
        <time>2026-06-20T09:50:21Z</time>
      </trkpt>
      <trkpt lat="43.33588" lon="2.40368">
        <ele>379.3</ele>
        <time>2026-06-20T09:50:22Z</time>
      </trkpt>
      <trkpt lat="43.33584" lon="2.40363">
        <ele>380.1</ele>
        <time>2026-06-20T09:50:23Z</time>
      </trkpt>
      <trkpt lat="43.3358" lon="2.40359">
        <ele>379.7</ele>
        <time>2026-06-20T09:50:24Z</time>
      </trkpt>
      <trkpt lat="43.33577" lon="2.40353">
        <ele>379.1</ele>
        <time>2026-06-20T09:50:25Z</time>
      </trkpt>
      <trkpt lat="43.33575" lon="2.40346">
        <ele>378.4</ele>
        <time>2026-06-20T09:50:26Z</time>
      </trkpt>
      <trkpt lat="43.33574" lon="2.40338">
        <ele>377.8</ele>
        <time>2026-06-20T09:50:27Z</time>
      </trkpt>
      <trkpt lat="43.33576" lon="2.4033">
        <ele>377.3</ele>
        <time>2026-06-20T09:50:28Z</time>
      </trkpt>
      <trkpt lat="43.33581" lon="2.40314">
        <ele>377</ele>
        <time>2026-06-20T09:50:30Z</time>
      </trkpt>
      <trkpt lat="43.33585" lon="2.40305">
        <ele>376.7</ele>
        <time>2026-06-20T09:50:31Z</time>
      </trkpt>
      <trkpt lat="43.33589" lon="2.40298">
        <ele>375</ele>
        <time>2026-06-20T09:50:32Z</time>
      </trkpt>
      <trkpt lat="43.33593" lon="2.40292">
        <ele>373.6</ele>
        <time>2026-06-20T09:50:33Z</time>
      </trkpt>
      <trkpt lat="43.33598" lon="2.40288">
        <ele>372.7</ele>
        <time>2026-06-20T09:50:34Z</time>
      </trkpt>
      <trkpt lat="43.33602" lon="2.40284">
        <ele>372</ele>
        <time>2026-06-20T09:50:35Z</time>
      </trkpt>
      <trkpt lat="43.33606" lon="2.4028">
        <ele>371.5</ele>
        <time>2026-06-20T09:50:36Z</time>
      </trkpt>
      <trkpt lat="43.33608" lon="2.40274">
        <ele>370.8</ele>
        <time>2026-06-20T09:50:37Z</time>
      </trkpt>
      <trkpt lat="43.33609" lon="2.40269">
        <ele>370.1</ele>
        <time>2026-06-20T09:50:38Z</time>
      </trkpt>
      <trkpt lat="43.3361" lon="2.40264">
        <ele>369.5</ele>
        <time>2026-06-20T09:50:39Z</time>
      </trkpt>
      <trkpt lat="43.33608" lon="2.40258">
        <ele>368.8</ele>
        <time>2026-06-20T09:50:40Z</time>
      </trkpt>
      <trkpt lat="43.33604" lon="2.40245">
        <ele>366.7</ele>
        <time>2026-06-20T09:50:42Z</time>
      </trkpt>
      <trkpt lat="43.33604" lon="2.40239">
        <ele>365.3</ele>
        <time>2026-06-20T09:50:43Z</time>
      </trkpt>
      <trkpt lat="43.33604" lon="2.40233">
        <ele>364</ele>
        <time>2026-06-20T09:50:44Z</time>
      </trkpt>
      <trkpt lat="43.33606" lon="2.40227">
        <ele>362.8</ele>
        <time>2026-06-20T09:50:45Z</time>
      </trkpt>
      <trkpt lat="43.33609" lon="2.40222">
        <ele>361.8</ele>
        <time>2026-06-20T09:50:46Z</time>
      </trkpt>
      <trkpt lat="43.33613" lon="2.40218">
        <ele>360.6</ele>
        <time>2026-06-20T09:50:47Z</time>
      </trkpt>
      <trkpt lat="43.33616" lon="2.40214">
        <ele>359.3</ele>
        <time>2026-06-20T09:50:48Z</time>
      </trkpt>
      <trkpt lat="43.33616" lon="2.40209">
        <ele>357.8</ele>
        <time>2026-06-20T09:50:49Z</time>
      </trkpt>
      <trkpt lat="43.33613" lon="2.40205">
        <ele>356.7</ele>
        <time>2026-06-20T09:50:50Z</time>
      </trkpt>
      <trkpt lat="43.3361" lon="2.40202">
        <ele>356.1</ele>
        <time>2026-06-20T09:50:51Z</time>
      </trkpt>
      <trkpt lat="43.33604" lon="2.40201">
        <ele>355.7</ele>
        <time>2026-06-20T09:50:52Z</time>
      </trkpt>
      <trkpt lat="43.33598" lon="2.40201">
        <ele>355.3</ele>
        <time>2026-06-20T09:50:53Z</time>
      </trkpt>
      <trkpt lat="43.33591" lon="2.402">
        <ele>354.8</ele>
        <time>2026-06-20T09:50:54Z</time>
      </trkpt>
      <trkpt lat="43.33584" lon="2.40199">
        <ele>354.3</ele>
        <time>2026-06-20T09:50:55Z</time>
      </trkpt>
      <trkpt lat="43.33578" lon="2.40199">
        <ele>354.1</ele>
        <time>2026-06-20T09:50:56Z</time>
      </trkpt>
      <trkpt lat="43.33572" lon="2.40201">
        <ele>354.2</ele>
        <time>2026-06-20T09:50:57Z</time>
      </trkpt>
      <trkpt lat="43.33566" lon="2.40203">
        <ele>354.4</ele>
        <time>2026-06-20T09:50:58Z</time>
      </trkpt>
      <trkpt lat="43.3356" lon="2.40204">
        <ele>354.3</ele>
        <time>2026-06-20T09:50:59Z</time>
      </trkpt>
      <trkpt lat="43.33548" lon="2.40202">
        <ele>354.9</ele>
        <time>2026-06-20T09:51:01Z</time>
      </trkpt>
      <trkpt lat="43.33543" lon="2.40199">
        <ele>355.3</ele>
        <time>2026-06-20T09:51:02Z</time>
      </trkpt>
      <trkpt lat="43.33538" lon="2.40195">
        <ele>355.8</ele>
        <time>2026-06-20T09:51:03Z</time>
      </trkpt>
      <trkpt lat="43.33535" lon="2.40191">
        <ele>356.4</ele>
        <time>2026-06-20T09:51:04Z</time>
      </trkpt>
      <trkpt lat="43.33532" lon="2.40186">
        <ele>357</ele>
        <time>2026-06-20T09:51:05Z</time>
      </trkpt>
      <trkpt lat="43.33529" lon="2.4018">
        <ele>357.6</ele>
        <time>2026-06-20T09:51:06Z</time>
      </trkpt>
      <trkpt lat="43.33528" lon="2.40175">
        <ele>358</ele>
        <time>2026-06-20T09:51:07Z</time>
      </trkpt>
      <trkpt lat="43.33526" lon="2.40169">
        <ele>358.4</ele>
        <time>2026-06-20T09:51:08Z</time>
      </trkpt>
      <trkpt lat="43.33524" lon="2.40164">
        <ele>359.1</ele>
        <time>2026-06-20T09:51:09Z</time>
      </trkpt>
      <trkpt lat="43.33522" lon="2.40159">
        <ele>359.9</ele>
        <time>2026-06-20T09:51:10Z</time>
      </trkpt>
      <trkpt lat="43.3352" lon="2.40155">
        <ele>360.7</ele>
        <time>2026-06-20T09:51:11Z</time>
      </trkpt>
      <trkpt lat="43.33517" lon="2.40151">
        <ele>361.4</ele>
        <time>2026-06-20T09:51:12Z</time>
      </trkpt>
      <trkpt lat="43.33514" lon="2.40147">
        <ele>362</ele>
        <time>2026-06-20T09:51:13Z</time>
      </trkpt>
      <trkpt lat="43.33512" lon="2.40143">
        <ele>362.5</ele>
        <time>2026-06-20T09:51:14Z</time>
      </trkpt>
      <trkpt lat="43.33509" lon="2.4014">
        <ele>363</ele>
        <time>2026-06-20T09:51:15Z</time>
      </trkpt>
      <trkpt lat="43.33506" lon="2.40137">
        <ele>363.4</ele>
        <time>2026-06-20T09:51:16Z</time>
      </trkpt>
      <trkpt lat="43.33499" lon="2.40132">
        <ele>364.3</ele>
        <time>2026-06-20T09:51:18Z</time>
      </trkpt>
      <trkpt lat="43.33494" lon="2.40131">
        <ele>364.5</ele>
        <time>2026-06-20T09:51:19Z</time>
      </trkpt>
      <trkpt lat="43.3349" lon="2.40129">
        <ele>364.7</ele>
        <time>2026-06-20T09:51:20Z</time>
      </trkpt>
      <trkpt lat="43.33485" lon="2.40129">
        <ele>364.9</ele>
        <time>2026-06-20T09:51:21Z</time>
      </trkpt>
      <trkpt lat="43.3347" lon="2.40127">
        <ele>365.2</ele>
        <time>2026-06-20T09:51:24Z</time>
      </trkpt>
      <trkpt lat="43.33464" lon="2.40126">
        <ele>365.4</ele>
        <time>2026-06-20T09:51:25Z</time>
      </trkpt>
      <trkpt lat="43.33459" lon="2.40125">
        <ele>365.5</ele>
        <time>2026-06-20T09:51:26Z</time>
      </trkpt>
      <trkpt lat="43.33453" lon="2.40124">
        <ele>365.7</ele>
        <time>2026-06-20T09:51:27Z</time>
      </trkpt>
      <trkpt lat="43.33441" lon="2.4012">
        <ele>366.1</ele>
        <time>2026-06-20T09:51:29Z</time>
      </trkpt>
      <trkpt lat="43.33436" lon="2.40118">
        <ele>366.3</ele>
        <time>2026-06-20T09:51:30Z</time>
      </trkpt>
      <trkpt lat="43.33431" lon="2.40116">
        <ele>366.5</ele>
        <time>2026-06-20T09:51:31Z</time>
      </trkpt>
      <trkpt lat="43.33426" lon="2.40113">
        <ele>366.7</ele>
        <time>2026-06-20T09:51:32Z</time>
      </trkpt>
      <trkpt lat="43.33421" lon="2.40111">
        <ele>366.8</ele>
        <time>2026-06-20T09:51:33Z</time>
      </trkpt>
      <trkpt lat="43.33415" lon="2.40109">
        <ele>367.1</ele>
        <time>2026-06-20T09:51:34Z</time>
      </trkpt>
      <trkpt lat="43.33409" lon="2.40106">
        <ele>367.8</ele>
        <time>2026-06-20T09:51:35Z</time>
      </trkpt>
      <trkpt lat="43.33404" lon="2.40103">
        <ele>368.3</ele>
        <time>2026-06-20T09:51:36Z</time>
      </trkpt>
      <trkpt lat="43.334" lon="2.40102">
        <ele>368.8</ele>
        <time>2026-06-20T09:51:37Z</time>
      </trkpt>
      <trkpt lat="43.33395" lon="2.401">
        <ele>369.3</ele>
        <time>2026-06-20T09:51:38Z</time>
      </trkpt>
      <trkpt lat="43.3339" lon="2.40099">
        <ele>369.9</ele>
        <time>2026-06-20T09:51:39Z</time>
      </trkpt>
      <trkpt lat="43.33383" lon="2.40098">
        <ele>370.1</ele>
        <time>2026-06-20T09:51:40Z</time>
      </trkpt>
      <trkpt lat="43.33378" lon="2.40099">
        <ele>370.2</ele>
        <time>2026-06-20T09:51:41Z</time>
      </trkpt>
      <trkpt lat="43.33373" lon="2.40099">
        <ele>370.2</ele>
        <time>2026-06-20T09:51:42Z</time>
      </trkpt>
      <trkpt lat="43.33367" lon="2.40099">
        <ele>370.4</ele>
        <time>2026-06-20T09:51:43Z</time>
      </trkpt>
      <trkpt lat="43.33361" lon="2.40098">
        <ele>370.4</ele>
        <time>2026-06-20T09:51:44Z</time>
      </trkpt>
      <trkpt lat="43.33355" lon="2.40098">
        <ele>370.2</ele>
        <time>2026-06-20T09:51:45Z</time>
      </trkpt>
      <trkpt lat="43.33349" lon="2.40097">
        <ele>369.9</ele>
        <time>2026-06-20T09:51:46Z</time>
      </trkpt>
      <trkpt lat="43.33345" lon="2.40095">
        <ele>369.7</ele>
        <time>2026-06-20T09:51:47Z</time>
      </trkpt>
      <trkpt lat="43.33338" lon="2.40092">
        <ele>369.6</ele>
        <time>2026-06-20T09:51:48Z</time>
      </trkpt>
      <trkpt lat="43.33333" lon="2.40088">
        <ele>369.6</ele>
        <time>2026-06-20T09:51:49Z</time>
      </trkpt>
      <trkpt lat="43.33328" lon="2.40084">
        <ele>369.6</ele>
        <time>2026-06-20T09:51:50Z</time>
      </trkpt>
      <trkpt lat="43.33324" lon="2.40079">
        <ele>369.5</ele>
        <time>2026-06-20T09:51:51Z</time>
      </trkpt>
      <trkpt lat="43.33319" lon="2.40074">
        <ele>369.3</ele>
        <time>2026-06-20T09:51:52Z</time>
      </trkpt>
      <trkpt lat="43.33315" lon="2.40067">
        <ele>369.2</ele>
        <time>2026-06-20T09:51:53Z</time>
      </trkpt>
      <trkpt lat="43.33311" lon="2.4006">
        <ele>369.2</ele>
        <time>2026-06-20T09:51:54Z</time>
      </trkpt>
      <trkpt lat="43.33306" lon="2.40054">
        <ele>369.2</ele>
        <time>2026-06-20T09:51:55Z</time>
      </trkpt>
      <trkpt lat="43.33302" lon="2.40047">
        <ele>369.3</ele>
        <time>2026-06-20T09:51:56Z</time>
      </trkpt>
      <trkpt lat="43.33297" lon="2.40042">
        <ele>369.4</ele>
        <time>2026-06-20T09:51:57Z</time>
      </trkpt>
      <trkpt lat="43.33292" lon="2.40036">
        <ele>369.4</ele>
        <time>2026-06-20T09:51:58Z</time>
      </trkpt>
      <trkpt lat="43.33286" lon="2.40032">
        <ele>369.3</ele>
        <time>2026-06-20T09:51:59Z</time>
      </trkpt>
      <trkpt lat="43.3328" lon="2.40028">
        <ele>369.2</ele>
        <time>2026-06-20T09:52:00Z</time>
      </trkpt>
      <trkpt lat="43.33274" lon="2.40023">
        <ele>368.5</ele>
        <time>2026-06-20T09:52:01Z</time>
      </trkpt>
      <trkpt lat="43.33268" lon="2.40019">
        <ele>367.8</ele>
        <time>2026-06-20T09:52:02Z</time>
      </trkpt>
      <trkpt lat="43.33262" lon="2.40013">
        <ele>367.3</ele>
        <time>2026-06-20T09:52:03Z</time>
      </trkpt>
      <trkpt lat="43.33256" lon="2.40007">
        <ele>367</ele>
        <time>2026-06-20T09:52:04Z</time>
      </trkpt>
      <trkpt lat="43.3325" lon="2.4">
        <ele>367</ele>
        <time>2026-06-20T09:52:05Z</time>
      </trkpt>
      <trkpt lat="43.33245" lon="2.39993">
        <ele>365.6</ele>
        <time>2026-06-20T09:52:06Z</time>
      </trkpt>
      <trkpt lat="43.33239" lon="2.39984">
        <ele>364.3</ele>
        <time>2026-06-20T09:52:07Z</time>
      </trkpt>
      <trkpt lat="43.33232" lon="2.39976">
        <ele>363</ele>
        <time>2026-06-20T09:52:08Z</time>
      </trkpt>
      <trkpt lat="43.33226" lon="2.39967">
        <ele>362</ele>
        <time>2026-06-20T09:52:09Z</time>
      </trkpt>
      <trkpt lat="43.3322" lon="2.39957">
        <ele>360.3</ele>
        <time>2026-06-20T09:52:10Z</time>
      </trkpt>
      <trkpt lat="43.33208" lon="2.39937">
        <ele>356.7</ele>
        <time>2026-06-20T09:52:12Z</time>
      </trkpt>
      <trkpt lat="43.33197" lon="2.3992">
        <ele>354.2</ele>
        <time>2026-06-20T09:52:14Z</time>
      </trkpt>
      <trkpt lat="43.33192" lon="2.39913">
        <ele>353.2</ele>
        <time>2026-06-20T09:52:15Z</time>
      </trkpt>
      <trkpt lat="43.33187" lon="2.39906">
        <ele>351.7</ele>
        <time>2026-06-20T09:52:16Z</time>
      </trkpt>
      <trkpt lat="43.33182" lon="2.39901">
        <ele>350.2</ele>
        <time>2026-06-20T09:52:17Z</time>
      </trkpt>
      <trkpt lat="43.33178" lon="2.39896">
        <ele>349.1</ele>
        <time>2026-06-20T09:52:18Z</time>
      </trkpt>
      <trkpt lat="43.33174" lon="2.39891">
        <ele>348.1</ele>
        <time>2026-06-20T09:52:19Z</time>
      </trkpt>
      <trkpt lat="43.33169" lon="2.39889">
        <ele>346.7</ele>
        <time>2026-06-20T09:52:20Z</time>
      </trkpt>
      <trkpt lat="43.33164" lon="2.39888">
        <ele>345</ele>
        <time>2026-06-20T09:52:21Z</time>
      </trkpt>
      <trkpt lat="43.3316" lon="2.39888">
        <ele>343.5</ele>
        <time>2026-06-20T09:52:22Z</time>
      </trkpt>
      <trkpt lat="43.33157" lon="2.39888">
        <ele>342.6</ele>
        <time>2026-06-20T09:52:23Z</time>
      </trkpt>
      <trkpt lat="43.33155" lon="2.3989">
        <ele>341.7</ele>
        <time>2026-06-20T09:52:24Z</time>
      </trkpt>
      <trkpt lat="43.33152" lon="2.39889">
        <ele>340.6</ele>
        <time>2026-06-20T09:52:25Z</time>
      </trkpt>
      <trkpt lat="43.33149" lon="2.39887">
        <ele>339.4</ele>
        <time>2026-06-20T09:52:26Z</time>
      </trkpt>
      <trkpt lat="43.33145" lon="2.39885">
        <ele>338</ele>
        <time>2026-06-20T09:52:27Z</time>
      </trkpt>
      <trkpt lat="43.3314" lon="2.39883">
        <ele>336.4</ele>
        <time>2026-06-20T09:52:28Z</time>
      </trkpt>
      <trkpt lat="43.33136" lon="2.3988">
        <ele>334.7</ele>
        <time>2026-06-20T09:52:29Z</time>
      </trkpt>
      <trkpt lat="43.33133" lon="2.39876">
        <ele>333.3</ele>
        <time>2026-06-20T09:52:30Z</time>
      </trkpt>
      <trkpt lat="43.33131" lon="2.39873">
        <ele>332.6</ele>
        <time>2026-06-20T09:52:31Z</time>
      </trkpt>
      <trkpt lat="43.3313" lon="2.39868">
        <ele>331.7</ele>
        <time>2026-06-20T09:52:32Z</time>
      </trkpt>
      <trkpt lat="43.3313" lon="2.39864">
        <ele>331.7</ele>
        <time>2026-06-20T09:52:33Z</time>
      </trkpt>
      <trkpt lat="43.33131" lon="2.3986">
        <ele>332.1</ele>
        <time>2026-06-20T09:52:34Z</time>
      </trkpt>
      <trkpt lat="43.33132" lon="2.39857">
        <ele>332.6</ele>
        <time>2026-06-20T09:52:35Z</time>
      </trkpt>
      <trkpt lat="43.33133" lon="2.39855">
        <ele>333.1</ele>
        <time>2026-06-20T09:52:36Z</time>
      </trkpt>
      <trkpt lat="43.33133" lon="2.39853">
        <ele>333</ele>
        <time>2026-06-20T09:52:37Z</time>
      </trkpt>
      <trkpt lat="43.33133" lon="2.39852">
        <ele>332.8</ele>
        <time>2026-06-20T09:52:38Z</time>
      </trkpt>
      <trkpt lat="43.33132" lon="2.39852">
        <ele>332.4</ele>
        <time>2026-06-20T09:52:39Z</time>
      </trkpt>
      <trkpt lat="43.33126" lon="2.39858">
        <ele>330</ele>
        <time>2026-06-20T09:52:42Z</time>
      </trkpt>
      <trkpt lat="43.33124" lon="2.39864">
        <ele>329.1</ele>
        <time>2026-06-20T09:52:44Z</time>
      </trkpt>
      <trkpt lat="43.33123" lon="2.39867">
        <ele>328.8</ele>
        <time>2026-06-20T09:52:45Z</time>
      </trkpt>
      <trkpt lat="43.33123" lon="2.3987">
        <ele>328.7</ele>
        <time>2026-06-20T09:52:46Z</time>
      </trkpt>
      <trkpt lat="43.33122" lon="2.39872">
        <ele>328.1</ele>
        <time>2026-06-20T09:52:47Z</time>
      </trkpt>
      <trkpt lat="43.3312" lon="2.39872">
        <ele>327.4</ele>
        <time>2026-06-20T09:52:48Z</time>
      </trkpt>
      <trkpt lat="43.33118" lon="2.3987">
        <ele>326.5</ele>
        <time>2026-06-20T09:52:49Z</time>
      </trkpt>
      <trkpt lat="43.33115" lon="2.39867">
        <ele>325.1</ele>
        <time>2026-06-20T09:52:50Z</time>
      </trkpt>
      <trkpt lat="43.33111" lon="2.39864">
        <ele>323.1</ele>
        <time>2026-06-20T09:52:51Z</time>
      </trkpt>
      <trkpt lat="43.33101" lon="2.39861">
        <ele>321.5</ele>
        <time>2026-06-20T09:52:53Z</time>
      </trkpt>
      <trkpt lat="43.33096" lon="2.39863">
        <ele>321.2</ele>
        <time>2026-06-20T09:52:54Z</time>
      </trkpt>
      <trkpt lat="43.3309" lon="2.39865">
        <ele>321</ele>
        <time>2026-06-20T09:52:55Z</time>
      </trkpt>
      <trkpt lat="43.33086" lon="2.39866">
        <ele>320.6</ele>
        <time>2026-06-20T09:52:56Z</time>
      </trkpt>
      <trkpt lat="43.33081" lon="2.39866">
        <ele>321.6</ele>
        <time>2026-06-20T09:52:57Z</time>
      </trkpt>
      <trkpt lat="43.33077" lon="2.39864">
        <ele>323</ele>
        <time>2026-06-20T09:52:58Z</time>
      </trkpt>
      <trkpt lat="43.33073" lon="2.39862">
        <ele>323.9</ele>
        <time>2026-06-20T09:52:59Z</time>
      </trkpt>
      <trkpt lat="43.3307" lon="2.39859">
        <ele>324.8</ele>
        <time>2026-06-20T09:53:00Z</time>
      </trkpt>
      <trkpt lat="43.33068" lon="2.39855">
        <ele>325.3</ele>
        <time>2026-06-20T09:53:01Z</time>
      </trkpt>
      <trkpt lat="43.33066" lon="2.39853">
        <ele>325.8</ele>
        <time>2026-06-20T09:53:02Z</time>
      </trkpt>
      <trkpt lat="43.33064" lon="2.3985">
        <ele>326.2</ele>
        <time>2026-06-20T09:53:03Z</time>
      </trkpt>
      <trkpt lat="43.33061" lon="2.39847">
        <ele>326.5</ele>
        <time>2026-06-20T09:53:04Z</time>
      </trkpt>
      <trkpt lat="43.33056" lon="2.3984">
        <ele>326.7</ele>
        <time>2026-06-20T09:53:06Z</time>
      </trkpt>
      <trkpt lat="43.33041" lon="2.39808">
        <ele>328.5</ele>
        <time>2026-06-20T09:53:13Z</time>
      </trkpt>
      <trkpt lat="43.33038" lon="2.39803">
        <ele>329.1</ele>
        <time>2026-06-20T09:53:14Z</time>
      </trkpt>
      <trkpt lat="43.33032" lon="2.39795">
        <ele>330.5</ele>
        <time>2026-06-20T09:53:16Z</time>
      </trkpt>
      <trkpt lat="43.33026" lon="2.39787">
        <ele>331.7</ele>
        <time>2026-06-20T09:53:18Z</time>
      </trkpt>
      <trkpt lat="43.33023" lon="2.39783">
        <ele>331.8</ele>
        <time>2026-06-20T09:53:19Z</time>
      </trkpt>
      <trkpt lat="43.33017" lon="2.39779">
        <ele>332.9</ele>
        <time>2026-06-20T09:53:21Z</time>
      </trkpt>
      <trkpt lat="43.33014" lon="2.3978">
        <ele>333.7</ele>
        <time>2026-06-20T09:53:22Z</time>
      </trkpt>
      <trkpt lat="43.33012" lon="2.39781">
        <ele>334.3</ele>
        <time>2026-06-20T09:53:23Z</time>
      </trkpt>
      <trkpt lat="43.3301" lon="2.39781">
        <ele>334.8</ele>
        <time>2026-06-20T09:53:24Z</time>
      </trkpt>
      <trkpt lat="43.33007" lon="2.39781">
        <ele>335.4</ele>
        <time>2026-06-20T09:53:25Z</time>
      </trkpt>
      <trkpt lat="43.33005" lon="2.39779">
        <ele>335.9</ele>
        <time>2026-06-20T09:53:26Z</time>
      </trkpt>
      <trkpt lat="43.33002" lon="2.39778">
        <ele>336.5</ele>
        <time>2026-06-20T09:53:27Z</time>
      </trkpt>
      <trkpt lat="43.32999" lon="2.39777">
        <ele>336.8</ele>
        <time>2026-06-20T09:53:28Z</time>
      </trkpt>
      <trkpt lat="43.32996" lon="2.39776">
        <ele>336.4</ele>
        <time>2026-06-20T09:53:29Z</time>
      </trkpt>
      <trkpt lat="43.32991" lon="2.39776">
        <ele>335.9</ele>
        <time>2026-06-20T09:53:30Z</time>
      </trkpt>
      <trkpt lat="43.32988" lon="2.39777">
        <ele>335.6</ele>
        <time>2026-06-20T09:53:31Z</time>
      </trkpt>
      <trkpt lat="43.32983" lon="2.39779">
        <ele>335.2</ele>
        <time>2026-06-20T09:53:32Z</time>
      </trkpt>
      <trkpt lat="43.32977" lon="2.39783">
        <ele>334.8</ele>
        <time>2026-06-20T09:53:33Z</time>
      </trkpt>
      <trkpt lat="43.32972" lon="2.39785">
        <ele>334.5</ele>
        <time>2026-06-20T09:53:34Z</time>
      </trkpt>
      <trkpt lat="43.32966" lon="2.39788">
        <ele>334.3</ele>
        <time>2026-06-20T09:53:35Z</time>
      </trkpt>
      <trkpt lat="43.3296" lon="2.3979">
        <ele>334</ele>
        <time>2026-06-20T09:53:36Z</time>
      </trkpt>
      <trkpt lat="43.32954" lon="2.39791">
        <ele>333.7</ele>
        <time>2026-06-20T09:53:37Z</time>
      </trkpt>
      <trkpt lat="43.32949" lon="2.39792">
        <ele>333.4</ele>
        <time>2026-06-20T09:53:38Z</time>
      </trkpt>
      <trkpt lat="43.32942" lon="2.39791">
        <ele>333</ele>
        <time>2026-06-20T09:53:39Z</time>
      </trkpt>
      <trkpt lat="43.32938" lon="2.39788">
        <ele>332.9</ele>
        <time>2026-06-20T09:53:40Z</time>
      </trkpt>
      <trkpt lat="43.32932" lon="2.39784">
        <ele>332.8</ele>
        <time>2026-06-20T09:53:41Z</time>
      </trkpt>
      <trkpt lat="43.32925" lon="2.39781">
        <ele>332.8</ele>
        <time>2026-06-20T09:53:42Z</time>
      </trkpt>
      <trkpt lat="43.3292" lon="2.39778">
        <ele>332.9</ele>
        <time>2026-06-20T09:53:43Z</time>
      </trkpt>
      <trkpt lat="43.32915" lon="2.39777">
        <ele>333</ele>
        <time>2026-06-20T09:53:44Z</time>
      </trkpt>
      <trkpt lat="43.32908" lon="2.39775">
        <ele>333.1</ele>
        <time>2026-06-20T09:53:45Z</time>
      </trkpt>
      <trkpt lat="43.32902" lon="2.39773">
        <ele>333.3</ele>
        <time>2026-06-20T09:53:46Z</time>
      </trkpt>
      <trkpt lat="43.32897" lon="2.39771">
        <ele>333.4</ele>
        <time>2026-06-20T09:53:47Z</time>
      </trkpt>
      <trkpt lat="43.32892" lon="2.3977">
        <ele>333.6</ele>
        <time>2026-06-20T09:53:48Z</time>
      </trkpt>
      <trkpt lat="43.32886" lon="2.39769">
        <ele>333.8</ele>
        <time>2026-06-20T09:53:49Z</time>
      </trkpt>
      <trkpt lat="43.3288" lon="2.39768">
        <ele>334.1</ele>
        <time>2026-06-20T09:53:50Z</time>
      </trkpt>
      <trkpt lat="43.32875" lon="2.39767">
        <ele>334.3</ele>
        <time>2026-06-20T09:53:51Z</time>
      </trkpt>
      <trkpt lat="43.32868" lon="2.39766">
        <ele>334.7</ele>
        <time>2026-06-20T09:53:52Z</time>
      </trkpt>
      <trkpt lat="43.32863" lon="2.39765">
        <ele>334.9</ele>
        <time>2026-06-20T09:53:53Z</time>
      </trkpt>
      <trkpt lat="43.32858" lon="2.39764">
        <ele>335</ele>
        <time>2026-06-20T09:53:54Z</time>
      </trkpt>
      <trkpt lat="43.32851" lon="2.39764">
        <ele>335</ele>
        <time>2026-06-20T09:53:55Z</time>
      </trkpt>
      <trkpt lat="43.32823" lon="2.39764">
        <ele>334.6</ele>
        <time>2026-06-20T09:54:00Z</time>
      </trkpt>
      <trkpt lat="43.32772" lon="2.3975">
        <ele>333</ele>
        <time>2026-06-20T09:54:08Z</time>
      </trkpt>
      <trkpt lat="43.32733" lon="2.3973">
        <ele>333</ele>
        <time>2026-06-20T09:54:15Z</time>
      </trkpt>
      <trkpt lat="43.32726" lon="2.39725">
        <ele>333</ele>
        <time>2026-06-20T09:54:16Z</time>
      </trkpt>
      <trkpt lat="43.3272" lon="2.39721">
        <ele>333</ele>
        <time>2026-06-20T09:54:17Z</time>
      </trkpt>
      <trkpt lat="43.32716" lon="2.39718">
        <ele>333</ele>
        <time>2026-06-20T09:54:18Z</time>
      </trkpt>
      <trkpt lat="43.3271" lon="2.39713">
        <ele>333</ele>
        <time>2026-06-20T09:54:19Z</time>
      </trkpt>
      <trkpt lat="43.32695" lon="2.39701">
        <ele>333</ele>
        <time>2026-06-20T09:54:22Z</time>
      </trkpt>
      <trkpt lat="43.32689" lon="2.39697">
        <ele>333.2</ele>
        <time>2026-06-20T09:54:23Z</time>
      </trkpt>
      <trkpt lat="43.32678" lon="2.39691">
        <ele>333.5</ele>
        <time>2026-06-20T09:54:25Z</time>
      </trkpt>
      <trkpt lat="43.32672" lon="2.3969">
        <ele>333.6</ele>
        <time>2026-06-20T09:54:26Z</time>
      </trkpt>
      <trkpt lat="43.32668" lon="2.39691">
        <ele>333.8</ele>
        <time>2026-06-20T09:54:27Z</time>
      </trkpt>
      <trkpt lat="43.32664" lon="2.39695">
        <ele>333.8</ele>
        <time>2026-06-20T09:54:28Z</time>
      </trkpt>
      <trkpt lat="43.32663" lon="2.39701">
        <ele>333.7</ele>
        <time>2026-06-20T09:54:29Z</time>
      </trkpt>
      <trkpt lat="43.32663" lon="2.39707">
        <ele>333.7</ele>
        <time>2026-06-20T09:54:30Z</time>
      </trkpt>
      <trkpt lat="43.32662" lon="2.39714">
        <ele>333.7</ele>
        <time>2026-06-20T09:54:31Z</time>
      </trkpt>
      <trkpt lat="43.32661" lon="2.39717">
        <ele>333.6</ele>
        <time>2026-06-20T09:54:32Z</time>
      </trkpt>
      <trkpt lat="43.32658" lon="2.39719">
        <ele>333.4</ele>
        <time>2026-06-20T09:54:33Z</time>
      </trkpt>
      <trkpt lat="43.32654" lon="2.3972">
        <ele>333.1</ele>
        <time>2026-06-20T09:54:34Z</time>
      </trkpt>
      <trkpt lat="43.32648" lon="2.39719">
        <ele>332.7</ele>
        <time>2026-06-20T09:54:35Z</time>
      </trkpt>
      <trkpt lat="43.32644" lon="2.39717">
        <ele>332.3</ele>
        <time>2026-06-20T09:54:36Z</time>
      </trkpt>
      <trkpt lat="43.32639" lon="2.39714">
        <ele>332</ele>
        <time>2026-06-20T09:54:37Z</time>
      </trkpt>
      <trkpt lat="43.32634" lon="2.3971">
        <ele>331.3</ele>
        <time>2026-06-20T09:54:38Z</time>
      </trkpt>
      <trkpt lat="43.32629" lon="2.39706">
        <ele>330.6</ele>
        <time>2026-06-20T09:54:39Z</time>
      </trkpt>
      <trkpt lat="43.32618" lon="2.39698">
        <ele>329</ele>
        <time>2026-06-20T09:54:41Z</time>
      </trkpt>
      <trkpt lat="43.32614" lon="2.39698">
        <ele>328.4</ele>
        <time>2026-06-20T09:54:42Z</time>
      </trkpt>
      <trkpt lat="43.32608" lon="2.39699">
        <ele>327.9</ele>
        <time>2026-06-20T09:54:43Z</time>
      </trkpt>
      <trkpt lat="43.326" lon="2.39702">
        <ele>327.6</ele>
        <time>2026-06-20T09:54:44Z</time>
      </trkpt>
      <trkpt lat="43.32593" lon="2.39704">
        <ele>327.3</ele>
        <time>2026-06-20T09:54:45Z</time>
      </trkpt>
      <trkpt lat="43.32586" lon="2.39706">
        <ele>327.1</ele>
        <time>2026-06-20T09:54:46Z</time>
      </trkpt>
      <trkpt lat="43.32579" lon="2.39709">
        <ele>326.7</ele>
        <time>2026-06-20T09:54:47Z</time>
      </trkpt>
      <trkpt lat="43.32573" lon="2.39711">
        <ele>326.3</ele>
        <time>2026-06-20T09:54:48Z</time>
      </trkpt>
      <trkpt lat="43.32567" lon="2.39711">
        <ele>325.8</ele>
        <time>2026-06-20T09:54:49Z</time>
      </trkpt>
      <trkpt lat="43.32559" lon="2.3971">
        <ele>325.2</ele>
        <time>2026-06-20T09:54:50Z</time>
      </trkpt>
      <trkpt lat="43.32553" lon="2.39708">
        <ele>324.9</ele>
        <time>2026-06-20T09:54:51Z</time>
      </trkpt>
      <trkpt lat="43.32551" lon="2.39705">
        <ele>324.7</ele>
        <time>2026-06-20T09:54:52Z</time>
      </trkpt>
      <trkpt lat="43.32547" lon="2.39702">
        <ele>324.5</ele>
        <time>2026-06-20T09:54:53Z</time>
      </trkpt>
      <trkpt lat="43.32542" lon="2.397">
        <ele>324.1</ele>
        <time>2026-06-20T09:54:54Z</time>
      </trkpt>
      <trkpt lat="43.32538" lon="2.39699">
        <ele>323.8</ele>
        <time>2026-06-20T09:54:55Z</time>
      </trkpt>
      <trkpt lat="43.32533" lon="2.39695">
        <ele>323.4</ele>
        <time>2026-06-20T09:54:56Z</time>
      </trkpt>
      <trkpt lat="43.32528" lon="2.39685">
        <ele>322.7</ele>
        <time>2026-06-20T09:54:58Z</time>
      </trkpt>
      <trkpt lat="43.32524" lon="2.39679">
        <ele>322.1</ele>
        <time>2026-06-20T09:54:59Z</time>
      </trkpt>
      <trkpt lat="43.3252" lon="2.39676">
        <ele>321.7</ele>
        <time>2026-06-20T09:55:00Z</time>
      </trkpt>
      <trkpt lat="43.32518" lon="2.39676">
        <ele>321.5</ele>
        <time>2026-06-20T09:55:01Z</time>
      </trkpt>
      <trkpt lat="43.32515" lon="2.3968">
        <ele>321.3</ele>
        <time>2026-06-20T09:55:02Z</time>
      </trkpt>
      <trkpt lat="43.32511" lon="2.39698">
        <ele>321.2</ele>
        <time>2026-06-20T09:55:05Z</time>
      </trkpt>
      <trkpt lat="43.32507" lon="2.39702">
        <ele>320.8</ele>
        <time>2026-06-20T09:55:06Z</time>
      </trkpt>
      <trkpt lat="43.32503" lon="2.39703">
        <ele>320.4</ele>
        <time>2026-06-20T09:55:07Z</time>
      </trkpt>
      <trkpt lat="43.32497" lon="2.39704">
        <ele>319.7</ele>
        <time>2026-06-20T09:55:08Z</time>
      </trkpt>
      <trkpt lat="43.32494" lon="2.39702">
        <ele>319.4</ele>
        <time>2026-06-20T09:55:09Z</time>
      </trkpt>
      <trkpt lat="43.32493" lon="2.39697">
        <ele>319.2</ele>
        <time>2026-06-20T09:55:10Z</time>
      </trkpt>
      <trkpt lat="43.32492" lon="2.39689">
        <ele>319.1</ele>
        <time>2026-06-20T09:55:11Z</time>
      </trkpt>
      <trkpt lat="43.32491" lon="2.39683">
        <ele>318.9</ele>
        <time>2026-06-20T09:55:12Z</time>
      </trkpt>
      <trkpt lat="43.32486" lon="2.39676">
        <ele>318.2</ele>
        <time>2026-06-20T09:55:14Z</time>
      </trkpt>
      <trkpt lat="43.32482" lon="2.39676">
        <ele>317.7</ele>
        <time>2026-06-20T09:55:15Z</time>
      </trkpt>
      <trkpt lat="43.32478" lon="2.39679">
        <ele>317.1</ele>
        <time>2026-06-20T09:55:16Z</time>
      </trkpt>
      <trkpt lat="43.32473" lon="2.39685">
        <ele>316.8</ele>
        <time>2026-06-20T09:55:17Z</time>
      </trkpt>
      <trkpt lat="43.32469" lon="2.3969">
        <ele>316.5</ele>
        <time>2026-06-20T09:55:18Z</time>
      </trkpt>
      <trkpt lat="43.32463" lon="2.39695">
        <ele>316</ele>
        <time>2026-06-20T09:55:19Z</time>
      </trkpt>
      <trkpt lat="43.3245" lon="2.39696">
        <ele>314.6</ele>
        <time>2026-06-20T09:55:21Z</time>
      </trkpt>
      <trkpt lat="43.32445" lon="2.39694">
        <ele>314</ele>
        <time>2026-06-20T09:55:22Z</time>
      </trkpt>
      <trkpt lat="43.32438" lon="2.39693">
        <ele>313.3</ele>
        <time>2026-06-20T09:55:23Z</time>
      </trkpt>
      <trkpt lat="43.32433" lon="2.39696">
        <ele>312.8</ele>
        <time>2026-06-20T09:55:24Z</time>
      </trkpt>
      <trkpt lat="43.32432" lon="2.397">
        <ele>312.7</ele>
        <time>2026-06-20T09:55:25Z</time>
      </trkpt>
      <trkpt lat="43.32432" lon="2.39704">
        <ele>312.6</ele>
        <time>2026-06-20T09:55:26Z</time>
      </trkpt>
      <trkpt lat="43.3243" lon="2.39708">
        <ele>312.5</ele>
        <time>2026-06-20T09:55:27Z</time>
      </trkpt>
      <trkpt lat="43.32427" lon="2.39709">
        <ele>312.1</ele>
        <time>2026-06-20T09:55:28Z</time>
      </trkpt>
      <trkpt lat="43.32413" lon="2.39708">
        <ele>310.6</ele>
        <time>2026-06-20T09:55:31Z</time>
      </trkpt>
      <trkpt lat="43.32408" lon="2.39708">
        <ele>310.1</ele>
        <time>2026-06-20T09:55:32Z</time>
      </trkpt>
      <trkpt lat="43.32391" lon="2.397">
        <ele>308.2</ele>
        <time>2026-06-20T09:55:35Z</time>
      </trkpt>
      <trkpt lat="43.32388" lon="2.39695">
        <ele>307.9</ele>
        <time>2026-06-20T09:55:36Z</time>
      </trkpt>
      <trkpt lat="43.32384" lon="2.39691">
        <ele>307.3</ele>
        <time>2026-06-20T09:55:37Z</time>
      </trkpt>
      <trkpt lat="43.32379" lon="2.39688">
        <ele>306.7</ele>
        <time>2026-06-20T09:55:38Z</time>
      </trkpt>
      <trkpt lat="43.32374" lon="2.39689">
        <ele>306.2</ele>
        <time>2026-06-20T09:55:39Z</time>
      </trkpt>
      <trkpt lat="43.3237" lon="2.39693">
        <ele>305.9</ele>
        <time>2026-06-20T09:55:40Z</time>
      </trkpt>
      <trkpt lat="43.32366" lon="2.39698">
        <ele>305.6</ele>
        <time>2026-06-20T09:55:41Z</time>
      </trkpt>
      <trkpt lat="43.32361" lon="2.39702">
        <ele>305.2</ele>
        <time>2026-06-20T09:55:42Z</time>
      </trkpt>
      <trkpt lat="43.32354" lon="2.39707">
        <ele>304.6</ele>
        <time>2026-06-20T09:55:43Z</time>
      </trkpt>
      <trkpt lat="43.3235" lon="2.39709">
        <ele>304.1</ele>
        <time>2026-06-20T09:55:44Z</time>
      </trkpt>
      <trkpt lat="43.32342" lon="2.3971">
        <ele>303.1</ele>
        <time>2026-06-20T09:55:45Z</time>
      </trkpt>
      <trkpt lat="43.32337" lon="2.39707">
        <ele>302.5</ele>
        <time>2026-06-20T09:55:46Z</time>
      </trkpt>
      <trkpt lat="43.32332" lon="2.39704">
        <ele>301.9</ele>
        <time>2026-06-20T09:55:47Z</time>
      </trkpt>
      <trkpt lat="43.32325" lon="2.39701">
        <ele>301.4</ele>
        <time>2026-06-20T09:55:48Z</time>
      </trkpt>
      <trkpt lat="43.3232" lon="2.397">
        <ele>301.1</ele>
        <time>2026-06-20T09:55:49Z</time>
      </trkpt>
      <trkpt lat="43.32314" lon="2.39698">
        <ele>300.6</ele>
        <time>2026-06-20T09:55:50Z</time>
      </trkpt>
      <trkpt lat="43.32304" lon="2.39692">
        <ele>299.8</ele>
        <time>2026-06-20T09:55:52Z</time>
      </trkpt>
      <trkpt lat="43.32301" lon="2.39693">
        <ele>299.5</ele>
        <time>2026-06-20T09:55:53Z</time>
      </trkpt>
      <trkpt lat="43.32297" lon="2.39696">
        <ele>299</ele>
        <time>2026-06-20T09:55:54Z</time>
      </trkpt>
      <trkpt lat="43.32292" lon="2.39701">
        <ele>298.5</ele>
        <time>2026-06-20T09:55:55Z</time>
      </trkpt>
      <trkpt lat="43.32291" lon="2.39707">
        <ele>298.4</ele>
        <time>2026-06-20T09:55:56Z</time>
      </trkpt>
      <trkpt lat="43.32291" lon="2.39712">
        <ele>298.5</ele>
        <time>2026-06-20T09:55:57Z</time>
      </trkpt>
      <trkpt lat="43.3229" lon="2.39726">
        <ele>298.3</ele>
        <time>2026-06-20T09:55:59Z</time>
      </trkpt>
      <trkpt lat="43.32287" lon="2.39731">
        <ele>298</ele>
        <time>2026-06-20T09:56:00Z</time>
      </trkpt>
      <trkpt lat="43.32283" lon="2.39736">
        <ele>297.5</ele>
        <time>2026-06-20T09:56:01Z</time>
      </trkpt>
      <trkpt lat="43.32282" lon="2.39741">
        <ele>297.4</ele>
        <time>2026-06-20T09:56:02Z</time>
      </trkpt>
      <trkpt lat="43.32282" lon="2.39746">
        <ele>297.5</ele>
        <time>2026-06-20T09:56:03Z</time>
      </trkpt>
      <trkpt lat="43.32282" lon="2.39754">
        <ele>297.4</ele>
        <time>2026-06-20T09:56:04Z</time>
      </trkpt>
      <trkpt lat="43.32282" lon="2.39761">
        <ele>297.4</ele>
        <time>2026-06-20T09:56:05Z</time>
      </trkpt>
      <trkpt lat="43.32282" lon="2.39768">
        <ele>297.3</ele>
        <time>2026-06-20T09:56:06Z</time>
      </trkpt>
      <trkpt lat="43.32281" lon="2.39776">
        <ele>297.2</ele>
        <time>2026-06-20T09:56:07Z</time>
      </trkpt>
      <trkpt lat="43.32281" lon="2.39782">
        <ele>297.1</ele>
        <time>2026-06-20T09:56:08Z</time>
      </trkpt>
      <trkpt lat="43.32282" lon="2.39786">
        <ele>297</ele>
        <time>2026-06-20T09:56:09Z</time>
      </trkpt>
      <trkpt lat="43.32282" lon="2.39793">
        <ele>296.7</ele>
        <time>2026-06-20T09:56:10Z</time>
      </trkpt>
      <trkpt lat="43.32282" lon="2.398">
        <ele>296.5</ele>
        <time>2026-06-20T09:56:11Z</time>
      </trkpt>
      <trkpt lat="43.32282" lon="2.39813">
        <ele>295</ele>
        <time>2026-06-20T09:56:13Z</time>
      </trkpt>
      <trkpt lat="43.32282" lon="2.39818">
        <ele>294.1</ele>
        <time>2026-06-20T09:56:14Z</time>
      </trkpt>
      <trkpt lat="43.32281" lon="2.39823">
        <ele>293.1</ele>
        <time>2026-06-20T09:56:15Z</time>
      </trkpt>
      <trkpt lat="43.3228" lon="2.39828">
        <ele>292.1</ele>
        <time>2026-06-20T09:56:16Z</time>
      </trkpt>
      <trkpt lat="43.3228" lon="2.39831">
        <ele>291.5</ele>
        <time>2026-06-20T09:56:17Z</time>
      </trkpt>
      <trkpt lat="43.3228" lon="2.39834">
        <ele>291</ele>
        <time>2026-06-20T09:56:18Z</time>
      </trkpt>
      <trkpt lat="43.32281" lon="2.39837">
        <ele>290.3</ele>
        <time>2026-06-20T09:56:19Z</time>
      </trkpt>
      <trkpt lat="43.32281" lon="2.39841">
        <ele>289.4</ele>
        <time>2026-06-20T09:56:20Z</time>
      </trkpt>
      <trkpt lat="43.3228" lon="2.39845">
        <ele>288.6</ele>
        <time>2026-06-20T09:56:21Z</time>
      </trkpt>
      <trkpt lat="43.32278" lon="2.39848">
        <ele>288</ele>
        <time>2026-06-20T09:56:22Z</time>
      </trkpt>
      <trkpt lat="43.32275" lon="2.39849">
        <ele>287.2</ele>
        <time>2026-06-20T09:56:23Z</time>
      </trkpt>
      <trkpt lat="43.32271" lon="2.39849">
        <ele>286.9</ele>
        <time>2026-06-20T09:56:24Z</time>
      </trkpt>
      <trkpt lat="43.32269" lon="2.39849">
        <ele>286.7</ele>
        <time>2026-06-20T09:56:25Z</time>
      </trkpt>
      <trkpt lat="43.32266" lon="2.39848">
        <ele>286.4</ele>
        <time>2026-06-20T09:56:26Z</time>
      </trkpt>
      <trkpt lat="43.32264" lon="2.39848">
        <ele>286.1</ele>
        <time>2026-06-20T09:56:27Z</time>
      </trkpt>
      <trkpt lat="43.32259" lon="2.39848">
        <ele>285.6</ele>
        <time>2026-06-20T09:56:29Z</time>
      </trkpt>
      <trkpt lat="43.32257" lon="2.39849">
        <ele>285.1</ele>
        <time>2026-06-20T09:56:30Z</time>
      </trkpt>
      <trkpt lat="43.32255" lon="2.39852">
        <ele>284.5</ele>
        <time>2026-06-20T09:56:31Z</time>
      </trkpt>
      <trkpt lat="43.32253" lon="2.39853">
        <ele>284.2</ele>
        <time>2026-06-20T09:56:32Z</time>
      </trkpt>
      <trkpt lat="43.3225" lon="2.39851">
        <ele>284.1</ele>
        <time>2026-06-20T09:56:33Z</time>
      </trkpt>
      <trkpt lat="43.32241" lon="2.39833">
        <ele>284.4</ele>
        <time>2026-06-20T09:56:37Z</time>
      </trkpt>
      <trkpt lat="43.32239" lon="2.39827">
        <ele>284.5</ele>
        <time>2026-06-20T09:56:38Z</time>
      </trkpt>
      <trkpt lat="43.32238" lon="2.39823">
        <ele>284.5</ele>
        <time>2026-06-20T09:56:39Z</time>
      </trkpt>
      <trkpt lat="43.32236" lon="2.39818">
        <ele>284.2</ele>
        <time>2026-06-20T09:56:40Z</time>
      </trkpt>
      <trkpt lat="43.32233" lon="2.39813">
        <ele>283.5</ele>
        <time>2026-06-20T09:56:41Z</time>
      </trkpt>
      <trkpt lat="43.32231" lon="2.39807">
        <ele>282.8</ele>
        <time>2026-06-20T09:56:42Z</time>
      </trkpt>
      <trkpt lat="43.32224" lon="2.39787">
        <ele>279.6</ele>
        <time>2026-06-20T09:56:45Z</time>
      </trkpt>
      <trkpt lat="43.32222" lon="2.39783">
        <ele>279</ele>
        <time>2026-06-20T09:56:46Z</time>
      </trkpt>
      <trkpt lat="43.32219" lon="2.39779">
        <ele>279.4</ele>
        <time>2026-06-20T09:56:47Z</time>
      </trkpt>
      <trkpt lat="43.32216" lon="2.39773">
        <ele>279.8</ele>
        <time>2026-06-20T09:56:48Z</time>
      </trkpt>
      <trkpt lat="43.32214" lon="2.39766">
        <ele>280</ele>
        <time>2026-06-20T09:56:49Z</time>
      </trkpt>
      <trkpt lat="43.32212" lon="2.39762">
        <ele>280.1</ele>
        <time>2026-06-20T09:56:50Z</time>
      </trkpt>
      <trkpt lat="43.3221" lon="2.39757">
        <ele>280.1</ele>
        <time>2026-06-20T09:56:51Z</time>
      </trkpt>
      <trkpt lat="43.32208" lon="2.39753">
        <ele>280.1</ele>
        <time>2026-06-20T09:56:52Z</time>
      </trkpt>
      <trkpt lat="43.32208" lon="2.39748">
        <ele>279.9</ele>
        <time>2026-06-20T09:56:53Z</time>
      </trkpt>
      <trkpt lat="43.32208" lon="2.39742">
        <ele>279.7</ele>
        <time>2026-06-20T09:56:54Z</time>
      </trkpt>
      <trkpt lat="43.32209" lon="2.39738">
        <ele>279.5</ele>
        <time>2026-06-20T09:56:55Z</time>
      </trkpt>
      <trkpt lat="43.3221" lon="2.39734">
        <ele>279.4</ele>
        <time>2026-06-20T09:56:56Z</time>
      </trkpt>
      <trkpt lat="43.3221" lon="2.39729">
        <ele>279.1</ele>
        <time>2026-06-20T09:56:57Z</time>
      </trkpt>
      <trkpt lat="43.32211" lon="2.39725">
        <ele>278.9</ele>
        <time>2026-06-20T09:56:58Z</time>
      </trkpt>
      <trkpt lat="43.32216" lon="2.39715">
        <ele>277.6</ele>
        <time>2026-06-20T09:57:00Z</time>
      </trkpt>
      <trkpt lat="43.32216" lon="2.3971">
        <ele>277</ele>
        <time>2026-06-20T09:57:01Z</time>
      </trkpt>
      <trkpt lat="43.32217" lon="2.39706">
        <ele>276.4</ele>
        <time>2026-06-20T09:57:02Z</time>
      </trkpt>
      <trkpt lat="43.32216" lon="2.39701">
        <ele>275.8</ele>
        <time>2026-06-20T09:57:03Z</time>
      </trkpt>
      <trkpt lat="43.32216" lon="2.39695">
        <ele>275.2</ele>
        <time>2026-06-20T09:57:04Z</time>
      </trkpt>
      <trkpt lat="43.32215" lon="2.3969">
        <ele>275.1</ele>
        <time>2026-06-20T09:57:05Z</time>
      </trkpt>
      <trkpt lat="43.32215" lon="2.39687">
        <ele>275.1</ele>
        <time>2026-06-20T09:57:06Z</time>
      </trkpt>
      <trkpt lat="43.32214" lon="2.39681">
        <ele>274.9</ele>
        <time>2026-06-20T09:57:07Z</time>
      </trkpt>
      <trkpt lat="43.3221" lon="2.3966">
        <ele>273.9</ele>
        <time>2026-06-20T09:57:11Z</time>
      </trkpt>
      <trkpt lat="43.3221" lon="2.39655">
        <ele>273.6</ele>
        <time>2026-06-20T09:57:12Z</time>
      </trkpt>
      <trkpt lat="43.32209" lon="2.3965">
        <ele>273.1</ele>
        <time>2026-06-20T09:57:13Z</time>
      </trkpt>
      <trkpt lat="43.32209" lon="2.39646">
        <ele>272.6</ele>
        <time>2026-06-20T09:57:14Z</time>
      </trkpt>
      <trkpt lat="43.32208" lon="2.3964">
        <ele>272.1</ele>
        <time>2026-06-20T09:57:15Z</time>
      </trkpt>
      <trkpt lat="43.32209" lon="2.39635">
        <ele>271.7</ele>
        <time>2026-06-20T09:57:16Z</time>
      </trkpt>
      <trkpt lat="43.32208" lon="2.39632">
        <ele>271.4</ele>
        <time>2026-06-20T09:57:17Z</time>
      </trkpt>
      <trkpt lat="43.32207" lon="2.39628">
        <ele>270.7</ele>
        <time>2026-06-20T09:57:18Z</time>
      </trkpt>
      <trkpt lat="43.32207" lon="2.39625">
        <ele>270.4</ele>
        <time>2026-06-20T09:57:19Z</time>
      </trkpt>
      <trkpt lat="43.32208" lon="2.3962">
        <ele>270.4</ele>
        <time>2026-06-20T09:57:20Z</time>
      </trkpt>
      <trkpt lat="43.32208" lon="2.39616">
        <ele>270.2</ele>
        <time>2026-06-20T09:57:21Z</time>
      </trkpt>
      <trkpt lat="43.32206" lon="2.39608">
        <ele>269.2</ele>
        <time>2026-06-20T09:57:23Z</time>
      </trkpt>
      <trkpt lat="43.32205" lon="2.39605">
        <ele>268.9</ele>
        <time>2026-06-20T09:57:24Z</time>
      </trkpt>
      <trkpt lat="43.32205" lon="2.39601">
        <ele>269.1</ele>
        <time>2026-06-20T09:57:25Z</time>
      </trkpt>
      <trkpt lat="43.32204" lon="2.39597">
        <ele>269.3</ele>
        <time>2026-06-20T09:57:26Z</time>
      </trkpt>
      <trkpt lat="43.32203" lon="2.39593">
        <ele>269.1</ele>
        <time>2026-06-20T09:57:27Z</time>
      </trkpt>
      <trkpt lat="43.32201" lon="2.3959">
        <ele>268.5</ele>
        <time>2026-06-20T09:57:28Z</time>
      </trkpt>
      <trkpt lat="43.32198" lon="2.3959">
        <ele>267.6</ele>
        <time>2026-06-20T09:57:29Z</time>
      </trkpt>
      <trkpt lat="43.32197" lon="2.3959">
        <ele>266.9</ele>
        <time>2026-06-20T09:57:30Z</time>
      </trkpt>
      <trkpt lat="43.32194" lon="2.39592">
        <ele>265.8</ele>
        <time>2026-06-20T09:57:31Z</time>
      </trkpt>
      <trkpt lat="43.32184" lon="2.39595">
        <ele>264</ele>
        <time>2026-06-20T09:57:34Z</time>
      </trkpt>
      <trkpt lat="43.3218" lon="2.39594">
        <ele>263.5</ele>
        <time>2026-06-20T09:57:35Z</time>
      </trkpt>
      <trkpt lat="43.32177" lon="2.39589">
        <ele>262.5</ele>
        <time>2026-06-20T09:57:36Z</time>
      </trkpt>
      <trkpt lat="43.32173" lon="2.39584">
        <ele>260.7</ele>
        <time>2026-06-20T09:57:37Z</time>
      </trkpt>
      <trkpt lat="43.3217" lon="2.3958">
        <ele>260.6</ele>
        <time>2026-06-20T09:57:38Z</time>
      </trkpt>
      <trkpt lat="43.32168" lon="2.39577">
        <ele>260.4</ele>
        <time>2026-06-20T09:57:39Z</time>
      </trkpt>
      <trkpt lat="43.32167" lon="2.39575">
        <ele>260.2</ele>
        <time>2026-06-20T09:57:40Z</time>
      </trkpt>
      <trkpt lat="43.32165" lon="2.39572">
        <ele>260.4</ele>
        <time>2026-06-20T09:57:41Z</time>
      </trkpt>
      <trkpt lat="43.32163" lon="2.39567">
        <ele>260.9</ele>
        <time>2026-06-20T09:57:42Z</time>
      </trkpt>
      <trkpt lat="43.32161" lon="2.39564">
        <ele>260.9</ele>
        <time>2026-06-20T09:57:43Z</time>
      </trkpt>
      <trkpt lat="43.32157" lon="2.3956">
        <ele>260.8</ele>
        <time>2026-06-20T09:57:45Z</time>
      </trkpt>
      <trkpt lat="43.32155" lon="2.39558">
        <ele>260.7</ele>
        <time>2026-06-20T09:57:46Z</time>
      </trkpt>
      <trkpt lat="43.32153" lon="2.39556">
        <ele>260.5</ele>
        <time>2026-06-20T09:57:47Z</time>
      </trkpt>
      <trkpt lat="43.32147" lon="2.39554">
        <ele>260</ele>
        <time>2026-06-20T09:57:49Z</time>
      </trkpt>
      <trkpt lat="43.32144" lon="2.39554">
        <ele>259.4</ele>
        <time>2026-06-20T09:57:50Z</time>
      </trkpt>
      <trkpt lat="43.3214" lon="2.39555">
        <ele>258.4</ele>
        <time>2026-06-20T09:57:51Z</time>
      </trkpt>
      <trkpt lat="43.32136" lon="2.39556">
        <ele>257.2</ele>
        <time>2026-06-20T09:57:52Z</time>
      </trkpt>
      <trkpt lat="43.32133" lon="2.39556">
        <ele>256.1</ele>
        <time>2026-06-20T09:57:53Z</time>
      </trkpt>
      <trkpt lat="43.32129" lon="2.39556">
        <ele>255.1</ele>
        <time>2026-06-20T09:57:54Z</time>
      </trkpt>
      <trkpt lat="43.32126" lon="2.39555">
        <ele>254.5</ele>
        <time>2026-06-20T09:57:55Z</time>
      </trkpt>
      <trkpt lat="43.32123" lon="2.39555">
        <ele>253.6</ele>
        <time>2026-06-20T09:57:56Z</time>
      </trkpt>
      <trkpt lat="43.32113" lon="2.39558">
        <ele>250.2</ele>
        <time>2026-06-20T09:57:59Z</time>
      </trkpt>
      <trkpt lat="43.32107" lon="2.39557">
        <ele>248.2</ele>
        <time>2026-06-20T09:58:01Z</time>
      </trkpt>
      <trkpt lat="43.32104" lon="2.39555">
        <ele>247.3</ele>
        <time>2026-06-20T09:58:02Z</time>
      </trkpt>
      <trkpt lat="43.32102" lon="2.39552">
        <ele>246.9</ele>
        <time>2026-06-20T09:58:03Z</time>
      </trkpt>
      <trkpt lat="43.32098" lon="2.39547">
        <ele>246.4</ele>
        <time>2026-06-20T09:58:04Z</time>
      </trkpt>
      <trkpt lat="43.32094" lon="2.39543">
        <ele>245.9</ele>
        <time>2026-06-20T09:58:05Z</time>
      </trkpt>
      <trkpt lat="43.32091" lon="2.3954">
        <ele>245.1</ele>
        <time>2026-06-20T09:58:06Z</time>
      </trkpt>
      <trkpt lat="43.32089" lon="2.39539">
        <ele>244.2</ele>
        <time>2026-06-20T09:58:07Z</time>
      </trkpt>
      <trkpt lat="43.32085" lon="2.39538">
        <ele>242.9</ele>
        <time>2026-06-20T09:58:08Z</time>
      </trkpt>
      <trkpt lat="43.32082" lon="2.39536">
        <ele>242.6</ele>
        <time>2026-06-20T09:58:09Z</time>
      </trkpt>
      <trkpt lat="43.32078" lon="2.39532">
        <ele>243.1</ele>
        <time>2026-06-20T09:58:10Z</time>
      </trkpt>
      <trkpt lat="43.32075" lon="2.39528">
        <ele>243</ele>
        <time>2026-06-20T09:58:11Z</time>
      </trkpt>
      <trkpt lat="43.32071" lon="2.39523">
        <ele>242.2</ele>
        <time>2026-06-20T09:58:12Z</time>
      </trkpt>
      <trkpt lat="43.32067" lon="2.39519">
        <ele>241</ele>
        <time>2026-06-20T09:58:13Z</time>
      </trkpt>
      <trkpt lat="43.32064" lon="2.39517">
        <ele>239.9</ele>
        <time>2026-06-20T09:58:14Z</time>
      </trkpt>
      <trkpt lat="43.32062" lon="2.39515">
        <ele>238.7</ele>
        <time>2026-06-20T09:58:15Z</time>
      </trkpt>
      <trkpt lat="43.32059" lon="2.39511">
        <ele>237</ele>
        <time>2026-06-20T09:58:16Z</time>
      </trkpt>
      <trkpt lat="43.32055" lon="2.39504">
        <ele>233.5</ele>
        <time>2026-06-20T09:58:18Z</time>
      </trkpt>
      <trkpt lat="43.32054" lon="2.39499">
        <ele>232.8</ele>
        <time>2026-06-20T09:58:19Z</time>
      </trkpt>
      <trkpt lat="43.32053" lon="2.39494">
        <ele>233.5</ele>
        <time>2026-06-20T09:58:20Z</time>
      </trkpt>
      <trkpt lat="43.32051" lon="2.39491">
        <ele>234.2</ele>
        <time>2026-06-20T09:58:21Z</time>
      </trkpt>
      <trkpt lat="43.3205" lon="2.39489">
        <ele>234.9</ele>
        <time>2026-06-20T09:58:22Z</time>
      </trkpt>
      <trkpt lat="43.32048" lon="2.39485">
        <ele>235.3</ele>
        <time>2026-06-20T09:58:23Z</time>
      </trkpt>
      <trkpt lat="43.32045" lon="2.3948">
        <ele>235.7</ele>
        <time>2026-06-20T09:58:24Z</time>
      </trkpt>
      <trkpt lat="43.32042" lon="2.39474">
        <ele>235.6</ele>
        <time>2026-06-20T09:58:25Z</time>
      </trkpt>
      <trkpt lat="43.3204" lon="2.3947">
        <ele>235.3</ele>
        <time>2026-06-20T09:58:26Z</time>
      </trkpt>
      <trkpt lat="43.32035" lon="2.39465">
        <ele>234.3</ele>
        <time>2026-06-20T09:58:27Z</time>
      </trkpt>
      <trkpt lat="43.32027" lon="2.39456">
        <ele>231.2</ele>
        <time>2026-06-20T09:58:29Z</time>
      </trkpt>
      <trkpt lat="43.32022" lon="2.39452">
        <ele>229.4</ele>
        <time>2026-06-20T09:58:30Z</time>
      </trkpt>
      <trkpt lat="43.32019" lon="2.39449">
        <ele>228</ele>
        <time>2026-06-20T09:58:31Z</time>
      </trkpt>
      <trkpt lat="43.32016" lon="2.39447">
        <ele>227.2</ele>
        <time>2026-06-20T09:58:32Z</time>
      </trkpt>
      <trkpt lat="43.32013" lon="2.39444">
        <ele>225.9</ele>
        <time>2026-06-20T09:58:33Z</time>
      </trkpt>
      <trkpt lat="43.32009" lon="2.39442">
        <ele>225.8</ele>
        <time>2026-06-20T09:58:34Z</time>
      </trkpt>
      <trkpt lat="43.32005" lon="2.3944">
        <ele>225.6</ele>
        <time>2026-06-20T09:58:35Z</time>
      </trkpt>
      <trkpt lat="43.31999" lon="2.39438">
        <ele>225</ele>
        <time>2026-06-20T09:58:36Z</time>
      </trkpt>
      <trkpt lat="43.31996" lon="2.39437">
        <ele>224.5</ele>
        <time>2026-06-20T09:58:37Z</time>
      </trkpt>
      <trkpt lat="43.31991" lon="2.39436">
        <ele>224</ele>
        <time>2026-06-20T09:58:38Z</time>
      </trkpt>
      <trkpt lat="43.31987" lon="2.39437">
        <ele>223.2</ele>
        <time>2026-06-20T09:58:39Z</time>
      </trkpt>
      <trkpt lat="43.31983" lon="2.39438">
        <ele>222.2</ele>
        <time>2026-06-20T09:58:40Z</time>
      </trkpt>
      <trkpt lat="43.31977" lon="2.39439">
        <ele>221</ele>
        <time>2026-06-20T09:58:41Z</time>
      </trkpt>
      <trkpt lat="43.31972" lon="2.39441">
        <ele>219.7</ele>
        <time>2026-06-20T09:58:42Z</time>
      </trkpt>
      <trkpt lat="43.31968" lon="2.39444">
        <ele>218.4</ele>
        <time>2026-06-20T09:58:43Z</time>
      </trkpt>
      <trkpt lat="43.31965" lon="2.39446">
        <ele>217.8</ele>
        <time>2026-06-20T09:58:44Z</time>
      </trkpt>
      <trkpt lat="43.31963" lon="2.39448">
        <ele>217.5</ele>
        <time>2026-06-20T09:58:45Z</time>
      </trkpt>
      <trkpt lat="43.3196" lon="2.39448">
        <ele>217.1</ele>
        <time>2026-06-20T09:58:46Z</time>
      </trkpt>
      <trkpt lat="43.31957" lon="2.39448">
        <ele>216.3</ele>
        <time>2026-06-20T09:58:47Z</time>
      </trkpt>
      <trkpt lat="43.31953" lon="2.39448">
        <ele>215.4</ele>
        <time>2026-06-20T09:58:48Z</time>
      </trkpt>
      <trkpt lat="43.31949" lon="2.39448">
        <ele>214.5</ele>
        <time>2026-06-20T09:58:49Z</time>
      </trkpt>
      <trkpt lat="43.31944" lon="2.3945">
        <ele>213.7</ele>
        <time>2026-06-20T09:58:50Z</time>
      </trkpt>
      <trkpt lat="43.31934" lon="2.39451">
        <ele>213.3</ele>
        <time>2026-06-20T09:58:52Z</time>
      </trkpt>
      <trkpt lat="43.3193" lon="2.39449">
        <ele>213.1</ele>
        <time>2026-06-20T09:58:53Z</time>
      </trkpt>
      <trkpt lat="43.31926" lon="2.39448">
        <ele>212.9</ele>
        <time>2026-06-20T09:58:54Z</time>
      </trkpt>
      <trkpt lat="43.31923" lon="2.39448">
        <ele>212.8</ele>
        <time>2026-06-20T09:58:55Z</time>
      </trkpt>
      <trkpt lat="43.31919" lon="2.39447">
        <ele>212.8</ele>
        <time>2026-06-20T09:58:56Z</time>
      </trkpt>
      <trkpt lat="43.31916" lon="2.39447">
        <ele>212.8</ele>
        <time>2026-06-20T09:58:57Z</time>
      </trkpt>
      <trkpt lat="43.31913" lon="2.39448">
        <ele>212.6</ele>
        <time>2026-06-20T09:58:58Z</time>
      </trkpt>
      <trkpt lat="43.31909" lon="2.39451">
        <ele>212.3</ele>
        <time>2026-06-20T09:58:59Z</time>
      </trkpt>
      <trkpt lat="43.31906" lon="2.39454">
        <ele>211.8</ele>
        <time>2026-06-20T09:59:00Z</time>
      </trkpt>
      <trkpt lat="43.31901" lon="2.39459">
        <ele>210.9</ele>
        <time>2026-06-20T09:59:01Z</time>
      </trkpt>
      <trkpt lat="43.31897" lon="2.39463">
        <ele>209.7</ele>
        <time>2026-06-20T09:59:02Z</time>
      </trkpt>
      <trkpt lat="43.31893" lon="2.39467">
        <ele>208.6</ele>
        <time>2026-06-20T09:59:03Z</time>
      </trkpt>
      <trkpt lat="43.31889" lon="2.3947">
        <ele>207.4</ele>
        <time>2026-06-20T09:59:04Z</time>
      </trkpt>
      <trkpt lat="43.31885" lon="2.39473">
        <ele>206.4</ele>
        <time>2026-06-20T09:59:05Z</time>
      </trkpt>
      <trkpt lat="43.3188" lon="2.39476">
        <ele>205.5</ele>
        <time>2026-06-20T09:59:06Z</time>
      </trkpt>
      <trkpt lat="43.31877" lon="2.39479">
        <ele>204.7</ele>
        <time>2026-06-20T09:59:07Z</time>
      </trkpt>
      <trkpt lat="43.31869" lon="2.39485">
        <ele>203.1</ele>
        <time>2026-06-20T09:59:09Z</time>
      </trkpt>
      <trkpt lat="43.31866" lon="2.39488">
        <ele>202.1</ele>
        <time>2026-06-20T09:59:10Z</time>
      </trkpt>
      <trkpt lat="43.31862" lon="2.39487">
        <ele>201.5</ele>
        <time>2026-06-20T09:59:11Z</time>
      </trkpt>
      <trkpt lat="43.31858" lon="2.39484">
        <ele>201.1</ele>
        <time>2026-06-20T09:59:12Z</time>
      </trkpt>
      <trkpt lat="43.31856" lon="2.39482">
        <ele>200.8</ele>
        <time>2026-06-20T09:59:13Z</time>
      </trkpt>
      <trkpt lat="43.31855" lon="2.39483">
        <ele>200.6</ele>
        <time>2026-06-20T09:59:14Z</time>
      </trkpt>
      <trkpt lat="43.31854" lon="2.39484">
        <ele>200.3</ele>
        <time>2026-06-20T09:59:15Z</time>
      </trkpt>
      <trkpt lat="43.31854" lon="2.39488">
        <ele>200.1</ele>
        <time>2026-06-20T09:59:16Z</time>
      </trkpt>
      <trkpt lat="43.31856" lon="2.395">
        <ele>199.4</ele>
        <time>2026-06-20T09:59:18Z</time>
      </trkpt>
      <trkpt lat="43.31856" lon="2.39507">
        <ele>199.4</ele>
        <time>2026-06-20T09:59:19Z</time>
      </trkpt>
      <trkpt lat="43.31856" lon="2.39514">
        <ele>199.4</ele>
        <time>2026-06-20T09:59:20Z</time>
      </trkpt>
      <trkpt lat="43.31855" lon="2.39521">
        <ele>199.4</ele>
        <time>2026-06-20T09:59:21Z</time>
      </trkpt>
      <trkpt lat="43.31854" lon="2.39528">
        <ele>199.5</ele>
        <time>2026-06-20T09:59:22Z</time>
      </trkpt>
      <trkpt lat="43.31855" lon="2.39533">
        <ele>200.2</ele>
        <time>2026-06-20T09:59:23Z</time>
      </trkpt>
      <trkpt lat="43.31856" lon="2.39538">
        <ele>200.7</ele>
        <time>2026-06-20T09:59:24Z</time>
      </trkpt>
      <trkpt lat="43.31857" lon="2.39542">
        <ele>201</ele>
        <time>2026-06-20T09:59:25Z</time>
      </trkpt>
      <trkpt lat="43.31858" lon="2.39545">
        <ele>201.3</ele>
        <time>2026-06-20T09:59:26Z</time>
      </trkpt>
      <trkpt lat="43.31859" lon="2.3955">
        <ele>201.8</ele>
        <time>2026-06-20T09:59:27Z</time>
      </trkpt>
      <trkpt lat="43.3186" lon="2.39571">
        <ele>203</ele>
        <time>2026-06-20T09:59:31Z</time>
      </trkpt>
      <trkpt lat="43.31857" lon="2.39603">
        <ele>206.2</ele>
        <time>2026-06-20T09:59:37Z</time>
      </trkpt>
      <trkpt lat="43.3186" lon="2.39616">
        <ele>206.1</ele>
        <time>2026-06-20T09:59:39Z</time>
      </trkpt>
      <trkpt lat="43.31864" lon="2.39627">
        <ele>206.8</ele>
        <time>2026-06-20T09:59:41Z</time>
      </trkpt>
      <trkpt lat="43.31866" lon="2.39633">
        <ele>207.3</ele>
        <time>2026-06-20T09:59:42Z</time>
      </trkpt>
      <trkpt lat="43.31871" lon="2.39653">
        <ele>208.9</ele>
        <time>2026-06-20T09:59:45Z</time>
      </trkpt>
      <trkpt lat="43.31873" lon="2.39668">
        <ele>209.9</ele>
        <time>2026-06-20T09:59:47Z</time>
      </trkpt>
      <trkpt lat="43.31875" lon="2.39682">
        <ele>210.1</ele>
        <time>2026-06-20T09:59:49Z</time>
      </trkpt>
      <trkpt lat="43.31876" lon="2.39689">
        <ele>210.1</ele>
        <time>2026-06-20T09:59:50Z</time>
      </trkpt>
      <trkpt lat="43.31877" lon="2.39695">
        <ele>210.1</ele>
        <time>2026-06-20T09:59:51Z</time>
      </trkpt>
      <trkpt lat="43.31878" lon="2.39702">
        <ele>210.1</ele>
        <time>2026-06-20T09:59:52Z</time>
      </trkpt>
      <trkpt lat="43.31879" lon="2.39708">
        <ele>210.1</ele>
        <time>2026-06-20T09:59:53Z</time>
      </trkpt>
      <trkpt lat="43.3188" lon="2.39716">
        <ele>210.1</ele>
        <time>2026-06-20T09:59:54Z</time>
      </trkpt>
      <trkpt lat="43.31882" lon="2.39723">
        <ele>210.2</ele>
        <time>2026-06-20T09:59:55Z</time>
      </trkpt>
      <trkpt lat="43.31881" lon="2.3973">
        <ele>210.6</ele>
        <time>2026-06-20T09:59:56Z</time>
      </trkpt>
      <trkpt lat="43.3188" lon="2.39737">
        <ele>211.2</ele>
        <time>2026-06-20T09:59:57Z</time>
      </trkpt>
      <trkpt lat="43.31879" lon="2.39743">
        <ele>211.9</ele>
        <time>2026-06-20T09:59:58Z</time>
      </trkpt>
      <trkpt lat="43.31877" lon="2.39749">
        <ele>212.7</ele>
        <time>2026-06-20T09:59:59Z</time>
      </trkpt>
      <trkpt lat="43.31876" lon="2.39754">
        <ele>213.3</ele>
        <time>2026-06-20T10:00:00Z</time>
      </trkpt>
      <trkpt lat="43.31873" lon="2.39759">
        <ele>214</ele>
        <time>2026-06-20T10:00:01Z</time>
      </trkpt>
      <trkpt lat="43.31872" lon="2.39765">
        <ele>214.3</ele>
        <time>2026-06-20T10:00:02Z</time>
      </trkpt>
      <trkpt lat="43.31872" lon="2.39771">
        <ele>214.3</ele>
        <time>2026-06-20T10:00:03Z</time>
      </trkpt>
      <trkpt lat="43.31872" lon="2.39777">
        <ele>214.2</ele>
        <time>2026-06-20T10:00:04Z</time>
      </trkpt>
      <trkpt lat="43.31871" lon="2.39783">
        <ele>214.5</ele>
        <time>2026-06-20T10:00:05Z</time>
      </trkpt>
      <trkpt lat="43.31869" lon="2.39789">
        <ele>214.6</ele>
        <time>2026-06-20T10:00:06Z</time>
      </trkpt>
      <trkpt lat="43.31867" lon="2.39795">
        <ele>214.7</ele>
        <time>2026-06-20T10:00:07Z</time>
      </trkpt>
      <trkpt lat="43.31865" lon="2.39802">
        <ele>214.7</ele>
        <time>2026-06-20T10:00:08Z</time>
      </trkpt>
      <trkpt lat="43.31863" lon="2.39808">
        <ele>214.7</ele>
        <time>2026-06-20T10:00:09Z</time>
      </trkpt>
      <trkpt lat="43.31861" lon="2.39814">
        <ele>214.7</ele>
        <time>2026-06-20T10:00:10Z</time>
      </trkpt>
      <trkpt lat="43.31858" lon="2.39817">
        <ele>215.4</ele>
        <time>2026-06-20T10:00:11Z</time>
      </trkpt>
      <trkpt lat="43.31854" lon="2.3982">
        <ele>216.1</ele>
        <time>2026-06-20T10:00:12Z</time>
      </trkpt>
      <trkpt lat="43.3185" lon="2.39823">
        <ele>216.5</ele>
        <time>2026-06-20T10:00:13Z</time>
      </trkpt>
      <trkpt lat="43.31847" lon="2.39825">
        <ele>216.7</ele>
        <time>2026-06-20T10:00:14Z</time>
      </trkpt>
      <trkpt lat="43.31843" lon="2.39827">
        <ele>217.2</ele>
        <time>2026-06-20T10:00:15Z</time>
      </trkpt>
      <trkpt lat="43.31838" lon="2.39829">
        <ele>217.4</ele>
        <time>2026-06-20T10:00:16Z</time>
      </trkpt>
      <trkpt lat="43.31834" lon="2.39831">
        <ele>217.6</ele>
        <time>2026-06-20T10:00:17Z</time>
      </trkpt>
      <trkpt lat="43.3183" lon="2.39833">
        <ele>217.7</ele>
        <time>2026-06-20T10:00:18Z</time>
      </trkpt>
      <trkpt lat="43.31827" lon="2.39834">
        <ele>218.1</ele>
        <time>2026-06-20T10:00:19Z</time>
      </trkpt>
      <trkpt lat="43.31822" lon="2.39837">
        <ele>218.8</ele>
        <time>2026-06-20T10:00:20Z</time>
      </trkpt>
      <trkpt lat="43.31818" lon="2.39839">
        <ele>219.4</ele>
        <time>2026-06-20T10:00:21Z</time>
      </trkpt>
      <trkpt lat="43.31814" lon="2.3984">
        <ele>219.9</ele>
        <time>2026-06-20T10:00:22Z</time>
      </trkpt>
      <trkpt lat="43.31808" lon="2.39843">
        <ele>220.5</ele>
        <time>2026-06-20T10:00:23Z</time>
      </trkpt>
      <trkpt lat="43.31804" lon="2.39845">
        <ele>220.9</ele>
        <time>2026-06-20T10:00:24Z</time>
      </trkpt>
      <trkpt lat="43.318" lon="2.39847">
        <ele>221.1</ele>
        <time>2026-06-20T10:00:25Z</time>
      </trkpt>
      <trkpt lat="43.31794" lon="2.3985">
        <ele>221.4</ele>
        <time>2026-06-20T10:00:26Z</time>
      </trkpt>
      <trkpt lat="43.3179" lon="2.39853">
        <ele>221.3</ele>
        <time>2026-06-20T10:00:27Z</time>
      </trkpt>
      <trkpt lat="43.31786" lon="2.39856">
        <ele>221.2</ele>
        <time>2026-06-20T10:00:28Z</time>
      </trkpt>
      <trkpt lat="43.31782" lon="2.3986">
        <ele>221</ele>
        <time>2026-06-20T10:00:29Z</time>
      </trkpt>
      <trkpt lat="43.31778" lon="2.39864">
        <ele>220.9</ele>
        <time>2026-06-20T10:00:30Z</time>
      </trkpt>
      <trkpt lat="43.31773" lon="2.39868">
        <ele>222</ele>
        <time>2026-06-20T10:00:31Z</time>
      </trkpt>
      <trkpt lat="43.3177" lon="2.39872">
        <ele>222.6</ele>
        <time>2026-06-20T10:00:32Z</time>
      </trkpt>
      <trkpt lat="43.31767" lon="2.39879">
        <ele>222.8</ele>
        <time>2026-06-20T10:00:33Z</time>
      </trkpt>
      <trkpt lat="43.31765" lon="2.39884">
        <ele>222.8</ele>
        <time>2026-06-20T10:00:34Z</time>
      </trkpt>
      <trkpt lat="43.31761" lon="2.39888">
        <ele>223.2</ele>
        <time>2026-06-20T10:00:35Z</time>
      </trkpt>
      <trkpt lat="43.31756" lon="2.39891">
        <ele>223.8</ele>
        <time>2026-06-20T10:00:36Z</time>
      </trkpt>
      <trkpt lat="43.31753" lon="2.39895">
        <ele>224.2</ele>
        <time>2026-06-20T10:00:37Z</time>
      </trkpt>
      <trkpt lat="43.3175" lon="2.39898">
        <ele>224.4</ele>
        <time>2026-06-20T10:00:38Z</time>
      </trkpt>
      <trkpt lat="43.31747" lon="2.39903">
        <ele>224.9</ele>
        <time>2026-06-20T10:00:39Z</time>
      </trkpt>
      <trkpt lat="43.31744" lon="2.39908">
        <ele>225.2</ele>
        <time>2026-06-20T10:00:40Z</time>
      </trkpt>
      <trkpt lat="43.31741" lon="2.39911">
        <ele>225.5</ele>
        <time>2026-06-20T10:00:41Z</time>
      </trkpt>
      <trkpt lat="43.31737" lon="2.39916">
        <ele>225.9</ele>
        <time>2026-06-20T10:00:42Z</time>
      </trkpt>
      <trkpt lat="43.31733" lon="2.39919">
        <ele>226.6</ele>
        <time>2026-06-20T10:00:43Z</time>
      </trkpt>
      <trkpt lat="43.31729" lon="2.39923">
        <ele>227.2</ele>
        <time>2026-06-20T10:00:44Z</time>
      </trkpt>
      <trkpt lat="43.31726" lon="2.39926">
        <ele>227.6</ele>
        <time>2026-06-20T10:00:45Z</time>
      </trkpt>
      <trkpt lat="43.31723" lon="2.39928">
        <ele>228.1</ele>
        <time>2026-06-20T10:00:46Z</time>
      </trkpt>
      <trkpt lat="43.3172" lon="2.39932">
        <ele>228.5</ele>
        <time>2026-06-20T10:00:47Z</time>
      </trkpt>
      <trkpt lat="43.31719" lon="2.39938">
        <ele>228.5</ele>
        <time>2026-06-20T10:00:48Z</time>
      </trkpt>
      <trkpt lat="43.31717" lon="2.39944">
        <ele>228.5</ele>
        <time>2026-06-20T10:00:49Z</time>
      </trkpt>
      <trkpt lat="43.31716" lon="2.3995">
        <ele>228.4</ele>
        <time>2026-06-20T10:00:50Z</time>
      </trkpt>
      <trkpt lat="43.31713" lon="2.39956">
        <ele>228.5</ele>
        <time>2026-06-20T10:00:51Z</time>
      </trkpt>
      <trkpt lat="43.31711" lon="2.39961">
        <ele>228.5</ele>
        <time>2026-06-20T10:00:52Z</time>
      </trkpt>
      <trkpt lat="43.31708" lon="2.39966">
        <ele>228.6</ele>
        <time>2026-06-20T10:00:53Z</time>
      </trkpt>
      <trkpt lat="43.31706" lon="2.3997">
        <ele>228.7</ele>
        <time>2026-06-20T10:00:54Z</time>
      </trkpt>
      <trkpt lat="43.31703" lon="2.39974">
        <ele>229</ele>
        <time>2026-06-20T10:00:55Z</time>
      </trkpt>
      <trkpt lat="43.317" lon="2.3998">
        <ele>229.5</ele>
        <time>2026-06-20T10:00:56Z</time>
      </trkpt>
      <trkpt lat="43.31697" lon="2.39984">
        <ele>229.7</ele>
        <time>2026-06-20T10:00:57Z</time>
      </trkpt>
      <trkpt lat="43.31694" lon="2.39989">
        <ele>229.8</ele>
        <time>2026-06-20T10:00:58Z</time>
      </trkpt>
      <trkpt lat="43.31692" lon="2.39994">
        <ele>230.2</ele>
        <time>2026-06-20T10:00:59Z</time>
      </trkpt>
      <trkpt lat="43.3169" lon="2.39999">
        <ele>230.4</ele>
        <time>2026-06-20T10:01:00Z</time>
      </trkpt>
      <trkpt lat="43.31689" lon="2.40005">
        <ele>230.7</ele>
        <time>2026-06-20T10:01:01Z</time>
      </trkpt>
      <trkpt lat="43.31688" lon="2.40012">
        <ele>230.9</ele>
        <time>2026-06-20T10:01:02Z</time>
      </trkpt>
      <trkpt lat="43.31688" lon="2.40019">
        <ele>230.5</ele>
        <time>2026-06-20T10:01:03Z</time>
      </trkpt>
      <trkpt lat="43.31689" lon="2.40026">
        <ele>229.9</ele>
        <time>2026-06-20T10:01:04Z</time>
      </trkpt>
      <trkpt lat="43.31692" lon="2.40033">
        <ele>228.9</ele>
        <time>2026-06-20T10:01:05Z</time>
      </trkpt>
      <trkpt lat="43.31694" lon="2.40041">
        <ele>227.8</ele>
        <time>2026-06-20T10:01:06Z</time>
      </trkpt>
      <trkpt lat="43.31695" lon="2.4005">
        <ele>227.2</ele>
        <time>2026-06-20T10:01:07Z</time>
      </trkpt>
      <trkpt lat="43.31693" lon="2.40056">
        <ele>227.7</ele>
        <time>2026-06-20T10:01:08Z</time>
      </trkpt>
      <trkpt lat="43.3169" lon="2.40062">
        <ele>228.6</ele>
        <time>2026-06-20T10:01:09Z</time>
      </trkpt>
      <trkpt lat="43.31688" lon="2.40068">
        <ele>229.2</ele>
        <time>2026-06-20T10:01:10Z</time>
      </trkpt>
      <trkpt lat="43.31686" lon="2.40075">
        <ele>229.7</ele>
        <time>2026-06-20T10:01:11Z</time>
      </trkpt>
      <trkpt lat="43.31684" lon="2.40082">
        <ele>229.9</ele>
        <time>2026-06-20T10:01:12Z</time>
      </trkpt>
      <trkpt lat="43.31683" lon="2.40089">
        <ele>230.2</ele>
        <time>2026-06-20T10:01:13Z</time>
      </trkpt>
      <trkpt lat="43.31682" lon="2.40096">
        <ele>230.5</ele>
        <time>2026-06-20T10:01:14Z</time>
      </trkpt>
      <trkpt lat="43.3168" lon="2.40103">
        <ele>230.8</ele>
        <time>2026-06-20T10:01:15Z</time>
      </trkpt>
      <trkpt lat="43.31678" lon="2.4011">
        <ele>231</ele>
        <time>2026-06-20T10:01:16Z</time>
      </trkpt>
      <trkpt lat="43.31677" lon="2.40115">
        <ele>231</ele>
        <time>2026-06-20T10:01:17Z</time>
      </trkpt>
      <trkpt lat="43.31675" lon="2.40124">
        <ele>230.9</ele>
        <time>2026-06-20T10:01:18Z</time>
      </trkpt>
      <trkpt lat="43.31674" lon="2.4013">
        <ele>230.7</ele>
        <time>2026-06-20T10:01:19Z</time>
      </trkpt>
      <trkpt lat="43.31672" lon="2.40137">
        <ele>230.5</ele>
        <time>2026-06-20T10:01:20Z</time>
      </trkpt>
      <trkpt lat="43.3167" lon="2.40144">
        <ele>230.5</ele>
        <time>2026-06-20T10:01:21Z</time>
      </trkpt>
      <trkpt lat="43.31669" lon="2.4015">
        <ele>230.4</ele>
        <time>2026-06-20T10:01:22Z</time>
      </trkpt>
      <trkpt lat="43.31667" lon="2.40157">
        <ele>230.4</ele>
        <time>2026-06-20T10:01:23Z</time>
      </trkpt>
      <trkpt lat="43.31665" lon="2.40164">
        <ele>230.8</ele>
        <time>2026-06-20T10:01:24Z</time>
      </trkpt>
      <trkpt lat="43.31663" lon="2.40172">
        <ele>231.2</ele>
        <time>2026-06-20T10:01:25Z</time>
      </trkpt>
      <trkpt lat="43.31657" lon="2.40193">
        <ele>231.8</ele>
        <time>2026-06-20T10:01:28Z</time>
      </trkpt>
      <trkpt lat="43.31654" lon="2.40207">
        <ele>232.5</ele>
        <time>2026-06-20T10:01:30Z</time>
      </trkpt>
      <trkpt lat="43.31646" lon="2.4024">
        <ele>232.8</ele>
        <time>2026-06-20T10:01:35Z</time>
      </trkpt>
      <trkpt lat="43.31644" lon="2.40248">
        <ele>232.6</ele>
        <time>2026-06-20T10:01:36Z</time>
      </trkpt>
      <trkpt lat="43.31641" lon="2.40255">
        <ele>232.6</ele>
        <time>2026-06-20T10:01:37Z</time>
      </trkpt>
      <trkpt lat="43.31638" lon="2.40261">
        <ele>232.8</ele>
        <time>2026-06-20T10:01:38Z</time>
      </trkpt>
      <trkpt lat="43.31636" lon="2.40266">
        <ele>233.1</ele>
        <time>2026-06-20T10:01:39Z</time>
      </trkpt>
      <trkpt lat="43.31633" lon="2.40271">
        <ele>233.5</ele>
        <time>2026-06-20T10:01:40Z</time>
      </trkpt>
      <trkpt lat="43.3163" lon="2.40276">
        <ele>233.9</ele>
        <time>2026-06-20T10:01:41Z</time>
      </trkpt>
      <trkpt lat="43.31627" lon="2.40281">
        <ele>234.4</ele>
        <time>2026-06-20T10:01:42Z</time>
      </trkpt>
      <trkpt lat="43.31621" lon="2.4029">
        <ele>235</ele>
        <time>2026-06-20T10:01:44Z</time>
      </trkpt>
      <trkpt lat="43.31618" lon="2.40296">
        <ele>235.1</ele>
        <time>2026-06-20T10:01:45Z</time>
      </trkpt>
      <trkpt lat="43.31612" lon="2.40306">
        <ele>234.9</ele>
        <time>2026-06-20T10:01:47Z</time>
      </trkpt>
      <trkpt lat="43.3161" lon="2.40313">
        <ele>235.1</ele>
        <time>2026-06-20T10:01:48Z</time>
      </trkpt>
      <trkpt lat="43.31607" lon="2.40318">
        <ele>235.4</ele>
        <time>2026-06-20T10:01:49Z</time>
      </trkpt>
      <trkpt lat="43.31605" lon="2.40324">
        <ele>235.6</ele>
        <time>2026-06-20T10:01:50Z</time>
      </trkpt>
      <trkpt lat="43.31603" lon="2.40329">
        <ele>235.9</ele>
        <time>2026-06-20T10:01:51Z</time>
      </trkpt>
      <trkpt lat="43.31601" lon="2.40333">
        <ele>236.1</ele>
        <time>2026-06-20T10:01:52Z</time>
      </trkpt>
      <trkpt lat="43.31598" lon="2.40339">
        <ele>236.9</ele>
        <time>2026-06-20T10:01:53Z</time>
      </trkpt>
      <trkpt lat="43.31595" lon="2.40343">
        <ele>237.4</ele>
        <time>2026-06-20T10:01:54Z</time>
      </trkpt>
      <trkpt lat="43.31593" lon="2.40347">
        <ele>237.9</ele>
        <time>2026-06-20T10:01:55Z</time>
      </trkpt>
      <trkpt lat="43.31591" lon="2.40351">
        <ele>238.4</ele>
        <time>2026-06-20T10:01:56Z</time>
      </trkpt>
      <trkpt lat="43.31588" lon="2.40355">
        <ele>239</ele>
        <time>2026-06-20T10:01:57Z</time>
      </trkpt>
      <trkpt lat="43.31587" lon="2.40358">
        <ele>239.4</ele>
        <time>2026-06-20T10:01:58Z</time>
      </trkpt>
      <trkpt lat="43.31585" lon="2.40363">
        <ele>239.9</ele>
        <time>2026-06-20T10:01:59Z</time>
      </trkpt>
      <trkpt lat="43.31583" lon="2.40368">
        <ele>240.3</ele>
        <time>2026-06-20T10:02:00Z</time>
      </trkpt>
      <trkpt lat="43.31582" lon="2.40375">
        <ele>240.5</ele>
        <time>2026-06-20T10:02:01Z</time>
      </trkpt>
      <trkpt lat="43.3158" lon="2.40381">
        <ele>240.6</ele>
        <time>2026-06-20T10:02:02Z</time>
      </trkpt>
      <trkpt lat="43.31579" lon="2.40386">
        <ele>240.8</ele>
        <time>2026-06-20T10:02:03Z</time>
      </trkpt>
      <trkpt lat="43.31577" lon="2.40393">
        <ele>240.7</ele>
        <time>2026-06-20T10:02:04Z</time>
      </trkpt>
      <trkpt lat="43.31575" lon="2.404">
        <ele>240.5</ele>
        <time>2026-06-20T10:02:05Z</time>
      </trkpt>
      <trkpt lat="43.31574" lon="2.40405">
        <ele>240.5</ele>
        <time>2026-06-20T10:02:06Z</time>
      </trkpt>
      <trkpt lat="43.31572" lon="2.40411">
        <ele>240.5</ele>
        <time>2026-06-20T10:02:07Z</time>
      </trkpt>
      <trkpt lat="43.3157" lon="2.40416">
        <ele>240.5</ele>
        <time>2026-06-20T10:02:08Z</time>
      </trkpt>
      <trkpt lat="43.31568" lon="2.40422">
        <ele>240.8</ele>
        <time>2026-06-20T10:02:09Z</time>
      </trkpt>
      <trkpt lat="43.31566" lon="2.40427">
        <ele>241.1</ele>
        <time>2026-06-20T10:02:10Z</time>
      </trkpt>
      <trkpt lat="43.31564" lon="2.40432">
        <ele>241.5</ele>
        <time>2026-06-20T10:02:11Z</time>
      </trkpt>
      <trkpt lat="43.31561" lon="2.40436">
        <ele>241.9</ele>
        <time>2026-06-20T10:02:12Z</time>
      </trkpt>
      <trkpt lat="43.31559" lon="2.40437">
        <ele>242.2</ele>
        <time>2026-06-20T10:02:13Z</time>
      </trkpt>
      <trkpt lat="43.31554" lon="2.40439">
        <ele>242.7</ele>
        <time>2026-06-20T10:02:14Z</time>
      </trkpt>
      <trkpt lat="43.31551" lon="2.40441">
        <ele>243</ele>
        <time>2026-06-20T10:02:15Z</time>
      </trkpt>
      <trkpt lat="43.31547" lon="2.40443">
        <ele>243.5</ele>
        <time>2026-06-20T10:02:16Z</time>
      </trkpt>
      <trkpt lat="43.31543" lon="2.40446">
        <ele>243.9</ele>
        <time>2026-06-20T10:02:17Z</time>
      </trkpt>
      <trkpt lat="43.31539" lon="2.40449">
        <ele>244.2</ele>
        <time>2026-06-20T10:02:18Z</time>
      </trkpt>
      <trkpt lat="43.31536" lon="2.4045">
        <ele>244.4</ele>
        <time>2026-06-20T10:02:19Z</time>
      </trkpt>
      <trkpt lat="43.31532" lon="2.4045">
        <ele>244.7</ele>
        <time>2026-06-20T10:02:20Z</time>
      </trkpt>
      <trkpt lat="43.31528" lon="2.4045">
        <ele>245</ele>
        <time>2026-06-20T10:02:21Z</time>
      </trkpt>
      <trkpt lat="43.31523" lon="2.4045">
        <ele>245.4</ele>
        <time>2026-06-20T10:02:22Z</time>
      </trkpt>
      <trkpt lat="43.31519" lon="2.4045">
        <ele>245.8</ele>
        <time>2026-06-20T10:02:23Z</time>
      </trkpt>
      <trkpt lat="43.31514" lon="2.4045">
        <ele>246.2</ele>
        <time>2026-06-20T10:02:24Z</time>
      </trkpt>
      <trkpt lat="43.3151" lon="2.4045">
        <ele>246.6</ele>
        <time>2026-06-20T10:02:25Z</time>
      </trkpt>
      <trkpt lat="43.31506" lon="2.4045">
        <ele>247</ele>
        <time>2026-06-20T10:02:26Z</time>
      </trkpt>
      <trkpt lat="43.31503" lon="2.40452">
        <ele>247.5</ele>
        <time>2026-06-20T10:02:27Z</time>
      </trkpt>
      <trkpt lat="43.31499" lon="2.40453">
        <ele>248.1</ele>
        <time>2026-06-20T10:02:28Z</time>
      </trkpt>
      <trkpt lat="43.31495" lon="2.40455">
        <ele>248.9</ele>
        <time>2026-06-20T10:02:29Z</time>
      </trkpt>
      <trkpt lat="43.31492" lon="2.40457">
        <ele>249.4</ele>
        <time>2026-06-20T10:02:30Z</time>
      </trkpt>
      <trkpt lat="43.31489" lon="2.40458">
        <ele>250</ele>
        <time>2026-06-20T10:02:31Z</time>
      </trkpt>
      <trkpt lat="43.31486" lon="2.40459">
        <ele>250.6</ele>
        <time>2026-06-20T10:02:32Z</time>
      </trkpt>
      <trkpt lat="43.31484" lon="2.4046">
        <ele>251.2</ele>
        <time>2026-06-20T10:02:33Z</time>
      </trkpt>
      <trkpt lat="43.31481" lon="2.4046">
        <ele>251.6</ele>
        <time>2026-06-20T10:02:34Z</time>
      </trkpt>
      <trkpt lat="43.31477" lon="2.40459">
        <ele>251.9</ele>
        <time>2026-06-20T10:02:35Z</time>
      </trkpt>
      <trkpt lat="43.31474" lon="2.40459">
        <ele>252.5</ele>
        <time>2026-06-20T10:02:36Z</time>
      </trkpt>
      <trkpt lat="43.3147" lon="2.40459">
        <ele>252.9</ele>
        <time>2026-06-20T10:02:37Z</time>
      </trkpt>
      <trkpt lat="43.31466" lon="2.40459">
        <ele>253.4</ele>
        <time>2026-06-20T10:02:38Z</time>
      </trkpt>
      <trkpt lat="43.31464" lon="2.40459">
        <ele>253.6</ele>
        <time>2026-06-20T10:02:39Z</time>
      </trkpt>
      <trkpt lat="43.31461" lon="2.40458">
        <ele>253.9</ele>
        <time>2026-06-20T10:02:40Z</time>
      </trkpt>
      <trkpt lat="43.31458" lon="2.40459">
        <ele>254.4</ele>
        <time>2026-06-20T10:02:41Z</time>
      </trkpt>
      <trkpt lat="43.31454" lon="2.40459">
        <ele>254.9</ele>
        <time>2026-06-20T10:02:42Z</time>
      </trkpt>
      <trkpt lat="43.31451" lon="2.4046">
        <ele>255.4</ele>
        <time>2026-06-20T10:02:43Z</time>
      </trkpt>
      <trkpt lat="43.31447" lon="2.40461">
        <ele>256.1</ele>
        <time>2026-06-20T10:02:44Z</time>
      </trkpt>
      <trkpt lat="43.31442" lon="2.40461">
        <ele>256.4</ele>
        <time>2026-06-20T10:02:45Z</time>
      </trkpt>
      <trkpt lat="43.31437" lon="2.40462">
        <ele>256.5</ele>
        <time>2026-06-20T10:02:46Z</time>
      </trkpt>
      <trkpt lat="43.31434" lon="2.40463">
        <ele>256.6</ele>
        <time>2026-06-20T10:02:47Z</time>
      </trkpt>
      <trkpt lat="43.3143" lon="2.40464">
        <ele>256.7</ele>
        <time>2026-06-20T10:02:48Z</time>
      </trkpt>
      <trkpt lat="43.31426" lon="2.40467">
        <ele>257.1</ele>
        <time>2026-06-20T10:02:49Z</time>
      </trkpt>
      <trkpt lat="43.31422" lon="2.4047">
        <ele>257.6</ele>
        <time>2026-06-20T10:02:50Z</time>
      </trkpt>
      <trkpt lat="43.3142" lon="2.40473">
        <ele>258</ele>
        <time>2026-06-20T10:02:51Z</time>
      </trkpt>
      <trkpt lat="43.31417" lon="2.40477">
        <ele>258.7</ele>
        <time>2026-06-20T10:02:52Z</time>
      </trkpt>
      <trkpt lat="43.31416" lon="2.40481">
        <ele>259.2</ele>
        <time>2026-06-20T10:02:53Z</time>
      </trkpt>
      <trkpt lat="43.31415" lon="2.40486">
        <ele>259.8</ele>
        <time>2026-06-20T10:02:54Z</time>
      </trkpt>
      <trkpt lat="43.31413" lon="2.40492">
        <ele>260.3</ele>
        <time>2026-06-20T10:02:55Z</time>
      </trkpt>
      <trkpt lat="43.31411" lon="2.40496">
        <ele>260.6</ele>
        <time>2026-06-20T10:02:56Z</time>
      </trkpt>
      <trkpt lat="43.31408" lon="2.405">
        <ele>260.7</ele>
        <time>2026-06-20T10:02:57Z</time>
      </trkpt>
      <trkpt lat="43.31405" lon="2.40502">
        <ele>260.5</ele>
        <time>2026-06-20T10:02:58Z</time>
      </trkpt>
      <trkpt lat="43.314" lon="2.40506">
        <ele>260.4</ele>
        <time>2026-06-20T10:02:59Z</time>
      </trkpt>
      <trkpt lat="43.31397" lon="2.4051">
        <ele>260.4</ele>
        <time>2026-06-20T10:03:00Z</time>
      </trkpt>
      <trkpt lat="43.31395" lon="2.40514">
        <ele>260.7</ele>
        <time>2026-06-20T10:03:01Z</time>
      </trkpt>
      <trkpt lat="43.31393" lon="2.40518">
        <ele>261</ele>
        <time>2026-06-20T10:03:02Z</time>
      </trkpt>
      <trkpt lat="43.3139" lon="2.40521">
        <ele>261.1</ele>
        <time>2026-06-20T10:03:03Z</time>
      </trkpt>
      <trkpt lat="43.31387" lon="2.40523">
        <ele>261.2</ele>
        <time>2026-06-20T10:03:04Z</time>
      </trkpt>
      <trkpt lat="43.31383" lon="2.40525">
        <ele>261.4</ele>
        <time>2026-06-20T10:03:05Z</time>
      </trkpt>
      <trkpt lat="43.31379" lon="2.40528">
        <ele>261.6</ele>
        <time>2026-06-20T10:03:06Z</time>
      </trkpt>
      <trkpt lat="43.31374" lon="2.4053">
        <ele>261.5</ele>
        <time>2026-06-20T10:03:07Z</time>
      </trkpt>
      <trkpt lat="43.3137" lon="2.40533">
        <ele>261.4</ele>
        <time>2026-06-20T10:03:08Z</time>
      </trkpt>
      <trkpt lat="43.31366" lon="2.40536">
        <ele>261.2</ele>
        <time>2026-06-20T10:03:09Z</time>
      </trkpt>
      <trkpt lat="43.31362" lon="2.4054">
        <ele>261</ele>
        <time>2026-06-20T10:03:10Z</time>
      </trkpt>
      <trkpt lat="43.31356" lon="2.40546">
        <ele>260.2</ele>
        <time>2026-06-20T10:03:11Z</time>
      </trkpt>
      <trkpt lat="43.31352" lon="2.40549">
        <ele>259.6</ele>
        <time>2026-06-20T10:03:12Z</time>
      </trkpt>
      <trkpt lat="43.31346" lon="2.40553">
        <ele>258.8</ele>
        <time>2026-06-20T10:03:13Z</time>
      </trkpt>
      <trkpt lat="43.31338" lon="2.40557">
        <ele>257.7</ele>
        <time>2026-06-20T10:03:14Z</time>
      </trkpt>
      <trkpt lat="43.31332" lon="2.40558">
        <ele>257.3</ele>
        <time>2026-06-20T10:03:15Z</time>
      </trkpt>
      <trkpt lat="43.31324" lon="2.4056">
        <ele>257.6</ele>
        <time>2026-06-20T10:03:16Z</time>
      </trkpt>
      <trkpt lat="43.31317" lon="2.40562">
        <ele>257.8</ele>
        <time>2026-06-20T10:03:17Z</time>
      </trkpt>
      <trkpt lat="43.31311" lon="2.40563">
        <ele>257.9</ele>
        <time>2026-06-20T10:03:18Z</time>
      </trkpt>
      <trkpt lat="43.31305" lon="2.40564">
        <ele>258</ele>
        <time>2026-06-20T10:03:19Z</time>
      </trkpt>
      <trkpt lat="43.31299" lon="2.40566">
        <ele>257.8</ele>
        <time>2026-06-20T10:03:20Z</time>
      </trkpt>
      <trkpt lat="43.31294" lon="2.40569">
        <ele>257.6</ele>
        <time>2026-06-20T10:03:21Z</time>
      </trkpt>
      <trkpt lat="43.3129" lon="2.40574">
        <ele>257.4</ele>
        <time>2026-06-20T10:03:22Z</time>
      </trkpt>
      <trkpt lat="43.31287" lon="2.4058">
        <ele>257.3</ele>
        <time>2026-06-20T10:03:23Z</time>
      </trkpt>
      <trkpt lat="43.31284" lon="2.40587">
        <ele>257.2</ele>
        <time>2026-06-20T10:03:24Z</time>
      </trkpt>
      <trkpt lat="43.31281" lon="2.40594">
        <ele>257.2</ele>
        <time>2026-06-20T10:03:25Z</time>
      </trkpt>
      <trkpt lat="43.31278" lon="2.40601">
        <ele>257</ele>
        <time>2026-06-20T10:03:26Z</time>
      </trkpt>
      <trkpt lat="43.31275" lon="2.4061">
        <ele>256.9</ele>
        <time>2026-06-20T10:03:27Z</time>
      </trkpt>
      <trkpt lat="43.31273" lon="2.40616">
        <ele>257.1</ele>
        <time>2026-06-20T10:03:28Z</time>
      </trkpt>
      <trkpt lat="43.31271" lon="2.40623">
        <ele>257.4</ele>
        <time>2026-06-20T10:03:29Z</time>
      </trkpt>
      <trkpt lat="43.31268" lon="2.40629">
        <ele>257.8</ele>
        <time>2026-06-20T10:03:30Z</time>
      </trkpt>
      <trkpt lat="43.31264" lon="2.40633">
        <ele>258.1</ele>
        <time>2026-06-20T10:03:31Z</time>
      </trkpt>
      <trkpt lat="43.31261" lon="2.40637">
        <ele>258.4</ele>
        <time>2026-06-20T10:03:32Z</time>
      </trkpt>
      <trkpt lat="43.31258" lon="2.4064">
        <ele>258.8</ele>
        <time>2026-06-20T10:03:33Z</time>
      </trkpt>
      <trkpt lat="43.31255" lon="2.40643">
        <ele>259.4</ele>
        <time>2026-06-20T10:03:34Z</time>
      </trkpt>
      <trkpt lat="43.31252" lon="2.40646">
        <ele>260</ele>
        <time>2026-06-20T10:03:35Z</time>
      </trkpt>
      <trkpt lat="43.31249" lon="2.40649">
        <ele>260.5</ele>
        <time>2026-06-20T10:03:36Z</time>
      </trkpt>
      <trkpt lat="43.31247" lon="2.40652">
        <ele>261</ele>
        <time>2026-06-20T10:03:37Z</time>
      </trkpt>
      <trkpt lat="43.31245" lon="2.40655">
        <ele>261.4</ele>
        <time>2026-06-20T10:03:38Z</time>
      </trkpt>
      <trkpt lat="43.31243" lon="2.40658">
        <ele>262</ele>
        <time>2026-06-20T10:03:39Z</time>
      </trkpt>
      <trkpt lat="43.31237" lon="2.40667">
        <ele>263.5</ele>
        <time>2026-06-20T10:03:42Z</time>
      </trkpt>
      <trkpt lat="43.31235" lon="2.4067">
        <ele>264</ele>
        <time>2026-06-20T10:03:43Z</time>
      </trkpt>
      <trkpt lat="43.31233" lon="2.40671">
        <ele>264.3</ele>
        <time>2026-06-20T10:03:44Z</time>
      </trkpt>
      <trkpt lat="43.31229" lon="2.40672">
        <ele>264.7</ele>
        <time>2026-06-20T10:03:45Z</time>
      </trkpt>
      <trkpt lat="43.31225" lon="2.40672">
        <ele>265</ele>
        <time>2026-06-20T10:03:46Z</time>
      </trkpt>
      <trkpt lat="43.31221" lon="2.40672">
        <ele>265.3</ele>
        <time>2026-06-20T10:03:47Z</time>
      </trkpt>
      <trkpt lat="43.31216" lon="2.40673">
        <ele>265.5</ele>
        <time>2026-06-20T10:03:48Z</time>
      </trkpt>
      <trkpt lat="43.31207" lon="2.40674">
        <ele>266.1</ele>
        <time>2026-06-20T10:03:50Z</time>
      </trkpt>
      <trkpt lat="43.31202" lon="2.40675">
        <ele>266.4</ele>
        <time>2026-06-20T10:03:51Z</time>
      </trkpt>
      <trkpt lat="43.31197" lon="2.40676">
        <ele>266.8</ele>
        <time>2026-06-20T10:03:52Z</time>
      </trkpt>
      <trkpt lat="43.31193" lon="2.40678">
        <ele>267.3</ele>
        <time>2026-06-20T10:03:53Z</time>
      </trkpt>
      <trkpt lat="43.31188" lon="2.4068">
        <ele>267.6</ele>
        <time>2026-06-20T10:03:54Z</time>
      </trkpt>
      <trkpt lat="43.31184" lon="2.40684">
        <ele>267.9</ele>
        <time>2026-06-20T10:03:55Z</time>
      </trkpt>
      <trkpt lat="43.3118" lon="2.40686">
        <ele>268.1</ele>
        <time>2026-06-20T10:03:56Z</time>
      </trkpt>
      <trkpt lat="43.31175" lon="2.4069">
        <ele>268.2</ele>
        <time>2026-06-20T10:03:57Z</time>
      </trkpt>
      <trkpt lat="43.31171" lon="2.40692">
        <ele>268.2</ele>
        <time>2026-06-20T10:03:58Z</time>
      </trkpt>
      <trkpt lat="43.31168" lon="2.40695">
        <ele>268.2</ele>
        <time>2026-06-20T10:03:59Z</time>
      </trkpt>
      <trkpt lat="43.31163" lon="2.40699">
        <ele>268.5</ele>
        <time>2026-06-20T10:04:00Z</time>
      </trkpt>
      <trkpt lat="43.3116" lon="2.40701">
        <ele>268.8</ele>
        <time>2026-06-20T10:04:01Z</time>
      </trkpt>
      <trkpt lat="43.31156" lon="2.40705">
        <ele>269.2</ele>
        <time>2026-06-20T10:04:02Z</time>
      </trkpt>
      <trkpt lat="43.31152" lon="2.40709">
        <ele>269.6</ele>
        <time>2026-06-20T10:04:03Z</time>
      </trkpt>
      <trkpt lat="43.31148" lon="2.40712">
        <ele>269.9</ele>
        <time>2026-06-20T10:04:04Z</time>
      </trkpt>
      <trkpt lat="43.31145" lon="2.40714">
        <ele>270.1</ele>
        <time>2026-06-20T10:04:05Z</time>
      </trkpt>
      <trkpt lat="43.31141" lon="2.40717">
        <ele>270.3</ele>
        <time>2026-06-20T10:04:06Z</time>
      </trkpt>
      <trkpt lat="43.31137" lon="2.4072">
        <ele>270.7</ele>
        <time>2026-06-20T10:04:07Z</time>
      </trkpt>
      <trkpt lat="43.31133" lon="2.40722">
        <ele>271.4</ele>
        <time>2026-06-20T10:04:08Z</time>
      </trkpt>
      <trkpt lat="43.31128" lon="2.40723">
        <ele>272</ele>
        <time>2026-06-20T10:04:09Z</time>
      </trkpt>
      <trkpt lat="43.31123" lon="2.40726">
        <ele>272.9</ele>
        <time>2026-06-20T10:04:10Z</time>
      </trkpt>
      <trkpt lat="43.3112" lon="2.40727">
        <ele>273.4</ele>
        <time>2026-06-20T10:04:11Z</time>
      </trkpt>
      <trkpt lat="43.31116" lon="2.4073">
        <ele>274</ele>
        <time>2026-06-20T10:04:12Z</time>
      </trkpt>
      <trkpt lat="43.31112" lon="2.40732">
        <ele>274.8</ele>
        <time>2026-06-20T10:04:13Z</time>
      </trkpt>
      <trkpt lat="43.31109" lon="2.40734">
        <ele>275.1</ele>
        <time>2026-06-20T10:04:14Z</time>
      </trkpt>
      <trkpt lat="43.31105" lon="2.40736">
        <ele>275.5</ele>
        <time>2026-06-20T10:04:15Z</time>
      </trkpt>
      <trkpt lat="43.31101" lon="2.40738">
        <ele>276</ele>
        <time>2026-06-20T10:04:16Z</time>
      </trkpt>
      <trkpt lat="43.31097" lon="2.40739">
        <ele>276.3</ele>
        <time>2026-06-20T10:04:17Z</time>
      </trkpt>
      <trkpt lat="43.31093" lon="2.40741">
        <ele>276.7</ele>
        <time>2026-06-20T10:04:18Z</time>
      </trkpt>
      <trkpt lat="43.31089" lon="2.40742">
        <ele>277.1</ele>
        <time>2026-06-20T10:04:19Z</time>
      </trkpt>
      <trkpt lat="43.31084" lon="2.40742">
        <ele>277.5</ele>
        <time>2026-06-20T10:04:20Z</time>
      </trkpt>
      <trkpt lat="43.31079" lon="2.40743">
        <ele>277.8</ele>
        <time>2026-06-20T10:04:21Z</time>
      </trkpt>
      <trkpt lat="43.31074" lon="2.40743">
        <ele>278</ele>
        <time>2026-06-20T10:04:22Z</time>
      </trkpt>
      <trkpt lat="43.31069" lon="2.40742">
        <ele>278</ele>
        <time>2026-06-20T10:04:23Z</time>
      </trkpt>
      <trkpt lat="43.31064" lon="2.40742">
        <ele>278</ele>
        <time>2026-06-20T10:04:24Z</time>
      </trkpt>
      <trkpt lat="43.31059" lon="2.40742">
        <ele>278.1</ele>
        <time>2026-06-20T10:04:25Z</time>
      </trkpt>
      <trkpt lat="43.31054" lon="2.40741">
        <ele>278.2</ele>
        <time>2026-06-20T10:04:26Z</time>
      </trkpt>
      <trkpt lat="43.31048" lon="2.40741">
        <ele>278.3</ele>
        <time>2026-06-20T10:04:27Z</time>
      </trkpt>
      <trkpt lat="43.31043" lon="2.4074">
        <ele>278.4</ele>
        <time>2026-06-20T10:04:28Z</time>
      </trkpt>
      <trkpt lat="43.31037" lon="2.40739">
        <ele>278.4</ele>
        <time>2026-06-20T10:04:29Z</time>
      </trkpt>
      <trkpt lat="43.31032" lon="2.40739">
        <ele>278.5</ele>
        <time>2026-06-20T10:04:30Z</time>
      </trkpt>
      <trkpt lat="43.31026" lon="2.40738">
        <ele>278.8</ele>
        <time>2026-06-20T10:04:31Z</time>
      </trkpt>
      <trkpt lat="43.3102" lon="2.40737">
        <ele>279.3</ele>
        <time>2026-06-20T10:04:32Z</time>
      </trkpt>
      <trkpt lat="43.31014" lon="2.40736">
        <ele>279.6</ele>
        <time>2026-06-20T10:04:33Z</time>
      </trkpt>
      <trkpt lat="43.31008" lon="2.40735">
        <ele>279.6</ele>
        <time>2026-06-20T10:04:34Z</time>
      </trkpt>
      <trkpt lat="43.31002" lon="2.40733">
        <ele>279.3</ele>
        <time>2026-06-20T10:04:35Z</time>
      </trkpt>
      <trkpt lat="43.30997" lon="2.4073">
        <ele>279.1</ele>
        <time>2026-06-20T10:04:36Z</time>
      </trkpt>
      <trkpt lat="43.30992" lon="2.40727">
        <ele>279.2</ele>
        <time>2026-06-20T10:04:37Z</time>
      </trkpt>
      <trkpt lat="43.30987" lon="2.40724">
        <ele>279.3</ele>
        <time>2026-06-20T10:04:38Z</time>
      </trkpt>
      <trkpt lat="43.30982" lon="2.4072">
        <ele>279.5</ele>
        <time>2026-06-20T10:04:39Z</time>
      </trkpt>
      <trkpt lat="43.30977" lon="2.40716">
        <ele>279.5</ele>
        <time>2026-06-20T10:04:40Z</time>
      </trkpt>
      <trkpt lat="43.30973" lon="2.40711">
        <ele>279.2</ele>
        <time>2026-06-20T10:04:41Z</time>
      </trkpt>
      <trkpt lat="43.30968" lon="2.40706">
        <ele>278.4</ele>
        <time>2026-06-20T10:04:42Z</time>
      </trkpt>
      <trkpt lat="43.30964" lon="2.40701">
        <ele>278.1</ele>
        <time>2026-06-20T10:04:43Z</time>
      </trkpt>
      <trkpt lat="43.3096" lon="2.40697">
        <ele>278.1</ele>
        <time>2026-06-20T10:04:44Z</time>
      </trkpt>
      <trkpt lat="43.30955" lon="2.40693">
        <ele>278.6</ele>
        <time>2026-06-20T10:04:45Z</time>
      </trkpt>
      <trkpt lat="43.3095" lon="2.40689">
        <ele>279.4</ele>
        <time>2026-06-20T10:04:46Z</time>
      </trkpt>
      <trkpt lat="43.30946" lon="2.40687">
        <ele>280.4</ele>
        <time>2026-06-20T10:04:47Z</time>
      </trkpt>
      <trkpt lat="43.30942" lon="2.40686">
        <ele>281</ele>
        <time>2026-06-20T10:04:48Z</time>
      </trkpt>
      <trkpt lat="43.30938" lon="2.40687">
        <ele>281.5</ele>
        <time>2026-06-20T10:04:49Z</time>
      </trkpt>
      <trkpt lat="43.30933" lon="2.40689">
        <ele>282.1</ele>
        <time>2026-06-20T10:04:50Z</time>
      </trkpt>
      <trkpt lat="43.30927" lon="2.40691">
        <ele>282.5</ele>
        <time>2026-06-20T10:04:51Z</time>
      </trkpt>
      <trkpt lat="43.30922" lon="2.40693">
        <ele>282.8</ele>
        <time>2026-06-20T10:04:52Z</time>
      </trkpt>
      <trkpt lat="43.30918" lon="2.40693">
        <ele>283</ele>
        <time>2026-06-20T10:04:53Z</time>
      </trkpt>
      <trkpt lat="43.30913" lon="2.40691">
        <ele>282.5</ele>
        <time>2026-06-20T10:04:54Z</time>
      </trkpt>
      <trkpt lat="43.30909" lon="2.40687">
        <ele>282.1</ele>
        <time>2026-06-20T10:04:55Z</time>
      </trkpt>
      <trkpt lat="43.30906" lon="2.40682">
        <ele>282.1</ele>
        <time>2026-06-20T10:04:56Z</time>
      </trkpt>
      <trkpt lat="43.30907" lon="2.40679">
        <ele>282.4</ele>
        <time>2026-06-20T10:04:57Z</time>
      </trkpt>
      <trkpt lat="43.3091" lon="2.40677">
        <ele>282.8</ele>
        <time>2026-06-20T10:04:58Z</time>
      </trkpt>
      <trkpt lat="43.30912" lon="2.40675">
        <ele>283.2</ele>
        <time>2026-06-20T10:04:59Z</time>
      </trkpt>
      <trkpt lat="43.30913" lon="2.40673">
        <ele>283.5</ele>
        <time>2026-06-20T10:05:00Z</time>
      </trkpt>
      <trkpt lat="43.30914" lon="2.40669">
        <ele>283.7</ele>
        <time>2026-06-20T10:05:01Z</time>
      </trkpt>
      <trkpt lat="43.30915" lon="2.40666">
        <ele>283.9</ele>
        <time>2026-06-20T10:05:02Z</time>
      </trkpt>
      <trkpt lat="43.30915" lon="2.40661">
        <ele>284.5</ele>
        <time>2026-06-20T10:05:03Z</time>
      </trkpt>
      <trkpt lat="43.30914" lon="2.40657">
        <ele>285</ele>
        <time>2026-06-20T10:05:04Z</time>
      </trkpt>
      <trkpt lat="43.30913" lon="2.40653">
        <ele>285.3</ele>
        <time>2026-06-20T10:05:05Z</time>
      </trkpt>
      <trkpt lat="43.30911" lon="2.40649">
        <ele>285.6</ele>
        <time>2026-06-20T10:05:06Z</time>
      </trkpt>
      <trkpt lat="43.30909" lon="2.40645">
        <ele>286</ele>
        <time>2026-06-20T10:05:07Z</time>
      </trkpt>
      <trkpt lat="43.30907" lon="2.40642">
        <ele>286.3</ele>
        <time>2026-06-20T10:05:08Z</time>
      </trkpt>
      <trkpt lat="43.30904" lon="2.4064">
        <ele>286.4</ele>
        <time>2026-06-20T10:05:09Z</time>
      </trkpt>
      <trkpt lat="43.30901" lon="2.40638">
        <ele>286.3</ele>
        <time>2026-06-20T10:05:10Z</time>
      </trkpt>
      <trkpt lat="43.30899" lon="2.40636">
        <ele>286.1</ele>
        <time>2026-06-20T10:05:11Z</time>
      </trkpt>
      <trkpt lat="43.309" lon="2.40633">
        <ele>285.8</ele>
        <time>2026-06-20T10:05:12Z</time>
      </trkpt>
      <trkpt lat="43.30901" lon="2.4063">
        <ele>285.4</ele>
        <time>2026-06-20T10:05:13Z</time>
      </trkpt>
      <trkpt lat="43.309" lon="2.40626">
        <ele>285</ele>
        <time>2026-06-20T10:05:14Z</time>
      </trkpt>
      <trkpt lat="43.30899" lon="2.40622">
        <ele>285</ele>
        <time>2026-06-20T10:05:15Z</time>
      </trkpt>
      <trkpt lat="43.30897" lon="2.40616">
        <ele>285.2</ele>
        <time>2026-06-20T10:05:16Z</time>
      </trkpt>
      <trkpt lat="43.30895" lon="2.40611">
        <ele>285.4</ele>
        <time>2026-06-20T10:05:17Z</time>
      </trkpt>
      <trkpt lat="43.30894" lon="2.40605">
        <ele>285.2</ele>
        <time>2026-06-20T10:05:18Z</time>
      </trkpt>
      <trkpt lat="43.30891" lon="2.40601">
        <ele>285.7</ele>
        <time>2026-06-20T10:05:19Z</time>
      </trkpt>
      <trkpt lat="43.30888" lon="2.40598">
        <ele>286.5</ele>
        <time>2026-06-20T10:05:20Z</time>
      </trkpt>
      <trkpt lat="43.30884" lon="2.40595">
        <ele>286.2</ele>
        <time>2026-06-20T10:05:21Z</time>
      </trkpt>
      <trkpt lat="43.3088" lon="2.40592">
        <ele>286</ele>
        <time>2026-06-20T10:05:22Z</time>
      </trkpt>
      <trkpt lat="43.30877" lon="2.40589">
        <ele>285.8</ele>
        <time>2026-06-20T10:05:23Z</time>
      </trkpt>
      <trkpt lat="43.30873" lon="2.40586">
        <ele>285.7</ele>
        <time>2026-06-20T10:05:24Z</time>
      </trkpt>
      <trkpt lat="43.3087" lon="2.40584">
        <ele>285.7</ele>
        <time>2026-06-20T10:05:25Z</time>
      </trkpt>
      <trkpt lat="43.30866" lon="2.40584">
        <ele>285.9</ele>
        <time>2026-06-20T10:05:26Z</time>
      </trkpt>
      <trkpt lat="43.30861" lon="2.40586">
        <ele>286.1</ele>
        <time>2026-06-20T10:05:27Z</time>
      </trkpt>
      <trkpt lat="43.30857" lon="2.40588">
        <ele>286.3</ele>
        <time>2026-06-20T10:05:28Z</time>
      </trkpt>
      <trkpt lat="43.30853" lon="2.40588">
        <ele>286.5</ele>
        <time>2026-06-20T10:05:29Z</time>
      </trkpt>
      <trkpt lat="43.30849" lon="2.40587">
        <ele>286.6</ele>
        <time>2026-06-20T10:05:30Z</time>
      </trkpt>
      <trkpt lat="43.30845" lon="2.40585">
        <ele>286.7</ele>
        <time>2026-06-20T10:05:31Z</time>
      </trkpt>
      <trkpt lat="43.30841" lon="2.40583">
        <ele>286.7</ele>
        <time>2026-06-20T10:05:32Z</time>
      </trkpt>
      <trkpt lat="43.30836" lon="2.40581">
        <ele>286.1</ele>
        <time>2026-06-20T10:05:33Z</time>
      </trkpt>
      <trkpt lat="43.3083" lon="2.40579">
        <ele>285.6</ele>
        <time>2026-06-20T10:05:34Z</time>
      </trkpt>
      <trkpt lat="43.30824" lon="2.40578">
        <ele>285.2</ele>
        <time>2026-06-20T10:05:35Z</time>
      </trkpt>
      <trkpt lat="43.30819" lon="2.40576">
        <ele>284.7</ele>
        <time>2026-06-20T10:05:36Z</time>
      </trkpt>
      <trkpt lat="43.30812" lon="2.40573">
        <ele>284.1</ele>
        <time>2026-06-20T10:05:37Z</time>
      </trkpt>
      <trkpt lat="43.30806" lon="2.40571">
        <ele>283.7</ele>
        <time>2026-06-20T10:05:38Z</time>
      </trkpt>
      <trkpt lat="43.308" lon="2.4057">
        <ele>283.4</ele>
        <time>2026-06-20T10:05:39Z</time>
      </trkpt>
      <trkpt lat="43.30794" lon="2.40568">
        <ele>283.1</ele>
        <time>2026-06-20T10:05:40Z</time>
      </trkpt>
      <trkpt lat="43.30788" lon="2.40567">
        <ele>282.9</ele>
        <time>2026-06-20T10:05:41Z</time>
      </trkpt>
      <trkpt lat="43.30782" lon="2.40564">
        <ele>282.2</ele>
        <time>2026-06-20T10:05:42Z</time>
      </trkpt>
      <trkpt lat="43.30776" lon="2.40562">
        <ele>281.5</ele>
        <time>2026-06-20T10:05:43Z</time>
      </trkpt>
      <trkpt lat="43.3077" lon="2.4056">
        <ele>281.1</ele>
        <time>2026-06-20T10:05:44Z</time>
      </trkpt>
      <trkpt lat="43.30757" lon="2.40558">
        <ele>280.5</ele>
        <time>2026-06-20T10:05:46Z</time>
      </trkpt>
      <trkpt lat="43.30751" lon="2.40556">
        <ele>280.1</ele>
        <time>2026-06-20T10:05:47Z</time>
      </trkpt>
      <trkpt lat="43.30746" lon="2.40555">
        <ele>279.8</ele>
        <time>2026-06-20T10:05:48Z</time>
      </trkpt>
      <trkpt lat="43.3074" lon="2.40555">
        <ele>279.2</ele>
        <time>2026-06-20T10:05:49Z</time>
      </trkpt>
      <trkpt lat="43.30734" lon="2.40554">
        <ele>278.5</ele>
        <time>2026-06-20T10:05:50Z</time>
      </trkpt>
      <trkpt lat="43.30728" lon="2.40553">
        <ele>277.8</ele>
        <time>2026-06-20T10:05:51Z</time>
      </trkpt>
      <trkpt lat="43.30709" lon="2.40549">
        <ele>275.2</ele>
        <time>2026-06-20T10:05:54Z</time>
      </trkpt>
      <trkpt lat="43.30703" lon="2.40549">
        <ele>274.8</ele>
        <time>2026-06-20T10:05:55Z</time>
      </trkpt>
      <trkpt lat="43.30698" lon="2.4055">
        <ele>275</ele>
        <time>2026-06-20T10:05:56Z</time>
      </trkpt>
      <trkpt lat="43.30693" lon="2.40551">
        <ele>274.8</ele>
        <time>2026-06-20T10:05:57Z</time>
      </trkpt>
      <trkpt lat="43.30688" lon="2.40552">
        <ele>274</ele>
        <time>2026-06-20T10:05:58Z</time>
      </trkpt>
      <trkpt lat="43.30683" lon="2.40555">
        <ele>273.8</ele>
        <time>2026-06-20T10:05:59Z</time>
      </trkpt>
      <trkpt lat="43.3068" lon="2.40559">
        <ele>274</ele>
        <time>2026-06-20T10:06:00Z</time>
      </trkpt>
      <trkpt lat="43.30678" lon="2.40564">
        <ele>274.6</ele>
        <time>2026-06-20T10:06:01Z</time>
      </trkpt>
      <trkpt lat="43.30676" lon="2.40569">
        <ele>275.2</ele>
        <time>2026-06-20T10:06:02Z</time>
      </trkpt>
      <trkpt lat="43.30674" lon="2.40573">
        <ele>275.8</ele>
        <time>2026-06-20T10:06:03Z</time>
      </trkpt>
      <trkpt lat="43.30673" lon="2.40577">
        <ele>276.4</ele>
        <time>2026-06-20T10:06:04Z</time>
      </trkpt>
      <trkpt lat="43.30672" lon="2.40581">
        <ele>277.3</ele>
        <time>2026-06-20T10:06:05Z</time>
      </trkpt>
      <trkpt lat="43.30671" lon="2.40586">
        <ele>277.9</ele>
        <time>2026-06-20T10:06:06Z</time>
      </trkpt>
      <trkpt lat="43.30669" lon="2.4059">
        <ele>278</ele>
        <time>2026-06-20T10:06:07Z</time>
      </trkpt>
      <trkpt lat="43.30666" lon="2.40592">
        <ele>278</ele>
        <time>2026-06-20T10:06:08Z</time>
      </trkpt>
      <trkpt lat="43.3066" lon="2.40596">
        <ele>278.6</ele>
        <time>2026-06-20T10:06:09Z</time>
      </trkpt>
      <trkpt lat="43.30656" lon="2.40598">
        <ele>278.9</ele>
        <time>2026-06-20T10:06:10Z</time>
      </trkpt>
      <trkpt lat="43.30651" lon="2.40601">
        <ele>279.3</ele>
        <time>2026-06-20T10:06:11Z</time>
      </trkpt>
      <trkpt lat="43.30647" lon="2.40605">
        <ele>279.6</ele>
        <time>2026-06-20T10:06:12Z</time>
      </trkpt>
      <trkpt lat="43.30644" lon="2.4061">
        <ele>279.9</ele>
        <time>2026-06-20T10:06:13Z</time>
      </trkpt>
      <trkpt lat="43.30642" lon="2.40616">
        <ele>280.2</ele>
        <time>2026-06-20T10:06:14Z</time>
      </trkpt>
      <trkpt lat="43.3064" lon="2.40622">
        <ele>280.4</ele>
        <time>2026-06-20T10:06:15Z</time>
      </trkpt>
      <trkpt lat="43.30639" lon="2.40628">
        <ele>280.6</ele>
        <time>2026-06-20T10:06:16Z</time>
      </trkpt>
      <trkpt lat="43.30639" lon="2.40635">
        <ele>280.8</ele>
        <time>2026-06-20T10:06:17Z</time>
      </trkpt>
      <trkpt lat="43.30638" lon="2.40638">
        <ele>280.9</ele>
        <time>2026-06-20T10:06:18Z</time>
      </trkpt>
      <trkpt lat="43.30635" lon="2.40642">
        <ele>280.7</ele>
        <time>2026-06-20T10:06:19Z</time>
      </trkpt>
      <trkpt lat="43.30632" lon="2.40643">
        <ele>280.5</ele>
        <time>2026-06-20T10:06:20Z</time>
      </trkpt>
      <trkpt lat="43.30627" lon="2.40643">
        <ele>280.1</ele>
        <time>2026-06-20T10:06:21Z</time>
      </trkpt>
      <trkpt lat="43.30623" lon="2.40644">
        <ele>279.7</ele>
        <time>2026-06-20T10:06:22Z</time>
      </trkpt>
      <trkpt lat="43.30612" lon="2.40649">
        <ele>278.7</ele>
        <time>2026-06-20T10:06:24Z</time>
      </trkpt>
      <trkpt lat="43.30601" lon="2.40651">
        <ele>277.8</ele>
        <time>2026-06-20T10:06:26Z</time>
      </trkpt>
      <trkpt lat="43.30596" lon="2.40649">
        <ele>277.5</ele>
        <time>2026-06-20T10:06:27Z</time>
      </trkpt>
      <trkpt lat="43.30592" lon="2.40645">
        <ele>277.4</ele>
        <time>2026-06-20T10:06:28Z</time>
      </trkpt>
      <trkpt lat="43.30588" lon="2.40641">
        <ele>277.3</ele>
        <time>2026-06-20T10:06:29Z</time>
      </trkpt>
      <trkpt lat="43.30585" lon="2.4064">
        <ele>277.1</ele>
        <time>2026-06-20T10:06:30Z</time>
      </trkpt>
      <trkpt lat="43.30582" lon="2.40641">
        <ele>276.9</ele>
        <time>2026-06-20T10:06:31Z</time>
      </trkpt>
      <trkpt lat="43.30579" lon="2.40644">
        <ele>276.6</ele>
        <time>2026-06-20T10:06:32Z</time>
      </trkpt>
      <trkpt lat="43.30575" lon="2.40648">
        <ele>276.3</ele>
        <time>2026-06-20T10:06:33Z</time>
      </trkpt>
      <trkpt lat="43.30569" lon="2.40651">
        <ele>275.8</ele>
        <time>2026-06-20T10:06:34Z</time>
      </trkpt>
      <trkpt lat="43.30563" lon="2.40652">
        <ele>275.5</ele>
        <time>2026-06-20T10:06:35Z</time>
      </trkpt>
      <trkpt lat="43.30556" lon="2.40652">
        <ele>275.1</ele>
        <time>2026-06-20T10:06:36Z</time>
      </trkpt>
      <trkpt lat="43.30549" lon="2.40652">
        <ele>274.6</ele>
        <time>2026-06-20T10:06:37Z</time>
      </trkpt>
      <trkpt lat="43.30536" lon="2.40654">
        <ele>273.5</ele>
        <time>2026-06-20T10:06:39Z</time>
      </trkpt>
      <trkpt lat="43.3053" lon="2.40658">
        <ele>272.8</ele>
        <time>2026-06-20T10:06:40Z</time>
      </trkpt>
      <trkpt lat="43.30526" lon="2.40665">
        <ele>272.2</ele>
        <time>2026-06-20T10:06:41Z</time>
      </trkpt>
      <trkpt lat="43.30522" lon="2.40672">
        <ele>271.7</ele>
        <time>2026-06-20T10:06:42Z</time>
      </trkpt>
      <trkpt lat="43.3052" lon="2.4068">
        <ele>271.2</ele>
        <time>2026-06-20T10:06:43Z</time>
      </trkpt>
      <trkpt lat="43.30517" lon="2.40687">
        <ele>270.7</ele>
        <time>2026-06-20T10:06:44Z</time>
      </trkpt>
      <trkpt lat="43.30515" lon="2.40694">
        <ele>270.1</ele>
        <time>2026-06-20T10:06:45Z</time>
      </trkpt>
      <trkpt lat="43.30514" lon="2.407">
        <ele>270.3</ele>
        <time>2026-06-20T10:06:46Z</time>
      </trkpt>
      <trkpt lat="43.30514" lon="2.40706">
        <ele>270.6</ele>
        <time>2026-06-20T10:06:47Z</time>
      </trkpt>
      <trkpt lat="43.30514" lon="2.40713">
        <ele>271</ele>
        <time>2026-06-20T10:06:48Z</time>
      </trkpt>
      <trkpt lat="43.30515" lon="2.40718">
        <ele>271.5</ele>
        <time>2026-06-20T10:06:49Z</time>
      </trkpt>
      <trkpt lat="43.30515" lon="2.40722">
        <ele>271.7</ele>
        <time>2026-06-20T10:06:50Z</time>
      </trkpt>
      <trkpt lat="43.30513" lon="2.40726">
        <ele>271.6</ele>
        <time>2026-06-20T10:06:51Z</time>
      </trkpt>
      <trkpt lat="43.30511" lon="2.40731">
        <ele>271.4</ele>
        <time>2026-06-20T10:06:52Z</time>
      </trkpt>
      <trkpt lat="43.30508" lon="2.40736">
        <ele>271.1</ele>
        <time>2026-06-20T10:06:53Z</time>
      </trkpt>
      <trkpt lat="43.30505" lon="2.40742">
        <ele>270.7</ele>
        <time>2026-06-20T10:06:54Z</time>
      </trkpt>
      <trkpt lat="43.30501" lon="2.40747">
        <ele>270.2</ele>
        <time>2026-06-20T10:06:55Z</time>
      </trkpt>
      <trkpt lat="43.30487" lon="2.40763">
        <ele>269.9</ele>
        <time>2026-06-20T10:06:59Z</time>
      </trkpt>
      <trkpt lat="43.30485" lon="2.40771">
        <ele>270.1</ele>
        <time>2026-06-20T10:07:00Z</time>
      </trkpt>
      <trkpt lat="43.30484" lon="2.40779">
        <ele>270.5</ele>
        <time>2026-06-20T10:07:01Z</time>
      </trkpt>
      <trkpt lat="43.30483" lon="2.40786">
        <ele>271.2</ele>
        <time>2026-06-20T10:07:02Z</time>
      </trkpt>
      <trkpt lat="43.30482" lon="2.40792">
        <ele>271.5</ele>
        <time>2026-06-20T10:07:03Z</time>
      </trkpt>
      <trkpt lat="43.30479" lon="2.40805">
        <ele>272.6</ele>
        <time>2026-06-20T10:07:05Z</time>
      </trkpt>
      <trkpt lat="43.3048" lon="2.40811">
        <ele>273.1</ele>
        <time>2026-06-20T10:07:06Z</time>
      </trkpt>
      <trkpt lat="43.30482" lon="2.40818">
        <ele>273.6</ele>
        <time>2026-06-20T10:07:07Z</time>
      </trkpt>
      <trkpt lat="43.30482" lon="2.40825">
        <ele>274</ele>
        <time>2026-06-20T10:07:08Z</time>
      </trkpt>
      <trkpt lat="43.30481" lon="2.40832">
        <ele>274.3</ele>
        <time>2026-06-20T10:07:09Z</time>
      </trkpt>
      <trkpt lat="43.30479" lon="2.40839">
        <ele>274.3</ele>
        <time>2026-06-20T10:07:10Z</time>
      </trkpt>
      <trkpt lat="43.30476" lon="2.40845">
        <ele>274.1</ele>
        <time>2026-06-20T10:07:11Z</time>
      </trkpt>
      <trkpt lat="43.30474" lon="2.40853">
        <ele>274</ele>
        <time>2026-06-20T10:07:12Z</time>
      </trkpt>
      <trkpt lat="43.30473" lon="2.4086">
        <ele>274</ele>
        <time>2026-06-20T10:07:13Z</time>
      </trkpt>
      <trkpt lat="43.30475" lon="2.40865">
        <ele>274</ele>
        <time>2026-06-20T10:07:14Z</time>
      </trkpt>
      <trkpt lat="43.30479" lon="2.40869">
        <ele>274</ele>
        <time>2026-06-20T10:07:15Z</time>
      </trkpt>
      <trkpt lat="43.30486" lon="2.40876">
        <ele>274.2</ele>
        <time>2026-06-20T10:07:17Z</time>
      </trkpt>
      <trkpt lat="43.30487" lon="2.40877">
        <ele>274.3</ele>
        <time>2026-06-20T10:07:18Z</time>
      </trkpt>
      <trkpt lat="43.30488" lon="2.40878">
        <ele>274.3</ele>
        <time>2026-06-20T10:07:19Z</time>
      </trkpt>
      <trkpt lat="43.30488" lon="2.40881">
        <ele>274.2</ele>
        <time>2026-06-20T10:07:20Z</time>
      </trkpt>
      <trkpt lat="43.30487" lon="2.40884">
        <ele>274.1</ele>
        <time>2026-06-20T10:07:21Z</time>
      </trkpt>
      <trkpt lat="43.30485" lon="2.40887">
        <ele>273.9</ele>
        <time>2026-06-20T10:07:22Z</time>
      </trkpt>
      <trkpt lat="43.30484" lon="2.40892">
        <ele>273.7</ele>
        <time>2026-06-20T10:07:23Z</time>
      </trkpt>
      <trkpt lat="43.30487" lon="2.40903">
        <ele>273.3</ele>
        <time>2026-06-20T10:07:25Z</time>
      </trkpt>
      <trkpt lat="43.30491" lon="2.40914">
        <ele>272.8</ele>
        <time>2026-06-20T10:07:27Z</time>
      </trkpt>
      <trkpt lat="43.30491" lon="2.40921">
        <ele>272.3</ele>
        <time>2026-06-20T10:07:28Z</time>
      </trkpt>
      <trkpt lat="43.3049" lon="2.40926">
        <ele>271.9</ele>
        <time>2026-06-20T10:07:29Z</time>
      </trkpt>
      <trkpt lat="43.30488" lon="2.4093">
        <ele>271.5</ele>
        <time>2026-06-20T10:07:30Z</time>
      </trkpt>
      <trkpt lat="43.30484" lon="2.40933">
        <ele>271.3</ele>
        <time>2026-06-20T10:07:31Z</time>
      </trkpt>
      <trkpt lat="43.30476" lon="2.40936">
        <ele>271.2</ele>
        <time>2026-06-20T10:07:33Z</time>
      </trkpt>
      <trkpt lat="43.30474" lon="2.40935">
        <ele>271.3</ele>
        <time>2026-06-20T10:07:34Z</time>
      </trkpt>
      <trkpt lat="43.30471" lon="2.40932">
        <ele>271.4</ele>
        <time>2026-06-20T10:07:35Z</time>
      </trkpt>
      <trkpt lat="43.30468" lon="2.4093">
        <ele>271.5</ele>
        <time>2026-06-20T10:07:36Z</time>
      </trkpt>
      <trkpt lat="43.30464" lon="2.4093">
        <ele>271.5</ele>
        <time>2026-06-20T10:07:37Z</time>
      </trkpt>
      <trkpt lat="43.3046" lon="2.40932">
        <ele>271.4</ele>
        <time>2026-06-20T10:07:38Z</time>
      </trkpt>
      <trkpt lat="43.30457" lon="2.40937">
        <ele>271.3</ele>
        <time>2026-06-20T10:07:39Z</time>
      </trkpt>
      <trkpt lat="43.30453" lon="2.40948">
        <ele>270.8</ele>
        <time>2026-06-20T10:07:41Z</time>
      </trkpt>
      <trkpt lat="43.3045" lon="2.40954">
        <ele>270.6</ele>
        <time>2026-06-20T10:07:42Z</time>
      </trkpt>
      <trkpt lat="43.30446" lon="2.4096">
        <ele>270.4</ele>
        <time>2026-06-20T10:07:43Z</time>
      </trkpt>
      <trkpt lat="43.30443" lon="2.40972">
        <ele>270.1</ele>
        <time>2026-06-20T10:07:45Z</time>
      </trkpt>
      <trkpt lat="43.30442" lon="2.40977">
        <ele>269.8</ele>
        <time>2026-06-20T10:07:46Z</time>
      </trkpt>
      <trkpt lat="43.3044" lon="2.40981">
        <ele>269.7</ele>
        <time>2026-06-20T10:07:47Z</time>
      </trkpt>
      <trkpt lat="43.30437" lon="2.40984">
        <ele>269.6</ele>
        <time>2026-06-20T10:07:48Z</time>
      </trkpt>
      <trkpt lat="43.30428" lon="2.40992">
        <ele>269.4</ele>
        <time>2026-06-20T10:07:50Z</time>
      </trkpt>
      <trkpt lat="43.30424" lon="2.40998">
        <ele>269</ele>
        <time>2026-06-20T10:07:51Z</time>
      </trkpt>
      <trkpt lat="43.30421" lon="2.41003">
        <ele>268.5</ele>
        <time>2026-06-20T10:07:52Z</time>
      </trkpt>
      <trkpt lat="43.30412" lon="2.4101">
        <ele>267.7</ele>
        <time>2026-06-20T10:07:54Z</time>
      </trkpt>
      <trkpt lat="43.30403" lon="2.41018">
        <ele>267.1</ele>
        <time>2026-06-20T10:07:56Z</time>
      </trkpt>
      <trkpt lat="43.30383" lon="2.41037">
        <ele>266.1</ele>
        <time>2026-06-20T10:08:00Z</time>
      </trkpt>
      <trkpt lat="43.3038" lon="2.41041">
        <ele>265.9</ele>
        <time>2026-06-20T10:08:01Z</time>
      </trkpt>
      <trkpt lat="43.30376" lon="2.41045">
        <ele>265.7</ele>
        <time>2026-06-20T10:08:02Z</time>
      </trkpt>
      <trkpt lat="43.30373" lon="2.41048">
        <ele>265.7</ele>
        <time>2026-06-20T10:08:03Z</time>
      </trkpt>
      <trkpt lat="43.30369" lon="2.41051">
        <ele>265.7</ele>
        <time>2026-06-20T10:08:04Z</time>
      </trkpt>
      <trkpt lat="43.30367" lon="2.41054">
        <ele>265.6</ele>
        <time>2026-06-20T10:08:05Z</time>
      </trkpt>
      <trkpt lat="43.30365" lon="2.41057">
        <ele>265.6</ele>
        <time>2026-06-20T10:08:06Z</time>
      </trkpt>
      <trkpt lat="43.30362" lon="2.41061">
        <ele>265.4</ele>
        <time>2026-06-20T10:08:07Z</time>
      </trkpt>
      <trkpt lat="43.30359" lon="2.41064">
        <ele>265</ele>
        <time>2026-06-20T10:08:08Z</time>
      </trkpt>
      <trkpt lat="43.3035" lon="2.41073">
        <ele>264.2</ele>
        <time>2026-06-20T10:08:10Z</time>
      </trkpt>
      <trkpt lat="43.30341" lon="2.41078">
        <ele>264</ele>
        <time>2026-06-20T10:08:12Z</time>
      </trkpt>
      <trkpt lat="43.30336" lon="2.41078">
        <ele>264.1</ele>
        <time>2026-06-20T10:08:13Z</time>
      </trkpt>
      <trkpt lat="43.30332" lon="2.41077">
        <ele>264.2</ele>
        <time>2026-06-20T10:08:14Z</time>
      </trkpt>
      <trkpt lat="43.30327" lon="2.41075">
        <ele>264.2</ele>
        <time>2026-06-20T10:08:15Z</time>
      </trkpt>
      <trkpt lat="43.30323" lon="2.41073">
        <ele>264.1</ele>
        <time>2026-06-20T10:08:16Z</time>
      </trkpt>
      <trkpt lat="43.30318" lon="2.41072">
        <ele>264</ele>
        <time>2026-06-20T10:08:17Z</time>
      </trkpt>
      <trkpt lat="43.30312" lon="2.41071">
        <ele>263.8</ele>
        <time>2026-06-20T10:08:18Z</time>
      </trkpt>
      <trkpt lat="43.30301" lon="2.41071">
        <ele>262.8</ele>
        <time>2026-06-20T10:08:20Z</time>
      </trkpt>
      <trkpt lat="43.30292" lon="2.41063">
        <ele>261.3</ele>
        <time>2026-06-20T10:08:22Z</time>
      </trkpt>
      <trkpt lat="43.30288" lon="2.41058">
        <ele>260.5</ele>
        <time>2026-06-20T10:08:23Z</time>
      </trkpt>
      <trkpt lat="43.30283" lon="2.41055">
        <ele>259.7</ele>
        <time>2026-06-20T10:08:24Z</time>
      </trkpt>
      <trkpt lat="43.30278" lon="2.41054">
        <ele>258.9</ele>
        <time>2026-06-20T10:08:25Z</time>
      </trkpt>
      <trkpt lat="43.30274" lon="2.41056">
        <ele>258.2</ele>
        <time>2026-06-20T10:08:26Z</time>
      </trkpt>
      <trkpt lat="43.30271" lon="2.4106">
        <ele>257.7</ele>
        <time>2026-06-20T10:08:27Z</time>
      </trkpt>
      <trkpt lat="43.30269" lon="2.41062">
        <ele>257.5</ele>
        <time>2026-06-20T10:08:28Z</time>
      </trkpt>
      <trkpt lat="43.30267" lon="2.41064">
        <ele>257.1</ele>
        <time>2026-06-20T10:08:29Z</time>
      </trkpt>
      <trkpt lat="43.30265" lon="2.41068">
        <ele>256.9</ele>
        <time>2026-06-20T10:08:30Z</time>
      </trkpt>
      <trkpt lat="43.30263" lon="2.41072">
        <ele>256.7</ele>
        <time>2026-06-20T10:08:31Z</time>
      </trkpt>
      <trkpt lat="43.3026" lon="2.41076">
        <ele>256.4</ele>
        <time>2026-06-20T10:08:32Z</time>
      </trkpt>
      <trkpt lat="43.30254" lon="2.41081">
        <ele>255.5</ele>
        <time>2026-06-20T10:08:34Z</time>
      </trkpt>
      <trkpt lat="43.30251" lon="2.41086">
        <ele>255.4</ele>
        <time>2026-06-20T10:08:35Z</time>
      </trkpt>
      <trkpt lat="43.30249" lon="2.41091">
        <ele>255.3</ele>
        <time>2026-06-20T10:08:36Z</time>
      </trkpt>
      <trkpt lat="43.30247" lon="2.41097">
        <ele>255.2</ele>
        <time>2026-06-20T10:08:37Z</time>
      </trkpt>
      <trkpt lat="43.30243" lon="2.41103">
        <ele>254.8</ele>
        <time>2026-06-20T10:08:38Z</time>
      </trkpt>
      <trkpt lat="43.30239" lon="2.41109">
        <ele>254.2</ele>
        <time>2026-06-20T10:08:39Z</time>
      </trkpt>
      <trkpt lat="43.30236" lon="2.41116">
        <ele>254</ele>
        <time>2026-06-20T10:08:40Z</time>
      </trkpt>
      <trkpt lat="43.30235" lon="2.41122">
        <ele>254.2</ele>
        <time>2026-06-20T10:08:41Z</time>
      </trkpt>
      <trkpt lat="43.30233" lon="2.41127">
        <ele>254.2</ele>
        <time>2026-06-20T10:08:42Z</time>
      </trkpt>
      <trkpt lat="43.30229" lon="2.41131">
        <ele>253.7</ele>
        <time>2026-06-20T10:08:43Z</time>
      </trkpt>
      <trkpt lat="43.30225" lon="2.41135">
        <ele>253.2</ele>
        <time>2026-06-20T10:08:44Z</time>
      </trkpt>
      <trkpt lat="43.30222" lon="2.4114">
        <ele>253</ele>
        <time>2026-06-20T10:08:45Z</time>
      </trkpt>
      <trkpt lat="43.30221" lon="2.41146">
        <ele>253.2</ele>
        <time>2026-06-20T10:08:46Z</time>
      </trkpt>
      <trkpt lat="43.3022" lon="2.41153">
        <ele>253.5</ele>
        <time>2026-06-20T10:08:47Z</time>
      </trkpt>
      <trkpt lat="43.30219" lon="2.41159">
        <ele>253.6</ele>
        <time>2026-06-20T10:08:48Z</time>
      </trkpt>
      <trkpt lat="43.30216" lon="2.41164">
        <ele>253.4</ele>
        <time>2026-06-20T10:08:49Z</time>
      </trkpt>
      <trkpt lat="43.30214" lon="2.41169">
        <ele>253.3</ele>
        <time>2026-06-20T10:08:50Z</time>
      </trkpt>
      <trkpt lat="43.30209" lon="2.41179">
        <ele>253.1</ele>
        <time>2026-06-20T10:08:52Z</time>
      </trkpt>
      <trkpt lat="43.30201" lon="2.41186">
        <ele>251.7</ele>
        <time>2026-06-20T10:08:54Z</time>
      </trkpt>
      <trkpt lat="43.30196" lon="2.4119">
        <ele>251.1</ele>
        <time>2026-06-20T10:08:55Z</time>
      </trkpt>
      <trkpt lat="43.30193" lon="2.41202">
        <ele>251.2</ele>
        <time>2026-06-20T10:08:57Z</time>
      </trkpt>
      <trkpt lat="43.30192" lon="2.41209">
        <ele>251.5</ele>
        <time>2026-06-20T10:08:58Z</time>
      </trkpt>
      <trkpt lat="43.3019" lon="2.41215">
        <ele>251.3</ele>
        <time>2026-06-20T10:08:59Z</time>
      </trkpt>
      <trkpt lat="43.30186" lon="2.4122">
        <ele>250.8</ele>
        <time>2026-06-20T10:09:00Z</time>
      </trkpt>
      <trkpt lat="43.30183" lon="2.41224">
        <ele>250.3</ele>
        <time>2026-06-20T10:09:01Z</time>
      </trkpt>
      <trkpt lat="43.30179" lon="2.41226">
        <ele>249.6</ele>
        <time>2026-06-20T10:09:02Z</time>
      </trkpt>
      <trkpt lat="43.30176" lon="2.41227">
        <ele>249</ele>
        <time>2026-06-20T10:09:03Z</time>
      </trkpt>
      <trkpt lat="43.30174" lon="2.4123">
        <ele>248.9</ele>
        <time>2026-06-20T10:09:04Z</time>
      </trkpt>
      <trkpt lat="43.30174" lon="2.41233">
        <ele>249.1</ele>
        <time>2026-06-20T10:09:05Z</time>
      </trkpt>
      <trkpt lat="43.30173" lon="2.41236">
        <ele>249.4</ele>
        <time>2026-06-20T10:09:06Z</time>
      </trkpt>
      <trkpt lat="43.30171" lon="2.4124">
        <ele>249.6</ele>
        <time>2026-06-20T10:09:07Z</time>
      </trkpt>
      <trkpt lat="43.30169" lon="2.41245">
        <ele>249.8</ele>
        <time>2026-06-20T10:09:08Z</time>
      </trkpt>
      <trkpt lat="43.30164" lon="2.41255">
        <ele>250.2</ele>
        <time>2026-06-20T10:09:10Z</time>
      </trkpt>
      <trkpt lat="43.30153" lon="2.4127">
        <ele>249.7</ele>
        <time>2026-06-20T10:09:13Z</time>
      </trkpt>
      <trkpt lat="43.30148" lon="2.41275">
        <ele>249.4</ele>
        <time>2026-06-20T10:09:14Z</time>
      </trkpt>
      <trkpt lat="43.30142" lon="2.41279">
        <ele>248.9</ele>
        <time>2026-06-20T10:09:15Z</time>
      </trkpt>
      <trkpt lat="43.30125" lon="2.41293">
        <ele>248.1</ele>
        <time>2026-06-20T10:09:18Z</time>
      </trkpt>
      <trkpt lat="43.3012" lon="2.41298">
        <ele>248.4</ele>
        <time>2026-06-20T10:09:19Z</time>
      </trkpt>
      <trkpt lat="43.30115" lon="2.41301">
        <ele>248.4</ele>
        <time>2026-06-20T10:09:20Z</time>
      </trkpt>
      <trkpt lat="43.30109" lon="2.41303">
        <ele>247.9</ele>
        <time>2026-06-20T10:09:21Z</time>
      </trkpt>
      <trkpt lat="43.30103" lon="2.41303">
        <ele>247.1</ele>
        <time>2026-06-20T10:09:22Z</time>
      </trkpt>
      <trkpt lat="43.30095" lon="2.41304">
        <ele>246.2</ele>
        <time>2026-06-20T10:09:23Z</time>
      </trkpt>
      <trkpt lat="43.30079" lon="2.41306">
        <ele>244.7</ele>
        <time>2026-06-20T10:09:25Z</time>
      </trkpt>
      <trkpt lat="43.30071" lon="2.41307">
        <ele>244.2</ele>
        <time>2026-06-20T10:09:26Z</time>
      </trkpt>
      <trkpt lat="43.30063" lon="2.41307">
        <ele>243.7</ele>
        <time>2026-06-20T10:09:27Z</time>
      </trkpt>
      <trkpt lat="43.30055" lon="2.41308">
        <ele>243.3</ele>
        <time>2026-06-20T10:09:28Z</time>
      </trkpt>
      <trkpt lat="43.30048" lon="2.41309">
        <ele>242.8</ele>
        <time>2026-06-20T10:09:29Z</time>
      </trkpt>
      <trkpt lat="43.30033" lon="2.4131">
        <ele>241.7</ele>
        <time>2026-06-20T10:09:31Z</time>
      </trkpt>
      <trkpt lat="43.30019" lon="2.41314">
        <ele>240.9</ele>
        <time>2026-06-20T10:09:33Z</time>
      </trkpt>
      <trkpt lat="43.30012" lon="2.41315">
        <ele>240.5</ele>
        <time>2026-06-20T10:09:34Z</time>
      </trkpt>
      <trkpt lat="43.30005" lon="2.41316">
        <ele>240.1</ele>
        <time>2026-06-20T10:09:35Z</time>
      </trkpt>
      <trkpt lat="43.29998" lon="2.41315">
        <ele>239.6</ele>
        <time>2026-06-20T10:09:36Z</time>
      </trkpt>
      <trkpt lat="43.2999" lon="2.41315">
        <ele>239.2</ele>
        <time>2026-06-20T10:09:37Z</time>
      </trkpt>
      <trkpt lat="43.29983" lon="2.41314">
        <ele>238.8</ele>
        <time>2026-06-20T10:09:38Z</time>
      </trkpt>
      <trkpt lat="43.29976" lon="2.41312">
        <ele>238.4</ele>
        <time>2026-06-20T10:09:39Z</time>
      </trkpt>
      <trkpt lat="43.29962" lon="2.41308">
        <ele>237.7</ele>
        <time>2026-06-20T10:09:41Z</time>
      </trkpt>
      <trkpt lat="43.29955" lon="2.41304">
        <ele>237.2</ele>
        <time>2026-06-20T10:09:42Z</time>
      </trkpt>
      <trkpt lat="43.29942" lon="2.41296">
        <ele>236</ele>
        <time>2026-06-20T10:09:44Z</time>
      </trkpt>
      <trkpt lat="43.2993" lon="2.41288">
        <ele>235.6</ele>
        <time>2026-06-20T10:09:46Z</time>
      </trkpt>
      <trkpt lat="43.29923" lon="2.41286">
        <ele>235.7</ele>
        <time>2026-06-20T10:09:47Z</time>
      </trkpt>
      <trkpt lat="43.29917" lon="2.41286">
        <ele>236</ele>
        <time>2026-06-20T10:09:48Z</time>
      </trkpt>
      <trkpt lat="43.2991" lon="2.41286">
        <ele>235.7</ele>
        <time>2026-06-20T10:09:49Z</time>
      </trkpt>
      <trkpt lat="43.29904" lon="2.41286">
        <ele>235.4</ele>
        <time>2026-06-20T10:09:50Z</time>
      </trkpt>
      <trkpt lat="43.29885" lon="2.41294">
        <ele>234</ele>
        <time>2026-06-20T10:09:53Z</time>
      </trkpt>
      <trkpt lat="43.29878" lon="2.41297">
        <ele>233.1</ele>
        <time>2026-06-20T10:09:54Z</time>
      </trkpt>
      <trkpt lat="43.29863" lon="2.41299">
        <ele>231.5</ele>
        <time>2026-06-20T10:09:56Z</time>
      </trkpt>
      <trkpt lat="43.29855" lon="2.41299">
        <ele>230.8</ele>
        <time>2026-06-20T10:09:57Z</time>
      </trkpt>
      <trkpt lat="43.2983" lon="2.41306">
        <ele>228.8</ele>
        <time>2026-06-20T10:10:00Z</time>
      </trkpt>
      <trkpt lat="43.29824" lon="2.41313">
        <ele>228.1</ele>
        <time>2026-06-20T10:10:01Z</time>
      </trkpt>
      <trkpt lat="43.29821" lon="2.41322">
        <ele>227.5</ele>
        <time>2026-06-20T10:10:02Z</time>
      </trkpt>
      <trkpt lat="43.29819" lon="2.41331">
        <ele>227.1</ele>
        <time>2026-06-20T10:10:03Z</time>
      </trkpt>
      <trkpt lat="43.29817" lon="2.4134">
        <ele>226.4</ele>
        <time>2026-06-20T10:10:04Z</time>
      </trkpt>
      <trkpt lat="43.29814" lon="2.41345">
        <ele>225.8</ele>
        <time>2026-06-20T10:10:05Z</time>
      </trkpt>
      <trkpt lat="43.2981" lon="2.4135">
        <ele>225.2</ele>
        <time>2026-06-20T10:10:06Z</time>
      </trkpt>
      <trkpt lat="43.29808" lon="2.41356">
        <ele>224.6</ele>
        <time>2026-06-20T10:10:07Z</time>
      </trkpt>
      <trkpt lat="43.29807" lon="2.41362">
        <ele>224.1</ele>
        <time>2026-06-20T10:10:08Z</time>
      </trkpt>
      <trkpt lat="43.29803" lon="2.41375">
        <ele>223.3</ele>
        <time>2026-06-20T10:10:10Z</time>
      </trkpt>
      <trkpt lat="43.29799" lon="2.41381">
        <ele>222.9</ele>
        <time>2026-06-20T10:10:11Z</time>
      </trkpt>
      <trkpt lat="43.29793" lon="2.41386">
        <ele>222.3</ele>
        <time>2026-06-20T10:10:12Z</time>
      </trkpt>
      <trkpt lat="43.29789" lon="2.4139">
        <ele>221.8</ele>
        <time>2026-06-20T10:10:13Z</time>
      </trkpt>
      <trkpt lat="43.29788" lon="2.41393">
        <ele>221.4</ele>
        <time>2026-06-20T10:10:14Z</time>
      </trkpt>
      <trkpt lat="43.29786" lon="2.41396">
        <ele>221.1</ele>
        <time>2026-06-20T10:10:15Z</time>
      </trkpt>
      <trkpt lat="43.29785" lon="2.414">
        <ele>220.7</ele>
        <time>2026-06-20T10:10:16Z</time>
      </trkpt>
      <trkpt lat="43.29782" lon="2.41402">
        <ele>220.3</ele>
        <time>2026-06-20T10:10:17Z</time>
      </trkpt>
      <trkpt lat="43.2978" lon="2.41406">
        <ele>219.9</ele>
        <time>2026-06-20T10:10:18Z</time>
      </trkpt>
      <trkpt lat="43.29779" lon="2.41411">
        <ele>219.6</ele>
        <time>2026-06-20T10:10:19Z</time>
      </trkpt>
      <trkpt lat="43.2978" lon="2.41415">
        <ele>219.2</ele>
        <time>2026-06-20T10:10:20Z</time>
      </trkpt>
      <trkpt lat="43.29779" lon="2.4142">
        <ele>218.9</ele>
        <time>2026-06-20T10:10:21Z</time>
      </trkpt>
      <trkpt lat="43.29779" lon="2.41426">
        <ele>218.4</ele>
        <time>2026-06-20T10:10:22Z</time>
      </trkpt>
      <trkpt lat="43.2978" lon="2.41433">
        <ele>218.1</ele>
        <time>2026-06-20T10:10:23Z</time>
      </trkpt>
      <trkpt lat="43.29782" lon="2.41439">
        <ele>218</ele>
        <time>2026-06-20T10:10:24Z</time>
      </trkpt>
      <trkpt lat="43.29783" lon="2.41445">
        <ele>217.9</ele>
        <time>2026-06-20T10:10:25Z</time>
      </trkpt>
      <trkpt lat="43.29782" lon="2.4145">
        <ele>217.9</ele>
        <time>2026-06-20T10:10:26Z</time>
      </trkpt>
      <trkpt lat="43.29781" lon="2.41455">
        <ele>217.8</ele>
        <time>2026-06-20T10:10:27Z</time>
      </trkpt>
      <trkpt lat="43.29779" lon="2.41461">
        <ele>217.8</ele>
        <time>2026-06-20T10:10:28Z</time>
      </trkpt>
      <trkpt lat="43.29778" lon="2.41468">
        <ele>217.9</ele>
        <time>2026-06-20T10:10:29Z</time>
      </trkpt>
      <trkpt lat="43.29779" lon="2.41483">
        <ele>218.1</ele>
        <time>2026-06-20T10:10:31Z</time>
      </trkpt>
      <trkpt lat="43.2978" lon="2.41491">
        <ele>218.2</ele>
        <time>2026-06-20T10:10:32Z</time>
      </trkpt>
      <trkpt lat="43.2978" lon="2.41498">
        <ele>218.2</ele>
        <time>2026-06-20T10:10:33Z</time>
      </trkpt>
      <trkpt lat="43.2978" lon="2.41506">
        <ele>218.2</ele>
        <time>2026-06-20T10:10:34Z</time>
      </trkpt>
      <trkpt lat="43.29779" lon="2.41511">
        <ele>218.1</ele>
        <time>2026-06-20T10:10:35Z</time>
      </trkpt>
      <trkpt lat="43.29777" lon="2.41515">
        <ele>217.9</ele>
        <time>2026-06-20T10:10:36Z</time>
      </trkpt>
      <trkpt lat="43.29775" lon="2.41519">
        <ele>217.7</ele>
        <time>2026-06-20T10:10:37Z</time>
      </trkpt>
      <trkpt lat="43.29772" lon="2.41523">
        <ele>217.4</ele>
        <time>2026-06-20T10:10:38Z</time>
      </trkpt>
      <trkpt lat="43.29769" lon="2.41528">
        <ele>217.1</ele>
        <time>2026-06-20T10:10:39Z</time>
      </trkpt>
      <trkpt lat="43.29768" lon="2.41535">
        <ele>216.8</ele>
        <time>2026-06-20T10:10:40Z</time>
      </trkpt>
      <trkpt lat="43.29768" lon="2.41542">
        <ele>216.6</ele>
        <time>2026-06-20T10:10:41Z</time>
      </trkpt>
      <trkpt lat="43.29768" lon="2.41552">
        <ele>216.4</ele>
        <time>2026-06-20T10:10:42Z</time>
      </trkpt>
      <trkpt lat="43.29767" lon="2.41559">
        <ele>216.1</ele>
        <time>2026-06-20T10:10:43Z</time>
      </trkpt>
      <trkpt lat="43.29763" lon="2.4158">
        <ele>215.1</ele>
        <time>2026-06-20T10:10:45Z</time>
      </trkpt>
      <trkpt lat="43.29762" lon="2.41589">
        <ele>214.4</ele>
        <time>2026-06-20T10:10:46Z</time>
      </trkpt>
      <trkpt lat="43.29761" lon="2.41607">
        <ele>212.6</ele>
        <time>2026-06-20T10:10:48Z</time>
      </trkpt>
      <trkpt lat="43.29759" lon="2.41615">
        <ele>212.1</ele>
        <time>2026-06-20T10:10:49Z</time>
      </trkpt>
      <trkpt lat="43.29758" lon="2.41623">
        <ele>211.7</ele>
        <time>2026-06-20T10:10:50Z</time>
      </trkpt>
      <trkpt lat="43.29757" lon="2.4163">
        <ele>211.3</ele>
        <time>2026-06-20T10:10:51Z</time>
      </trkpt>
      <trkpt lat="43.29754" lon="2.41634">
        <ele>211.2</ele>
        <time>2026-06-20T10:10:52Z</time>
      </trkpt>
      <trkpt lat="43.29751" lon="2.41637">
        <ele>211.1</ele>
        <time>2026-06-20T10:10:53Z</time>
      </trkpt>
      <trkpt lat="43.29748" lon="2.4164">
        <ele>210.9</ele>
        <time>2026-06-20T10:10:54Z</time>
      </trkpt>
      <trkpt lat="43.29745" lon="2.41642">
        <ele>210.6</ele>
        <time>2026-06-20T10:10:55Z</time>
      </trkpt>
      <trkpt lat="43.29744" lon="2.41646">
        <ele>210.2</ele>
        <time>2026-06-20T10:10:56Z</time>
      </trkpt>
      <trkpt lat="43.29745" lon="2.4165">
        <ele>209.5</ele>
        <time>2026-06-20T10:10:57Z</time>
      </trkpt>
      <trkpt lat="43.29749" lon="2.41663">
        <ele>207.6</ele>
        <time>2026-06-20T10:10:59Z</time>
      </trkpt>
      <trkpt lat="43.29752" lon="2.41669">
        <ele>207.2</ele>
        <time>2026-06-20T10:11:00Z</time>
      </trkpt>
      <trkpt lat="43.29754" lon="2.41675">
        <ele>207.6</ele>
        <time>2026-06-20T10:11:01Z</time>
      </trkpt>
      <trkpt lat="43.29755" lon="2.4168">
        <ele>207.8</ele>
        <time>2026-06-20T10:11:02Z</time>
      </trkpt>
      <trkpt lat="43.29754" lon="2.41684">
        <ele>207.7</ele>
        <time>2026-06-20T10:11:03Z</time>
      </trkpt>
      <trkpt lat="43.29751" lon="2.41688">
        <ele>207.1</ele>
        <time>2026-06-20T10:11:04Z</time>
      </trkpt>
      <trkpt lat="43.29747" lon="2.41692">
        <ele>206.8</ele>
        <time>2026-06-20T10:11:05Z</time>
      </trkpt>
      <trkpt lat="43.29737" lon="2.41702">
        <ele>206.2</ele>
        <time>2026-06-20T10:11:07Z</time>
      </trkpt>
      <trkpt lat="43.29731" lon="2.41707">
        <ele>205.6</ele>
        <time>2026-06-20T10:11:08Z</time>
      </trkpt>
      <trkpt lat="43.29724" lon="2.41715">
        <ele>204.6</ele>
        <time>2026-06-20T10:11:09Z</time>
      </trkpt>
      <trkpt lat="43.29713" lon="2.4173">
        <ele>204.1</ele>
        <time>2026-06-20T10:11:11Z</time>
      </trkpt>
      <trkpt lat="43.29707" lon="2.41738">
        <ele>203.6</ele>
        <time>2026-06-20T10:11:12Z</time>
      </trkpt>
      <trkpt lat="43.29684" lon="2.41763">
        <ele>201.7</ele>
        <time>2026-06-20T10:11:16Z</time>
      </trkpt>
      <trkpt lat="43.29681" lon="2.41768">
        <ele>201.5</ele>
        <time>2026-06-20T10:11:17Z</time>
      </trkpt>
      <trkpt lat="43.29677" lon="2.41774">
        <ele>201</ele>
        <time>2026-06-20T10:11:18Z</time>
      </trkpt>
      <trkpt lat="43.29673" lon="2.41778">
        <ele>200.1</ele>
        <time>2026-06-20T10:11:19Z</time>
      </trkpt>
      <trkpt lat="43.29668" lon="2.41783">
        <ele>199.6</ele>
        <time>2026-06-20T10:11:20Z</time>
      </trkpt>
      <trkpt lat="43.29665" lon="2.4179">
        <ele>199.8</ele>
        <time>2026-06-20T10:11:21Z</time>
      </trkpt>
      <trkpt lat="43.29662" lon="2.41797">
        <ele>200</ele>
        <time>2026-06-20T10:11:22Z</time>
      </trkpt>
      <trkpt lat="43.29659" lon="2.41802">
        <ele>199.8</ele>
        <time>2026-06-20T10:11:23Z</time>
      </trkpt>
      <trkpt lat="43.29654" lon="2.41805">
        <ele>199.2</ele>
        <time>2026-06-20T10:11:24Z</time>
      </trkpt>
      <trkpt lat="43.29649" lon="2.41808">
        <ele>198.5</ele>
        <time>2026-06-20T10:11:25Z</time>
      </trkpt>
      <trkpt lat="43.29644" lon="2.41811">
        <ele>197.9</ele>
        <time>2026-06-20T10:11:26Z</time>
      </trkpt>
      <trkpt lat="43.29637" lon="2.41816">
        <ele>197.4</ele>
        <time>2026-06-20T10:11:27Z</time>
      </trkpt>
      <trkpt lat="43.29626" lon="2.41827">
        <ele>196.9</ele>
        <time>2026-06-20T10:11:29Z</time>
      </trkpt>
      <trkpt lat="43.29614" lon="2.41839">
        <ele>195.2</ele>
        <time>2026-06-20T10:11:31Z</time>
      </trkpt>
      <trkpt lat="43.2961" lon="2.41846">
        <ele>194.6</ele>
        <time>2026-06-20T10:11:32Z</time>
      </trkpt>
      <trkpt lat="43.29607" lon="2.41853">
        <ele>194.5</ele>
        <time>2026-06-20T10:11:33Z</time>
      </trkpt>
      <trkpt lat="43.29605" lon="2.4186">
        <ele>194.3</ele>
        <time>2026-06-20T10:11:34Z</time>
      </trkpt>
      <trkpt lat="43.29604" lon="2.41866">
        <ele>194.2</ele>
        <time>2026-06-20T10:11:35Z</time>
      </trkpt>
      <trkpt lat="43.29603" lon="2.41872">
        <ele>194.1</ele>
        <time>2026-06-20T10:11:36Z</time>
      </trkpt>
      <trkpt lat="43.296" lon="2.41877">
        <ele>193.8</ele>
        <time>2026-06-20T10:11:37Z</time>
      </trkpt>
      <trkpt lat="43.29596" lon="2.4188">
        <ele>193.4</ele>
        <time>2026-06-20T10:11:38Z</time>
      </trkpt>
      <trkpt lat="43.29593" lon="2.41884">
        <ele>192.8</ele>
        <time>2026-06-20T10:11:39Z</time>
      </trkpt>
      <trkpt lat="43.29589" lon="2.41889">
        <ele>191.8</ele>
        <time>2026-06-20T10:11:40Z</time>
      </trkpt>
      <trkpt lat="43.29585" lon="2.41895">
        <ele>191.6</ele>
        <time>2026-06-20T10:11:41Z</time>
      </trkpt>
      <trkpt lat="43.29574" lon="2.41907">
        <ele>191.9</ele>
        <time>2026-06-20T10:11:43Z</time>
      </trkpt>
      <trkpt lat="43.2957" lon="2.41914">
        <ele>191.6</ele>
        <time>2026-06-20T10:11:44Z</time>
      </trkpt>
      <trkpt lat="43.29562" lon="2.41928">
        <ele>190.1</ele>
        <time>2026-06-20T10:11:46Z</time>
      </trkpt>
      <trkpt lat="43.29558" lon="2.41935">
        <ele>189.1</ele>
        <time>2026-06-20T10:11:47Z</time>
      </trkpt>
      <trkpt lat="43.2955" lon="2.41949">
        <ele>188.4</ele>
        <time>2026-06-20T10:11:49Z</time>
      </trkpt>
      <trkpt lat="43.29542" lon="2.41965">
        <ele>188.3</ele>
        <time>2026-06-20T10:11:51Z</time>
      </trkpt>
      <trkpt lat="43.29531" lon="2.41973">
        <ele>187.2</ele>
        <time>2026-06-20T10:11:53Z</time>
      </trkpt>
      <trkpt lat="43.29527" lon="2.41977">
        <ele>186.9</ele>
        <time>2026-06-20T10:11:54Z</time>
      </trkpt>
      <trkpt lat="43.29524" lon="2.41983">
        <ele>186.8</ele>
        <time>2026-06-20T10:11:55Z</time>
      </trkpt>
      <trkpt lat="43.29522" lon="2.4199">
        <ele>186.5</ele>
        <time>2026-06-20T10:11:56Z</time>
      </trkpt>
      <trkpt lat="43.29524" lon="2.41997">
        <ele>186.1</ele>
        <time>2026-06-20T10:11:57Z</time>
      </trkpt>
      <trkpt lat="43.29526" lon="2.42002">
        <ele>186.1</ele>
        <time>2026-06-20T10:11:58Z</time>
      </trkpt>
      <trkpt lat="43.29528" lon="2.42006">
        <ele>186.2</ele>
        <time>2026-06-20T10:11:59Z</time>
      </trkpt>
      <trkpt lat="43.29529" lon="2.4201">
        <ele>186.5</ele>
        <time>2026-06-20T10:12:00Z</time>
      </trkpt>
      <trkpt lat="43.2953" lon="2.42014">
        <ele>186.7</ele>
        <time>2026-06-20T10:12:01Z</time>
      </trkpt>
      <trkpt lat="43.2953" lon="2.4202">
        <ele>186.9</ele>
        <time>2026-06-20T10:12:02Z</time>
      </trkpt>
      <trkpt lat="43.2953" lon="2.42026">
        <ele>187.1</ele>
        <time>2026-06-20T10:12:03Z</time>
      </trkpt>
      <trkpt lat="43.2953" lon="2.42032">
        <ele>187.4</ele>
        <time>2026-06-20T10:12:04Z</time>
      </trkpt>
      <trkpt lat="43.2953" lon="2.42039">
        <ele>187.6</ele>
        <time>2026-06-20T10:12:05Z</time>
      </trkpt>
      <trkpt lat="43.2953" lon="2.42046">
        <ele>187.8</ele>
        <time>2026-06-20T10:12:06Z</time>
      </trkpt>
      <trkpt lat="43.29526" lon="2.42059">
        <ele>187.8</ele>
        <time>2026-06-20T10:12:08Z</time>
      </trkpt>
      <trkpt lat="43.29523" lon="2.42065">
        <ele>187.5</ele>
        <time>2026-06-20T10:12:09Z</time>
      </trkpt>
      <trkpt lat="43.29519" lon="2.42072">
        <ele>187.2</ele>
        <time>2026-06-20T10:12:10Z</time>
      </trkpt>
      <trkpt lat="43.29517" lon="2.4208">
        <ele>187.2</ele>
        <time>2026-06-20T10:12:11Z</time>
      </trkpt>
      <trkpt lat="43.29516" lon="2.42088">
        <ele>187.2</ele>
        <time>2026-06-20T10:12:12Z</time>
      </trkpt>
      <trkpt lat="43.29517" lon="2.42096">
        <ele>187.2</ele>
        <time>2026-06-20T10:12:13Z</time>
      </trkpt>
      <trkpt lat="43.29518" lon="2.42104">
        <ele>187.3</ele>
        <time>2026-06-20T10:12:14Z</time>
      </trkpt>
      <trkpt lat="43.29519" lon="2.42112">
        <ele>187.4</ele>
        <time>2026-06-20T10:12:15Z</time>
      </trkpt>
      <trkpt lat="43.2952" lon="2.42119">
        <ele>187.2</ele>
        <time>2026-06-20T10:12:16Z</time>
      </trkpt>
      <trkpt lat="43.29522" lon="2.42135">
        <ele>186.7</ele>
        <time>2026-06-20T10:12:18Z</time>
      </trkpt>
      <trkpt lat="43.29524" lon="2.42151">
        <ele>186.7</ele>
        <time>2026-06-20T10:12:20Z</time>
      </trkpt>
      <trkpt lat="43.29529" lon="2.42165">
        <ele>187.1</ele>
        <time>2026-06-20T10:12:22Z</time>
      </trkpt>
      <trkpt lat="43.29532" lon="2.42172">
        <ele>187.1</ele>
        <time>2026-06-20T10:12:23Z</time>
      </trkpt>
      <trkpt lat="43.29536" lon="2.42177">
        <ele>187.3</ele>
        <time>2026-06-20T10:12:24Z</time>
      </trkpt>
      <trkpt lat="43.2954" lon="2.42182">
        <ele>187.6</ele>
        <time>2026-06-20T10:12:25Z</time>
      </trkpt>
      <trkpt lat="43.29544" lon="2.42188">
        <ele>187.8</ele>
        <time>2026-06-20T10:12:26Z</time>
      </trkpt>
      <trkpt lat="43.29547" lon="2.422">
        <ele>188</ele>
        <time>2026-06-20T10:12:28Z</time>
      </trkpt>
      <trkpt lat="43.29549" lon="2.42207">
        <ele>188.2</ele>
        <time>2026-06-20T10:12:29Z</time>
      </trkpt>
      <trkpt lat="43.29551" lon="2.42213">
        <ele>188.5</ele>
        <time>2026-06-20T10:12:30Z</time>
      </trkpt>
      <trkpt lat="43.29552" lon="2.4222">
        <ele>188.6</ele>
        <time>2026-06-20T10:12:31Z</time>
      </trkpt>
      <trkpt lat="43.29553" lon="2.42227">
        <ele>188.7</ele>
        <time>2026-06-20T10:12:32Z</time>
      </trkpt>
      <trkpt lat="43.29553" lon="2.42234">
        <ele>188.7</ele>
        <time>2026-06-20T10:12:33Z</time>
      </trkpt>
      <trkpt lat="43.29552" lon="2.42241">
        <ele>188.7</ele>
        <time>2026-06-20T10:12:34Z</time>
      </trkpt>
      <trkpt lat="43.29552" lon="2.42248">
        <ele>188.6</ele>
        <time>2026-06-20T10:12:35Z</time>
      </trkpt>
      <trkpt lat="43.2955" lon="2.42255">
        <ele>188.2</ele>
        <time>2026-06-20T10:12:36Z</time>
      </trkpt>
      <trkpt lat="43.29548" lon="2.42261">
        <ele>187.9</ele>
        <time>2026-06-20T10:12:37Z</time>
      </trkpt>
      <trkpt lat="43.29548" lon="2.42265">
        <ele>187.8</ele>
        <time>2026-06-20T10:12:38Z</time>
      </trkpt>
      <trkpt lat="43.29549" lon="2.42268">
        <ele>187.8</ele>
        <time>2026-06-20T10:12:39Z</time>
      </trkpt>
      <trkpt lat="43.2955" lon="2.42269">
        <ele>187.9</ele>
        <time>2026-06-20T10:12:40Z</time>
      </trkpt>
      <trkpt lat="43.29553" lon="2.42268">
        <ele>188.1</ele>
        <time>2026-06-20T10:12:41Z</time>
      </trkpt>
      <trkpt lat="43.29555" lon="2.42266">
        <ele>188.4</ele>
        <time>2026-06-20T10:12:42Z</time>
      </trkpt>
      <trkpt lat="43.29561" lon="2.42263">
        <ele>189.1</ele>
        <time>2026-06-20T10:12:44Z</time>
      </trkpt>
      <trkpt lat="43.29564" lon="2.42262">
        <ele>189.5</ele>
        <time>2026-06-20T10:12:45Z</time>
      </trkpt>
      <trkpt lat="43.29568" lon="2.42261">
        <ele>189.9</ele>
        <time>2026-06-20T10:12:46Z</time>
      </trkpt>
      <trkpt lat="43.2958" lon="2.42263">
        <ele>191.2</ele>
        <time>2026-06-20T10:12:49Z</time>
      </trkpt>
      <trkpt lat="43.29584" lon="2.42265">
        <ele>191.5</ele>
        <time>2026-06-20T10:12:50Z</time>
      </trkpt>
      <trkpt lat="43.29601" lon="2.42267">
        <ele>192.7</ele>
        <time>2026-06-20T10:12:54Z</time>
      </trkpt>
      <trkpt lat="43.2961" lon="2.42269">
        <ele>193.2</ele>
        <time>2026-06-20T10:12:56Z</time>
      </trkpt>
      <trkpt lat="43.29615" lon="2.42269">
        <ele>193.5</ele>
        <time>2026-06-20T10:12:57Z</time>
      </trkpt>
      <trkpt lat="43.29619" lon="2.42267">
        <ele>193.8</ele>
        <time>2026-06-20T10:12:58Z</time>
      </trkpt>
      <trkpt lat="43.29623" lon="2.42264">
        <ele>194.2</ele>
        <time>2026-06-20T10:12:59Z</time>
      </trkpt>
      <trkpt lat="43.29626" lon="2.4226">
        <ele>194.5</ele>
        <time>2026-06-20T10:13:00Z</time>
      </trkpt>
      <trkpt lat="43.29629" lon="2.42255">
        <ele>195</ele>
        <time>2026-06-20T10:13:01Z</time>
      </trkpt>
      <trkpt lat="43.29632" lon="2.4225">
        <ele>195.5</ele>
        <time>2026-06-20T10:13:02Z</time>
      </trkpt>
      <trkpt lat="43.29636" lon="2.42247">
        <ele>195.9</ele>
        <time>2026-06-20T10:13:03Z</time>
      </trkpt>
      <trkpt lat="43.29641" lon="2.42245">
        <ele>196.2</ele>
        <time>2026-06-20T10:13:04Z</time>
      </trkpt>
      <trkpt lat="43.29644" lon="2.42244">
        <ele>196.3</ele>
        <time>2026-06-20T10:13:05Z</time>
      </trkpt>
      <trkpt lat="43.29648" lon="2.42244">
        <ele>196.3</ele>
        <time>2026-06-20T10:13:06Z</time>
      </trkpt>
      <trkpt lat="43.29651" lon="2.42246">
        <ele>196.2</ele>
        <time>2026-06-20T10:13:07Z</time>
      </trkpt>
      <trkpt lat="43.29655" lon="2.42248">
        <ele>196.1</ele>
        <time>2026-06-20T10:13:08Z</time>
      </trkpt>
      <trkpt lat="43.2966" lon="2.42251">
        <ele>195.9</ele>
        <time>2026-06-20T10:13:09Z</time>
      </trkpt>
      <trkpt lat="43.29664" lon="2.42252">
        <ele>195.6</ele>
        <time>2026-06-20T10:13:10Z</time>
      </trkpt>
      <trkpt lat="43.29669" lon="2.42251">
        <ele>195.2</ele>
        <time>2026-06-20T10:13:11Z</time>
      </trkpt>
      <trkpt lat="43.29674" lon="2.42249">
        <ele>194.6</ele>
        <time>2026-06-20T10:13:12Z</time>
      </trkpt>
      <trkpt lat="43.29679" lon="2.42245">
        <ele>194.1</ele>
        <time>2026-06-20T10:13:13Z</time>
      </trkpt>
      <trkpt lat="43.29684" lon="2.42241">
        <ele>193.9</ele>
        <time>2026-06-20T10:13:14Z</time>
      </trkpt>
      <trkpt lat="43.29688" lon="2.42238">
        <ele>194</ele>
        <time>2026-06-20T10:13:15Z</time>
      </trkpt>
      <trkpt lat="43.29695" lon="2.42232">
        <ele>194.4</ele>
        <time>2026-06-20T10:13:16Z</time>
      </trkpt>
      <trkpt lat="43.29701" lon="2.42228">
        <ele>194.2</ele>
        <time>2026-06-20T10:13:17Z</time>
      </trkpt>
      <trkpt lat="43.29706" lon="2.42223">
        <ele>194.2</ele>
        <time>2026-06-20T10:13:18Z</time>
      </trkpt>
      <trkpt lat="43.29712" lon="2.42219">
        <ele>194</ele>
        <time>2026-06-20T10:13:19Z</time>
      </trkpt>
      <trkpt lat="43.29717" lon="2.42214">
        <ele>193.9</ele>
        <time>2026-06-20T10:13:20Z</time>
      </trkpt>
      <trkpt lat="43.29723" lon="2.4221">
        <ele>193.9</ele>
        <time>2026-06-20T10:13:21Z</time>
      </trkpt>
      <trkpt lat="43.29729" lon="2.42206">
        <ele>193.7</ele>
        <time>2026-06-20T10:13:22Z</time>
      </trkpt>
      <trkpt lat="43.29735" lon="2.42203">
        <ele>193.5</ele>
        <time>2026-06-20T10:13:23Z</time>
      </trkpt>
      <trkpt lat="43.29741" lon="2.422">
        <ele>193.1</ele>
        <time>2026-06-20T10:13:24Z</time>
      </trkpt>
      <trkpt lat="43.29747" lon="2.42197">
        <ele>192.7</ele>
        <time>2026-06-20T10:13:25Z</time>
      </trkpt>
      <trkpt lat="43.29754" lon="2.42194">
        <ele>192.3</ele>
        <time>2026-06-20T10:13:26Z</time>
      </trkpt>
      <trkpt lat="43.29761" lon="2.42192">
        <ele>191.6</ele>
        <time>2026-06-20T10:13:27Z</time>
      </trkpt>
      <trkpt lat="43.29769" lon="2.42188">
        <ele>191.1</ele>
        <time>2026-06-20T10:13:28Z</time>
      </trkpt>
      <trkpt lat="43.29776" lon="2.42185">
        <ele>190.7</ele>
        <time>2026-06-20T10:13:29Z</time>
      </trkpt>
      <trkpt lat="43.29783" lon="2.42183">
        <ele>190.2</ele>
        <time>2026-06-20T10:13:30Z</time>
      </trkpt>
      <trkpt lat="43.29796" lon="2.42184">
        <ele>188.5</ele>
        <time>2026-06-20T10:13:32Z</time>
      </trkpt>
      <trkpt lat="43.29802" lon="2.42187">
        <ele>187.1</ele>
        <time>2026-06-20T10:13:33Z</time>
      </trkpt>
      <trkpt lat="43.29808" lon="2.42189">
        <ele>186</ele>
        <time>2026-06-20T10:13:34Z</time>
      </trkpt>
      <trkpt lat="43.29815" lon="2.4219">
        <ele>185.3</ele>
        <time>2026-06-20T10:13:35Z</time>
      </trkpt>
      <trkpt lat="43.29819" lon="2.42191">
        <ele>184.8</ele>
        <time>2026-06-20T10:13:53Z</time>
      </trkpt>
      <trkpt lat="43.29818" lon="2.42193">
        <ele>184.4</ele>
        <time>2026-06-20T10:13:54Z</time>
      </trkpt>
      <trkpt lat="43.29818" lon="2.42197">
        <ele>183.6</ele>
        <time>2026-06-20T10:13:55Z</time>
      </trkpt>
      <trkpt lat="43.29817" lon="2.42207">
        <ele>182.1</ele>
        <time>2026-06-20T10:13:57Z</time>
      </trkpt>
      <trkpt lat="43.29815" lon="2.42212">
        <ele>181.3</ele>
        <time>2026-06-20T10:13:58Z</time>
      </trkpt>
      <trkpt lat="43.29812" lon="2.42217">
        <ele>180.6</ele>
        <time>2026-06-20T10:13:59Z</time>
      </trkpt>
      <trkpt lat="43.29807" lon="2.42221">
        <ele>180.1</ele>
        <time>2026-06-20T10:14:00Z</time>
      </trkpt>
      <trkpt lat="43.29802" lon="2.42225">
        <ele>179.7</ele>
        <time>2026-06-20T10:14:01Z</time>
      </trkpt>
      <trkpt lat="43.29797" lon="2.42227">
        <ele>179.8</ele>
        <time>2026-06-20T10:14:02Z</time>
      </trkpt>
      <trkpt lat="43.29792" lon="2.42229">
        <ele>179.8</ele>
        <time>2026-06-20T10:14:03Z</time>
      </trkpt>
      <trkpt lat="43.2979" lon="2.42232">
        <ele>179.4</ele>
        <time>2026-06-20T10:14:04Z</time>
      </trkpt>
      <trkpt lat="43.29787" lon="2.42234">
        <ele>179</ele>
        <time>2026-06-20T10:14:05Z</time>
      </trkpt>
      <trkpt lat="43.29783" lon="2.42237">
        <ele>178.8</ele>
        <time>2026-06-20T10:14:06Z</time>
      </trkpt>
      <trkpt lat="43.29778" lon="2.4224">
        <ele>178.5</ele>
        <time>2026-06-20T10:14:07Z</time>
      </trkpt>
      <trkpt lat="43.29774" lon="2.42243">
        <ele>178.3</ele>
        <time>2026-06-20T10:14:08Z</time>
      </trkpt>
      <trkpt lat="43.2977" lon="2.42244">
        <ele>178.4</ele>
        <time>2026-06-20T10:14:09Z</time>
      </trkpt>
      <trkpt lat="43.29767" lon="2.42243">
        <ele>178.9</ele>
        <time>2026-06-20T10:14:10Z</time>
      </trkpt>
      <trkpt lat="43.29763" lon="2.42241">
        <ele>179.6</ele>
        <time>2026-06-20T10:14:11Z</time>
      </trkpt>
      <trkpt lat="43.29759" lon="2.42241">
        <ele>180.2</ele>
        <time>2026-06-20T10:14:12Z</time>
      </trkpt>
      <trkpt lat="43.29755" lon="2.42242">
        <ele>180.3</ele>
        <time>2026-06-20T10:14:13Z</time>
      </trkpt>
      <trkpt lat="43.2975" lon="2.42246">
        <ele>179.9</ele>
        <time>2026-06-20T10:14:14Z</time>
      </trkpt>
      <trkpt lat="43.29745" lon="2.42251">
        <ele>179.2</ele>
        <time>2026-06-20T10:14:15Z</time>
      </trkpt>
      <trkpt lat="43.29739" lon="2.42262">
        <ele>176.6</ele>
        <time>2026-06-20T10:14:17Z</time>
      </trkpt>
      <trkpt lat="43.29736" lon="2.42267">
        <ele>175.8</ele>
        <time>2026-06-20T10:14:18Z</time>
      </trkpt>
      <trkpt lat="43.29733" lon="2.42271">
        <ele>175.1</ele>
        <time>2026-06-20T10:14:19Z</time>
      </trkpt>
      <trkpt lat="43.29717" lon="2.42282">
        <ele>173.7</ele>
        <time>2026-06-20T10:14:22Z</time>
      </trkpt>
      <trkpt lat="43.29711" lon="2.42283">
        <ele>174</ele>
        <time>2026-06-20T10:14:23Z</time>
      </trkpt>
      <trkpt lat="43.29706" lon="2.42283">
        <ele>174.3</ele>
        <time>2026-06-20T10:14:24Z</time>
      </trkpt>
      <trkpt lat="43.297" lon="2.42285">
        <ele>174.4</ele>
        <time>2026-06-20T10:14:25Z</time>
      </trkpt>
      <trkpt lat="43.29696" lon="2.42288">
        <ele>174</ele>
        <time>2026-06-20T10:14:26Z</time>
      </trkpt>
      <trkpt lat="43.29691" lon="2.42292">
        <ele>174.7</ele>
        <time>2026-06-20T10:14:27Z</time>
      </trkpt>
      <trkpt lat="43.29686" lon="2.42295">
        <ele>175.6</ele>
        <time>2026-06-20T10:14:28Z</time>
      </trkpt>
      <trkpt lat="43.29682" lon="2.42297">
        <ele>176.5</ele>
        <time>2026-06-20T10:14:29Z</time>
      </trkpt>
      <trkpt lat="43.29678" lon="2.42299">
        <ele>177</ele>
        <time>2026-06-20T10:14:30Z</time>
      </trkpt>
      <trkpt lat="43.29674" lon="2.42303">
        <ele>176.4</ele>
        <time>2026-06-20T10:14:31Z</time>
      </trkpt>
      <trkpt lat="43.29664" lon="2.42313">
        <ele>176.1</ele>
        <time>2026-06-20T10:14:33Z</time>
      </trkpt>
      <trkpt lat="43.29661" lon="2.42316">
        <ele>176.7</ele>
        <time>2026-06-20T10:14:34Z</time>
      </trkpt>
      <trkpt lat="43.29659" lon="2.4232">
        <ele>176.5</ele>
        <time>2026-06-20T10:14:35Z</time>
      </trkpt>
      <trkpt lat="43.29656" lon="2.42323">
        <ele>176.4</ele>
        <time>2026-06-20T10:14:36Z</time>
      </trkpt>
      <trkpt lat="43.2965" lon="2.42331">
        <ele>175.2</ele>
        <time>2026-06-20T10:14:38Z</time>
      </trkpt>
      <trkpt lat="43.29648" lon="2.42334">
        <ele>174.6</ele>
        <time>2026-06-20T10:14:39Z</time>
      </trkpt>
      <trkpt lat="43.29646" lon="2.42339">
        <ele>174.1</ele>
        <time>2026-06-20T10:14:40Z</time>
      </trkpt>
      <trkpt lat="43.29646" lon="2.42344">
        <ele>173.3</ele>
        <time>2026-06-20T10:14:41Z</time>
      </trkpt>
      <trkpt lat="43.29644" lon="2.42349">
        <ele>172.5</ele>
        <time>2026-06-20T10:14:42Z</time>
      </trkpt>
      <trkpt lat="43.29638" lon="2.42355">
        <ele>172.3</ele>
        <time>2026-06-20T10:14:44Z</time>
      </trkpt>
      <trkpt lat="43.29634" lon="2.42357">
        <ele>174</ele>
        <time>2026-06-20T10:14:45Z</time>
      </trkpt>
      <trkpt lat="43.29628" lon="2.42365">
        <ele>177</ele>
        <time>2026-06-20T10:14:47Z</time>
      </trkpt>
      <trkpt lat="43.29625" lon="2.42371">
        <ele>177.6</ele>
        <time>2026-06-20T10:14:48Z</time>
      </trkpt>
      <trkpt lat="43.29625" lon="2.42379">
        <ele>177.1</ele>
        <time>2026-06-20T10:14:49Z</time>
      </trkpt>
      <trkpt lat="43.29624" lon="2.42385">
        <ele>176.5</ele>
        <time>2026-06-20T10:14:50Z</time>
      </trkpt>
      <trkpt lat="43.29624" lon="2.42392">
        <ele>175.6</ele>
        <time>2026-06-20T10:14:51Z</time>
      </trkpt>
      <trkpt lat="43.29625" lon="2.42399">
        <ele>174.2</ele>
        <time>2026-06-20T10:14:52Z</time>
      </trkpt>
      <trkpt lat="43.29624" lon="2.42404">
        <ele>173.6</ele>
        <time>2026-06-20T10:14:53Z</time>
      </trkpt>
      <trkpt lat="43.29622" lon="2.42407">
        <ele>173.7</ele>
        <time>2026-06-20T10:14:54Z</time>
      </trkpt>
      <trkpt lat="43.29619" lon="2.42409">
        <ele>174.3</ele>
        <time>2026-06-20T10:14:55Z</time>
      </trkpt>
      <trkpt lat="43.29612" lon="2.42416">
        <ele>174</ele>
        <time>2026-06-20T10:14:57Z</time>
      </trkpt>
      <trkpt lat="43.29611" lon="2.4242">
        <ele>173.7</ele>
        <time>2026-06-20T10:14:58Z</time>
      </trkpt>
      <trkpt lat="43.29611" lon="2.42426">
        <ele>173</ele>
        <time>2026-06-20T10:14:59Z</time>
      </trkpt>
      <trkpt lat="43.29611" lon="2.42442">
        <ele>171.3</ele>
        <time>2026-06-20T10:15:01Z</time>
      </trkpt>
      <trkpt lat="43.29611" lon="2.4245">
        <ele>170.6</ele>
        <time>2026-06-20T10:15:02Z</time>
      </trkpt>
      <trkpt lat="43.29612" lon="2.42457">
        <ele>170.1</ele>
        <time>2026-06-20T10:15:03Z</time>
      </trkpt>
      <trkpt lat="43.29609" lon="2.4247">
        <ele>170.2</ele>
        <time>2026-06-20T10:15:05Z</time>
      </trkpt>
      <trkpt lat="43.29607" lon="2.42475">
        <ele>171.2</ele>
        <time>2026-06-20T10:15:06Z</time>
      </trkpt>
      <trkpt lat="43.29604" lon="2.42477">
        <ele>172.2</ele>
        <time>2026-06-20T10:15:07Z</time>
      </trkpt>
      <trkpt lat="43.29603" lon="2.42479">
        <ele>172.8</ele>
        <time>2026-06-20T10:15:08Z</time>
      </trkpt>
      <trkpt lat="43.29602" lon="2.42483">
        <ele>172.9</ele>
        <time>2026-06-20T10:15:09Z</time>
      </trkpt>
      <trkpt lat="43.29601" lon="2.42487">
        <ele>172.9</ele>
        <time>2026-06-20T10:15:10Z</time>
      </trkpt>
      <trkpt lat="43.29594" lon="2.42504">
        <ele>172.8</ele>
        <time>2026-06-20T10:15:13Z</time>
      </trkpt>
      <trkpt lat="43.2959" lon="2.4251">
        <ele>172.4</ele>
        <time>2026-06-20T10:15:14Z</time>
      </trkpt>
      <trkpt lat="43.29586" lon="2.42516">
        <ele>171.8</ele>
        <time>2026-06-20T10:15:15Z</time>
      </trkpt>
      <trkpt lat="43.29574" lon="2.42532">
        <ele>172.1</ele>
        <time>2026-06-20T10:15:18Z</time>
      </trkpt>
      <trkpt lat="43.29569" lon="2.42539">
        <ele>173.1</ele>
        <time>2026-06-20T10:15:19Z</time>
      </trkpt>
      <trkpt lat="43.29556" lon="2.42554">
        <ele>172.3</ele>
        <time>2026-06-20T10:15:22Z</time>
      </trkpt>
      <trkpt lat="43.29548" lon="2.42563">
        <ele>173</ele>
        <time>2026-06-20T10:15:24Z</time>
      </trkpt>
      <trkpt lat="43.29544" lon="2.42568">
        <ele>173.2</ele>
        <time>2026-06-20T10:15:25Z</time>
      </trkpt>
      <trkpt lat="43.29541" lon="2.42572">
        <ele>173.3</ele>
        <time>2026-06-20T10:15:26Z</time>
      </trkpt>
      <trkpt lat="43.29537" lon="2.42576">
        <ele>173.5</ele>
        <time>2026-06-20T10:15:27Z</time>
      </trkpt>
      <trkpt lat="43.29533" lon="2.4258">
        <ele>173.7</ele>
        <time>2026-06-20T10:15:28Z</time>
      </trkpt>
      <trkpt lat="43.29528" lon="2.42582">
        <ele>174.1</ele>
        <time>2026-06-20T10:15:29Z</time>
      </trkpt>
      <trkpt lat="43.29513" lon="2.4259">
        <ele>175</ele>
        <time>2026-06-20T10:15:32Z</time>
      </trkpt>
      <trkpt lat="43.29508" lon="2.42593">
        <ele>175.2</ele>
        <time>2026-06-20T10:15:33Z</time>
      </trkpt>
      <trkpt lat="43.29498" lon="2.42598">
        <ele>175.5</ele>
        <time>2026-06-20T10:15:35Z</time>
      </trkpt>
      <trkpt lat="43.29493" lon="2.42601">
        <ele>175.5</ele>
        <time>2026-06-20T10:15:36Z</time>
      </trkpt>
      <trkpt lat="43.29486" lon="2.42611">
        <ele>175.2</ele>
        <time>2026-06-20T10:15:38Z</time>
      </trkpt>
      <trkpt lat="43.29482" lon="2.42617">
        <ele>175</ele>
        <time>2026-06-20T10:15:39Z</time>
      </trkpt>
      <trkpt lat="43.29478" lon="2.42623">
        <ele>174.8</ele>
        <time>2026-06-20T10:15:40Z</time>
      </trkpt>
      <trkpt lat="43.29474" lon="2.42629">
        <ele>174.7</ele>
        <time>2026-06-20T10:15:41Z</time>
      </trkpt>
      <trkpt lat="43.2947" lon="2.42635">
        <ele>174.6</ele>
        <time>2026-06-20T10:15:42Z</time>
      </trkpt>
      <trkpt lat="43.29465" lon="2.42641">
        <ele>174.4</ele>
        <time>2026-06-20T10:15:43Z</time>
      </trkpt>
      <trkpt lat="43.29461" lon="2.42647">
        <ele>174.1</ele>
        <time>2026-06-20T10:15:44Z</time>
      </trkpt>
      <trkpt lat="43.29456" lon="2.42653">
        <ele>173.8</ele>
        <time>2026-06-20T10:15:45Z</time>
      </trkpt>
      <trkpt lat="43.29452" lon="2.42658">
        <ele>173.7</ele>
        <time>2026-06-20T10:15:46Z</time>
      </trkpt>
      <trkpt lat="43.29448" lon="2.42665">
        <ele>173.7</ele>
        <time>2026-06-20T10:15:47Z</time>
      </trkpt>
      <trkpt lat="43.29444" lon="2.42672">
        <ele>173.4</ele>
        <time>2026-06-20T10:15:48Z</time>
      </trkpt>
      <trkpt lat="43.2944" lon="2.42679">
        <ele>172.9</ele>
        <time>2026-06-20T10:15:49Z</time>
      </trkpt>
      <trkpt lat="43.29437" lon="2.42687">
        <ele>172.3</ele>
        <time>2026-06-20T10:15:50Z</time>
      </trkpt>
      <trkpt lat="43.29435" lon="2.42695">
        <ele>171.7</ele>
        <time>2026-06-20T10:15:51Z</time>
      </trkpt>
      <trkpt lat="43.29432" lon="2.42704">
        <ele>171.1</ele>
        <time>2026-06-20T10:15:52Z</time>
      </trkpt>
      <trkpt lat="43.2943" lon="2.42714">
        <ele>170.5</ele>
        <time>2026-06-20T10:15:53Z</time>
      </trkpt>
      <trkpt lat="43.29428" lon="2.42723">
        <ele>170.4</ele>
        <time>2026-06-20T10:15:54Z</time>
      </trkpt>
      <trkpt lat="43.29425" lon="2.42732">
        <ele>170</ele>
        <time>2026-06-20T10:15:55Z</time>
      </trkpt>
      <trkpt lat="43.29422" lon="2.42742">
        <ele>169.8</ele>
        <time>2026-06-20T10:15:56Z</time>
      </trkpt>
      <trkpt lat="43.2942" lon="2.42752">
        <ele>169.5</ele>
        <time>2026-06-20T10:15:57Z</time>
      </trkpt>
      <trkpt lat="43.29417" lon="2.42762">
        <ele>169</ele>
        <time>2026-06-20T10:15:58Z</time>
      </trkpt>
      <trkpt lat="43.29415" lon="2.42771">
        <ele>168.3</ele>
        <time>2026-06-20T10:15:59Z</time>
      </trkpt>
      <trkpt lat="43.29413" lon="2.42778">
        <ele>167.7</ele>
        <time>2026-06-20T10:16:00Z</time>
      </trkpt>
      <trkpt lat="43.29409" lon="2.42785">
        <ele>167.3</ele>
        <time>2026-06-20T10:16:01Z</time>
      </trkpt>
      <trkpt lat="43.29404" lon="2.42791">
        <ele>167.5</ele>
        <time>2026-06-20T10:16:02Z</time>
      </trkpt>
      <trkpt lat="43.294" lon="2.42795">
        <ele>168.1</ele>
        <time>2026-06-20T10:16:03Z</time>
      </trkpt>
      <trkpt lat="43.29395" lon="2.428">
        <ele>168.7</ele>
        <time>2026-06-20T10:16:04Z</time>
      </trkpt>
      <trkpt lat="43.29386" lon="2.42811">
        <ele>169.1</ele>
        <time>2026-06-20T10:16:06Z</time>
      </trkpt>
      <trkpt lat="43.29352" lon="2.4286">
        <ele>167.6</ele>
        <time>2026-06-20T10:16:14Z</time>
      </trkpt>
      <trkpt lat="43.29343" lon="2.42871">
        <ele>167.2</ele>
        <time>2026-06-20T10:16:16Z</time>
      </trkpt>
      <trkpt lat="43.29315" lon="2.42908">
        <ele>166.5</ele>
        <time>2026-06-20T10:16:22Z</time>
      </trkpt>
      <trkpt lat="43.29307" lon="2.42918">
        <ele>166.6</ele>
        <time>2026-06-20T10:16:24Z</time>
      </trkpt>
      <trkpt lat="43.29303" lon="2.42923">
        <ele>166.1</ele>
        <time>2026-06-20T10:16:25Z</time>
      </trkpt>
      <trkpt lat="43.29302" lon="2.42927">
        <ele>165.4</ele>
        <time>2026-06-20T10:16:26Z</time>
      </trkpt>
      <trkpt lat="43.29303" lon="2.42931">
        <ele>164.7</ele>
        <time>2026-06-20T10:16:27Z</time>
      </trkpt>
      <trkpt lat="43.29305" lon="2.42932">
        <ele>164.4</ele>
        <time>2026-06-20T10:16:28Z</time>
      </trkpt>
      <trkpt lat="43.2931" lon="2.4293">
        <ele>163.9</ele>
        <time>2026-06-20T10:16:29Z</time>
      </trkpt>
      <trkpt lat="43.29314" lon="2.4293">
        <ele>163.4</ele>
        <time>2026-06-20T10:16:30Z</time>
      </trkpt>
      <trkpt lat="43.29318" lon="2.42932">
        <ele>162.3</ele>
        <time>2026-06-20T10:16:31Z</time>
      </trkpt>
      <trkpt lat="43.29322" lon="2.42936">
        <ele>161.1</ele>
        <time>2026-06-20T10:16:32Z</time>
      </trkpt>
      <trkpt lat="43.29326" lon="2.42939">
        <ele>159.9</ele>
        <time>2026-06-20T10:16:33Z</time>
      </trkpt>
      <trkpt lat="43.2933" lon="2.42939">
        <ele>159.3</ele>
        <time>2026-06-20T10:16:34Z</time>
      </trkpt>
      <trkpt lat="43.29333" lon="2.42936">
        <ele>159.2</ele>
        <time>2026-06-20T10:16:35Z</time>
      </trkpt>
      <trkpt lat="43.2934" lon="2.42925">
        <ele>159.5</ele>
        <time>2026-06-20T10:16:37Z</time>
      </trkpt>
      <trkpt lat="43.29344" lon="2.4292">
        <ele>159.1</ele>
        <time>2026-06-20T10:16:38Z</time>
      </trkpt>
      <trkpt lat="43.29348" lon="2.42915">
        <ele>158.7</ele>
        <time>2026-06-20T10:16:39Z</time>
      </trkpt>
      <trkpt lat="43.29351" lon="2.42912">
        <ele>158.4</ele>
        <time>2026-06-20T10:16:40Z</time>
      </trkpt>
      <trkpt lat="43.29354" lon="2.4291">
        <ele>158</ele>
        <time>2026-06-20T10:16:41Z</time>
      </trkpt>
      <trkpt lat="43.2937" lon="2.4289">
        <ele>158.6</ele>
        <time>2026-06-20T10:16:42Z</time>
      </trkpt>
      <trkpt lat="43.29373" lon="2.42892">
        <ele>158.2</ele>
      </trkpt>
      <trkpt lat="43.29372" lon="2.42896">
        <ele>158</ele>
        <time>2026-06-20T10:16:43Z</time>
      </trkpt>
      <trkpt lat="43.2936" lon="2.42918">
        <ele>155.3</ele>
        <time>2026-06-20T10:16:44Z</time>
      </trkpt>
      <trkpt lat="43.29355" lon="2.42926">
        <ele>156.4</ele>
        <time>2026-06-20T10:16:45Z</time>
      </trkpt>
      <trkpt lat="43.29353" lon="2.42932">
        <ele>156.8</ele>
        <time>2026-06-20T10:16:47Z</time>
      </trkpt>
      <trkpt lat="43.2935" lon="2.42933">
        <ele>157.2</ele>
        <time>2026-06-20T10:16:48Z</time>
      </trkpt>
      <trkpt lat="43.29349" lon="2.42937">
        <ele>157.2</ele>
        <time>2026-06-20T10:16:49Z</time>
      </trkpt>
      <trkpt lat="43.29349" lon="2.4294">
        <ele>157.1</ele>
        <time>2026-06-20T10:16:50Z</time>
      </trkpt>
      <trkpt lat="43.2935" lon="2.42942">
        <ele>156.9</ele>
        <time>2026-06-20T10:16:51Z</time>
      </trkpt>
      <trkpt lat="43.29351" lon="2.42942">
        <ele>156.8</ele>
        <time>2026-06-20T10:16:52Z</time>
      </trkpt>
      <trkpt lat="43.29353" lon="2.42943">
        <ele>156.6</ele>
        <time>2026-06-20T10:16:53Z</time>
      </trkpt>
      <trkpt lat="43.29355" lon="2.42944">
        <ele>156.4</ele>
        <time>2026-06-20T10:16:54Z</time>
      </trkpt>
      <trkpt lat="43.29356" lon="2.42946">
        <ele>156.7</ele>
        <time>2026-06-20T10:16:55Z</time>
      </trkpt>
      <trkpt lat="43.29355" lon="2.42948">
        <ele>157</ele>
        <time>2026-06-20T10:16:56Z</time>
      </trkpt>
      <trkpt lat="43.29355" lon="2.4295">
        <ele>157.3</ele>
        <time>2026-06-20T10:16:57Z</time>
      </trkpt>
      <trkpt lat="43.29353" lon="2.42952">
        <ele>157.6</ele>
        <time>2026-06-20T10:16:58Z</time>
      </trkpt>
      <trkpt lat="43.29352" lon="2.42956">
        <ele>158</ele>
        <time>2026-06-20T10:16:59Z</time>
      </trkpt>
      <trkpt lat="43.2935" lon="2.4296">
        <ele>158.3</ele>
        <time>2026-06-20T10:17:00Z</time>
      </trkpt>
      <trkpt lat="43.29348" lon="2.42965">
        <ele>158.3</ele>
        <time>2026-06-20T10:17:01Z</time>
      </trkpt>
      <trkpt lat="43.29345" lon="2.42969">
        <ele>157.7</ele>
        <time>2026-06-20T10:17:02Z</time>
      </trkpt>
      <trkpt lat="43.29336" lon="2.42978">
        <ele>156</ele>
        <time>2026-06-20T10:17:04Z</time>
      </trkpt>
      <trkpt lat="43.29331" lon="2.42982">
        <ele>156.2</ele>
        <time>2026-06-20T10:17:05Z</time>
      </trkpt>
      <trkpt lat="43.29325" lon="2.42986">
        <ele>156.9</ele>
        <time>2026-06-20T10:17:06Z</time>
      </trkpt>
      <trkpt lat="43.29318" lon="2.42999">
        <ele>156.7</ele>
        <time>2026-06-20T10:17:08Z</time>
      </trkpt>
      <trkpt lat="43.29315" lon="2.43006">
        <ele>156.1</ele>
        <time>2026-06-20T10:17:09Z</time>
      </trkpt>
      <trkpt lat="43.29306" lon="2.43019">
        <ele>154.8</ele>
        <time>2026-06-20T10:17:11Z</time>
      </trkpt>
      <trkpt lat="43.29304" lon="2.43026">
        <ele>155</ele>
        <time>2026-06-20T10:17:12Z</time>
      </trkpt>
      <trkpt lat="43.29303" lon="2.43034">
        <ele>155.4</ele>
        <time>2026-06-20T10:17:13Z</time>
      </trkpt>
      <trkpt lat="43.29303" lon="2.43041">
        <ele>155.8</ele>
        <time>2026-06-20T10:17:14Z</time>
      </trkpt>
      <trkpt lat="43.29301" lon="2.43046">
        <ele>155.9</ele>
        <time>2026-06-20T10:17:15Z</time>
      </trkpt>
      <trkpt lat="43.29296" lon="2.43049">
        <ele>155.5</ele>
        <time>2026-06-20T10:17:16Z</time>
      </trkpt>
      <trkpt lat="43.29291" lon="2.43051">
        <ele>154.9</ele>
        <time>2026-06-20T10:17:17Z</time>
      </trkpt>
      <trkpt lat="43.29286" lon="2.43054">
        <ele>154.2</ele>
        <time>2026-06-20T10:17:18Z</time>
      </trkpt>
      <trkpt lat="43.29281" lon="2.43058">
        <ele>153.8</ele>
        <time>2026-06-20T10:17:19Z</time>
      </trkpt>
      <trkpt lat="43.29277" lon="2.43063">
        <ele>153.8</ele>
        <time>2026-06-20T10:17:20Z</time>
      </trkpt>
      <trkpt lat="43.2927" lon="2.43073">
        <ele>154.4</ele>
        <time>2026-06-20T10:17:22Z</time>
      </trkpt>
      <trkpt lat="43.29267" lon="2.43077">
        <ele>154.2</ele>
        <time>2026-06-20T10:17:23Z</time>
      </trkpt>
      <trkpt lat="43.29264" lon="2.43081">
        <ele>153.7</ele>
        <time>2026-06-20T10:17:24Z</time>
      </trkpt>
      <trkpt lat="43.29253" lon="2.43097">
        <ele>153.3</ele>
        <time>2026-06-20T10:17:27Z</time>
      </trkpt>
      <trkpt lat="43.2925" lon="2.43102">
        <ele>153.7</ele>
        <time>2026-06-20T10:17:28Z</time>
      </trkpt>
      <trkpt lat="43.29236" lon="2.43126">
        <ele>153.9</ele>
        <time>2026-06-20T10:17:32Z</time>
      </trkpt>
      <trkpt lat="43.29229" lon="2.4314">
        <ele>151.6</ele>
        <time>2026-06-20T10:17:34Z</time>
      </trkpt>
      <trkpt lat="43.29215" lon="2.43167">
        <ele>153.6</ele>
        <time>2026-06-20T10:17:38Z</time>
      </trkpt>
      <trkpt lat="43.2921" lon="2.43172">
        <ele>153</ele>
        <time>2026-06-20T10:17:39Z</time>
      </trkpt>
      <trkpt lat="43.29207" lon="2.43177">
        <ele>152.4</ele>
        <time>2026-06-20T10:17:40Z</time>
      </trkpt>
      <trkpt lat="43.29203" lon="2.43182">
        <ele>151.9</ele>
        <time>2026-06-20T10:17:41Z</time>
      </trkpt>
      <trkpt lat="43.29194" lon="2.43193">
        <ele>151</ele>
        <time>2026-06-20T10:17:43Z</time>
      </trkpt>
      <trkpt lat="43.29188" lon="2.43197">
        <ele>151.3</ele>
        <time>2026-06-20T10:17:44Z</time>
      </trkpt>
      <trkpt lat="43.29178" lon="2.43206">
        <ele>151.4</ele>
        <time>2026-06-20T10:17:46Z</time>
      </trkpt>
      <trkpt lat="43.29166" lon="2.43211">
        <ele>150.8</ele>
        <time>2026-06-20T10:17:48Z</time>
      </trkpt>
      <trkpt lat="43.29162" lon="2.43217">
        <ele>150.9</ele>
        <time>2026-06-20T10:17:49Z</time>
      </trkpt>
      <trkpt lat="43.2915" lon="2.43233">
        <ele>151.2</ele>
        <time>2026-06-20T10:17:52Z</time>
      </trkpt>
      <trkpt lat="43.29145" lon="2.43237">
        <ele>150.9</ele>
        <time>2026-06-20T10:17:53Z</time>
      </trkpt>
      <trkpt lat="43.29141" lon="2.43241">
        <ele>150.4</ele>
        <time>2026-06-20T10:17:54Z</time>
      </trkpt>
      <trkpt lat="43.29121" lon="2.43258">
        <ele>149.9</ele>
        <time>2026-06-20T10:17:58Z</time>
      </trkpt>
      <trkpt lat="43.29094" lon="2.43276">
        <ele>149.4</ele>
        <time>2026-06-20T10:18:03Z</time>
      </trkpt>
      <trkpt lat="43.29084" lon="2.43284">
        <ele>149.7</ele>
        <time>2026-06-20T10:18:05Z</time>
      </trkpt>
      <trkpt lat="43.29081" lon="2.43289">
        <ele>149.6</ele>
        <time>2026-06-20T10:18:06Z</time>
      </trkpt>
      <trkpt lat="43.2908" lon="2.43293">
        <ele>149.4</ele>
        <time>2026-06-20T10:18:07Z</time>
      </trkpt>
      <trkpt lat="43.29081" lon="2.43298">
        <ele>149.2</ele>
        <time>2026-06-20T10:18:08Z</time>
      </trkpt>
      <trkpt lat="43.29081" lon="2.43303">
        <ele>149</ele>
        <time>2026-06-20T10:18:09Z</time>
      </trkpt>
      <trkpt lat="43.2908" lon="2.43307">
        <ele>148.9</ele>
        <time>2026-06-20T10:18:10Z</time>
      </trkpt>
      <trkpt lat="43.29076" lon="2.4331">
        <ele>148.9</ele>
        <time>2026-06-20T10:18:11Z</time>
      </trkpt>
      <trkpt lat="43.29071" lon="2.43313">
        <ele>148.7</ele>
        <time>2026-06-20T10:18:12Z</time>
      </trkpt>
      <trkpt lat="43.29066" lon="2.43316">
        <ele>148.5</ele>
        <time>2026-06-20T10:18:13Z</time>
      </trkpt>
      <trkpt lat="43.2906" lon="2.43319">
        <ele>148.2</ele>
        <time>2026-06-20T10:18:14Z</time>
      </trkpt>
      <trkpt lat="43.29055" lon="2.43322">
        <ele>148</ele>
        <time>2026-06-20T10:18:15Z</time>
      </trkpt>
      <trkpt lat="43.29038" lon="2.43333">
        <ele>147.4</ele>
        <time>2026-06-20T10:18:18Z</time>
      </trkpt>
      <trkpt lat="43.29027" lon="2.43342">
        <ele>147.3</ele>
        <time>2026-06-20T10:18:20Z</time>
      </trkpt>
      <trkpt lat="43.29022" lon="2.43346">
        <ele>147.6</ele>
        <time>2026-06-20T10:18:21Z</time>
      </trkpt>
      <trkpt lat="43.29003" lon="2.43364">
        <ele>146.4</ele>
        <time>2026-06-20T10:18:25Z</time>
      </trkpt>
      <trkpt lat="43.28999" lon="2.43368">
        <ele>146.6</ele>
        <time>2026-06-20T10:18:26Z</time>
      </trkpt>
      <trkpt lat="43.28989" lon="2.43376">
        <ele>147.2</ele>
        <time>2026-06-20T10:18:28Z</time>
      </trkpt>
      <trkpt lat="43.2898" lon="2.43384">
        <ele>146.9</ele>
        <time>2026-06-20T10:18:30Z</time>
      </trkpt>
      <trkpt lat="43.28977" lon="2.43387">
        <ele>146.5</ele>
        <time>2026-06-20T10:18:31Z</time>
      </trkpt>
      <trkpt lat="43.28975" lon="2.43387">
        <ele>146.3</ele>
        <time>2026-06-20T10:18:32Z</time>
      </trkpt>
      <trkpt lat="43.28972" lon="2.43387">
        <ele>146.2</ele>
        <time>2026-06-20T10:18:33Z</time>
      </trkpt>
      <trkpt lat="43.2897" lon="2.43387">
        <ele>146.6</ele>
        <time>2026-06-20T10:18:34Z</time>
      </trkpt>
      <trkpt lat="43.28967" lon="2.43387">
        <ele>146.9</ele>
        <time>2026-06-20T10:18:35Z</time>
      </trkpt>
      <trkpt lat="43.28959" lon="2.43389">
        <ele>148</ele>
        <time>2026-06-20T10:18:38Z</time>
      </trkpt>
      <trkpt lat="43.28957" lon="2.43391">
        <ele>148.1</ele>
        <time>2026-06-20T10:18:39Z</time>
      </trkpt>
      <trkpt lat="43.28955" lon="2.43394">
        <ele>148.1</ele>
        <time>2026-06-20T10:18:40Z</time>
      </trkpt>
      <trkpt lat="43.28952" lon="2.43396">
        <ele>148.1</ele>
        <time>2026-06-20T10:18:41Z</time>
      </trkpt>
      <trkpt lat="43.28951" lon="2.43399">
        <ele>147.9</ele>
        <time>2026-06-20T10:18:42Z</time>
      </trkpt>
      <trkpt lat="43.2895" lon="2.43401">
        <ele>147.6</ele>
        <time>2026-06-20T10:18:43Z</time>
      </trkpt>
      <trkpt lat="43.28949" lon="2.43404">
        <ele>147.3</ele>
        <time>2026-06-20T10:18:44Z</time>
      </trkpt>
      <trkpt lat="43.28942" lon="2.43409">
        <ele>146.6</ele>
        <time>2026-06-20T10:18:46Z</time>
      </trkpt>
      <trkpt lat="43.28939" lon="2.43411">
        <ele>146.6</ele>
        <time>2026-06-20T10:18:47Z</time>
      </trkpt>
      <trkpt lat="43.28935" lon="2.43413">
        <ele>146.6</ele>
        <time>2026-06-20T10:18:48Z</time>
      </trkpt>
      <trkpt lat="43.28927" lon="2.43416">
        <ele>147</ele>
        <time>2026-06-20T10:18:50Z</time>
      </trkpt>
      <trkpt lat="43.28918" lon="2.43419">
        <ele>147.6</ele>
        <time>2026-06-20T10:18:52Z</time>
      </trkpt>
      <trkpt lat="43.28909" lon="2.43424">
        <ele>147.4</ele>
        <time>2026-06-20T10:18:54Z</time>
      </trkpt>
      <trkpt lat="43.28904" lon="2.43428">
        <ele>147.1</ele>
        <time>2026-06-20T10:18:55Z</time>
      </trkpt>
      <trkpt lat="43.28899" lon="2.4343">
        <ele>146.8</ele>
        <time>2026-06-20T10:18:56Z</time>
      </trkpt>
      <trkpt lat="43.28895" lon="2.43431">
        <ele>146.9</ele>
        <time>2026-06-20T10:18:57Z</time>
      </trkpt>
      <trkpt lat="43.28892" lon="2.4343">
        <ele>147</ele>
        <time>2026-06-20T10:18:58Z</time>
      </trkpt>
      <trkpt lat="43.2889" lon="2.43429">
        <ele>147.2</ele>
        <time>2026-06-20T10:18:59Z</time>
      </trkpt>
      <trkpt lat="43.28886" lon="2.4343">
        <ele>147.2</ele>
        <time>2026-06-20T10:19:00Z</time>
      </trkpt>
      <trkpt lat="43.28882" lon="2.43433">
        <ele>147.2</ele>
        <time>2026-06-20T10:19:01Z</time>
      </trkpt>
      <trkpt lat="43.28878" lon="2.43437">
        <ele>147.2</ele>
        <time>2026-06-20T10:19:02Z</time>
      </trkpt>
      <trkpt lat="43.28874" lon="2.43442">
        <ele>147.4</ele>
        <time>2026-06-20T10:19:03Z</time>
      </trkpt>
      <trkpt lat="43.28869" lon="2.43447">
        <ele>147.6</ele>
        <time>2026-06-20T10:19:04Z</time>
      </trkpt>
      <trkpt lat="43.28849" lon="2.43467">
        <ele>146.8</ele>
        <time>2026-06-20T10:19:08Z</time>
      </trkpt>
      <trkpt lat="43.28839" lon="2.43478">
        <ele>146.8</ele>
        <time>2026-06-20T10:19:10Z</time>
      </trkpt>
      <trkpt lat="43.28834" lon="2.43484">
        <ele>146.3</ele>
        <time>2026-06-20T10:19:11Z</time>
      </trkpt>
      <trkpt lat="43.2882" lon="2.43502">
        <ele>145.5</ele>
        <time>2026-06-20T10:19:14Z</time>
      </trkpt>
      <trkpt lat="43.28815" lon="2.4351">
        <ele>145.7</ele>
        <time>2026-06-20T10:19:15Z</time>
      </trkpt>
      <trkpt lat="43.28806" lon="2.43533">
        <ele>145.6</ele>
        <time>2026-06-20T10:19:18Z</time>
      </trkpt>
      <trkpt lat="43.28804" lon="2.43542">
        <ele>145</ele>
        <time>2026-06-20T10:19:19Z</time>
      </trkpt>
      <trkpt lat="43.28799" lon="2.4357">
        <ele>144.1</ele>
        <time>2026-06-20T10:19:22Z</time>
      </trkpt>
      <trkpt lat="43.28791" lon="2.43586">
        <ele>144</ele>
        <time>2026-06-20T10:19:24Z</time>
      </trkpt>
      <trkpt lat="43.28785" lon="2.43591">
        <ele>143.8</ele>
        <time>2026-06-20T10:19:25Z</time>
      </trkpt>
      <trkpt lat="43.28779" lon="2.43595">
        <ele>143.6</ele>
        <time>2026-06-20T10:19:26Z</time>
      </trkpt>
      <trkpt lat="43.28772" lon="2.43596">
        <ele>143.4</ele>
        <time>2026-06-20T10:19:27Z</time>
      </trkpt>
      <trkpt lat="43.28765" lon="2.43595">
        <ele>143.3</ele>
        <time>2026-06-20T10:19:28Z</time>
      </trkpt>
      <trkpt lat="43.28751" lon="2.43589">
        <ele>143</ele>
        <time>2026-06-20T10:19:30Z</time>
      </trkpt>
      <trkpt lat="43.28744" lon="2.43587">
        <ele>142.9</ele>
        <time>2026-06-20T10:19:31Z</time>
      </trkpt>
      <trkpt lat="43.28736" lon="2.43585">
        <ele>142.6</ele>
        <time>2026-06-20T10:19:32Z</time>
      </trkpt>
      <trkpt lat="43.28721" lon="2.43586">
        <ele>142.3</ele>
        <time>2026-06-20T10:19:34Z</time>
      </trkpt>
      <trkpt lat="43.28715" lon="2.43589">
        <ele>142.5</ele>
        <time>2026-06-20T10:19:35Z</time>
      </trkpt>
      <trkpt lat="43.28709" lon="2.43592">
        <ele>142.6</ele>
        <time>2026-06-20T10:19:36Z</time>
      </trkpt>
      <trkpt lat="43.28703" lon="2.43596">
        <ele>142.7</ele>
        <time>2026-06-20T10:19:37Z</time>
      </trkpt>
      <trkpt lat="43.28698" lon="2.436">
        <ele>142.7</ele>
        <time>2026-06-20T10:19:38Z</time>
      </trkpt>
      <trkpt lat="43.28693" lon="2.43604">
        <ele>142.7</ele>
        <time>2026-06-20T10:19:39Z</time>
      </trkpt>
      <trkpt lat="43.28688" lon="2.43608">
        <ele>142.6</ele>
        <time>2026-06-20T10:19:40Z</time>
      </trkpt>
      <trkpt lat="43.28671" lon="2.4362">
        <ele>142.8</ele>
        <time>2026-06-20T10:19:43Z</time>
      </trkpt>
      <trkpt lat="43.28666" lon="2.43623">
        <ele>142.8</ele>
        <time>2026-06-20T10:19:44Z</time>
      </trkpt>
      <trkpt lat="43.28661" lon="2.43623">
        <ele>142.3</ele>
        <time>2026-06-20T10:19:45Z</time>
      </trkpt>
      <trkpt lat="43.28656" lon="2.43617">
        <ele>141.5</ele>
        <time>2026-06-20T10:19:46Z</time>
      </trkpt>
      <trkpt lat="43.2865" lon="2.43602">
        <ele>141.3</ele>
        <time>2026-06-20T10:19:48Z</time>
      </trkpt>
      <trkpt lat="43.28648" lon="2.43594">
        <ele>141.7</ele>
        <time>2026-06-20T10:19:49Z</time>
      </trkpt>
      <trkpt lat="43.28647" lon="2.43585">
        <ele>142.3</ele>
        <time>2026-06-20T10:19:50Z</time>
      </trkpt>
      <trkpt lat="43.28645" lon="2.43577">
        <ele>142.9</ele>
        <time>2026-06-20T10:19:51Z</time>
      </trkpt>
      <trkpt lat="43.28644" lon="2.43569">
        <ele>143.3</ele>
        <time>2026-06-20T10:19:52Z</time>
      </trkpt>
      <trkpt lat="43.28643" lon="2.43561">
        <ele>143.7</ele>
        <time>2026-06-20T10:19:53Z</time>
      </trkpt>
      <trkpt lat="43.28642" lon="2.43554">
        <ele>144</ele>
        <time>2026-06-20T10:19:54Z</time>
      </trkpt>
      <trkpt lat="43.28641" lon="2.43546">
        <ele>144</ele>
        <time>2026-06-20T10:19:55Z</time>
      </trkpt>
      <trkpt lat="43.28639" lon="2.43531">
        <ele>144</ele>
        <time>2026-06-20T10:19:57Z</time>
      </trkpt>
      <trkpt lat="43.28638" lon="2.43524">
        <ele>144.3</ele>
        <time>2026-06-20T10:19:58Z</time>
      </trkpt>
      <trkpt lat="43.28636" lon="2.43519">
        <ele>144.8</ele>
        <time>2026-06-20T10:19:59Z</time>
      </trkpt>
      <trkpt lat="43.28633" lon="2.43517">
        <ele>145.1</ele>
        <time>2026-06-20T10:20:00Z</time>
      </trkpt>
      <trkpt lat="43.28631" lon="2.4352">
        <ele>145.1</ele>
        <time>2026-06-20T10:20:01Z</time>
      </trkpt>
      <trkpt lat="43.28628" lon="2.43525">
        <ele>144.9</ele>
        <time>2026-06-20T10:20:02Z</time>
      </trkpt>
      <trkpt lat="43.28629" lon="2.43531">
        <ele>144.7</ele>
        <time>2026-06-20T10:20:03Z</time>
      </trkpt>
      <trkpt lat="43.28634" lon="2.43547">
        <ele>144.3</ele>
        <time>2026-06-20T10:20:05Z</time>
      </trkpt>
      <trkpt lat="43.28635" lon="2.43555">
        <ele>144.1</ele>
        <time>2026-06-20T10:20:06Z</time>
      </trkpt>
      <trkpt lat="43.28637" lon="2.43564">
        <ele>143.8</ele>
        <time>2026-06-20T10:20:07Z</time>
      </trkpt>
      <trkpt lat="43.28639" lon="2.43573">
        <ele>143.4</ele>
        <time>2026-06-20T10:20:08Z</time>
      </trkpt>
      <trkpt lat="43.28639" lon="2.43592">
        <ele>142</ele>
        <time>2026-06-20T10:20:10Z</time>
      </trkpt>
      <trkpt lat="43.28637" lon="2.43602">
        <ele>141.1</ele>
        <time>2026-06-20T10:20:11Z</time>
      </trkpt>
      <trkpt lat="43.28634" lon="2.43612">
        <ele>140.6</ele>
        <time>2026-06-20T10:20:12Z</time>
      </trkpt>
      <trkpt lat="43.2863" lon="2.43621">
        <ele>140.8</ele>
        <time>2026-06-20T10:20:13Z</time>
      </trkpt>
      <trkpt lat="43.28625" lon="2.43629">
        <ele>140.8</ele>
        <time>2026-06-20T10:20:14Z</time>
      </trkpt>
      <trkpt lat="43.28621" lon="2.43638">
        <ele>140.7</ele>
        <time>2026-06-20T10:20:15Z</time>
      </trkpt>
      <trkpt lat="43.28616" lon="2.43646">
        <ele>140.5</ele>
        <time>2026-06-20T10:20:16Z</time>
      </trkpt>
      <trkpt lat="43.28612" lon="2.43654">
        <ele>139.9</ele>
        <time>2026-06-20T10:20:17Z</time>
      </trkpt>
      <trkpt lat="43.28602" lon="2.43668">
        <ele>140</ele>
        <time>2026-06-20T10:20:19Z</time>
      </trkpt>
      <trkpt lat="43.28597" lon="2.43674">
        <ele>140.6</ele>
        <time>2026-06-20T10:20:20Z</time>
      </trkpt>
      <trkpt lat="43.28593" lon="2.4368">
        <ele>141</ele>
        <time>2026-06-20T10:20:21Z</time>
      </trkpt>
      <trkpt lat="43.28588" lon="2.43685">
        <ele>141.2</ele>
        <time>2026-06-20T10:20:22Z</time>
      </trkpt>
      <trkpt lat="43.28583" lon="2.43691">
        <ele>141.2</ele>
        <time>2026-06-20T10:20:23Z</time>
      </trkpt>
      <trkpt lat="43.2858" lon="2.43696">
        <ele>141.2</ele>
        <time>2026-06-20T10:20:24Z</time>
      </trkpt>
      <trkpt lat="43.28577" lon="2.43702">
        <ele>141</ele>
        <time>2026-06-20T10:20:25Z</time>
      </trkpt>
      <trkpt lat="43.28576" lon="2.43708">
        <ele>140.7</ele>
        <time>2026-06-20T10:20:26Z</time>
      </trkpt>
      <trkpt lat="43.28574" lon="2.43715">
        <ele>140.4</ele>
        <time>2026-06-20T10:20:27Z</time>
      </trkpt>
      <trkpt lat="43.28573" lon="2.43721">
        <ele>140.2</ele>
        <time>2026-06-20T10:20:28Z</time>
      </trkpt>
      <trkpt lat="43.28571" lon="2.43727">
        <ele>140.2</ele>
        <time>2026-06-20T10:20:29Z</time>
      </trkpt>
      <trkpt lat="43.2857" lon="2.43732">
        <ele>140.1</ele>
        <time>2026-06-20T10:20:30Z</time>
      </trkpt>
      <trkpt lat="43.2857" lon="2.43737">
        <ele>140</ele>
        <time>2026-06-20T10:20:31Z</time>
      </trkpt>
      <trkpt lat="43.28568" lon="2.43742">
        <ele>139.8</ele>
        <time>2026-06-20T10:20:32Z</time>
      </trkpt>
      <trkpt lat="43.28562" lon="2.43754">
        <ele>139.1</ele>
        <time>2026-06-20T10:20:34Z</time>
      </trkpt>
      <trkpt lat="43.2855" lon="2.43783">
        <ele>139.1</ele>
        <time>2026-06-20T10:20:38Z</time>
      </trkpt>
      <trkpt lat="43.28548" lon="2.43791">
        <ele>139.5</ele>
        <time>2026-06-20T10:20:39Z</time>
      </trkpt>
      <trkpt lat="43.28546" lon="2.43799">
        <ele>139.9</ele>
        <time>2026-06-20T10:20:40Z</time>
      </trkpt>
      <trkpt lat="43.28544" lon="2.43807">
        <ele>140.2</ele>
        <time>2026-06-20T10:20:41Z</time>
      </trkpt>
      <trkpt lat="43.28534" lon="2.43839">
        <ele>139.3</ele>
        <time>2026-06-20T10:20:45Z</time>
      </trkpt>
      <trkpt lat="43.28526" lon="2.43862">
        <ele>137.3</ele>
        <time>2026-06-20T10:20:48Z</time>
      </trkpt>
      <trkpt lat="43.28523" lon="2.43869">
        <ele>138.1</ele>
        <time>2026-06-20T10:20:49Z</time>
      </trkpt>
      <trkpt lat="43.28513" lon="2.43878">
        <ele>138.5</ele>
        <time>2026-06-20T10:20:51Z</time>
      </trkpt>
      <trkpt lat="43.28508" lon="2.43882">
        <ele>138.2</ele>
        <time>2026-06-20T10:20:52Z</time>
      </trkpt>
      <trkpt lat="43.28502" lon="2.43885">
        <ele>137.6</ele>
        <time>2026-06-20T10:20:53Z</time>
      </trkpt>
      <trkpt lat="43.28493" lon="2.43889">
        <ele>136.7</ele>
        <time>2026-06-20T10:20:55Z</time>
      </trkpt>
      <trkpt lat="43.28488" lon="2.4389">
        <ele>136.7</ele>
        <time>2026-06-20T10:20:56Z</time>
      </trkpt>
      <trkpt lat="43.28483" lon="2.4389">
        <ele>136.5</ele>
        <time>2026-06-20T10:20:57Z</time>
      </trkpt>
      <trkpt lat="43.28478" lon="2.4389">
        <ele>136.3</ele>
        <time>2026-06-20T10:20:58Z</time>
      </trkpt>
      <trkpt lat="43.28473" lon="2.43889">
        <ele>136.1</ele>
        <time>2026-06-20T10:20:59Z</time>
      </trkpt>
      <trkpt lat="43.2844" lon="2.4388">
        <ele>137.7</ele>
        <time>2026-06-20T10:21:05Z</time>
      </trkpt>
      <trkpt lat="43.28435" lon="2.43878">
        <ele>137.7</ele>
        <time>2026-06-20T10:21:06Z</time>
      </trkpt>
      <trkpt lat="43.2843" lon="2.43877">
        <ele>137.7</ele>
        <time>2026-06-20T10:21:07Z</time>
      </trkpt>
      <trkpt lat="43.2841" lon="2.43867">
        <ele>136.9</ele>
        <time>2026-06-20T10:21:11Z</time>
      </trkpt>
      <trkpt lat="43.28406" lon="2.43862">
        <ele>136.6</ele>
        <time>2026-06-20T10:21:12Z</time>
      </trkpt>
      <trkpt lat="43.28401" lon="2.43858">
        <ele>136.8</ele>
        <time>2026-06-20T10:21:13Z</time>
      </trkpt>
      <trkpt lat="43.28397" lon="2.43854">
        <ele>137.1</ele>
        <time>2026-06-20T10:21:14Z</time>
      </trkpt>
      <trkpt lat="43.28393" lon="2.43851">
        <ele>137.3</ele>
        <time>2026-06-20T10:21:15Z</time>
      </trkpt>
      <trkpt lat="43.28391" lon="2.43852">
        <ele>137</ele>
        <time>2026-06-20T10:21:16Z</time>
      </trkpt>
      <trkpt lat="43.28389" lon="2.43855">
        <ele>136.7</ele>
        <time>2026-06-20T10:21:17Z</time>
      </trkpt>
      <trkpt lat="43.28388" lon="2.43858">
        <ele>136.3</ele>
        <time>2026-06-20T10:21:18Z</time>
      </trkpt>
      <trkpt lat="43.28389" lon="2.43862">
        <ele>136</ele>
        <time>2026-06-20T10:21:19Z</time>
      </trkpt>
      <trkpt lat="43.28395" lon="2.43875">
        <ele>136.3</ele>
        <time>2026-06-20T10:21:22Z</time>
      </trkpt>
      <trkpt lat="43.28398" lon="2.43879">
        <ele>136.5</ele>
        <time>2026-06-20T10:21:23Z</time>
      </trkpt>
      <trkpt lat="43.28402" lon="2.43889">
        <ele>136.9</ele>
        <time>2026-06-20T10:21:25Z</time>
      </trkpt>
      <trkpt lat="43.28402" lon="2.43895">
        <ele>137.1</ele>
        <time>2026-06-20T10:21:26Z</time>
      </trkpt>
      <trkpt lat="43.28402" lon="2.43901">
        <ele>137.2</ele>
        <time>2026-06-20T10:21:27Z</time>
      </trkpt>
      <trkpt lat="43.28401" lon="2.43908">
        <ele>137.2</ele>
        <time>2026-06-20T10:21:28Z</time>
      </trkpt>
      <trkpt lat="43.284" lon="2.43914">
        <ele>137.3</ele>
        <time>2026-06-20T10:21:29Z</time>
      </trkpt>
      <trkpt lat="43.28399" lon="2.43926">
        <ele>137.4</ele>
        <time>2026-06-20T10:21:31Z</time>
      </trkpt>
      <trkpt lat="43.28397" lon="2.4394">
        <ele>137.3</ele>
        <time>2026-06-20T10:21:33Z</time>
      </trkpt>
      <trkpt lat="43.28395" lon="2.43947">
        <ele>137.3</ele>
        <time>2026-06-20T10:21:34Z</time>
      </trkpt>
      <trkpt lat="43.28393" lon="2.43962">
        <ele>137.7</ele>
        <time>2026-06-20T10:21:36Z</time>
      </trkpt>
      <trkpt lat="43.28392" lon="2.4397">
        <ele>137.9</ele>
        <time>2026-06-20T10:21:37Z</time>
      </trkpt>
      <trkpt lat="43.28393" lon="2.43977">
        <ele>138</ele>
        <time>2026-06-20T10:21:38Z</time>
      </trkpt>
      <trkpt lat="43.28395" lon="2.43984">
        <ele>138.1</ele>
        <time>2026-06-20T10:21:39Z</time>
      </trkpt>
      <trkpt lat="43.28398" lon="2.43991">
        <ele>138.2</ele>
        <time>2026-06-20T10:21:40Z</time>
      </trkpt>
      <trkpt lat="43.284" lon="2.43998">
        <ele>138.4</ele>
        <time>2026-06-20T10:21:41Z</time>
      </trkpt>
      <trkpt lat="43.284" lon="2.44002">
        <ele>138.4</ele>
        <time>2026-06-20T10:21:42Z</time>
      </trkpt>
      <trkpt lat="43.28399" lon="2.44006">
        <ele>138.4</ele>
        <time>2026-06-20T10:21:43Z</time>
      </trkpt>
      <trkpt lat="43.28397" lon="2.44009">
        <ele>138.4</ele>
        <time>2026-06-20T10:21:44Z</time>
      </trkpt>
      <trkpt lat="43.28392" lon="2.44013">
        <ele>138.5</ele>
        <time>2026-06-20T10:21:45Z</time>
      </trkpt>
      <trkpt lat="43.28388" lon="2.44017">
        <ele>138.6</ele>
        <time>2026-06-20T10:21:46Z</time>
      </trkpt>
      <trkpt lat="43.28385" lon="2.44023">
        <ele>138.8</ele>
        <time>2026-06-20T10:21:47Z</time>
      </trkpt>
      <trkpt lat="43.28384" lon="2.44028">
        <ele>138.8</ele>
        <time>2026-06-20T10:21:48Z</time>
      </trkpt>
      <trkpt lat="43.28383" lon="2.44034">
        <ele>138.5</ele>
        <time>2026-06-20T10:21:49Z</time>
      </trkpt>
      <trkpt lat="43.2838" lon="2.4404">
        <ele>138.2</ele>
        <time>2026-06-20T10:21:50Z</time>
      </trkpt>
      <trkpt lat="43.28376" lon="2.44051">
        <ele>137.7</ele>
        <time>2026-06-20T10:21:52Z</time>
      </trkpt>
      <trkpt lat="43.28375" lon="2.44056">
        <ele>137.5</ele>
        <time>2026-06-20T10:21:53Z</time>
      </trkpt>
      <trkpt lat="43.28377" lon="2.44061">
        <ele>137.6</ele>
        <time>2026-06-20T10:21:54Z</time>
      </trkpt>
      <trkpt lat="43.2838" lon="2.44066">
        <ele>137.7</ele>
        <time>2026-06-20T10:21:55Z</time>
      </trkpt>
      <trkpt lat="43.2839" lon="2.44069">
        <ele>138</ele>
        <time>2026-06-20T10:21:57Z</time>
      </trkpt>
      <trkpt lat="43.28403" lon="2.44068">
        <ele>138</ele>
        <time>2026-06-20T10:21:59Z</time>
      </trkpt>
      <trkpt lat="43.28409" lon="2.44065">
        <ele>138</ele>
        <time>2026-06-20T10:22:00Z</time>
      </trkpt>
      <trkpt lat="43.28413" lon="2.44061">
        <ele>138</ele>
        <time>2026-06-20T10:22:01Z</time>
      </trkpt>
      <trkpt lat="43.28417" lon="2.44056">
        <ele>138</ele>
        <time>2026-06-20T10:22:02Z</time>
      </trkpt>
      <trkpt lat="43.28421" lon="2.44049">
        <ele>138.1</ele>
        <time>2026-06-20T10:22:03Z</time>
      </trkpt>
      <trkpt lat="43.28425" lon="2.44041">
        <ele>138.1</ele>
        <time>2026-06-20T10:22:04Z</time>
      </trkpt>
      <trkpt lat="43.28427" lon="2.44033">
        <ele>138.1</ele>
        <time>2026-06-20T10:22:05Z</time>
      </trkpt>
      <trkpt lat="43.28429" lon="2.44025">
        <ele>138</ele>
        <time>2026-06-20T10:22:06Z</time>
      </trkpt>
      <trkpt lat="43.28434" lon="2.4401">
        <ele>137.9</ele>
        <time>2026-06-20T10:22:08Z</time>
      </trkpt>
      <trkpt lat="43.28436" lon="2.44004">
        <ele>137.6</ele>
        <time>2026-06-20T10:22:09Z</time>
      </trkpt>
      <trkpt lat="43.28438" lon="2.43999">
        <ele>137.4</ele>
        <time>2026-06-20T10:22:10Z</time>
      </trkpt>
      <trkpt lat="43.2844" lon="2.43995">
        <ele>137.3</ele>
        <time>2026-06-20T10:22:11Z</time>
      </trkpt>
      <trkpt lat="43.2844" lon="2.43991">
        <ele>137.3</ele>
        <time>2026-06-20T10:22:12Z</time>
      </trkpt>
      <trkpt lat="43.28441" lon="2.43989">
        <ele>137.2</ele>
        <time>2026-06-20T10:22:13Z</time>
      </trkpt>
      <trkpt lat="43.28442" lon="2.43987">
        <ele>137.2</ele>
        <time>2026-06-20T10:22:14Z</time>
      </trkpt>
      <trkpt lat="43.28442" lon="2.43987">
        <ele>137.1</ele>
        <time>2026-06-20T10:22:15Z</time>
      </trkpt>
      <trkpt lat="43.28442" lon="2.43987">
        <ele>137.1</ele>
        <time>2026-06-20T10:22:17Z</time>
      </trkpt>
      <trkpt lat="43.28448" lon="2.43979">
        <ele>137.3</ele>
        <time>2026-06-20T10:22:41Z</time>
      </trkpt>
      <trkpt lat="43.28449" lon="2.43976">
        <ele>137.3</ele>
        <time>2026-06-20T10:22:42Z</time>
      </trkpt>
      <trkpt lat="43.28446" lon="2.43971">
        <ele>137.1</ele>
        <time>2026-06-20T10:22:44Z</time>
      </trkpt>
      <trkpt lat="43.28444" lon="2.43971">
        <ele>137.1</ele>
        <time>2026-06-20T10:22:45Z</time>
      </trkpt>
      <trkpt lat="43.28443" lon="2.43971">
        <ele>137.1</ele>
        <time>2026-06-20T10:22:46Z</time>
      </trkpt>
      <trkpt lat="43.28441" lon="2.43971">
        <ele>137.2</ele>
        <time>2026-06-20T10:22:47Z</time>
      </trkpt>
      <trkpt lat="43.28441" lon="2.43971">
        <ele>137.2</ele>
        <time>2026-06-20T10:22:49Z</time>
      </trkpt>
    </trkseg>
  </trk>
</gpx>